<?xml version="1.0" encoding="UTF-8" standalone="no" ?>
<gpx xmlns="http://www.topografix.com/GPX/1/1" xmlns:xsi="http://www.w3.org/2001/XMLSchema-instance" xsi:schemaLocation="http://www.topografix.com/GPX/1/1 http://www.topografix.com/GPX/1/1/gpx.xsd" version="1.1" creator="VisuGPX - https://www.visugpx.com">
  <metadata>
    <name>Edirne-Mostar</name>
  </metadata>
  <trk>
    <name><![CDATA[Tour d'Europe: étape 668]]></name>
    <extensions>
      <line xmlns="http://www.topografix.com/GPX/gpx_style/0/2">
        <color>00FF00</color>
        <width>4</width>
      </line>
    </extensions>
    <trkseg>
      <trkpt lat="41.51496" lon="20.53273">
        <ele>709.729914</ele>
        <time>2022-04-27T08:26:40.761Z</time>
      </trkpt>
      <trkpt lat="41.51607" lon="20.53324">
        <ele>712.454487</ele>
        <time>2022-04-27T08:36:02.769Z</time>
      </trkpt>
      <trkpt lat="41.51611" lon="20.53313">
        <ele>713.401359</ele>
        <time>2022-04-27T08:36:07.772Z</time>
      </trkpt>
      <trkpt lat="41.51615" lon="20.53301">
        <ele>714.364886</ele>
        <time>2022-04-27T08:36:14.752Z</time>
      </trkpt>
      <trkpt lat="41.51618" lon="20.5329">
        <ele>715.256189</ele>
        <time>2022-04-27T08:36:20.765Z</time>
      </trkpt>
      <trkpt lat="41.51622" lon="20.53278">
        <ele>716.194913</ele>
        <time>2022-04-27T08:36:25.753Z</time>
      </trkpt>
      <trkpt lat="41.51625" lon="20.53266">
        <ele>717.137881</ele>
        <time>2022-04-27T08:36:30.750Z</time>
      </trkpt>
      <trkpt lat="41.51629" lon="20.53254">
        <ele>718.130724</ele>
        <time>2022-04-27T08:36:36.766Z</time>
      </trkpt>
      <trkpt lat="41.51634" lon="20.53241">
        <ele>719.154725</ele>
        <time>2022-04-27T08:36:43.764Z</time>
      </trkpt>
      <trkpt lat="41.51637" lon="20.53228">
        <ele>720.187289</ele>
        <time>2022-04-27T08:36:50.753Z</time>
      </trkpt>
      <trkpt lat="41.5164" lon="20.53217">
        <ele>721.101743</ele>
        <time>2022-04-27T08:36:56.773Z</time>
      </trkpt>
      <trkpt lat="41.51644" lon="20.53205">
        <ele>722.027178</ele>
        <time>2022-04-27T08:37:01.751Z</time>
      </trkpt>
      <trkpt lat="41.51648" lon="20.53193">
        <ele>723.059402</ele>
        <time>2022-04-27T08:37:06.775Z</time>
      </trkpt>
      <trkpt lat="41.51654" lon="20.5318">
        <ele>724.124427</ele>
        <time>2022-04-27T08:37:11.764Z</time>
      </trkpt>
      <trkpt lat="41.51658" lon="20.5317">
        <ele>725.032679</ele>
        <time>2022-04-27T08:37:16.770Z</time>
      </trkpt>
      <trkpt lat="41.51665" lon="20.53157">
        <ele>726.177023</ele>
        <time>2022-04-27T08:37:20.772Z</time>
      </trkpt>
      <trkpt lat="41.51671" lon="20.53143">
        <ele>727.351767</ele>
        <time>2022-04-27T08:37:24.795Z</time>
      </trkpt>
      <trkpt lat="41.51678" lon="20.53132">
        <ele>727.393998</ele>
        <time>2022-04-27T08:37:28.774Z</time>
      </trkpt>
      <trkpt lat="41.51685" lon="20.53123">
        <ele>727.218281</ele>
        <time>2022-04-27T08:37:31.781Z</time>
      </trkpt>
      <trkpt lat="41.51692" lon="20.53113">
        <ele>727.011492</ele>
        <time>2022-04-27T08:37:34.774Z</time>
      </trkpt>
      <trkpt lat="41.51699" lon="20.53103">
        <ele>726.81626</ele>
        <time>2022-04-27T08:37:37.760Z</time>
      </trkpt>
      <trkpt lat="41.51706" lon="20.53094">
        <ele>726.63046</ele>
        <time>2022-04-27T08:37:40.817Z</time>
      </trkpt>
      <trkpt lat="41.51715" lon="20.53086">
        <ele>726.4284</ele>
        <time>2022-04-27T08:37:43.789Z</time>
      </trkpt>
      <trkpt lat="41.51723" lon="20.53076">
        <ele>726.222029</ele>
        <time>2022-04-27T08:37:46.780Z</time>
      </trkpt>
      <trkpt lat="41.51732" lon="20.53067">
        <ele>726.014105</ele>
        <time>2022-04-27T08:37:49.785Z</time>
      </trkpt>
      <trkpt lat="41.51739" lon="20.5306">
        <ele>725.84117</ele>
        <time>2022-04-27T08:37:51.780Z</time>
      </trkpt>
      <trkpt lat="41.51747" lon="20.53053">
        <ele>725.662882</ele>
        <time>2022-04-27T08:37:53.783Z</time>
      </trkpt>
      <trkpt lat="41.51756" lon="20.53046">
        <ele>725.460398</ele>
        <time>2022-04-27T08:37:55.772Z</time>
      </trkpt>
      <trkpt lat="41.51765" lon="20.5304">
        <ele>725.272916</ele>
        <time>2022-04-27T08:37:57.768Z</time>
      </trkpt>
      <trkpt lat="41.51773" lon="20.53036">
        <ele>725.098806</ele>
        <time>2022-04-27T08:37:59.768Z</time>
      </trkpt>
      <trkpt lat="41.51783" lon="20.53029">
        <ele>724.894492</ele>
        <time>2022-04-27T08:38:01.856Z</time>
      </trkpt>
      <trkpt lat="41.51792" lon="20.53024">
        <ele>724.707614</ele>
        <time>2022-04-27T08:38:03.800Z</time>
      </trkpt>
      <trkpt lat="41.51801" lon="20.5302">
        <ele>724.524103</ele>
        <time>2022-04-27T08:38:05.785Z</time>
      </trkpt>
      <trkpt lat="41.5181" lon="20.53017">
        <ele>724.350671</ele>
        <time>2022-04-27T08:38:07.808Z</time>
      </trkpt>
      <trkpt lat="41.51819" lon="20.53013">
        <ele>724.173043</ele>
        <time>2022-04-27T08:38:09.750Z</time>
      </trkpt>
      <trkpt lat="41.51828" lon="20.53009">
        <ele>723.772118</ele>
        <time>2022-04-27T08:38:11.758Z</time>
      </trkpt>
      <trkpt lat="41.51837" lon="20.53005">
        <ele>723.325922</ele>
        <time>2022-04-27T08:38:13.757Z</time>
      </trkpt>
      <trkpt lat="41.51848" lon="20.53">
        <ele>722.767955</ele>
        <time>2022-04-27T08:38:16.801Z</time>
      </trkpt>
      <trkpt lat="41.5186" lon="20.52995">
        <ele>722.168681</ele>
        <time>2022-04-27T08:38:19.777Z</time>
      </trkpt>
      <trkpt lat="41.51871" lon="20.52989">
        <ele>721.624273</ele>
        <time>2022-04-27T08:38:22.799Z</time>
      </trkpt>
      <trkpt lat="41.51881" lon="20.52984">
        <ele>721.119627</ele>
        <time>2022-04-27T08:38:25.812Z</time>
      </trkpt>
      <trkpt lat="41.51889" lon="20.52979">
        <ele>720.671491</ele>
        <time>2022-04-27T08:38:27.778Z</time>
      </trkpt>
      <trkpt lat="41.51899" lon="20.52975">
        <ele>720.213125</ele>
        <time>2022-04-27T08:38:29.774Z</time>
      </trkpt>
      <trkpt lat="41.51908" lon="20.52971">
        <ele>719.763631</ele>
        <time>2022-04-27T08:38:31.801Z</time>
      </trkpt>
      <trkpt lat="41.51917" lon="20.52965">
        <ele>719.296761</ele>
        <time>2022-04-27T08:38:33.770Z</time>
      </trkpt>
      <trkpt lat="41.51922" lon="20.52954">
        <ele>718.854535</ele>
        <time>2022-04-27T08:38:35.769Z</time>
      </trkpt>
      <trkpt lat="41.51923" lon="20.5294">
        <ele>718.347569</ele>
        <time>2022-04-27T08:38:37.763Z</time>
      </trkpt>
      <trkpt lat="41.51921" lon="20.52925">
        <ele>717.815851</ele>
        <time>2022-04-27T08:38:39.781Z</time>
      </trkpt>
      <trkpt lat="41.5192" lon="20.5291">
        <ele>717.277638</ele>
        <time>2022-04-27T08:38:41.771Z</time>
      </trkpt>
      <trkpt lat="41.5192" lon="20.52896">
        <ele>716.782896</ele>
        <time>2022-04-27T08:38:43.780Z</time>
      </trkpt>
      <trkpt lat="41.5192" lon="20.52882">
        <ele>716.292155</ele>
        <time>2022-04-27T08:38:45.802Z</time>
      </trkpt>
      <trkpt lat="41.5192" lon="20.52868">
        <ele>715.805012</ele>
        <time>2022-04-27T08:38:47.811Z</time>
      </trkpt>
      <trkpt lat="41.51921" lon="20.52854">
        <ele>715.224431</ele>
        <time>2022-04-27T08:38:49.789Z</time>
      </trkpt>
      <trkpt lat="41.51921" lon="20.52838">
        <ele>714.572756</ele>
        <time>2022-04-27T08:38:51.794Z</time>
      </trkpt>
      <trkpt lat="41.51921" lon="20.52821">
        <ele>713.896308</ele>
        <time>2022-04-27T08:38:53.765Z</time>
      </trkpt>
      <trkpt lat="41.51921" lon="20.52804">
        <ele>713.204099</ele>
        <time>2022-04-27T08:38:55.760Z</time>
      </trkpt>
      <trkpt lat="41.51921" lon="20.52786">
        <ele>712.486966</ele>
        <time>2022-04-27T08:38:57.777Z</time>
      </trkpt>
      <trkpt lat="41.51921" lon="20.52768">
        <ele>711.745838</ele>
        <time>2022-04-27T08:38:59.780Z</time>
      </trkpt>
      <trkpt lat="41.5192" lon="20.5275">
        <ele>711.016925</ele>
        <time>2022-04-27T08:39:01.773Z</time>
      </trkpt>
      <trkpt lat="41.5192" lon="20.52733">
        <ele>710.296215</ele>
        <time>2022-04-27T08:39:03.771Z</time>
      </trkpt>
      <trkpt lat="41.5192" lon="20.52714">
        <ele>709.555087</ele>
        <time>2022-04-27T08:39:05.770Z</time>
      </trkpt>
      <trkpt lat="41.5192" lon="20.52696">
        <ele>708.797733</ele>
        <time>2022-04-27T08:39:07.775Z</time>
      </trkpt>
      <trkpt lat="41.5192" lon="20.52677">
        <ele>708.028183</ele>
        <time>2022-04-27T08:39:09.767Z</time>
      </trkpt>
      <trkpt lat="41.51921" lon="20.52659">
        <ele>707.306489</ele>
        <time>2022-04-27T08:39:11.779Z</time>
      </trkpt>
      <trkpt lat="41.51921" lon="20.52643">
        <ele>706.654451</ele>
        <time>2022-04-27T08:39:13.768Z</time>
      </trkpt>
      <trkpt lat="41.51922" lon="20.52628">
        <ele>706.023128</ele>
        <time>2022-04-27T08:39:15.758Z</time>
      </trkpt>
      <trkpt lat="41.51922" lon="20.52611">
        <ele>705.274271</ele>
        <time>2022-04-27T08:39:17.762Z</time>
      </trkpt>
      <trkpt lat="41.51922" lon="20.52595">
        <ele>704.550703</ele>
        <time>2022-04-27T08:39:19.770Z</time>
      </trkpt>
      <trkpt lat="41.51923" lon="20.52579">
        <ele>703.831453</ele>
        <time>2022-04-27T08:39:21.808Z</time>
      </trkpt>
      <trkpt lat="41.51922" lon="20.52562">
        <ele>703.08068</ele>
        <time>2022-04-27T08:39:23.786Z</time>
      </trkpt>
      <trkpt lat="41.51922" lon="20.52546">
        <ele>702.325095</ele>
        <time>2022-04-27T08:39:25.783Z</time>
      </trkpt>
      <trkpt lat="41.51922" lon="20.52528">
        <ele>701.54239</ele>
        <time>2022-04-27T08:39:27.777Z</time>
      </trkpt>
      <trkpt lat="41.51921" lon="20.52511">
        <ele>700.767948</ele>
        <time>2022-04-27T08:39:29.768Z</time>
      </trkpt>
      <trkpt lat="41.5192" lon="20.52494">
        <ele>699.98026</ele>
        <time>2022-04-27T08:39:31.794Z</time>
      </trkpt>
      <trkpt lat="41.5192" lon="20.52477">
        <ele>699.197719</ele>
        <time>2022-04-27T08:39:33.767Z</time>
      </trkpt>
      <trkpt lat="41.5192" lon="20.52459">
        <ele>698.424337</ele>
        <time>2022-04-27T08:39:35.771Z</time>
      </trkpt>
      <trkpt lat="41.51921" lon="20.52442">
        <ele>697.650461</ele>
        <time>2022-04-27T08:39:37.760Z</time>
      </trkpt>
      <trkpt lat="41.51921" lon="20.52426">
        <ele>696.913128</ele>
        <time>2022-04-27T08:39:39.786Z</time>
      </trkpt>
      <trkpt lat="41.51918" lon="20.52411">
        <ele>696.193532</ele>
        <time>2022-04-27T08:39:41.787Z</time>
      </trkpt>
      <trkpt lat="41.51911" lon="20.52399">
        <ele>695.541459</ele>
        <time>2022-04-27T08:39:43.810Z</time>
      </trkpt>
      <trkpt lat="41.51902" lon="20.52394">
        <ele>695.003756</ele>
        <time>2022-04-27T08:39:45.780Z</time>
      </trkpt>
      <trkpt lat="41.51894" lon="20.52389">
        <ele>694.929602</ele>
        <time>2022-04-27T08:39:47.780Z</time>
      </trkpt>
      <trkpt lat="41.51884" lon="20.52379">
        <ele>694.831267</ele>
        <time>2022-04-27T08:39:50.774Z</time>
      </trkpt>
      <trkpt lat="41.51876" lon="20.52368">
        <ele>694.739032</ele>
        <time>2022-04-27T08:39:53.762Z</time>
      </trkpt>
      <trkpt lat="41.51868" lon="20.52358">
        <ele>694.650975</ele>
        <time>2022-04-27T08:39:56.779Z</time>
      </trkpt>
      <trkpt lat="41.51858" lon="20.52347">
        <ele>694.550716</ele>
        <time>2022-04-27T08:39:59.765Z</time>
      </trkpt>
      <trkpt lat="41.51851" lon="20.52339">
        <ele>694.471681</ele>
        <time>2022-04-27T08:40:01.776Z</time>
      </trkpt>
      <trkpt lat="41.51843" lon="20.52331">
        <ele>694.393165</ele>
        <time>2022-04-27T08:40:03.777Z</time>
      </trkpt>
      <trkpt lat="41.51836" lon="20.52323">
        <ele>694.316654</ele>
        <time>2022-04-27T08:40:05.775Z</time>
      </trkpt>
      <trkpt lat="41.51828" lon="20.52315">
        <ele>694.237993</ele>
        <time>2022-04-27T08:40:07.788Z</time>
      </trkpt>
      <trkpt lat="41.5182" lon="20.52306">
        <ele>694.157551</ele>
        <time>2022-04-27T08:40:09.784Z</time>
      </trkpt>
      <trkpt lat="41.51812" lon="20.52297">
        <ele>694.073014</ele>
        <time>2022-04-27T08:40:11.784Z</time>
      </trkpt>
      <trkpt lat="41.51804" lon="20.52289">
        <ele>693.989724</ele>
        <time>2022-04-27T08:40:13.753Z</time>
      </trkpt>
      <trkpt lat="41.51796" lon="20.5228">
        <ele>693.907053</ele>
        <time>2022-04-27T08:40:15.774Z</time>
      </trkpt>
      <trkpt lat="41.51789" lon="20.52271">
        <ele>693.825999</ele>
        <time>2022-04-27T08:40:17.803Z</time>
      </trkpt>
      <trkpt lat="41.51781" lon="20.52263">
        <ele>693.74834</ele>
        <time>2022-04-27T08:40:19.781Z</time>
      </trkpt>
      <trkpt lat="41.51774" lon="20.52255">
        <ele>693.675842</ele>
        <time>2022-04-27T08:40:21.790Z</time>
      </trkpt>
      <trkpt lat="41.51764" lon="20.52244">
        <ele>693.572186</ele>
        <time>2022-04-27T08:40:24.761Z</time>
      </trkpt>
      <trkpt lat="41.51755" lon="20.52234">
        <ele>693.610991</ele>
        <time>2022-04-27T08:40:27.789Z</time>
      </trkpt>
      <trkpt lat="41.51747" lon="20.52223">
        <ele>693.654869</ele>
        <time>2022-04-27T08:40:30.787Z</time>
      </trkpt>
      <trkpt lat="41.51738" lon="20.52213">
        <ele>693.699594</ele>
        <time>2022-04-27T08:40:33.775Z</time>
      </trkpt>
      <trkpt lat="41.51729" lon="20.52203">
        <ele>693.742776</ele>
        <time>2022-04-27T08:40:36.766Z</time>
      </trkpt>
      <trkpt lat="41.51719" lon="20.52193">
        <ele>693.791414</ele>
        <time>2022-04-27T08:40:39.765Z</time>
      </trkpt>
      <trkpt lat="41.51709" lon="20.52182">
        <ele>693.839211</ele>
        <time>2022-04-27T08:40:42.773Z</time>
      </trkpt>
      <trkpt lat="41.517" lon="20.52172">
        <ele>693.885263</ele>
        <time>2022-04-27T08:40:45.767Z</time>
      </trkpt>
      <trkpt lat="41.5169" lon="20.52161">
        <ele>693.934839</ele>
        <time>2022-04-27T08:40:48.766Z</time>
      </trkpt>
      <trkpt lat="41.51683" lon="20.52153">
        <ele>693.969471</ele>
        <time>2022-04-27T08:40:50.773Z</time>
      </trkpt>
      <trkpt lat="41.51676" lon="20.52144">
        <ele>694.004195</ele>
        <time>2022-04-27T08:40:52.766Z</time>
      </trkpt>
      <trkpt lat="41.51669" lon="20.52136">
        <ele>694.038258</ele>
        <time>2022-04-27T08:40:54.778Z</time>
      </trkpt>
      <trkpt lat="41.51662" lon="20.52128">
        <ele>694.07289</ele>
        <time>2022-04-27T08:40:56.820Z</time>
      </trkpt>
      <trkpt lat="41.51653" lon="20.52117">
        <ele>694.121296</ele>
        <time>2022-04-27T08:40:59.778Z</time>
      </trkpt>
      <trkpt lat="41.51643" lon="20.52106">
        <ele>694.168109</ele>
        <time>2022-04-27T08:41:02.811Z</time>
      </trkpt>
      <trkpt lat="41.51633" lon="20.52095">
        <ele>694.219358</ele>
        <time>2022-04-27T08:41:05.771Z</time>
      </trkpt>
      <trkpt lat="41.51626" lon="20.52086">
        <ele>694.236562</ele>
        <time>2022-04-27T08:41:07.783Z</time>
      </trkpt>
      <trkpt lat="41.51618" lon="20.52077">
        <ele>694.164016</ele>
        <time>2022-04-27T08:41:09.784Z</time>
      </trkpt>
      <trkpt lat="41.51611" lon="20.52067">
        <ele>694.090237</ele>
        <time>2022-04-27T08:41:11.770Z</time>
      </trkpt>
      <trkpt lat="41.51603" lon="20.52057">
        <ele>694.017329</ele>
        <time>2022-04-27T08:41:13.786Z</time>
      </trkpt>
      <trkpt lat="41.51596" lon="20.52048">
        <ele>693.949396</ele>
        <time>2022-04-27T08:41:15.785Z</time>
      </trkpt>
      <trkpt lat="41.51589" lon="20.52038">
        <ele>693.876256</ele>
        <time>2022-04-27T08:41:17.774Z</time>
      </trkpt>
      <trkpt lat="41.51581" lon="20.52028">
        <ele>693.799502</ele>
        <time>2022-04-27T08:41:19.784Z</time>
      </trkpt>
      <trkpt lat="41.51573" lon="20.52018">
        <ele>693.722888</ele>
        <time>2022-04-27T08:41:21.768Z</time>
      </trkpt>
      <trkpt lat="41.51567" lon="20.52008">
        <ele>693.653923</ele>
        <time>2022-04-27T08:41:23.783Z</time>
      </trkpt>
      <trkpt lat="41.5156" lon="20.51999">
        <ele>693.585723</ele>
        <time>2022-04-27T08:41:25.748Z</time>
      </trkpt>
      <trkpt lat="41.51553" lon="20.5199">
        <ele>693.519269</ele>
        <time>2022-04-27T08:41:27.803Z</time>
      </trkpt>
      <trkpt lat="41.51546" lon="20.51982">
        <ele>693.45405</ele>
        <time>2022-04-27T08:41:29.765Z</time>
      </trkpt>
      <trkpt lat="41.51539" lon="20.51973">
        <ele>693.388877</ele>
        <time>2022-04-27T08:41:31.771Z</time>
      </trkpt>
      <trkpt lat="41.5153" lon="20.51961">
        <ele>693.295874</ele>
        <time>2022-04-27T08:41:34.773Z</time>
      </trkpt>
      <trkpt lat="41.5152" lon="20.51949">
        <ele>693.203619</ele>
        <time>2022-04-27T08:41:37.776Z</time>
      </trkpt>
      <trkpt lat="41.51511" lon="20.51939">
        <ele>693.117469</ele>
        <time>2022-04-27T08:41:41.179Z</time>
      </trkpt>
      <trkpt lat="41.51502" lon="20.51929">
        <ele>693.035502</ele>
        <time>2022-04-27T08:41:43.787Z</time>
      </trkpt>
      <trkpt lat="41.51495" lon="20.5192">
        <ele>692.970681</ele>
        <time>2022-04-27T08:41:46.765Z</time>
      </trkpt>
      <trkpt lat="41.51486" lon="20.51908">
        <ele>692.889332</ele>
        <time>2022-04-27T08:41:49.801Z</time>
      </trkpt>
      <trkpt lat="41.51476" lon="20.51896">
        <ele>692.806242</ele>
        <time>2022-04-27T08:41:52.777Z</time>
      </trkpt>
      <trkpt lat="41.51467" lon="20.51885">
        <ele>692.727158</ele>
        <time>2022-04-27T08:41:55.754Z</time>
      </trkpt>
      <trkpt lat="41.51459" lon="20.51874">
        <ele>692.65299</ele>
        <time>2022-04-27T08:41:58.820Z</time>
      </trkpt>
      <trkpt lat="41.5145" lon="20.51862">
        <ele>692.575022</ele>
        <time>2022-04-27T08:42:01.785Z</time>
      </trkpt>
      <trkpt lat="41.51443" lon="20.51853">
        <ele>692.513485</ele>
        <time>2022-04-27T08:42:03.784Z</time>
      </trkpt>
      <trkpt lat="41.51436" lon="20.51843">
        <ele>692.445922</ele>
        <time>2022-04-27T08:42:05.760Z</time>
      </trkpt>
      <trkpt lat="41.51428" lon="20.51833">
        <ele>692.379538</ele>
        <time>2022-04-27T08:42:07.768Z</time>
      </trkpt>
      <trkpt lat="41.5142" lon="20.51824">
        <ele>692.312045</ele>
        <time>2022-04-27T08:42:09.769Z</time>
      </trkpt>
      <trkpt lat="41.51412" lon="20.51814">
        <ele>692.243698</ele>
        <time>2022-04-27T08:42:11.802Z</time>
      </trkpt>
      <trkpt lat="41.51404" lon="20.51803">
        <ele>692.171999</ele>
        <time>2022-04-27T08:42:13.784Z</time>
      </trkpt>
      <trkpt lat="41.51396" lon="20.51792">
        <ele>692.095477</ele>
        <time>2022-04-27T08:42:15.773Z</time>
      </trkpt>
      <trkpt lat="41.51386" lon="20.5178">
        <ele>692.015856</ele>
        <time>2022-04-27T08:42:17.769Z</time>
      </trkpt>
      <trkpt lat="41.51377" lon="20.51769">
        <ele>691.934161</ele>
        <time>2022-04-27T08:42:19.759Z</time>
      </trkpt>
      <trkpt lat="41.51367" lon="20.51757">
        <ele>691.851354</ele>
        <time>2022-04-27T08:42:21.768Z</time>
      </trkpt>
      <trkpt lat="41.51357" lon="20.51744">
        <ele>691.50899</ele>
        <time>2022-04-27T08:42:23.765Z</time>
      </trkpt>
      <trkpt lat="41.51347" lon="20.51732">
        <ele>691.155848</ele>
        <time>2022-04-27T08:42:25.781Z</time>
      </trkpt>
      <trkpt lat="41.51337" lon="20.5172">
        <ele>690.79873</ele>
        <time>2022-04-27T08:42:27.768Z</time>
      </trkpt>
      <trkpt lat="41.51327" lon="20.51707">
        <ele>690.427326</ele>
        <time>2022-04-27T08:42:29.783Z</time>
      </trkpt>
      <trkpt lat="41.51317" lon="20.51694">
        <ele>690.076382</ele>
        <time>2022-04-27T08:42:31.789Z</time>
      </trkpt>
      <trkpt lat="41.51308" lon="20.51681">
        <ele>689.718981</ele>
        <time>2022-04-27T08:42:33.804Z</time>
      </trkpt>
      <trkpt lat="41.51298" lon="20.5167">
        <ele>689.386457</ele>
        <time>2022-04-27T08:42:35.765Z</time>
      </trkpt>
      <trkpt lat="41.51289" lon="20.5166">
        <ele>689.0747</ele>
        <time>2022-04-27T08:42:37.788Z</time>
      </trkpt>
      <trkpt lat="41.51279" lon="20.51651">
        <ele>688.769422</ele>
        <time>2022-04-27T08:42:39.763Z</time>
      </trkpt>
      <trkpt lat="41.51271" lon="20.51642">
        <ele>688.492686</ele>
        <time>2022-04-27T08:42:41.777Z</time>
      </trkpt>
      <trkpt lat="41.51263" lon="20.51634">
        <ele>688.234584</ele>
        <time>2022-04-27T08:42:43.792Z</time>
      </trkpt>
      <trkpt lat="41.51255" lon="20.51627">
        <ele>687.994977</ele>
        <time>2022-04-27T08:42:45.785Z</time>
      </trkpt>
      <trkpt lat="41.51244" lon="20.51618">
        <ele>687.656406</ele>
        <time>2022-04-27T08:42:48.768Z</time>
      </trkpt>
      <trkpt lat="41.51234" lon="20.51609">
        <ele>687.3214</ele>
        <time>2022-04-27T08:42:51.765Z</time>
      </trkpt>
      <trkpt lat="41.51224" lon="20.516">
        <ele>687.091656</ele>
        <time>2022-04-27T08:42:54.775Z</time>
      </trkpt>
      <trkpt lat="41.51215" lon="20.51591">
        <ele>686.950046</ele>
        <time>2022-04-27T08:42:57.777Z</time>
      </trkpt>
      <trkpt lat="41.51206" lon="20.51583">
        <ele>686.807401</ele>
        <time>2022-04-27T08:43:00.781Z</time>
      </trkpt>
      <trkpt lat="41.51196" lon="20.51574">
        <ele>686.658428</ele>
        <time>2022-04-27T08:43:03.764Z</time>
      </trkpt>
      <trkpt lat="41.51186" lon="20.51565">
        <ele>686.503135</ele>
        <time>2022-04-27T08:43:06.766Z</time>
      </trkpt>
      <trkpt lat="41.51175" lon="20.51556">
        <ele>686.345218</ele>
        <time>2022-04-27T08:43:09.784Z</time>
      </trkpt>
      <trkpt lat="41.51165" lon="20.51547">
        <ele>686.192572</ele>
        <time>2022-04-27T08:43:12.812Z</time>
      </trkpt>
      <trkpt lat="41.51155" lon="20.51538">
        <ele>686.036215</ele>
        <time>2022-04-27T08:43:15.774Z</time>
      </trkpt>
      <trkpt lat="41.51144" lon="20.51528">
        <ele>685.873569</ele>
        <time>2022-04-27T08:43:18.801Z</time>
      </trkpt>
      <trkpt lat="41.51133" lon="20.51519">
        <ele>685.70723</ele>
        <time>2022-04-27T08:43:21.781Z</time>
      </trkpt>
      <trkpt lat="41.51126" lon="20.51512">
        <ele>685.591431</ele>
        <time>2022-04-27T08:43:23.778Z</time>
      </trkpt>
      <trkpt lat="41.51118" lon="20.51505">
        <ele>685.471391</ele>
        <time>2022-04-27T08:43:25.779Z</time>
      </trkpt>
      <trkpt lat="41.51109" lon="20.51498">
        <ele>685.343902</ele>
        <time>2022-04-27T08:43:27.777Z</time>
      </trkpt>
      <trkpt lat="41.51101" lon="20.51491">
        <ele>685.215996</ele>
        <time>2022-04-27T08:43:29.788Z</time>
      </trkpt>
      <trkpt lat="41.51092" lon="20.51483">
        <ele>685.082286</ele>
        <time>2022-04-27T08:43:31.781Z</time>
      </trkpt>
      <trkpt lat="41.51084" lon="20.51475">
        <ele>684.955424</ele>
        <time>2022-04-27T08:43:33.761Z</time>
      </trkpt>
      <trkpt lat="41.51075" lon="20.51468">
        <ele>684.734524</ele>
        <time>2022-04-27T08:43:35.815Z</time>
      </trkpt>
      <trkpt lat="41.51066" lon="20.5146">
        <ele>684.390487</ele>
        <time>2022-04-27T08:43:37.776Z</time>
      </trkpt>
      <trkpt lat="41.51058" lon="20.51452">
        <ele>684.062621</ele>
        <time>2022-04-27T08:43:39.775Z</time>
      </trkpt>
      <trkpt lat="41.51049" lon="20.51444">
        <ele>683.71172</ele>
        <time>2022-04-27T08:43:41.785Z</time>
      </trkpt>
      <trkpt lat="41.51041" lon="20.51436">
        <ele>683.367617</ele>
        <time>2022-04-27T08:43:43.752Z</time>
      </trkpt>
      <trkpt lat="41.51033" lon="20.51428">
        <ele>683.038004</ele>
        <time>2022-04-27T08:43:45.806Z</time>
      </trkpt>
      <trkpt lat="41.51025" lon="20.51419">
        <ele>682.696724</ele>
        <time>2022-04-27T08:43:47.781Z</time>
      </trkpt>
      <trkpt lat="41.51017" lon="20.51411">
        <ele>682.365574</ele>
        <time>2022-04-27T08:43:49.780Z</time>
      </trkpt>
      <trkpt lat="41.5101" lon="20.51401">
        <ele>682.038404</ele>
        <time>2022-04-27T08:43:51.763Z</time>
      </trkpt>
      <trkpt lat="41.51003" lon="20.51392">
        <ele>681.717004</ele>
        <time>2022-04-27T08:43:53.767Z</time>
      </trkpt>
      <trkpt lat="41.50995" lon="20.51384">
        <ele>681.396538</ele>
        <time>2022-04-27T08:43:55.771Z</time>
      </trkpt>
      <trkpt lat="41.50988" lon="20.51375">
        <ele>681.065387</ele>
        <time>2022-04-27T08:43:57.779Z</time>
      </trkpt>
      <trkpt lat="41.5098" lon="20.51366">
        <ele>680.733515</ele>
        <time>2022-04-27T08:43:59.797Z</time>
      </trkpt>
      <trkpt lat="41.50973" lon="20.51357">
        <ele>680.413388</ele>
        <time>2022-04-27T08:44:01.773Z</time>
      </trkpt>
      <trkpt lat="41.50966" lon="20.51347">
        <ele>680.067158</ele>
        <time>2022-04-27T08:44:03.773Z</time>
      </trkpt>
      <trkpt lat="41.50958" lon="20.51338">
        <ele>679.731133</ele>
        <time>2022-04-27T08:44:05.788Z</time>
      </trkpt>
      <trkpt lat="41.50951" lon="20.51328">
        <ele>679.392409</ele>
        <time>2022-04-27T08:44:07.814Z</time>
      </trkpt>
      <trkpt lat="41.50943" lon="20.51318">
        <ele>679.048505</ele>
        <time>2022-04-27T08:44:09.761Z</time>
      </trkpt>
      <trkpt lat="41.50936" lon="20.51308">
        <ele>678.996485</ele>
        <time>2022-04-27T08:44:11.769Z</time>
      </trkpt>
      <trkpt lat="41.50928" lon="20.51298">
        <ele>679.021817</ele>
        <time>2022-04-27T08:44:13.823Z</time>
      </trkpt>
      <trkpt lat="41.50921" lon="20.51288">
        <ele>679.046496</ele>
        <time>2022-04-27T08:44:15.765Z</time>
      </trkpt>
      <trkpt lat="41.50914" lon="20.51278">
        <ele>679.070882</ele>
        <time>2022-04-27T08:44:17.774Z</time>
      </trkpt>
      <trkpt lat="41.50908" lon="20.51268">
        <ele>679.095269</ele>
        <time>2022-04-27T08:44:19.796Z</time>
      </trkpt>
      <trkpt lat="41.50901" lon="20.51257">
        <ele>679.119471</ele>
        <time>2022-04-27T08:44:21.788Z</time>
      </trkpt>
      <trkpt lat="41.50895" lon="20.51247">
        <ele>679.143193</ele>
        <time>2022-04-27T08:44:23.774Z</time>
      </trkpt>
      <trkpt lat="41.50888" lon="20.51236">
        <ele>679.167467</ele>
        <time>2022-04-27T08:44:25.795Z</time>
      </trkpt>
      <trkpt lat="41.50882" lon="20.51226">
        <ele>679.192094</ele>
        <time>2022-04-27T08:44:27.772Z</time>
      </trkpt>
      <trkpt lat="41.50875" lon="20.51215">
        <ele>679.216855</ele>
        <time>2022-04-27T08:44:29.769Z</time>
      </trkpt>
      <trkpt lat="41.50868" lon="20.51205">
        <ele>679.240729</ele>
        <time>2022-04-27T08:44:31.777Z</time>
      </trkpt>
      <trkpt lat="41.50861" lon="20.51194">
        <ele>679.266342</ele>
        <time>2022-04-27T08:44:33.766Z</time>
      </trkpt>
      <trkpt lat="41.50854" lon="20.51183">
        <ele>679.292963</ele>
        <time>2022-04-27T08:44:35.780Z</time>
      </trkpt>
      <trkpt lat="41.50847" lon="20.51173">
        <ele>679.31813</ele>
        <time>2022-04-27T08:44:37.759Z</time>
      </trkpt>
      <trkpt lat="41.50839" lon="20.51162">
        <ele>679.344534</ele>
        <time>2022-04-27T08:44:39.778Z</time>
      </trkpt>
      <trkpt lat="41.50831" lon="20.5115">
        <ele>679.372565</ele>
        <time>2022-04-27T08:44:41.781Z</time>
      </trkpt>
      <trkpt lat="41.50823" lon="20.51138">
        <ele>679.401066</ele>
        <time>2022-04-27T08:44:43.764Z</time>
      </trkpt>
      <trkpt lat="41.50815" lon="20.51126">
        <ele>679.292345</ele>
        <time>2022-04-27T08:44:45.767Z</time>
      </trkpt>
      <trkpt lat="41.50807" lon="20.51113">
        <ele>679.158395</ele>
        <time>2022-04-27T08:44:47.781Z</time>
      </trkpt>
      <trkpt lat="41.508" lon="20.51099">
        <ele>679.021375</ele>
        <time>2022-04-27T08:44:49.758Z</time>
      </trkpt>
      <trkpt lat="41.50791" lon="20.51086">
        <ele>678.881609</ele>
        <time>2022-04-27T08:44:51.771Z</time>
      </trkpt>
      <trkpt lat="41.50782" lon="20.51072">
        <ele>678.74116</ele>
        <time>2022-04-27T08:44:53.801Z</time>
      </trkpt>
      <trkpt lat="41.50774" lon="20.51059">
        <ele>678.601999</ele>
        <time>2022-04-27T08:44:55.765Z</time>
      </trkpt>
      <trkpt lat="41.50766" lon="20.51045">
        <ele>678.461818</ele>
        <time>2022-04-27T08:44:57.767Z</time>
      </trkpt>
      <trkpt lat="41.50757" lon="20.5103">
        <ele>678.315272</ele>
        <time>2022-04-27T08:44:59.785Z</time>
      </trkpt>
      <trkpt lat="41.5075" lon="20.51015">
        <ele>678.168601</ele>
        <time>2022-04-27T08:45:01.780Z</time>
      </trkpt>
      <trkpt lat="41.50742" lon="20.51">
        <ele>678.023889</ele>
        <time>2022-04-27T08:45:03.775Z</time>
      </trkpt>
      <trkpt lat="41.50735" lon="20.50983">
        <ele>677.873385</ele>
        <time>2022-04-27T08:45:05.764Z</time>
      </trkpt>
      <trkpt lat="41.50728" lon="20.50967">
        <ele>677.724486</ele>
        <time>2022-04-27T08:45:07.768Z</time>
      </trkpt>
      <trkpt lat="41.50721" lon="20.50951">
        <ele>677.578527</ele>
        <time>2022-04-27T08:45:09.775Z</time>
      </trkpt>
      <trkpt lat="41.50714" lon="20.50935">
        <ele>677.508203</ele>
        <time>2022-04-27T08:45:11.763Z</time>
      </trkpt>
      <trkpt lat="41.50708" lon="20.50919">
        <ele>677.521971</ele>
        <time>2022-04-27T08:45:13.781Z</time>
      </trkpt>
      <trkpt lat="41.50703" lon="20.50904">
        <ele>677.535201</ele>
        <time>2022-04-27T08:45:15.810Z</time>
      </trkpt>
      <trkpt lat="41.50698" lon="20.5089">
        <ele>677.547656</ele>
        <time>2022-04-27T08:45:17.769Z</time>
      </trkpt>
      <trkpt lat="41.50691" lon="20.50877">
        <ele>677.560168</ele>
        <time>2022-04-27T08:45:19.778Z</time>
      </trkpt>
      <trkpt lat="41.50684" lon="20.50864">
        <ele>677.572519</ele>
        <time>2022-04-27T08:45:21.783Z</time>
      </trkpt>
      <trkpt lat="41.50679" lon="20.50851">
        <ele>677.584869</ele>
        <time>2022-04-27T08:45:23.781Z</time>
      </trkpt>
      <trkpt lat="41.50673" lon="20.50837">
        <ele>677.597188</ele>
        <time>2022-04-27T08:45:25.780Z</time>
      </trkpt>
      <trkpt lat="41.50667" lon="20.50825">
        <ele>677.608961</ele>
        <time>2022-04-27T08:45:27.761Z</time>
      </trkpt>
      <trkpt lat="41.5066" lon="20.50813">
        <ele>677.620583</ele>
        <time>2022-04-27T08:45:29.768Z</time>
      </trkpt>
      <trkpt lat="41.50654" lon="20.50802">
        <ele>677.631511</ele>
        <time>2022-04-27T08:45:31.777Z</time>
      </trkpt>
      <trkpt lat="41.50647" lon="20.50791">
        <ele>677.642207</ele>
        <time>2022-04-27T08:45:33.781Z</time>
      </trkpt>
      <trkpt lat="41.5064" lon="20.50781">
        <ele>677.653008</ele>
        <time>2022-04-27T08:45:35.776Z</time>
      </trkpt>
      <trkpt lat="41.50633" lon="20.50772">
        <ele>677.663543</ele>
        <time>2022-04-27T08:45:37.781Z</time>
      </trkpt>
      <trkpt lat="41.50626" lon="20.50763">
        <ele>677.674059</ele>
        <time>2022-04-27T08:45:39.774Z</time>
      </trkpt>
      <trkpt lat="41.50619" lon="20.50754">
        <ele>677.683951</ele>
        <time>2022-04-27T08:45:41.778Z</time>
      </trkpt>
      <trkpt lat="41.50612" lon="20.50745">
        <ele>677.560888</ele>
        <time>2022-04-27T08:45:43.845Z</time>
      </trkpt>
      <trkpt lat="41.50604" lon="20.50737">
        <ele>677.17172</ele>
        <time>2022-04-27T08:45:45.753Z</time>
      </trkpt>
      <trkpt lat="41.50596" lon="20.50729">
        <ele>676.813353</ele>
        <time>2022-04-27T08:45:47.751Z</time>
      </trkpt>
      <trkpt lat="41.50589" lon="20.50722">
        <ele>676.452589</ele>
        <time>2022-04-27T08:45:49.798Z</time>
      </trkpt>
      <trkpt lat="41.50582" lon="20.50715">
        <ele>676.097266</ele>
        <time>2022-04-27T08:45:51.782Z</time>
      </trkpt>
      <trkpt lat="41.5057" lon="20.50704">
        <ele>675.573956</ele>
        <time>2022-04-27T08:45:54.771Z</time>
      </trkpt>
      <trkpt lat="41.5056" lon="20.50695">
        <ele>675.073174</ele>
        <time>2022-04-27T08:45:57.777Z</time>
      </trkpt>
      <trkpt lat="41.50549" lon="20.50686">
        <ele>674.596288</ele>
        <time>2022-04-27T08:46:00.772Z</time>
      </trkpt>
      <trkpt lat="41.50539" lon="20.50679">
        <ele>674.147454</ele>
        <time>2022-04-27T08:46:03.775Z</time>
      </trkpt>
      <trkpt lat="41.50528" lon="20.50671">
        <ele>673.679599</ele>
        <time>2022-04-27T08:46:06.773Z</time>
      </trkpt>
      <trkpt lat="41.50516" lon="20.50664">
        <ele>673.176114</ele>
        <time>2022-04-27T08:46:09.780Z</time>
      </trkpt>
      <trkpt lat="41.50504" lon="20.50657">
        <ele>672.661821</ele>
        <time>2022-04-27T08:46:12.825Z</time>
      </trkpt>
      <trkpt lat="41.50496" lon="20.50653">
        <ele>672.311116</ele>
        <time>2022-04-27T08:46:14.791Z</time>
      </trkpt>
      <trkpt lat="41.50487" lon="20.5065">
        <ele>671.960167</ele>
        <time>2022-04-27T08:46:16.781Z</time>
      </trkpt>
      <trkpt lat="41.50478" lon="20.50647">
        <ele>671.593536</ele>
        <time>2022-04-27T08:46:18.788Z</time>
      </trkpt>
      <trkpt lat="41.50469" lon="20.50643">
        <ele>671.236354</ele>
        <time>2022-04-27T08:46:20.779Z</time>
      </trkpt>
      <trkpt lat="41.5046" lon="20.5064">
        <ele>670.877226</ele>
        <time>2022-04-27T08:46:22.789Z</time>
      </trkpt>
      <trkpt lat="41.50451" lon="20.50637">
        <ele>670.682898</ele>
        <time>2022-04-27T08:46:24.778Z</time>
      </trkpt>
      <trkpt lat="41.50442" lon="20.50634">
        <ele>670.603583</ele>
        <time>2022-04-27T08:46:26.772Z</time>
      </trkpt>
      <trkpt lat="41.50432" lon="20.50632">
        <ele>670.522618</ele>
        <time>2022-04-27T08:46:28.777Z</time>
      </trkpt>
      <trkpt lat="41.50423" lon="20.5063">
        <ele>670.442234</ele>
        <time>2022-04-27T08:46:30.784Z</time>
      </trkpt>
      <trkpt lat="41.50414" lon="20.50628">
        <ele>670.362975</ele>
        <time>2022-04-27T08:46:32.781Z</time>
      </trkpt>
      <trkpt lat="41.504" lon="20.50627">
        <ele>670.248095</ele>
        <time>2022-04-27T08:46:35.775Z</time>
      </trkpt>
      <trkpt lat="41.5039" lon="20.50626">
        <ele>670.162759</ele>
        <time>2022-04-27T08:46:37.790Z</time>
      </trkpt>
      <trkpt lat="41.5038" lon="20.50625">
        <ele>670.077488</ele>
        <time>2022-04-27T08:46:39.796Z</time>
      </trkpt>
      <trkpt lat="41.5037" lon="20.50625">
        <ele>669.994794</ele>
        <time>2022-04-27T08:46:41.806Z</time>
      </trkpt>
      <trkpt lat="41.5036" lon="20.50625">
        <ele>669.911256</ele>
        <time>2022-04-27T08:46:43.755Z</time>
      </trkpt>
      <trkpt lat="41.5035" lon="20.50626">
        <ele>669.826854</ele>
        <time>2022-04-27T08:46:45.765Z</time>
      </trkpt>
      <trkpt lat="41.50339" lon="20.50626">
        <ele>669.73318</ele>
        <time>2022-04-27T08:46:47.780Z</time>
      </trkpt>
      <trkpt lat="41.50328" lon="20.50626">
        <ele>669.637873</ele>
        <time>2022-04-27T08:46:49.790Z</time>
      </trkpt>
      <trkpt lat="41.50316" lon="20.50626">
        <ele>669.535786</ele>
        <time>2022-04-27T08:46:51.818Z</time>
      </trkpt>
      <trkpt lat="41.50303" lon="20.50625">
        <ele>669.42858</ele>
        <time>2022-04-27T08:46:53.775Z</time>
      </trkpt>
      <trkpt lat="41.5029" lon="20.50624">
        <ele>669.315164</ele>
        <time>2022-04-27T08:46:55.784Z</time>
      </trkpt>
      <trkpt lat="41.50275" lon="20.50622">
        <ele>669.111125</ele>
        <time>2022-04-27T08:46:57.793Z</time>
      </trkpt>
      <trkpt lat="41.50261" lon="20.50617">
        <ele>668.43374</ele>
        <time>2022-04-27T08:46:59.780Z</time>
      </trkpt>
      <trkpt lat="41.50246" lon="20.50609">
        <ele>667.730445</ele>
        <time>2022-04-27T08:47:01.779Z</time>
      </trkpt>
      <trkpt lat="41.50233" lon="20.50597">
        <ele>667.001952</ele>
        <time>2022-04-27T08:47:03.805Z</time>
      </trkpt>
      <trkpt lat="41.50221" lon="20.50582">
        <ele>666.235528</ele>
        <time>2022-04-27T08:47:05.769Z</time>
      </trkpt>
      <trkpt lat="41.50208" lon="20.50564">
        <ele>665.426994</ele>
        <time>2022-04-27T08:47:07.778Z</time>
      </trkpt>
      <trkpt lat="41.50196" lon="20.50548">
        <ele>664.641091</ele>
        <time>2022-04-27T08:47:09.782Z</time>
      </trkpt>
      <trkpt lat="41.50184" lon="20.50533">
        <ele>663.89715</ele>
        <time>2022-04-27T08:47:11.769Z</time>
      </trkpt>
      <trkpt lat="41.5017" lon="20.5052">
        <ele>663.119734</ele>
        <time>2022-04-27T08:47:13.806Z</time>
      </trkpt>
      <trkpt lat="41.50154" lon="20.50509">
        <ele>662.318874</ele>
        <time>2022-04-27T08:47:15.776Z</time>
      </trkpt>
      <trkpt lat="41.50138" lon="20.50501">
        <ele>661.539486</ele>
        <time>2022-04-27T08:47:17.769Z</time>
      </trkpt>
      <trkpt lat="41.50122" lon="20.50495">
        <ele>660.863247</ele>
        <time>2022-04-27T08:47:19.811Z</time>
      </trkpt>
      <trkpt lat="41.50106" lon="20.5049">
        <ele>660.328095</ele>
        <time>2022-04-27T08:47:21.769Z</time>
      </trkpt>
      <trkpt lat="41.50091" lon="20.50483">
        <ele>659.79032</ele>
        <time>2022-04-27T08:47:23.780Z</time>
      </trkpt>
      <trkpt lat="41.50075" lon="20.50472">
        <ele>659.20848</ele>
        <time>2022-04-27T08:47:25.770Z</time>
      </trkpt>
      <trkpt lat="41.50061" lon="20.50459">
        <ele>658.630586</ele>
        <time>2022-04-27T08:47:27.774Z</time>
      </trkpt>
      <trkpt lat="41.50046" lon="20.50445">
        <ele>658.037257</ele>
        <time>2022-04-27T08:47:29.767Z</time>
      </trkpt>
      <trkpt lat="41.50039" lon="20.50437">
        <ele>657.73276</ele>
        <time>2022-04-27T08:47:30.824Z</time>
      </trkpt>
      <trkpt lat="41.50031" lon="20.50429">
        <ele>657.420018</ele>
        <time>2022-04-27T08:47:31.784Z</time>
      </trkpt>
      <trkpt lat="41.50024" lon="20.50421">
        <ele>657.100569</ele>
        <time>2022-04-27T08:47:32.806Z</time>
      </trkpt>
      <trkpt lat="41.50016" lon="20.50413">
        <ele>656.776996</ele>
        <time>2022-04-27T08:47:33.754Z</time>
      </trkpt>
      <trkpt lat="41.50009" lon="20.50406">
        <ele>656.469915</ele>
        <time>2022-04-27T08:47:34.773Z</time>
      </trkpt>
      <trkpt lat="41.50002" lon="20.50398">
        <ele>656.170755</ele>
        <time>2022-04-27T08:47:35.773Z</time>
      </trkpt>
      <trkpt lat="41.49989" lon="20.50382">
        <ele>655.597881</ele>
        <time>2022-04-27T08:47:37.768Z</time>
      </trkpt>
      <trkpt lat="41.49976" lon="20.50368">
        <ele>654.960692</ele>
        <time>2022-04-27T08:47:39.816Z</time>
      </trkpt>
      <trkpt lat="41.49961" lon="20.50356">
        <ele>653.880334</ele>
        <time>2022-04-27T08:47:41.810Z</time>
      </trkpt>
      <trkpt lat="41.49946" lon="20.50344">
        <ele>652.764396</ele>
        <time>2022-04-27T08:47:43.771Z</time>
      </trkpt>
      <trkpt lat="41.49937" lon="20.5034">
        <ele>652.188868</ele>
        <time>2022-04-27T08:47:44.771Z</time>
      </trkpt>
      <trkpt lat="41.49928" lon="20.50335">
        <ele>651.594948</ele>
        <time>2022-04-27T08:47:45.776Z</time>
      </trkpt>
      <trkpt lat="41.49919" lon="20.50332">
        <ele>650.987336</ele>
        <time>2022-04-27T08:47:46.778Z</time>
      </trkpt>
      <trkpt lat="41.4991" lon="20.50329">
        <ele>650.376854</ele>
        <time>2022-04-27T08:47:47.792Z</time>
      </trkpt>
      <trkpt lat="41.499" lon="20.50328">
        <ele>649.770337</ele>
        <time>2022-04-27T08:47:48.784Z</time>
      </trkpt>
      <trkpt lat="41.4989" lon="20.50327">
        <ele>649.148236</ele>
        <time>2022-04-27T08:47:49.773Z</time>
      </trkpt>
      <trkpt lat="41.4988" lon="20.50326">
        <ele>648.538087</ele>
        <time>2022-04-27T08:47:50.768Z</time>
      </trkpt>
      <trkpt lat="41.49871" lon="20.50325">
        <ele>647.94129</ele>
        <time>2022-04-27T08:47:51.764Z</time>
      </trkpt>
      <trkpt lat="41.49862" lon="20.50325">
        <ele>647.369313</ele>
        <time>2022-04-27T08:47:52.830Z</time>
      </trkpt>
      <trkpt lat="41.49852" lon="20.50324">
        <ele>646.772516</ele>
        <time>2022-04-27T08:47:53.753Z</time>
      </trkpt>
      <trkpt lat="41.49843" lon="20.50323">
        <ele>646.175719</ele>
        <time>2022-04-27T08:47:54.765Z</time>
      </trkpt>
      <trkpt lat="41.49834" lon="20.50323">
        <ele>645.591458</ele>
        <time>2022-04-27T08:47:55.790Z</time>
      </trkpt>
      <trkpt lat="41.49824" lon="20.50322">
        <ele>645.020118</ele>
        <time>2022-04-27T08:47:56.795Z</time>
      </trkpt>
      <trkpt lat="41.49808" lon="20.50323">
        <ele>643.984563</ele>
        <time>2022-04-27T08:47:58.770Z</time>
      </trkpt>
      <trkpt lat="41.49793" lon="20.50327">
        <ele>642.921898</ele>
        <time>2022-04-27T08:48:00.783Z</time>
      </trkpt>
      <trkpt lat="41.49778" lon="20.50336">
        <ele>641.819707</ele>
        <time>2022-04-27T08:48:02.762Z</time>
      </trkpt>
      <trkpt lat="41.49765" lon="20.5035">
        <ele>640.672371</ele>
        <time>2022-04-27T08:48:04.777Z</time>
      </trkpt>
      <trkpt lat="41.49755" lon="20.50369">
        <ele>639.480548</ele>
        <time>2022-04-27T08:48:06.784Z</time>
      </trkpt>
      <trkpt lat="41.49746" lon="20.50388">
        <ele>638.334373</ele>
        <time>2022-04-27T08:48:08.779Z</time>
      </trkpt>
      <trkpt lat="41.49739" lon="20.50405">
        <ele>637.318276</ele>
        <time>2022-04-27T08:48:10.765Z</time>
      </trkpt>
      <trkpt lat="41.49732" lon="20.50421">
        <ele>636.386113</ele>
        <time>2022-04-27T08:48:12.779Z</time>
      </trkpt>
      <trkpt lat="41.49725" lon="20.50436">
        <ele>635.453313</ele>
        <time>2022-04-27T08:48:14.824Z</time>
      </trkpt>
      <trkpt lat="41.49717" lon="20.50451">
        <ele>634.507349</ele>
        <time>2022-04-27T08:48:16.786Z</time>
      </trkpt>
      <trkpt lat="41.4971" lon="20.50465">
        <ele>633.6444</ele>
        <time>2022-04-27T08:48:18.772Z</time>
      </trkpt>
      <trkpt lat="41.49701" lon="20.50478">
        <ele>632.750501</ele>
        <time>2022-04-27T08:48:20.759Z</time>
      </trkpt>
      <trkpt lat="41.49691" lon="20.50488">
        <ele>631.905617</ele>
        <time>2022-04-27T08:48:22.763Z</time>
      </trkpt>
      <trkpt lat="41.49682" lon="20.50498">
        <ele>631.396936</ele>
        <time>2022-04-27T08:48:24.774Z</time>
      </trkpt>
      <trkpt lat="41.49673" lon="20.50506">
        <ele>631.169673</ele>
        <time>2022-04-27T08:48:26.773Z</time>
      </trkpt>
      <trkpt lat="41.49663" lon="20.50515">
        <ele>630.938259</ele>
        <time>2022-04-27T08:48:28.786Z</time>
      </trkpt>
      <trkpt lat="41.49653" lon="20.50523">
        <ele>630.6993</ele>
        <time>2022-04-27T08:48:30.783Z</time>
      </trkpt>
      <trkpt lat="41.49644" lon="20.50532">
        <ele>630.462852</ele>
        <time>2022-04-27T08:48:32.767Z</time>
      </trkpt>
      <trkpt lat="41.49634" lon="20.50541">
        <ele>630.223893</ele>
        <time>2022-04-27T08:48:34.784Z</time>
      </trkpt>
      <trkpt lat="41.49623" lon="20.5055">
        <ele>629.963897</ele>
        <time>2022-04-27T08:48:36.787Z</time>
      </trkpt>
      <trkpt lat="41.49611" lon="20.50559">
        <ele>629.692501</ele>
        <time>2022-04-27T08:48:38.770Z</time>
      </trkpt>
      <trkpt lat="41.496" lon="20.50566">
        <ele>629.438742</ele>
        <time>2022-04-27T08:48:40.761Z</time>
      </trkpt>
      <trkpt lat="41.49588" lon="20.50573">
        <ele>629.191298</ele>
        <time>2022-04-27T08:48:42.811Z</time>
      </trkpt>
      <trkpt lat="41.49578" lon="20.50577">
        <ele>628.971344</ele>
        <time>2022-04-27T08:48:44.817Z</time>
      </trkpt>
      <trkpt lat="41.49568" lon="20.50581">
        <ele>628.764016</ele>
        <time>2022-04-27T08:48:46.773Z</time>
      </trkpt>
      <trkpt lat="41.49558" lon="20.50584">
        <ele>628.547523</ele>
        <time>2022-04-27T08:48:48.769Z</time>
      </trkpt>
      <trkpt lat="41.49548" lon="20.50587">
        <ele>628.348738</ele>
        <time>2022-04-27T08:48:50.769Z</time>
      </trkpt>
      <trkpt lat="41.49539" lon="20.50589">
        <ele>628.154881</ele>
        <time>2022-04-27T08:48:52.774Z</time>
      </trkpt>
      <trkpt lat="41.49529" lon="20.50592">
        <ele>627.954132</ele>
        <time>2022-04-27T08:48:54.792Z</time>
      </trkpt>
      <trkpt lat="41.49519" lon="20.50596">
        <ele>627.683523</ele>
        <time>2022-04-27T08:48:56.781Z</time>
      </trkpt>
      <trkpt lat="41.49509" lon="20.50599">
        <ele>627.406803</ele>
        <time>2022-04-27T08:48:58.754Z</time>
      </trkpt>
      <trkpt lat="41.49498" lon="20.50601">
        <ele>627.066976</ele>
        <time>2022-04-27T08:49:01.769Z</time>
      </trkpt>
      <trkpt lat="41.49486" lon="20.50602">
        <ele>626.727935</ele>
        <time>2022-04-27T08:49:04.800Z</time>
      </trkpt>
      <trkpt lat="41.49475" lon="20.50604">
        <ele>626.427055</ele>
        <time>2022-04-27T08:49:07.768Z</time>
      </trkpt>
      <trkpt lat="41.49465" lon="20.50605">
        <ele>626.129239</ele>
        <time>2022-04-27T08:49:10.814Z</time>
      </trkpt>
      <trkpt lat="41.49453" lon="20.50607">
        <ele>625.801302</ele>
        <time>2022-04-27T08:49:14.784Z</time>
      </trkpt>
      <trkpt lat="41.49442" lon="20.50605">
        <ele>625.482415</ele>
        <time>2022-04-27T08:49:18.776Z</time>
      </trkpt>
      <trkpt lat="41.49433" lon="20.50603">
        <ele>625.220185</ele>
        <time>2022-04-27T08:49:21.812Z</time>
      </trkpt>
      <trkpt lat="41.49424" lon="20.50605">
        <ele>624.953731</ele>
        <time>2022-04-27T08:49:24.786Z</time>
      </trkpt>
      <trkpt lat="41.49414" lon="20.50606">
        <ele>624.679883</ele>
        <time>2022-04-27T08:49:27.812Z</time>
      </trkpt>
      <trkpt lat="41.49405" lon="20.50607">
        <ele>624.407997</ele>
        <time>2022-04-27T08:49:30.780Z</time>
      </trkpt>
      <trkpt lat="41.49396" lon="20.50607">
        <ele>624.151682</ele>
        <time>2022-04-27T08:49:33.776Z</time>
      </trkpt>
      <trkpt lat="41.49386" lon="20.50607">
        <ele>623.875486</ele>
        <time>2022-04-27T08:49:36.787Z</time>
      </trkpt>
      <trkpt lat="41.49376" lon="20.50608">
        <ele>623.58765</ele>
        <time>2022-04-27T08:49:39.774Z</time>
      </trkpt>
      <trkpt lat="41.49366" lon="20.50609">
        <ele>623.30319</ele>
        <time>2022-04-27T08:49:42.772Z</time>
      </trkpt>
      <trkpt lat="41.49355" lon="20.50611">
        <ele>622.993322</ele>
        <time>2022-04-27T08:49:45.768Z</time>
      </trkpt>
      <trkpt lat="41.49344" lon="20.50613">
        <ele>622.807626</ele>
        <time>2022-04-27T08:49:48.774Z</time>
      </trkpt>
      <trkpt lat="41.49332" lon="20.50614">
        <ele>622.934385</ele>
        <time>2022-04-27T08:49:51.774Z</time>
      </trkpt>
      <trkpt lat="41.4932" lon="20.50615">
        <ele>623.066435</ele>
        <time>2022-04-27T08:49:54.774Z</time>
      </trkpt>
      <trkpt lat="41.49307" lon="20.50616">
        <ele>623.197174</ele>
        <time>2022-04-27T08:49:57.783Z</time>
      </trkpt>
      <trkpt lat="41.49295" lon="20.50617">
        <ele>623.330169</ele>
        <time>2022-04-27T08:50:00.809Z</time>
      </trkpt>
      <trkpt lat="41.49282" lon="20.50619">
        <ele>623.46764</ele>
        <time>2022-04-27T08:50:03.792Z</time>
      </trkpt>
      <trkpt lat="41.49269" lon="20.5062">
        <ele>623.606944</ele>
        <time>2022-04-27T08:50:06.812Z</time>
      </trkpt>
      <trkpt lat="41.49256" lon="20.50621">
        <ele>623.748415</ele>
        <time>2022-04-27T08:50:09.777Z</time>
      </trkpt>
      <trkpt lat="41.49243" lon="20.50622">
        <ele>623.884901</ele>
        <time>2022-04-27T08:50:12.762Z</time>
      </trkpt>
      <trkpt lat="41.49231" lon="20.50626">
        <ele>624.014099</ele>
        <time>2022-04-27T08:50:15.776Z</time>
      </trkpt>
      <trkpt lat="41.4922" lon="20.50632">
        <ele>624.137311</ele>
        <time>2022-04-27T08:50:18.774Z</time>
      </trkpt>
      <trkpt lat="41.49211" lon="20.50643">
        <ele>624.267942</ele>
        <time>2022-04-27T08:50:21.784Z</time>
      </trkpt>
      <trkpt lat="41.49205" lon="20.50655">
        <ele>624.382016</ele>
        <time>2022-04-27T08:50:24.768Z</time>
      </trkpt>
      <trkpt lat="41.49201" lon="20.50669">
        <ele>624.503405</ele>
        <time>2022-04-27T08:50:28.806Z</time>
      </trkpt>
      <trkpt lat="41.492" lon="20.50682">
        <ele>624.604862</ele>
        <time>2022-04-27T08:50:32.769Z</time>
      </trkpt>
      <trkpt lat="41.49199" lon="20.50695">
        <ele>624.831789</ele>
        <time>2022-04-27T08:50:37.782Z</time>
      </trkpt>
      <trkpt lat="41.49199" lon="20.50708">
        <ele>625.374418</ele>
        <time>2022-04-27T08:50:42.772Z</time>
      </trkpt>
      <trkpt lat="41.49198" lon="20.50721">
        <ele>625.883302</ele>
        <time>2022-04-27T08:50:47.773Z</time>
      </trkpt>
      <trkpt lat="41.49197" lon="20.50733">
        <ele>626.374156</ele>
        <time>2022-04-27T08:50:52.758Z</time>
      </trkpt>
      <trkpt lat="41.49195" lon="20.50746">
        <ele>626.885188</ele>
        <time>2022-04-27T08:50:57.828Z</time>
      </trkpt>
      <trkpt lat="41.49189" lon="20.50756">
        <ele>627.396044</ele>
        <time>2022-04-27T08:51:02.766Z</time>
      </trkpt>
      <trkpt lat="41.49184" lon="20.50766">
        <ele>627.878158</ele>
        <time>2022-04-27T08:51:07.799Z</time>
      </trkpt>
      <trkpt lat="41.49177" lon="20.50776">
        <ele>628.433619</ele>
        <time>2022-04-27T08:51:13.773Z</time>
      </trkpt>
      <trkpt lat="41.4917" lon="20.50786">
        <ele>628.938857</ele>
        <time>2022-04-27T08:51:19.784Z</time>
      </trkpt>
      <trkpt lat="41.49163" lon="20.50795">
        <ele>629.496064</ele>
        <time>2022-04-27T08:51:25.769Z</time>
      </trkpt>
      <trkpt lat="41.49158" lon="20.50805">
        <ele>629.978666</ele>
        <time>2022-04-27T08:51:31.787Z</time>
      </trkpt>
      <trkpt lat="41.49151" lon="20.50816">
        <ele>630.537453</ele>
        <time>2022-04-27T08:51:38.790Z</time>
      </trkpt>
      <trkpt lat="41.49145" lon="20.50826">
        <ele>631.045754</ele>
        <time>2022-04-27T08:51:44.774Z</time>
      </trkpt>
      <trkpt lat="41.49138" lon="20.50835">
        <ele>631.571045</ele>
        <time>2022-04-27T08:51:50.761Z</time>
      </trkpt>
      <trkpt lat="41.49132" lon="20.50845">
        <ele>632.078457</ele>
        <time>2022-04-27T08:51:56.774Z</time>
      </trkpt>
      <trkpt lat="41.49125" lon="20.50854">
        <ele>632.579322</ele>
        <time>2022-04-27T08:52:02.780Z</time>
      </trkpt>
      <trkpt lat="41.49117" lon="20.50862">
        <ele>633.128839</ele>
        <time>2022-04-27T08:52:09.800Z</time>
      </trkpt>
      <trkpt lat="41.49109" lon="20.50871">
        <ele>633.67014</ele>
        <time>2022-04-27T08:52:15.820Z</time>
      </trkpt>
      <trkpt lat="41.49103" lon="20.5088">
        <ele>634.167397</ele>
        <time>2022-04-27T08:52:21.753Z</time>
      </trkpt>
      <trkpt lat="41.49096" lon="20.50889">
        <ele>635.075544</ele>
        <time>2022-04-27T08:52:27.771Z</time>
      </trkpt>
      <trkpt lat="41.49089" lon="20.50898">
        <ele>636.196571</ele>
        <time>2022-04-27T08:52:34.765Z</time>
      </trkpt>
      <trkpt lat="41.49082" lon="20.50906">
        <ele>637.180135</ele>
        <time>2022-04-27T08:52:40.780Z</time>
      </trkpt>
      <trkpt lat="41.49075" lon="20.50915">
        <ele>638.166749</ele>
        <time>2022-04-27T08:52:46.790Z</time>
      </trkpt>
      <trkpt lat="41.49068" lon="20.50925">
        <ele>639.29849</ele>
        <time>2022-04-27T08:52:53.850Z</time>
      </trkpt>
      <trkpt lat="41.49062" lon="20.50935">
        <ele>640.390091</ele>
        <time>2022-04-27T08:53:00.800Z</time>
      </trkpt>
      <trkpt lat="41.49054" lon="20.50944">
        <ele>641.529769</ele>
        <time>2022-04-27T08:53:07.785Z</time>
      </trkpt>
      <trkpt lat="41.49046" lon="20.50952">
        <ele>642.592955</ele>
        <time>2022-04-27T08:53:13.782Z</time>
      </trkpt>
      <trkpt lat="41.49038" lon="20.50958">
        <ele>643.587513</ele>
        <time>2022-04-27T08:53:19.758Z</time>
      </trkpt>
      <trkpt lat="41.49029" lon="20.50964">
        <ele>644.642346</ele>
        <time>2022-04-27T08:53:25.774Z</time>
      </trkpt>
      <trkpt lat="41.49021" lon="20.50971">
        <ele>645.695502</ele>
        <time>2022-04-27T08:53:31.797Z</time>
      </trkpt>
      <trkpt lat="41.49013" lon="20.50976">
        <ele>646.674332</ele>
        <time>2022-04-27T08:53:37.762Z</time>
      </trkpt>
      <trkpt lat="41.49003" lon="20.50981">
        <ele>647.805363</ele>
        <time>2022-04-27T08:53:43.809Z</time>
      </trkpt>
      <trkpt lat="41.48994" lon="20.50987">
        <ele>648.872461</ele>
        <time>2022-04-27T08:53:49.809Z</time>
      </trkpt>
      <trkpt lat="41.48986" lon="20.50993">
        <ele>649.852113</ele>
        <time>2022-04-27T08:53:55.822Z</time>
      </trkpt>
      <trkpt lat="41.48978" lon="20.50998">
        <ele>650.85838</ele>
        <time>2022-04-27T08:54:01.781Z</time>
      </trkpt>
      <trkpt lat="41.48969" lon="20.51004">
        <ele>651.890195</ele>
        <time>2022-04-27T08:54:08.793Z</time>
      </trkpt>
      <trkpt lat="41.48961" lon="20.5101">
        <ele>652.898124</ele>
        <time>2022-04-27T08:54:14.769Z</time>
      </trkpt>
      <trkpt lat="41.48953" lon="20.51015">
        <ele>653.850816</ele>
        <time>2022-04-27T08:54:20.781Z</time>
      </trkpt>
      <trkpt lat="41.48944" lon="20.51022">
        <ele>654.662029</ele>
        <time>2022-04-27T08:54:26.769Z</time>
      </trkpt>
      <trkpt lat="41.48935" lon="20.51028">
        <ele>655.424934</ele>
        <time>2022-04-27T08:54:32.787Z</time>
      </trkpt>
      <trkpt lat="41.48926" lon="20.51035">
        <ele>656.254045</ele>
        <time>2022-04-27T08:54:38.772Z</time>
      </trkpt>
      <trkpt lat="41.48918" lon="20.51042">
        <ele>657.057646</ele>
        <time>2022-04-27T08:54:45.770Z</time>
      </trkpt>
      <trkpt lat="41.4891" lon="20.51048">
        <ele>657.817874</ele>
        <time>2022-04-27T08:54:52.774Z</time>
      </trkpt>
      <trkpt lat="41.48902" lon="20.51057">
        <ele>658.576833</ele>
        <time>2022-04-27T08:54:59.777Z</time>
      </trkpt>
      <trkpt lat="41.48894" lon="20.51065">
        <ele>659.407802</ele>
        <time>2022-04-27T08:55:06.760Z</time>
      </trkpt>
      <trkpt lat="41.48886" lon="20.51073">
        <ele>660.205269</ele>
        <time>2022-04-27T08:55:13.757Z</time>
      </trkpt>
      <trkpt lat="41.48878" lon="20.51081">
        <ele>660.997363</ele>
        <time>2022-04-27T08:55:20.789Z</time>
      </trkpt>
      <trkpt lat="41.4887" lon="20.51088">
        <ele>661.777454</ele>
        <time>2022-04-27T08:55:26.767Z</time>
      </trkpt>
      <trkpt lat="41.48862" lon="20.51096">
        <ele>662.58384</ele>
        <time>2022-04-27T08:55:32.800Z</time>
      </trkpt>
      <trkpt lat="41.48853" lon="20.51103">
        <ele>663.418792</ele>
        <time>2022-04-27T08:55:39.752Z</time>
      </trkpt>
      <trkpt lat="41.48844" lon="20.51109">
        <ele>664.231196</ele>
        <time>2022-04-27T08:55:45.814Z</time>
      </trkpt>
      <trkpt lat="41.48836" lon="20.51116">
        <ele>664.988792</ele>
        <time>2022-04-27T08:55:51.776Z</time>
      </trkpt>
      <trkpt lat="41.48828" lon="20.51124">
        <ele>665.789121</ele>
        <time>2022-04-27T08:55:57.774Z</time>
      </trkpt>
      <trkpt lat="41.48819" lon="20.51129">
        <ele>666.518104</ele>
        <time>2022-04-27T08:56:03.771Z</time>
      </trkpt>
      <trkpt lat="41.48811" lon="20.51134">
        <ele>667.24022</ele>
        <time>2022-04-27T08:56:09.784Z</time>
      </trkpt>
      <trkpt lat="41.48803" lon="20.5114">
        <ele>668.015877</ele>
        <time>2022-04-27T08:56:16.789Z</time>
      </trkpt>
      <trkpt lat="41.48793" lon="20.51145">
        <ele>668.632693</ele>
        <time>2022-04-27T08:56:23.809Z</time>
      </trkpt>
      <trkpt lat="41.48783" lon="20.5115">
        <ele>669.227803</ele>
        <time>2022-04-27T08:56:30.803Z</time>
      </trkpt>
      <trkpt lat="41.48774" lon="20.51154">
        <ele>669.779572</ele>
        <time>2022-04-27T08:56:36.778Z</time>
      </trkpt>
      <trkpt lat="41.48764" lon="20.51158">
        <ele>670.35092</ele>
        <time>2022-04-27T08:56:42.764Z</time>
      </trkpt>
      <trkpt lat="41.48755" lon="20.51161">
        <ele>670.886772</ele>
        <time>2022-04-27T08:56:48.768Z</time>
      </trkpt>
      <trkpt lat="41.48745" lon="20.51162">
        <ele>671.470709</ele>
        <time>2022-04-27T08:56:55.780Z</time>
      </trkpt>
      <trkpt lat="41.48735" lon="20.51164">
        <ele>672.06768</ele>
        <time>2022-04-27T08:57:02.812Z</time>
      </trkpt>
      <trkpt lat="41.48725" lon="20.51166">
        <ele>672.638404</ele>
        <time>2022-04-27T08:57:08.779Z</time>
      </trkpt>
      <trkpt lat="41.48716" lon="20.51168">
        <ele>673.180155</ele>
        <time>2022-04-27T08:57:14.786Z</time>
      </trkpt>
      <trkpt lat="41.48706" lon="20.5117">
        <ele>673.763141</ele>
        <time>2022-04-27T08:57:21.801Z</time>
      </trkpt>
      <trkpt lat="41.48695" lon="20.5117">
        <ele>674.366036</ele>
        <time>2022-04-27T08:57:29.761Z</time>
      </trkpt>
      <trkpt lat="41.48686" lon="20.51169">
        <ele>674.91161</ele>
        <time>2022-04-27T08:57:36.764Z</time>
      </trkpt>
      <trkpt lat="41.48677" lon="20.51169">
        <ele>675.434137</ele>
        <time>2022-04-27T08:57:43.769Z</time>
      </trkpt>
      <trkpt lat="41.48666" lon="20.5117">
        <ele>676.037952</ele>
        <time>2022-04-27T08:57:51.785Z</time>
      </trkpt>
      <trkpt lat="41.48657" lon="20.5117">
        <ele>676.560478</ele>
        <time>2022-04-27T08:57:57.783Z</time>
      </trkpt>
      <trkpt lat="41.48648" lon="20.51169">
        <ele>677.089306</ele>
        <time>2022-04-27T08:58:04.783Z</time>
      </trkpt>
      <trkpt lat="41.48637" lon="20.51169">
        <ele>677.693381</ele>
        <time>2022-04-27T08:58:11.781Z</time>
      </trkpt>
      <trkpt lat="41.48628" lon="20.51168">
        <ele>678.262174</ele>
        <time>2022-04-27T08:58:18.759Z</time>
      </trkpt>
      <trkpt lat="41.48617" lon="20.51167">
        <ele>678.870366</ele>
        <time>2022-04-27T08:58:26.785Z</time>
      </trkpt>
      <trkpt lat="41.48608" lon="20.51167">
        <ele>679.391297</ele>
        <time>2022-04-27T08:58:33.770Z</time>
      </trkpt>
      <trkpt lat="41.48598" lon="20.51167">
        <ele>679.912435</ele>
        <time>2022-04-27T08:58:39.773Z</time>
      </trkpt>
      <trkpt lat="41.48589" lon="20.51165">
        <ele>680.436017</ele>
        <time>2022-04-27T08:58:45.765Z</time>
      </trkpt>
      <trkpt lat="41.4858" lon="20.51164">
        <ele>680.986821</ele>
        <time>2022-04-27T08:58:52.775Z</time>
      </trkpt>
      <trkpt lat="41.48571" lon="20.51162">
        <ele>681.495248</ele>
        <time>2022-04-27T08:58:59.766Z</time>
      </trkpt>
      <trkpt lat="41.4856" lon="20.51161">
        <ele>682.096584</ele>
        <time>2022-04-27T08:59:06.792Z</time>
      </trkpt>
      <trkpt lat="41.4855" lon="20.51159">
        <ele>682.659925</ele>
        <time>2022-04-27T08:59:12.772Z</time>
      </trkpt>
      <trkpt lat="41.48541" lon="20.51158">
        <ele>683.187063</ele>
        <time>2022-04-27T08:59:18.805Z</time>
      </trkpt>
      <trkpt lat="41.48531" lon="20.51156">
        <ele>683.742504</ele>
        <time>2022-04-27T08:59:24.781Z</time>
      </trkpt>
      <trkpt lat="41.48521" lon="20.51154">
        <ele>684.322219</ele>
        <time>2022-04-27T08:59:31.791Z</time>
      </trkpt>
      <trkpt lat="41.48511" lon="20.51153">
        <ele>684.890293</ele>
        <time>2022-04-27T08:59:38.775Z</time>
      </trkpt>
      <trkpt lat="41.48502" lon="20.51152">
        <ele>685.401963</ele>
        <time>2022-04-27T08:59:44.771Z</time>
      </trkpt>
      <trkpt lat="41.48492" lon="20.51149">
        <ele>685.978653</ele>
        <time>2022-04-27T08:59:52.764Z</time>
      </trkpt>
      <trkpt lat="41.48483" lon="20.5115">
        <ele>686.517318</ele>
        <time>2022-04-27T08:59:58.770Z</time>
      </trkpt>
      <trkpt lat="41.48474" lon="20.51148">
        <ele>687.032545</ele>
        <time>2022-04-27T09:00:05.774Z</time>
      </trkpt>
      <trkpt lat="41.48465" lon="20.51147">
        <ele>687.538986</ele>
        <time>2022-04-27T09:00:11.773Z</time>
      </trkpt>
      <trkpt lat="41.48455" lon="20.51146">
        <ele>688.123988</ele>
        <time>2022-04-27T09:00:18.769Z</time>
      </trkpt>
      <trkpt lat="41.48445" lon="20.51144">
        <ele>688.701762</ele>
        <time>2022-04-27T09:00:25.768Z</time>
      </trkpt>
      <trkpt lat="41.48435" lon="20.51141">
        <ele>689.510035</ele>
        <time>2022-04-27T09:00:32.755Z</time>
      </trkpt>
      <trkpt lat="41.48426" lon="20.51138">
        <ele>690.23912</ele>
        <time>2022-04-27T09:00:38.780Z</time>
      </trkpt>
      <trkpt lat="41.48417" lon="20.51134">
        <ele>691.048668</ele>
        <time>2022-04-27T09:00:45.808Z</time>
      </trkpt>
      <trkpt lat="41.48407" lon="20.51131">
        <ele>691.843677</ele>
        <time>2022-04-27T09:00:52.765Z</time>
      </trkpt>
      <trkpt lat="41.48398" lon="20.51126">
        <ele>692.654275</ele>
        <time>2022-04-27T09:00:59.779Z</time>
      </trkpt>
      <trkpt lat="41.48389" lon="20.51121">
        <ele>693.442598</ele>
        <time>2022-04-27T09:01:07.781Z</time>
      </trkpt>
      <trkpt lat="41.4838" lon="20.51117">
        <ele>694.196823</ele>
        <time>2022-04-27T09:01:13.804Z</time>
      </trkpt>
      <trkpt lat="41.4837" lon="20.51111">
        <ele>695.041067</ele>
        <time>2022-04-27T09:01:19.813Z</time>
      </trkpt>
      <trkpt lat="41.48361" lon="20.51106">
        <ele>695.868771</ele>
        <time>2022-04-27T09:01:26.785Z</time>
      </trkpt>
      <trkpt lat="41.48351" lon="20.51106">
        <ele>696.613872</ele>
        <time>2022-04-27T09:01:32.793Z</time>
      </trkpt>
      <trkpt lat="41.48341" lon="20.51105">
        <ele>697.401222</ele>
        <time>2022-04-27T09:01:39.786Z</time>
      </trkpt>
      <trkpt lat="41.48331" lon="20.51104">
        <ele>698.22688</ele>
        <time>2022-04-27T09:01:46.776Z</time>
      </trkpt>
      <trkpt lat="41.48322" lon="20.51106">
        <ele>699.001168</ele>
        <time>2022-04-27T09:01:53.774Z</time>
      </trkpt>
      <trkpt lat="41.48312" lon="20.51108">
        <ele>699.792828</ele>
        <time>2022-04-27T09:02:00.770Z</time>
      </trkpt>
      <trkpt lat="41.48302" lon="20.51111">
        <ele>700.59963</ele>
        <time>2022-04-27T09:02:06.781Z</time>
      </trkpt>
      <trkpt lat="41.48293" lon="20.51115">
        <ele>701.336753</ele>
        <time>2022-04-27T09:02:12.779Z</time>
      </trkpt>
      <trkpt lat="41.48285" lon="20.5112">
        <ele>702.077371</ele>
        <time>2022-04-27T09:02:18.776Z</time>
      </trkpt>
      <trkpt lat="41.48275" lon="20.51125">
        <ele>702.90001</ele>
        <time>2022-04-27T09:02:25.775Z</time>
      </trkpt>
      <trkpt lat="41.48265" lon="20.51129">
        <ele>703.56071</ele>
        <time>2022-04-27T09:02:31.770Z</time>
      </trkpt>
      <trkpt lat="41.48256" lon="20.5113">
        <ele>704.12748</ele>
        <time>2022-04-27T09:02:37.777Z</time>
      </trkpt>
      <trkpt lat="41.48246" lon="20.51133">
        <ele>704.756175</ele>
        <time>2022-04-27T09:02:43.771Z</time>
      </trkpt>
      <trkpt lat="41.48237" lon="20.51134">
        <ele>705.350854</ele>
        <time>2022-04-27T09:02:50.786Z</time>
      </trkpt>
      <trkpt lat="41.48227" lon="20.51133">
        <ele>705.963966</ele>
        <time>2022-04-27T09:02:57.780Z</time>
      </trkpt>
      <trkpt lat="41.48218" lon="20.51132">
        <ele>706.531249</ele>
        <time>2022-04-27T09:03:03.782Z</time>
      </trkpt>
      <trkpt lat="41.48209" lon="20.51129">
        <ele>707.107566</ele>
        <time>2022-04-27T09:03:09.820Z</time>
      </trkpt>
      <trkpt lat="41.48199" lon="20.51127">
        <ele>707.727261</ele>
        <time>2022-04-27T09:03:15.765Z</time>
      </trkpt>
      <trkpt lat="41.48189" lon="20.51124">
        <ele>708.348898</ele>
        <time>2022-04-27T09:03:21.786Z</time>
      </trkpt>
      <trkpt lat="41.4818" lon="20.51121">
        <ele>708.911199</ele>
        <time>2022-04-27T09:03:27.778Z</time>
      </trkpt>
      <trkpt lat="41.4817" lon="20.51117">
        <ele>709.548615</ele>
        <time>2022-04-27T09:03:34.789Z</time>
      </trkpt>
      <trkpt lat="41.4816" lon="20.51117">
        <ele>710.168337</ele>
        <time>2022-04-27T09:03:40.780Z</time>
      </trkpt>
      <trkpt lat="41.4815" lon="20.51117">
        <ele>710.812397</ele>
        <time>2022-04-27T09:03:46.775Z</time>
      </trkpt>
      <trkpt lat="41.48141" lon="20.51115">
        <ele>711.408733</ele>
        <time>2022-04-27T09:03:51.769Z</time>
      </trkpt>
      <trkpt lat="41.48132" lon="20.51114">
        <ele>711.967326</ele>
        <time>2022-04-27T09:03:56.780Z</time>
      </trkpt>
      <trkpt lat="41.48122" lon="20.51113">
        <ele>712.58086</ele>
        <time>2022-04-27T09:04:02.770Z</time>
      </trkpt>
      <trkpt lat="41.48112" lon="20.51115">
        <ele>713.192285</ele>
        <time>2022-04-27T09:04:08.777Z</time>
      </trkpt>
      <trkpt lat="41.48103" lon="20.51117">
        <ele>713.755523</ele>
        <time>2022-04-27T09:04:13.773Z</time>
      </trkpt>
      <trkpt lat="41.48094" lon="20.51121">
        <ele>714.302292</ele>
        <time>2022-04-27T09:04:18.784Z</time>
      </trkpt>
      <trkpt lat="41.48085" lon="20.51124">
        <ele>714.775855</ele>
        <time>2022-04-27T09:04:23.771Z</time>
      </trkpt>
      <trkpt lat="41.48076" lon="20.51127">
        <ele>715.27858</ele>
        <time>2022-04-27T09:04:28.765Z</time>
      </trkpt>
      <trkpt lat="41.48068" lon="20.51133">
        <ele>715.766779</ele>
        <time>2022-04-27T09:04:33.824Z</time>
      </trkpt>
      <trkpt lat="41.4806" lon="20.51141">
        <ele>716.302784</ele>
        <time>2022-04-27T09:04:39.752Z</time>
      </trkpt>
      <trkpt lat="41.48052" lon="20.51149">
        <ele>716.817524</ele>
        <time>2022-04-27T09:04:45.769Z</time>
      </trkpt>
      <trkpt lat="41.48046" lon="20.51158">
        <ele>717.301974</ele>
        <time>2022-04-27T09:04:51.774Z</time>
      </trkpt>
      <trkpt lat="41.48038" lon="20.51167">
        <ele>717.851066</ele>
        <time>2022-04-27T09:04:56.786Z</time>
      </trkpt>
      <trkpt lat="41.4803" lon="20.51174">
        <ele>718.340168</ele>
        <time>2022-04-27T09:05:01.813Z</time>
      </trkpt>
      <trkpt lat="41.48024" lon="20.51183">
        <ele>718.837637</ele>
        <time>2022-04-27T09:05:06.776Z</time>
      </trkpt>
      <trkpt lat="41.48016" lon="20.51192">
        <ele>719.357726</ele>
        <time>2022-04-27T09:05:11.777Z</time>
      </trkpt>
      <trkpt lat="41.48008" lon="20.51201">
        <ele>719.914148</ele>
        <time>2022-04-27T09:05:16.772Z</time>
      </trkpt>
      <trkpt lat="41.48001" lon="20.51208">
        <ele>720.394649</ele>
        <time>2022-04-27T09:05:20.776Z</time>
      </trkpt>
      <trkpt lat="41.47993" lon="20.51215">
        <ele>720.882162</ele>
        <time>2022-04-27T09:05:24.772Z</time>
      </trkpt>
      <trkpt lat="41.47984" lon="20.51223">
        <ele>721.461056</ele>
        <time>2022-04-27T09:05:29.776Z</time>
      </trkpt>
      <trkpt lat="41.47976" lon="20.51229">
        <ele>721.953195</ele>
        <time>2022-04-27T09:05:33.795Z</time>
      </trkpt>
      <trkpt lat="41.47967" lon="20.51234">
        <ele>722.449365</ele>
        <time>2022-04-27T09:05:37.774Z</time>
      </trkpt>
      <trkpt lat="41.47957" lon="20.51239">
        <ele>723.013342</ele>
        <time>2022-04-27T09:05:41.822Z</time>
      </trkpt>
      <trkpt lat="41.47947" lon="20.51243">
        <ele>723.55483</ele>
        <time>2022-04-27T09:05:45.804Z</time>
      </trkpt>
      <trkpt lat="41.47936" lon="20.51245">
        <ele>723.389475</ele>
        <time>2022-04-27T09:05:49.810Z</time>
      </trkpt>
      <trkpt lat="41.47925" lon="20.51248">
        <ele>723.139543</ele>
        <time>2022-04-27T09:05:54.777Z</time>
      </trkpt>
      <trkpt lat="41.47915" lon="20.51247">
        <ele>722.92075</ele>
        <time>2022-04-27T09:05:58.813Z</time>
      </trkpt>
      <trkpt lat="41.47904" lon="20.51247">
        <ele>722.680013</ele>
        <time>2022-04-27T09:06:02.795Z</time>
      </trkpt>
      <trkpt lat="41.47894" lon="20.51246">
        <ele>722.449811</ele>
        <time>2022-04-27T09:06:06.773Z</time>
      </trkpt>
      <trkpt lat="41.47884" lon="20.51243">
        <ele>722.217074</ele>
        <time>2022-04-27T09:06:10.768Z</time>
      </trkpt>
      <trkpt lat="41.47873" lon="20.51241">
        <ele>721.9778</ele>
        <time>2022-04-27T09:06:14.776Z</time>
      </trkpt>
      <trkpt lat="41.47863" lon="20.51238">
        <ele>721.763699</ele>
        <time>2022-04-27T09:06:18.783Z</time>
      </trkpt>
      <trkpt lat="41.47854" lon="20.51235">
        <ele>721.538419</ele>
        <time>2022-04-27T09:06:22.791Z</time>
      </trkpt>
      <trkpt lat="41.47844" lon="20.51232">
        <ele>721.312314</ele>
        <time>2022-04-27T09:06:26.778Z</time>
      </trkpt>
      <trkpt lat="41.47834" lon="20.51227">
        <ele>721.085574</ele>
        <time>2022-04-27T09:06:30.800Z</time>
      </trkpt>
      <trkpt lat="41.47823" lon="20.51224">
        <ele>720.841685</ele>
        <time>2022-04-27T09:06:34.781Z</time>
      </trkpt>
      <trkpt lat="41.47813" lon="20.5122">
        <ele>720.609557</ele>
        <time>2022-04-27T09:06:38.760Z</time>
      </trkpt>
      <trkpt lat="41.47802" lon="20.51216">
        <ele>720.349322</ele>
        <time>2022-04-27T09:06:42.785Z</time>
      </trkpt>
      <trkpt lat="41.47791" lon="20.51212">
        <ele>720.098849</ele>
        <time>2022-04-27T09:06:46.773Z</time>
      </trkpt>
      <trkpt lat="41.47781" lon="20.51208">
        <ele>719.871581</ele>
        <time>2022-04-27T09:06:50.780Z</time>
      </trkpt>
      <trkpt lat="41.47771" lon="20.51203">
        <ele>719.645399</ele>
        <time>2022-04-27T09:06:54.781Z</time>
      </trkpt>
      <trkpt lat="41.47761" lon="20.51199">
        <ele>719.622124</ele>
        <time>2022-04-27T09:06:58.786Z</time>
      </trkpt>
      <trkpt lat="41.47751" lon="20.51195">
        <ele>719.604458</ele>
        <time>2022-04-27T09:07:02.769Z</time>
      </trkpt>
      <trkpt lat="41.47742" lon="20.5119">
        <ele>719.588525</ele>
        <time>2022-04-27T09:07:06.798Z</time>
      </trkpt>
      <trkpt lat="41.47732" lon="20.51186">
        <ele>719.572476</ele>
        <time>2022-04-27T09:07:10.775Z</time>
      </trkpt>
      <trkpt lat="41.47722" lon="20.51183">
        <ele>719.555697</ele>
        <time>2022-04-27T09:07:14.762Z</time>
      </trkpt>
      <trkpt lat="41.47712" lon="20.51179">
        <ele>719.537969</ele>
        <time>2022-04-27T09:07:18.778Z</time>
      </trkpt>
      <trkpt lat="41.47702" lon="20.51175">
        <ele>719.520369</ele>
        <time>2022-04-27T09:07:22.774Z</time>
      </trkpt>
      <trkpt lat="41.47691" lon="20.51173">
        <ele>719.50285</ele>
        <time>2022-04-27T09:07:26.780Z</time>
      </trkpt>
      <trkpt lat="41.47679" lon="20.51173">
        <ele>719.482701</ele>
        <time>2022-04-27T09:07:30.815Z</time>
      </trkpt>
      <trkpt lat="41.47667" lon="20.51172">
        <ele>719.463546</ele>
        <time>2022-04-27T09:07:34.775Z</time>
      </trkpt>
      <trkpt lat="41.47657" lon="20.51173">
        <ele>719.446521</ele>
        <time>2022-04-27T09:07:37.777Z</time>
      </trkpt>
      <trkpt lat="41.47646" lon="20.51174">
        <ele>719.427784</ele>
        <time>2022-04-27T09:07:41.805Z</time>
      </trkpt>
      <trkpt lat="41.47634" lon="20.51177">
        <ele>719.408333</ele>
        <time>2022-04-27T09:07:45.773Z</time>
      </trkpt>
      <trkpt lat="41.47624" lon="20.51179">
        <ele>719.390958</ele>
        <time>2022-04-27T09:07:49.773Z</time>
      </trkpt>
      <trkpt lat="41.47615" lon="20.51182">
        <ele>719.375652</ele>
        <time>2022-04-27T09:07:53.771Z</time>
      </trkpt>
      <trkpt lat="41.47606" lon="20.51184">
        <ele>719.360251</ele>
        <time>2022-04-27T09:07:57.767Z</time>
      </trkpt>
      <trkpt lat="41.47596" lon="20.51185">
        <ele>719.344316</ele>
        <time>2022-04-27T09:08:01.782Z</time>
      </trkpt>
      <trkpt lat="41.47585" lon="20.51186">
        <ele>719.187094</ele>
        <time>2022-04-27T09:08:05.753Z</time>
      </trkpt>
      <trkpt lat="41.47574" lon="20.51187">
        <ele>719.013443</ele>
        <time>2022-04-27T09:08:10.775Z</time>
      </trkpt>
      <trkpt lat="41.47563" lon="20.51187">
        <ele>718.836785</ele>
        <time>2022-04-27T09:08:14.765Z</time>
      </trkpt>
      <trkpt lat="41.47553" lon="20.51188">
        <ele>718.68302</ele>
        <time>2022-04-27T09:08:18.769Z</time>
      </trkpt>
      <trkpt lat="41.47543" lon="20.51188">
        <ele>718.534145</ele>
        <time>2022-04-27T09:08:21.784Z</time>
      </trkpt>
      <trkpt lat="41.47534" lon="20.51188">
        <ele>718.386769</ele>
        <time>2022-04-27T09:08:24.785Z</time>
      </trkpt>
      <trkpt lat="41.47524" lon="20.51186">
        <ele>718.240442</ele>
        <time>2022-04-27T09:08:27.773Z</time>
      </trkpt>
      <trkpt lat="41.47513" lon="20.51185">
        <ele>718.071138</ele>
        <time>2022-04-27T09:08:31.792Z</time>
      </trkpt>
      <trkpt lat="41.47504" lon="20.51184">
        <ele>717.929053</ele>
        <time>2022-04-27T09:08:35.760Z</time>
      </trkpt>
      <trkpt lat="41.47494" lon="20.51182">
        <ele>717.776197</ele>
        <time>2022-04-27T09:08:39.781Z</time>
      </trkpt>
      <trkpt lat="41.47484" lon="20.51182">
        <ele>717.608515</ele>
        <time>2022-04-27T09:08:43.777Z</time>
      </trkpt>
      <trkpt lat="41.47472" lon="20.51181">
        <ele>717.436506</ele>
        <time>2022-04-27T09:08:47.766Z</time>
      </trkpt>
      <trkpt lat="41.47461" lon="20.51182">
        <ele>717.258242</ele>
        <time>2022-04-27T09:08:51.783Z</time>
      </trkpt>
      <trkpt lat="41.47449" lon="20.51183">
        <ele>717.07302</ele>
        <time>2022-04-27T09:08:55.782Z</time>
      </trkpt>
      <trkpt lat="41.47438" lon="20.51186">
        <ele>716.899042</ele>
        <time>2022-04-27T09:08:59.802Z</time>
      </trkpt>
      <trkpt lat="41.47427" lon="20.5119">
        <ele>716.725584</ele>
        <time>2022-04-27T09:09:03.793Z</time>
      </trkpt>
      <trkpt lat="41.47418" lon="20.51192">
        <ele>716.581129</ele>
        <time>2022-04-27T09:09:06.786Z</time>
      </trkpt>
      <trkpt lat="41.47409" lon="20.51196">
        <ele>716.613212</ele>
        <time>2022-04-27T09:09:10.762Z</time>
      </trkpt>
      <trkpt lat="41.474" lon="20.51199">
        <ele>716.684809</ele>
        <time>2022-04-27T09:09:14.792Z</time>
      </trkpt>
      <trkpt lat="41.47389" lon="20.51203">
        <ele>716.76848</ele>
        <time>2022-04-27T09:09:18.782Z</time>
      </trkpt>
      <trkpt lat="41.47378" lon="20.51207">
        <ele>716.847606</ele>
        <time>2022-04-27T09:09:22.765Z</time>
      </trkpt>
      <trkpt lat="41.47367" lon="20.51208">
        <ele>716.930474</ele>
        <time>2022-04-27T09:09:26.779Z</time>
      </trkpt>
      <trkpt lat="41.47355" lon="20.51208">
        <ele>717.015839</ele>
        <time>2022-04-27T09:09:30.773Z</time>
      </trkpt>
      <trkpt lat="41.47345" lon="20.51206">
        <ele>717.094619</ele>
        <time>2022-04-27T09:09:34.790Z</time>
      </trkpt>
      <trkpt lat="41.47333" lon="20.51202">
        <ele>717.180869</ele>
        <time>2022-04-27T09:09:38.813Z</time>
      </trkpt>
      <trkpt lat="41.47323" lon="20.51196">
        <ele>717.263946</ele>
        <time>2022-04-27T09:09:42.802Z</time>
      </trkpt>
      <trkpt lat="41.47312" lon="20.51191">
        <ele>717.345362</ele>
        <time>2022-04-27T09:09:46.773Z</time>
      </trkpt>
      <trkpt lat="41.47302" lon="20.51187">
        <ele>717.423641</ele>
        <time>2022-04-27T09:09:50.785Z</time>
      </trkpt>
      <trkpt lat="41.47291" lon="20.51182">
        <ele>717.509591</ele>
        <time>2022-04-27T09:09:54.782Z</time>
      </trkpt>
      <trkpt lat="41.4728" lon="20.51177">
        <ele>717.594875</ele>
        <time>2022-04-27T09:09:58.776Z</time>
      </trkpt>
      <trkpt lat="41.47269" lon="20.51171">
        <ele>717.680159</ele>
        <time>2022-04-27T09:10:02.764Z</time>
      </trkpt>
      <trkpt lat="41.47258" lon="20.51167">
        <ele>717.766104</ele>
        <time>2022-04-27T09:10:06.784Z</time>
      </trkpt>
      <trkpt lat="41.47249" lon="20.51164">
        <ele>717.836314</ele>
        <time>2022-04-27T09:10:09.780Z</time>
      </trkpt>
      <trkpt lat="41.4724" lon="20.51162">
        <ele>718.050078</ele>
        <time>2022-04-27T09:10:12.783Z</time>
      </trkpt>
      <trkpt lat="41.4723" lon="20.51161">
        <ele>718.492713</ele>
        <time>2022-04-27T09:10:15.786Z</time>
      </trkpt>
      <trkpt lat="41.4722" lon="20.5116">
        <ele>718.92886</ele>
        <time>2022-04-27T09:10:18.781Z</time>
      </trkpt>
      <trkpt lat="41.47211" lon="20.51159">
        <ele>719.378293</ele>
        <time>2022-04-27T09:10:21.769Z</time>
      </trkpt>
      <trkpt lat="41.47201" lon="20.51159">
        <ele>719.799622</ele>
        <time>2022-04-27T09:10:24.784Z</time>
      </trkpt>
      <trkpt lat="41.47192" lon="20.51161">
        <ele>720.228614</ele>
        <time>2022-04-27T09:10:27.790Z</time>
      </trkpt>
      <trkpt lat="41.47182" lon="20.51163">
        <ele>720.682622</ele>
        <time>2022-04-27T09:10:30.772Z</time>
      </trkpt>
      <trkpt lat="41.47173" lon="20.51164">
        <ele>721.093435</ele>
        <time>2022-04-27T09:10:33.767Z</time>
      </trkpt>
      <trkpt lat="41.47162" lon="20.51166">
        <ele>721.607334</ele>
        <time>2022-04-27T09:10:37.768Z</time>
      </trkpt>
      <trkpt lat="41.47151" lon="20.5117">
        <ele>722.123249</ele>
        <time>2022-04-27T09:10:41.752Z</time>
      </trkpt>
      <trkpt lat="41.47141" lon="20.51175">
        <ele>722.635988</ele>
        <time>2022-04-27T09:10:45.782Z</time>
      </trkpt>
      <trkpt lat="41.4713" lon="20.51179">
        <ele>723.129202</ele>
        <time>2022-04-27T09:10:49.759Z</time>
      </trkpt>
      <trkpt lat="41.4712" lon="20.51181">
        <ele>723.595396</ele>
        <time>2022-04-27T09:10:53.756Z</time>
      </trkpt>
      <trkpt lat="41.47109" lon="20.51185">
        <ele>724.138459</ele>
        <time>2022-04-27T09:10:57.771Z</time>
      </trkpt>
      <trkpt lat="41.47098" lon="20.51191">
        <ele>724.665422</ele>
        <time>2022-04-27T09:11:01.791Z</time>
      </trkpt>
      <trkpt lat="41.4709" lon="20.51196">
        <ele>725.092891</ele>
        <time>2022-04-27T09:11:04.764Z</time>
      </trkpt>
      <trkpt lat="41.47081" lon="20.51203">
        <ele>725.544551</ele>
        <time>2022-04-27T09:11:07.791Z</time>
      </trkpt>
      <trkpt lat="41.47072" lon="20.51207">
        <ele>725.981624</ele>
        <time>2022-04-27T09:11:10.780Z</time>
      </trkpt>
      <trkpt lat="41.47064" lon="20.51211">
        <ele>726.310654</ele>
        <time>2022-04-27T09:11:13.781Z</time>
      </trkpt>
      <trkpt lat="41.47055" lon="20.51216">
        <ele>726.584654</ele>
        <time>2022-04-27T09:11:16.806Z</time>
      </trkpt>
      <trkpt lat="41.47046" lon="20.51221">
        <ele>726.87823</ele>
        <time>2022-04-27T09:11:19.771Z</time>
      </trkpt>
      <trkpt lat="41.47037" lon="20.51225">
        <ele>727.164937</ele>
        <time>2022-04-27T09:11:22.758Z</time>
      </trkpt>
      <trkpt lat="41.47027" lon="20.51229">
        <ele>727.501519</ele>
        <time>2022-04-27T09:11:25.766Z</time>
      </trkpt>
      <trkpt lat="41.47017" lon="20.51234">
        <ele>727.809211</ele>
        <time>2022-04-27T09:11:28.768Z</time>
      </trkpt>
      <trkpt lat="41.47008" lon="20.51239">
        <ele>728.097171</ele>
        <time>2022-04-27T09:11:31.788Z</time>
      </trkpt>
      <trkpt lat="41.46997" lon="20.51243">
        <ele>728.443723</ele>
        <time>2022-04-27T09:11:34.780Z</time>
      </trkpt>
      <trkpt lat="41.46986" lon="20.51245">
        <ele>728.797813</ele>
        <time>2022-04-27T09:11:37.767Z</time>
      </trkpt>
      <trkpt lat="41.46974" lon="20.51247">
        <ele>729.141566</ele>
        <time>2022-04-27T09:11:40.766Z</time>
      </trkpt>
      <trkpt lat="41.46965" lon="20.51246">
        <ele>729.442479</ele>
        <time>2022-04-27T09:11:43.779Z</time>
      </trkpt>
      <trkpt lat="41.46955" lon="20.51245">
        <ele>729.722479</ele>
        <time>2022-04-27T09:11:46.773Z</time>
      </trkpt>
      <trkpt lat="41.46943" lon="20.51244">
        <ele>730.083649</ele>
        <time>2022-04-27T09:11:50.787Z</time>
      </trkpt>
      <trkpt lat="41.46932" lon="20.51245">
        <ele>730.445503</ele>
        <time>2022-04-27T09:11:54.787Z</time>
      </trkpt>
      <trkpt lat="41.4692" lon="20.51249">
        <ele>730.803298</ele>
        <time>2022-04-27T09:11:58.776Z</time>
      </trkpt>
      <trkpt lat="41.46911" lon="20.51252">
        <ele>731.082096</ele>
        <time>2022-04-27T09:12:01.767Z</time>
      </trkpt>
      <trkpt lat="41.46902" lon="20.51256">
        <ele>731.363791</ele>
        <time>2022-04-27T09:12:04.770Z</time>
      </trkpt>
      <trkpt lat="41.46894" lon="20.51265">
        <ele>731.729391</ele>
        <time>2022-04-27T09:12:08.760Z</time>
      </trkpt>
      <trkpt lat="41.46886" lon="20.51276">
        <ele>732.129744</ele>
        <time>2022-04-27T09:12:12.809Z</time>
      </trkpt>
      <trkpt lat="41.46879" lon="20.51288">
        <ele>732.543925</ele>
        <time>2022-04-27T09:12:17.779Z</time>
      </trkpt>
      <trkpt lat="41.46873" lon="20.51297">
        <ele>732.885349</ele>
        <time>2022-04-27T09:12:21.770Z</time>
      </trkpt>
      <trkpt lat="41.46865" lon="20.51307">
        <ele>733.27118</ele>
        <time>2022-04-27T09:12:25.790Z</time>
      </trkpt>
      <trkpt lat="41.46857" lon="20.51315">
        <ele>733.648203</ele>
        <time>2022-04-27T09:12:29.790Z</time>
      </trkpt>
      <trkpt lat="41.46849" lon="20.51321">
        <ele>733.982491</ele>
        <time>2022-04-27T09:12:33.811Z</time>
      </trkpt>
      <trkpt lat="41.46838" lon="20.51326">
        <ele>734.393754</ele>
        <time>2022-04-27T09:12:38.785Z</time>
      </trkpt>
      <trkpt lat="41.46829" lon="20.51329">
        <ele>734.758021</ele>
        <time>2022-04-27T09:12:42.772Z</time>
      </trkpt>
      <trkpt lat="41.46818" lon="20.5133">
        <ele>735.153682</ele>
        <time>2022-04-27T09:12:47.780Z</time>
      </trkpt>
      <trkpt lat="41.46808" lon="20.51329">
        <ele>735.512974</ele>
        <time>2022-04-27T09:12:52.788Z</time>
      </trkpt>
      <trkpt lat="41.46799" lon="20.51327">
        <ele>735.860493</ele>
        <time>2022-04-27T09:12:57.777Z</time>
      </trkpt>
      <trkpt lat="41.46789" lon="20.51324">
        <ele>736.225827</ele>
        <time>2022-04-27T09:13:02.776Z</time>
      </trkpt>
      <trkpt lat="41.46779" lon="20.51321">
        <ele>736.600637</ele>
        <time>2022-04-27T09:13:07.768Z</time>
      </trkpt>
      <trkpt lat="41.46769" lon="20.51319">
        <ele>736.954567</ele>
        <time>2022-04-27T09:13:12.808Z</time>
      </trkpt>
      <trkpt lat="41.4676" lon="20.51319">
        <ele>737.294145</ele>
        <time>2022-04-27T09:13:17.781Z</time>
      </trkpt>
      <trkpt lat="41.4675" lon="20.51322">
        <ele>737.674436</ele>
        <time>2022-04-27T09:13:23.762Z</time>
      </trkpt>
      <trkpt lat="41.46741" lon="20.51327">
        <ele>738.015088</ele>
        <time>2022-04-27T09:13:29.792Z</time>
      </trkpt>
      <trkpt lat="41.46732" lon="20.51333">
        <ele>738.149773</ele>
        <time>2022-04-27T09:13:36.818Z</time>
      </trkpt>
      <trkpt lat="41.46726" lon="20.51343">
        <ele>738.179244</ele>
        <time>2022-04-27T09:13:43.773Z</time>
      </trkpt>
      <trkpt lat="41.46721" lon="20.51356">
        <ele>738.210474</ele>
        <time>2022-04-27T09:13:49.768Z</time>
      </trkpt>
      <trkpt lat="41.46717" lon="20.51368">
        <ele>738.240187</ele>
        <time>2022-04-27T09:13:53.781Z</time>
      </trkpt>
      <trkpt lat="41.46716" lon="20.51381">
        <ele>738.267068</ele>
        <time>2022-04-27T09:13:58.812Z</time>
      </trkpt>
      <trkpt lat="41.46715" lon="20.51394">
        <ele>738.296018</ele>
        <time>2022-04-27T09:14:04.781Z</time>
      </trkpt>
      <trkpt lat="41.46715" lon="20.51407">
        <ele>738.324317</ele>
        <time>2022-04-27T09:14:10.769Z</time>
      </trkpt>
      <trkpt lat="41.46712" lon="20.5142">
        <ele>738.353627</ele>
        <time>2022-04-27T09:14:15.757Z</time>
      </trkpt>
      <trkpt lat="41.46709" lon="20.51434">
        <ele>738.385474</ele>
        <time>2022-04-27T09:14:20.766Z</time>
      </trkpt>
      <trkpt lat="41.46704" lon="20.51446">
        <ele>738.414181</ele>
        <time>2022-04-27T09:14:25.803Z</time>
      </trkpt>
      <trkpt lat="41.46701" lon="20.51457">
        <ele>738.440499</ele>
        <time>2022-04-27T09:14:30.763Z</time>
      </trkpt>
      <trkpt lat="41.46696" lon="20.51467">
        <ele>738.467375</ele>
        <time>2022-04-27T09:14:35.774Z</time>
      </trkpt>
      <trkpt lat="41.46689" lon="20.51478">
        <ele>738.496771</ele>
        <time>2022-04-27T09:14:41.758Z</time>
      </trkpt>
      <trkpt lat="41.46684" lon="20.51489">
        <ele>738.525805</ele>
        <time>2022-04-27T09:14:47.768Z</time>
      </trkpt>
      <trkpt lat="41.46679" lon="20.515">
        <ele>738.554015</ele>
        <time>2022-04-27T09:14:53.803Z</time>
      </trkpt>
      <trkpt lat="41.46672" lon="20.51509">
        <ele>738.58129</ele>
        <time>2022-04-27T09:14:58.771Z</time>
      </trkpt>
      <trkpt lat="41.46669" lon="20.51523">
        <ele>738.611918</ele>
        <time>2022-04-27T09:15:05.804Z</time>
      </trkpt>
      <trkpt lat="41.46667" lon="20.51536">
        <ele>738.641925</ele>
        <time>2022-04-27T09:15:11.781Z</time>
      </trkpt>
      <trkpt lat="41.46665" lon="20.51548">
        <ele>738.732755</ele>
        <time>2022-04-27T09:15:17.771Z</time>
      </trkpt>
      <trkpt lat="41.46661" lon="20.5156">
        <ele>738.867133</ele>
        <time>2022-04-27T09:15:23.780Z</time>
      </trkpt>
      <trkpt lat="41.46658" lon="20.51574">
        <ele>739.009763</ele>
        <time>2022-04-27T09:15:29.766Z</time>
      </trkpt>
      <trkpt lat="41.46655" lon="20.51587">
        <ele>739.14862</ele>
        <time>2022-04-27T09:15:35.794Z</time>
      </trkpt>
      <trkpt lat="41.4665" lon="20.51597">
        <ele>739.272404</ele>
        <time>2022-04-27T09:15:40.780Z</time>
      </trkpt>
      <trkpt lat="41.46644" lon="20.51607">
        <ele>739.407319</ele>
        <time>2022-04-27T09:15:45.774Z</time>
      </trkpt>
      <trkpt lat="41.46636" lon="20.51616">
        <ele>739.548737</ele>
        <time>2022-04-27T09:15:50.776Z</time>
      </trkpt>
      <trkpt lat="41.46628" lon="20.51623">
        <ele>739.678642</ele>
        <time>2022-04-27T09:15:55.825Z</time>
      </trkpt>
      <trkpt lat="41.46619" lon="20.51627">
        <ele>739.802083</ele>
        <time>2022-04-27T09:15:59.768Z</time>
      </trkpt>
      <trkpt lat="41.46609" lon="20.51627">
        <ele>739.948619</ele>
        <time>2022-04-27T09:16:03.800Z</time>
      </trkpt>
      <trkpt lat="41.46599" lon="20.51625">
        <ele>740.085901</ele>
        <time>2022-04-27T09:16:07.807Z</time>
      </trkpt>
      <trkpt lat="41.46589" lon="20.51622">
        <ele>740.219391</ele>
        <time>2022-04-27T09:16:11.768Z</time>
      </trkpt>
      <trkpt lat="41.46579" lon="20.51616">
        <ele>740.373683</ele>
        <time>2022-04-27T09:16:15.785Z</time>
      </trkpt>
      <trkpt lat="41.46569" lon="20.51608">
        <ele>740.529043</ele>
        <time>2022-04-27T09:16:19.778Z</time>
      </trkpt>
      <trkpt lat="41.46562" lon="20.51602">
        <ele>740.652055</ele>
        <time>2022-04-27T09:16:22.851Z</time>
      </trkpt>
      <trkpt lat="41.46554" lon="20.51594">
        <ele>740.778542</ele>
        <time>2022-04-27T09:16:25.761Z</time>
      </trkpt>
      <trkpt lat="41.46544" lon="20.51587">
        <ele>740.941933</ele>
        <time>2022-04-27T09:16:29.760Z</time>
      </trkpt>
      <trkpt lat="41.46534" lon="20.51584">
        <ele>741.074187</ele>
        <time>2022-04-27T09:16:32.784Z</time>
      </trkpt>
      <trkpt lat="41.46525" lon="20.51584">
        <ele>741.095276</ele>
        <time>2022-04-27T09:16:35.780Z</time>
      </trkpt>
      <trkpt lat="41.46516" lon="20.51585">
        <ele>741.072129</ele>
        <time>2022-04-27T09:16:38.764Z</time>
      </trkpt>
      <trkpt lat="41.46506" lon="20.51589">
        <ele>741.047301</ele>
        <time>2022-04-27T09:16:41.779Z</time>
      </trkpt>
      <trkpt lat="41.46497" lon="20.51593">
        <ele>741.021853</ele>
        <time>2022-04-27T09:16:44.805Z</time>
      </trkpt>
      <trkpt lat="41.46486" lon="20.51597">
        <ele>740.993551</ele>
        <time>2022-04-27T09:16:47.766Z</time>
      </trkpt>
      <trkpt lat="41.46473" lon="20.51601">
        <ele>740.960091</ele>
        <time>2022-04-27T09:16:50.771Z</time>
      </trkpt>
      <trkpt lat="41.4646" lon="20.51605">
        <ele>740.928021</ele>
        <time>2022-04-27T09:16:53.776Z</time>
      </trkpt>
      <trkpt lat="41.46448" lon="20.51608">
        <ele>740.897841</ele>
        <time>2022-04-27T09:16:56.762Z</time>
      </trkpt>
      <trkpt lat="41.46438" lon="20.51612">
        <ele>740.870885</ele>
        <time>2022-04-27T09:16:59.775Z</time>
      </trkpt>
      <trkpt lat="41.46428" lon="20.51617">
        <ele>740.844503</ele>
        <time>2022-04-27T09:17:02.780Z</time>
      </trkpt>
      <trkpt lat="41.46417" lon="20.51625">
        <ele>740.813557</ele>
        <time>2022-04-27T09:17:05.782Z</time>
      </trkpt>
      <trkpt lat="41.46409" lon="20.51635">
        <ele>740.786154</ele>
        <time>2022-04-27T09:17:08.785Z</time>
      </trkpt>
      <trkpt lat="41.46402" lon="20.51647">
        <ele>740.757268</ele>
        <time>2022-04-27T09:17:11.787Z</time>
      </trkpt>
      <trkpt lat="41.46397" lon="20.5166">
        <ele>740.729169</ele>
        <time>2022-04-27T09:17:14.777Z</time>
      </trkpt>
      <trkpt lat="41.46392" lon="20.51674">
        <ele>740.701415</ele>
        <time>2022-04-27T09:17:17.769Z</time>
      </trkpt>
      <trkpt lat="41.46389" lon="20.51688">
        <ele>740.674096</ele>
        <time>2022-04-27T09:17:20.764Z</time>
      </trkpt>
      <trkpt lat="41.46384" lon="20.51701">
        <ele>740.707861</ele>
        <time>2022-04-27T09:17:23.771Z</time>
      </trkpt>
      <trkpt lat="41.46378" lon="20.51715">
        <ele>740.782287</ele>
        <time>2022-04-27T09:17:26.774Z</time>
      </trkpt>
      <trkpt lat="41.4637" lon="20.51725">
        <ele>740.858671</ele>
        <time>2022-04-27T09:17:29.753Z</time>
      </trkpt>
      <trkpt lat="41.46362" lon="20.51734">
        <ele>740.922959</ele>
        <time>2022-04-27T09:17:32.807Z</time>
      </trkpt>
      <trkpt lat="41.46352" lon="20.5174">
        <ele>740.997949</ele>
        <time>2022-04-27T09:17:36.774Z</time>
      </trkpt>
      <trkpt lat="41.46341" lon="20.51746">
        <ele>741.075178</ele>
        <time>2022-04-27T09:17:40.760Z</time>
      </trkpt>
      <trkpt lat="41.4633" lon="20.51751">
        <ele>741.148885</ele>
        <time>2022-04-27T09:17:44.828Z</time>
      </trkpt>
      <trkpt lat="41.46323" lon="20.51759">
        <ele>741.210947</ele>
        <time>2022-04-27T09:17:47.775Z</time>
      </trkpt>
      <trkpt lat="41.46314" lon="20.51768">
        <ele>741.283744</ele>
        <time>2022-04-27T09:17:50.763Z</time>
      </trkpt>
      <trkpt lat="41.46307" lon="20.51778">
        <ele>741.350919</ele>
        <time>2022-04-27T09:17:53.778Z</time>
      </trkpt>
      <trkpt lat="41.46302" lon="20.51791">
        <ele>741.424167</ele>
        <time>2022-04-27T09:17:56.780Z</time>
      </trkpt>
      <trkpt lat="41.46299" lon="20.51805">
        <ele>741.495439</ele>
        <time>2022-04-27T09:17:59.783Z</time>
      </trkpt>
      <trkpt lat="41.46298" lon="20.51818">
        <ele>741.558965</ele>
        <time>2022-04-27T09:18:02.774Z</time>
      </trkpt>
      <trkpt lat="41.46297" lon="20.51832">
        <ele>741.628048</ele>
        <time>2022-04-27T09:18:05.779Z</time>
      </trkpt>
      <trkpt lat="41.46295" lon="20.51847">
        <ele>741.704344</ele>
        <time>2022-04-27T09:18:08.754Z</time>
      </trkpt>
      <trkpt lat="41.46288" lon="20.5186">
        <ele>741.785848</ele>
        <time>2022-04-27T09:18:11.761Z</time>
      </trkpt>
      <trkpt lat="41.4628" lon="20.51874">
        <ele>741.762042</ele>
        <time>2022-04-27T09:18:14.783Z</time>
      </trkpt>
      <trkpt lat="41.46271" lon="20.51887">
        <ele>741.517382</ele>
        <time>2022-04-27T09:18:17.773Z</time>
      </trkpt>
      <trkpt lat="41.46262" lon="20.51897">
        <ele>741.283091</ele>
        <time>2022-04-27T09:18:20.774Z</time>
      </trkpt>
      <trkpt lat="41.46252" lon="20.51904">
        <ele>741.063977</ele>
        <time>2022-04-27T09:18:23.779Z</time>
      </trkpt>
      <trkpt lat="41.4624" lon="20.51905">
        <ele>740.831485</ele>
        <time>2022-04-27T09:18:26.758Z</time>
      </trkpt>
      <trkpt lat="41.46229" lon="20.51903">
        <ele>740.623223</ele>
        <time>2022-04-27T09:18:29.805Z</time>
      </trkpt>
      <trkpt lat="41.46219" lon="20.51899">
        <ele>740.428798</ele>
        <time>2022-04-27T09:18:32.788Z</time>
      </trkpt>
      <trkpt lat="41.4621" lon="20.51892">
        <ele>740.217102</ele>
        <time>2022-04-27T09:18:36.753Z</time>
      </trkpt>
      <trkpt lat="41.46201" lon="20.51882">
        <ele>739.995825</ele>
        <time>2022-04-27T09:18:40.767Z</time>
      </trkpt>
      <trkpt lat="41.46193" lon="20.51871">
        <ele>739.764492</ele>
        <time>2022-04-27T09:18:44.772Z</time>
      </trkpt>
      <trkpt lat="41.46184" lon="20.51862">
        <ele>739.557197</ele>
        <time>2022-04-27T09:18:47.760Z</time>
      </trkpt>
      <trkpt lat="41.46176" lon="20.51853">
        <ele>739.351388</ele>
        <time>2022-04-27T09:18:50.778Z</time>
      </trkpt>
      <trkpt lat="41.46168" lon="20.51845">
        <ele>739.154173</ele>
        <time>2022-04-27T09:18:53.773Z</time>
      </trkpt>
      <trkpt lat="41.46159" lon="20.51834">
        <ele>738.919452</ele>
        <time>2022-04-27T09:18:56.768Z</time>
      </trkpt>
      <trkpt lat="41.4615" lon="20.51825">
        <ele>738.707758</ele>
        <time>2022-04-27T09:18:59.765Z</time>
      </trkpt>
      <trkpt lat="41.4614" lon="20.51817">
        <ele>738.483505</ele>
        <time>2022-04-27T09:19:02.775Z</time>
      </trkpt>
      <trkpt lat="41.4613" lon="20.51808">
        <ele>738.724758</ele>
        <time>2022-04-27T09:19:05.764Z</time>
      </trkpt>
      <trkpt lat="41.4612" lon="20.51802">
        <ele>739.372606</ele>
        <time>2022-04-27T09:19:08.815Z</time>
      </trkpt>
      <trkpt lat="41.46111" lon="20.51793">
        <ele>740.043</ele>
        <time>2022-04-27T09:19:11.776Z</time>
      </trkpt>
      <trkpt lat="41.46102" lon="20.51783">
        <ele>740.705458</ele>
        <time>2022-04-27T09:19:14.808Z</time>
      </trkpt>
      <trkpt lat="41.46095" lon="20.51772">
        <ele>741.347019</ele>
        <time>2022-04-27T09:19:17.774Z</time>
      </trkpt>
      <trkpt lat="41.46088" lon="20.51762">
        <ele>741.929369</ele>
        <time>2022-04-27T09:19:20.821Z</time>
      </trkpt>
      <trkpt lat="41.4608" lon="20.51751">
        <ele>742.570669</ele>
        <time>2022-04-27T09:19:23.770Z</time>
      </trkpt>
      <trkpt lat="41.46072" lon="20.5174">
        <ele>743.266823</ele>
        <time>2022-04-27T09:19:26.769Z</time>
      </trkpt>
      <trkpt lat="41.46063" lon="20.5173">
        <ele>743.962396</ele>
        <time>2022-04-27T09:19:29.759Z</time>
      </trkpt>
      <trkpt lat="41.46053" lon="20.51722">
        <ele>744.625876</ele>
        <time>2022-04-27T09:19:32.782Z</time>
      </trkpt>
      <trkpt lat="41.46043" lon="20.51716">
        <ele>745.233744</ele>
        <time>2022-04-27T09:19:35.804Z</time>
      </trkpt>
      <trkpt lat="41.46033" lon="20.51713">
        <ele>745.863443</ele>
        <time>2022-04-27T09:19:38.779Z</time>
      </trkpt>
      <trkpt lat="41.46022" lon="20.5171">
        <ele>746.529193</ele>
        <time>2022-04-27T09:19:41.775Z</time>
      </trkpt>
      <trkpt lat="41.46012" lon="20.5171">
        <ele>747.088026</ele>
        <time>2022-04-27T09:19:44.778Z</time>
      </trkpt>
      <trkpt lat="41.46001" lon="20.51712">
        <ele>747.70921</ele>
        <time>2022-04-27T09:19:47.762Z</time>
      </trkpt>
      <trkpt lat="41.45992" lon="20.51715">
        <ele>748.269121</ele>
        <time>2022-04-27T09:19:50.773Z</time>
      </trkpt>
      <trkpt lat="41.45983" lon="20.51722">
        <ele>748.834185</ele>
        <time>2022-04-27T09:19:53.801Z</time>
      </trkpt>
      <trkpt lat="41.45975" lon="20.5173">
        <ele>748.803339</ele>
        <time>2022-04-27T09:19:56.778Z</time>
      </trkpt>
      <trkpt lat="41.45967" lon="20.51741">
        <ele>748.76948</ele>
        <time>2022-04-27T09:19:59.789Z</time>
      </trkpt>
      <trkpt lat="41.45961" lon="20.51754">
        <ele>748.735455</ele>
        <time>2022-04-27T09:20:02.771Z</time>
      </trkpt>
      <trkpt lat="41.45957" lon="20.51768">
        <ele>748.702017</ele>
        <time>2022-04-27T09:20:05.778Z</time>
      </trkpt>
      <trkpt lat="41.45953" lon="20.51781">
        <ele>748.67085</ele>
        <time>2022-04-27T09:20:08.769Z</time>
      </trkpt>
      <trkpt lat="41.45951" lon="20.51794">
        <ele>748.639396</ele>
        <time>2022-04-27T09:20:11.788Z</time>
      </trkpt>
      <trkpt lat="41.45948" lon="20.51809">
        <ele>748.605111</ele>
        <time>2022-04-27T09:20:14.764Z</time>
      </trkpt>
      <trkpt lat="41.45943" lon="20.51823">
        <ele>748.569491</ele>
        <time>2022-04-27T09:20:17.779Z</time>
      </trkpt>
      <trkpt lat="41.45937" lon="20.51837">
        <ele>748.533927</ele>
        <time>2022-04-27T09:20:20.782Z</time>
      </trkpt>
      <trkpt lat="41.4593" lon="20.51851">
        <ele>748.496983</ele>
        <time>2022-04-27T09:20:23.769Z</time>
      </trkpt>
      <trkpt lat="41.4592" lon="20.51861">
        <ele>748.459722</ele>
        <time>2022-04-27T09:20:26.764Z</time>
      </trkpt>
      <trkpt lat="41.45911" lon="20.51868">
        <ele>748.427792</ele>
        <time>2022-04-27T09:20:29.759Z</time>
      </trkpt>
      <trkpt lat="41.45901" lon="20.51874">
        <ele>748.396644</ele>
        <time>2022-04-27T09:20:32.785Z</time>
      </trkpt>
      <trkpt lat="41.4589" lon="20.51878">
        <ele>748.361888</ele>
        <time>2022-04-27T09:20:35.756Z</time>
      </trkpt>
      <trkpt lat="41.45879" lon="20.51884">
        <ele>748.327679</ele>
        <time>2022-04-27T09:20:38.784Z</time>
      </trkpt>
      <trkpt lat="41.45869" lon="20.5189">
        <ele>748.283439</ele>
        <time>2022-04-27T09:20:41.793Z</time>
      </trkpt>
      <trkpt lat="41.45859" lon="20.51899">
        <ele>748.166794</ele>
        <time>2022-04-27T09:20:44.782Z</time>
      </trkpt>
      <trkpt lat="41.45853" lon="20.51908">
        <ele>748.077161</ele>
        <time>2022-04-27T09:20:46.778Z</time>
      </trkpt>
      <trkpt lat="41.45849" lon="20.51919">
        <ele>747.986269</ele>
        <time>2022-04-27T09:20:48.810Z</time>
      </trkpt>
      <trkpt lat="41.45845" lon="20.51936">
        <ele>747.86064</ele>
        <time>2022-04-27T09:20:51.787Z</time>
      </trkpt>
      <trkpt lat="41.45845" lon="20.5195">
        <ele>747.75417</ele>
        <time>2022-04-27T09:20:54.811Z</time>
      </trkpt>
      <trkpt lat="41.45848" lon="20.51965">
        <ele>747.643737</ele>
        <time>2022-04-27T09:20:57.766Z</time>
      </trkpt>
      <trkpt lat="41.45853" lon="20.51975">
        <ele>747.554068</ele>
        <time>2022-04-27T09:20:59.791Z</time>
      </trkpt>
      <trkpt lat="41.45859" lon="20.51985">
        <ele>747.462226</ele>
        <time>2022-04-27T09:21:01.762Z</time>
      </trkpt>
      <trkpt lat="41.45868" lon="20.51996">
        <ele>747.343162</ele>
        <time>2022-04-27T09:21:04.779Z</time>
      </trkpt>
      <trkpt lat="41.45877" lon="20.52007">
        <ele>747.225793</ele>
        <time>2022-04-27T09:21:07.778Z</time>
      </trkpt>
      <trkpt lat="41.45885" lon="20.52019">
        <ele>747.102159</ele>
        <time>2022-04-27T09:21:10.785Z</time>
      </trkpt>
      <trkpt lat="41.45892" lon="20.52033">
        <ele>746.976293</ele>
        <time>2022-04-27T09:21:13.780Z</time>
      </trkpt>
      <trkpt lat="41.45898" lon="20.52049">
        <ele>746.849761</ele>
        <time>2022-04-27T09:21:16.802Z</time>
      </trkpt>
      <trkpt lat="41.45902" lon="20.5206">
        <ele>746.759504</ele>
        <time>2022-04-27T09:21:18.767Z</time>
      </trkpt>
      <trkpt lat="41.45905" lon="20.52077">
        <ele>746.633669</ele>
        <time>2022-04-27T09:21:21.768Z</time>
      </trkpt>
      <trkpt lat="41.45906" lon="20.52093">
        <ele>746.428696</ele>
        <time>2022-04-27T09:21:24.781Z</time>
      </trkpt>
      <trkpt lat="41.45906" lon="20.52109">
        <ele>745.891556</ele>
        <time>2022-04-27T09:21:27.773Z</time>
      </trkpt>
      <trkpt lat="41.45906" lon="20.52126">
        <ele>745.344525</ele>
        <time>2022-04-27T09:21:30.769Z</time>
      </trkpt>
      <trkpt lat="41.45906" lon="20.52142">
        <ele>744.793326</ele>
        <time>2022-04-27T09:21:33.815Z</time>
      </trkpt>
      <trkpt lat="41.45904" lon="20.52157">
        <ele>744.29103</ele>
        <time>2022-04-27T09:21:36.771Z</time>
      </trkpt>
      <trkpt lat="41.45901" lon="20.52173">
        <ele>743.767033</ele>
        <time>2022-04-27T09:21:39.771Z</time>
      </trkpt>
      <trkpt lat="41.45895" lon="20.52187">
        <ele>743.237114</ele>
        <time>2022-04-27T09:21:42.770Z</time>
      </trkpt>
      <trkpt lat="41.45889" lon="20.52201">
        <ele>742.693379</ele>
        <time>2022-04-27T09:21:45.781Z</time>
      </trkpt>
      <trkpt lat="41.45885" lon="20.52213">
        <ele>742.272077</ele>
        <time>2022-04-27T09:21:47.776Z</time>
      </trkpt>
      <trkpt lat="41.4588" lon="20.52224">
        <ele>741.837032</ele>
        <time>2022-04-27T09:21:49.778Z</time>
      </trkpt>
      <trkpt lat="41.45872" lon="20.52237">
        <ele>741.268625</ele>
        <time>2022-04-27T09:21:52.766Z</time>
      </trkpt>
      <trkpt lat="41.45863" lon="20.52246">
        <ele>740.79519</ele>
        <time>2022-04-27T09:21:54.783Z</time>
      </trkpt>
      <trkpt lat="41.45855" lon="20.52252">
        <ele>740.370079</ele>
        <time>2022-04-27T09:21:56.777Z</time>
      </trkpt>
      <trkpt lat="41.45844" lon="20.52261">
        <ele>739.824709</ele>
        <time>2022-04-27T09:21:59.786Z</time>
      </trkpt>
      <trkpt lat="41.45833" lon="20.52265">
        <ele>739.297856</ele>
        <time>2022-04-27T09:22:02.771Z</time>
      </trkpt>
      <trkpt lat="41.45821" lon="20.52269">
        <ele>738.742191</ele>
        <time>2022-04-27T09:22:05.765Z</time>
      </trkpt>
      <trkpt lat="41.45812" lon="20.52271">
        <ele>738.502151</ele>
        <time>2022-04-27T09:22:07.798Z</time>
      </trkpt>
      <trkpt lat="41.45799" lon="20.52275">
        <ele>738.317384</ele>
        <time>2022-04-27T09:22:10.758Z</time>
      </trkpt>
      <trkpt lat="41.45786" lon="20.52282">
        <ele>738.126649</ele>
        <time>2022-04-27T09:22:13.793Z</time>
      </trkpt>
      <trkpt lat="41.45778" lon="20.5229">
        <ele>737.980715</ele>
        <time>2022-04-27T09:22:15.783Z</time>
      </trkpt>
      <trkpt lat="41.45769" lon="20.52299">
        <ele>737.82922</ele>
        <time>2022-04-27T09:22:17.788Z</time>
      </trkpt>
      <trkpt lat="41.4576" lon="20.52309">
        <ele>737.667499</ele>
        <time>2022-04-27T09:22:19.807Z</time>
      </trkpt>
      <trkpt lat="41.45751" lon="20.52319">
        <ele>737.498354</ele>
        <time>2022-04-27T09:22:21.767Z</time>
      </trkpt>
      <trkpt lat="41.45741" lon="20.52327">
        <ele>737.33439</ele>
        <time>2022-04-27T09:22:23.783Z</time>
      </trkpt>
      <trkpt lat="41.4573" lon="20.52335">
        <ele>737.166585</ele>
        <time>2022-04-27T09:22:25.779Z</time>
      </trkpt>
      <trkpt lat="41.4572" lon="20.52343">
        <ele>736.996571</ele>
        <time>2022-04-27T09:22:27.771Z</time>
      </trkpt>
      <trkpt lat="41.45707" lon="20.52348">
        <ele>736.815177</ele>
        <time>2022-04-27T09:22:29.773Z</time>
      </trkpt>
      <trkpt lat="41.45695" lon="20.52355">
        <ele>736.628947</ele>
        <time>2022-04-27T09:22:31.771Z</time>
      </trkpt>
      <trkpt lat="41.45684" lon="20.52362">
        <ele>736.455235</ele>
        <time>2022-04-27T09:22:33.790Z</time>
      </trkpt>
      <trkpt lat="41.45672" lon="20.52371">
        <ele>736.265052</ele>
        <time>2022-04-27T09:22:35.772Z</time>
      </trkpt>
      <trkpt lat="41.45661" lon="20.52381">
        <ele>736.073107</ele>
        <time>2022-04-27T09:22:37.760Z</time>
      </trkpt>
      <trkpt lat="41.4565" lon="20.52393">
        <ele>735.407188</ele>
        <time>2022-04-27T09:22:39.744Z</time>
      </trkpt>
      <trkpt lat="41.45639" lon="20.52403">
        <ele>734.728389</ele>
        <time>2022-04-27T09:22:41.830Z</time>
      </trkpt>
      <trkpt lat="41.45626" lon="20.52411">
        <ele>734.028645</ele>
        <time>2022-04-27T09:22:43.794Z</time>
      </trkpt>
      <trkpt lat="41.45612" lon="20.52417">
        <ele>733.291754</ele>
        <time>2022-04-27T09:22:45.767Z</time>
      </trkpt>
      <trkpt lat="41.45598" lon="20.52417">
        <ele>732.59446</ele>
        <time>2022-04-27T09:22:47.772Z</time>
      </trkpt>
      <trkpt lat="41.45584" lon="20.52409">
        <ele>731.81236</ele>
        <time>2022-04-27T09:22:49.739Z</time>
      </trkpt>
      <trkpt lat="41.45571" lon="20.52396">
        <ele>731.021312</ele>
        <time>2022-04-27T09:22:51.752Z</time>
      </trkpt>
      <trkpt lat="41.45563" lon="20.52381">
        <ele>730.325909</ele>
        <time>2022-04-27T09:22:53.741Z</time>
      </trkpt>
      <trkpt lat="41.4556" lon="20.52362">
        <ele>729.578514</ele>
        <time>2022-04-27T09:22:55.756Z</time>
      </trkpt>
      <trkpt lat="41.45561" lon="20.5234">
        <ele>728.751288</ele>
        <time>2022-04-27T09:22:57.746Z</time>
      </trkpt>
      <trkpt lat="41.45563" lon="20.52318">
        <ele>727.91619</ele>
        <time>2022-04-27T09:22:59.746Z</time>
      </trkpt>
      <trkpt lat="41.45566" lon="20.52296">
        <ele>727.096631</ele>
        <time>2022-04-27T09:23:01.758Z</time>
      </trkpt>
      <trkpt lat="41.45569" lon="20.52275">
        <ele>725.073786</ele>
        <time>2022-04-27T09:23:03.748Z</time>
      </trkpt>
      <trkpt lat="41.45573" lon="20.52254">
        <ele>723.093022</ele>
        <time>2022-04-27T09:23:05.753Z</time>
      </trkpt>
      <trkpt lat="41.45576" lon="20.52234">
        <ele>721.111173</ele>
        <time>2022-04-27T09:23:07.751Z</time>
      </trkpt>
      <trkpt lat="41.45578" lon="20.52215">
        <ele>719.230545</ele>
        <time>2022-04-27T09:23:09.745Z</time>
      </trkpt>
      <trkpt lat="41.4558" lon="20.52196">
        <ele>717.431552</ele>
        <time>2022-04-27T09:23:11.748Z</time>
      </trkpt>
      <trkpt lat="41.45582" lon="20.52177">
        <ele>715.611372</ele>
        <time>2022-04-27T09:23:13.786Z</time>
      </trkpt>
      <trkpt lat="41.45583" lon="20.52158">
        <ele>713.751642</ele>
        <time>2022-04-27T09:23:15.749Z</time>
      </trkpt>
      <trkpt lat="41.45583" lon="20.52138">
        <ele>711.869509</ele>
        <time>2022-04-27T09:23:17.757Z</time>
      </trkpt>
      <trkpt lat="41.45581" lon="20.52119">
        <ele>710.052474</ele>
        <time>2022-04-27T09:23:19.742Z</time>
      </trkpt>
      <trkpt lat="41.45576" lon="20.52101">
        <ele>708.221511</ele>
        <time>2022-04-27T09:23:21.760Z</time>
      </trkpt>
      <trkpt lat="41.45562" lon="20.52082">
        <ele>705.707433</ele>
        <time>2022-04-27T09:23:24.774Z</time>
      </trkpt>
      <trkpt lat="41.45551" lon="20.52076">
        <ele>704.091269</ele>
        <time>2022-04-27T09:23:26.756Z</time>
      </trkpt>
      <trkpt lat="41.45536" lon="20.52073">
        <ele>703.290349</ele>
        <time>2022-04-27T09:23:28.739Z</time>
      </trkpt>
      <trkpt lat="41.45522" lon="20.52077">
        <ele>702.461529</ele>
        <time>2022-04-27T09:23:30.745Z</time>
      </trkpt>
      <trkpt lat="41.45508" lon="20.52086">
        <ele>701.610983</ele>
        <time>2022-04-27T09:23:32.751Z</time>
      </trkpt>
      <trkpt lat="41.45497" lon="20.52098">
        <ele>700.803896</ele>
        <time>2022-04-27T09:23:34.740Z</time>
      </trkpt>
      <trkpt lat="41.45486" lon="20.52113">
        <ele>699.976566</ele>
        <time>2022-04-27T09:23:36.757Z</time>
      </trkpt>
      <trkpt lat="41.45476" lon="20.52127">
        <ele>699.16745</ele>
        <time>2022-04-27T09:23:38.752Z</time>
      </trkpt>
      <trkpt lat="41.45467" lon="20.52141">
        <ele>698.400352</ele>
        <time>2022-04-27T09:23:40.756Z</time>
      </trkpt>
      <trkpt lat="41.45459" lon="20.52154">
        <ele>697.659849</ele>
        <time>2022-04-27T09:23:42.740Z</time>
      </trkpt>
      <trkpt lat="41.45449" lon="20.52166">
        <ele>696.926282</ele>
        <time>2022-04-27T09:23:44.749Z</time>
      </trkpt>
      <trkpt lat="41.45439" lon="20.52177">
        <ele>696.225706</ele>
        <time>2022-04-27T09:23:46.772Z</time>
      </trkpt>
      <trkpt lat="41.45427" lon="20.52186">
        <ele>695.453385</ele>
        <time>2022-04-27T09:23:48.757Z</time>
      </trkpt>
      <trkpt lat="41.45413" lon="20.52192">
        <ele>694.664287</ele>
        <time>2022-04-27T09:23:50.744Z</time>
      </trkpt>
      <trkpt lat="41.45399" lon="20.52195">
        <ele>693.727051</ele>
        <time>2022-04-27T09:23:52.785Z</time>
      </trkpt>
      <trkpt lat="41.45386" lon="20.52194">
        <ele>692.470761</ele>
        <time>2022-04-27T09:23:54.746Z</time>
      </trkpt>
      <trkpt lat="41.45372" lon="20.52189">
        <ele>691.211312</ele>
        <time>2022-04-27T09:23:56.750Z</time>
      </trkpt>
      <trkpt lat="41.4536" lon="20.52181">
        <ele>689.895514</ele>
        <time>2022-04-27T09:23:58.749Z</time>
      </trkpt>
      <trkpt lat="41.45349" lon="20.5217">
        <ele>688.66325</ele>
        <time>2022-04-27T09:24:00.791Z</time>
      </trkpt>
      <trkpt lat="41.45341" lon="20.52156">
        <ele>687.470047</ele>
        <time>2022-04-27T09:24:02.770Z</time>
      </trkpt>
      <trkpt lat="41.45337" lon="20.52142">
        <ele>686.417847</ele>
        <time>2022-04-27T09:24:04.751Z</time>
      </trkpt>
      <trkpt lat="41.45334" lon="20.52126">
        <ele>685.313605</ele>
        <time>2022-04-27T09:24:06.793Z</time>
      </trkpt>
      <trkpt lat="41.45332" lon="20.52109">
        <ele>684.110987</ele>
        <time>2022-04-27T09:24:08.771Z</time>
      </trkpt>
      <trkpt lat="41.45332" lon="20.52091">
        <ele>682.879974</ele>
        <time>2022-04-27T09:24:10.764Z</time>
      </trkpt>
      <trkpt lat="41.45332" lon="20.52075">
        <ele>681.77977</ele>
        <time>2022-04-27T09:24:12.758Z</time>
      </trkpt>
      <trkpt lat="41.45332" lon="20.52058">
        <ele>680.597758</ele>
        <time>2022-04-27T09:24:14.775Z</time>
      </trkpt>
      <trkpt lat="41.45333" lon="20.5204">
        <ele>679.415924</ele>
        <time>2022-04-27T09:24:16.765Z</time>
      </trkpt>
      <trkpt lat="41.45332" lon="20.52023">
        <ele>678.254264</ele>
        <time>2022-04-27T09:24:18.770Z</time>
      </trkpt>
      <trkpt lat="41.45332" lon="20.52007">
        <ele>677.32738</ele>
        <time>2022-04-27T09:24:20.750Z</time>
      </trkpt>
      <trkpt lat="41.45333" lon="20.51989">
        <ele>676.623252</ele>
        <time>2022-04-27T09:24:22.773Z</time>
      </trkpt>
      <trkpt lat="41.45333" lon="20.51971">
        <ele>675.892462</ele>
        <time>2022-04-27T09:24:24.764Z</time>
      </trkpt>
      <trkpt lat="41.45333" lon="20.51953">
        <ele>675.184909</ele>
        <time>2022-04-27T09:24:26.757Z</time>
      </trkpt>
      <trkpt lat="41.4533" lon="20.51936">
        <ele>674.50484</ele>
        <time>2022-04-27T09:24:28.754Z</time>
      </trkpt>
      <trkpt lat="41.45325" lon="20.51922">
        <ele>673.848732</ele>
        <time>2022-04-27T09:24:30.760Z</time>
      </trkpt>
      <trkpt lat="41.45318" lon="20.51908">
        <ele>673.196464</ele>
        <time>2022-04-27T09:24:32.752Z</time>
      </trkpt>
      <trkpt lat="41.45309" lon="20.51897">
        <ele>672.55669</ele>
        <time>2022-04-27T09:24:34.755Z</time>
      </trkpt>
      <trkpt lat="41.45298" lon="20.51888">
        <ele>671.871837</ele>
        <time>2022-04-27T09:24:36.754Z</time>
      </trkpt>
      <trkpt lat="41.45286" lon="20.5188">
        <ele>671.154086</ele>
        <time>2022-04-27T09:24:38.752Z</time>
      </trkpt>
      <trkpt lat="41.45273" lon="20.51877">
        <ele>670.456397</ele>
        <time>2022-04-27T09:24:40.756Z</time>
      </trkpt>
      <trkpt lat="41.45259" lon="20.51879">
        <ele>669.669104</ele>
        <time>2022-04-27T09:24:42.947Z</time>
      </trkpt>
      <trkpt lat="41.45244" lon="20.51885">
        <ele>668.835097</ele>
        <time>2022-04-27T09:24:44.772Z</time>
      </trkpt>
      <trkpt lat="41.45232" lon="20.51896">
        <ele>668.069007</ele>
        <time>2022-04-27T09:24:46.768Z</time>
      </trkpt>
      <trkpt lat="41.45224" lon="20.51908">
        <ele>668.050191</ele>
        <time>2022-04-27T09:24:48.779Z</time>
      </trkpt>
      <trkpt lat="41.45218" lon="20.51922">
        <ele>668.031143</ele>
        <time>2022-04-27T09:24:50.781Z</time>
      </trkpt>
      <trkpt lat="41.45211" lon="20.51935">
        <ele>668.011601</ele>
        <time>2022-04-27T09:24:52.801Z</time>
      </trkpt>
      <trkpt lat="41.45205" lon="20.5195">
        <ele>667.99176</ele>
        <time>2022-04-27T09:24:54.770Z</time>
      </trkpt>
      <trkpt lat="41.452" lon="20.51965">
        <ele>667.971148</ele>
        <time>2022-04-27T09:24:56.787Z</time>
      </trkpt>
      <trkpt lat="41.45195" lon="20.5198">
        <ele>667.951159</ele>
        <time>2022-04-27T09:24:58.774Z</time>
      </trkpt>
      <trkpt lat="41.4519" lon="20.51995">
        <ele>667.931874</ele>
        <time>2022-04-27T09:25:00.772Z</time>
      </trkpt>
      <trkpt lat="41.45186" lon="20.5201">
        <ele>667.91264</ele>
        <time>2022-04-27T09:25:02.776Z</time>
      </trkpt>
      <trkpt lat="41.45182" lon="20.52025">
        <ele>667.894091</ele>
        <time>2022-04-27T09:25:04.779Z</time>
      </trkpt>
      <trkpt lat="41.45176" lon="20.52038">
        <ele>667.875615</ele>
        <time>2022-04-27T09:25:06.780Z</time>
      </trkpt>
      <trkpt lat="41.45169" lon="20.52048">
        <ele>667.858347</ele>
        <time>2022-04-27T09:25:08.790Z</time>
      </trkpt>
      <trkpt lat="41.4516" lon="20.52056">
        <ele>667.841037</ele>
        <time>2022-04-27T09:25:10.764Z</time>
      </trkpt>
      <trkpt lat="41.4515" lon="20.52062">
        <ele>667.82347</ele>
        <time>2022-04-27T09:25:12.808Z</time>
      </trkpt>
      <trkpt lat="41.45139" lon="20.52065">
        <ele>667.804846</ele>
        <time>2022-04-27T09:25:14.738Z</time>
      </trkpt>
      <trkpt lat="41.45126" lon="20.52064">
        <ele>667.785066</ele>
        <time>2022-04-27T09:25:16.751Z</time>
      </trkpt>
      <trkpt lat="41.45114" lon="20.52061">
        <ele>667.63374</ele>
        <time>2022-04-27T09:25:18.742Z</time>
      </trkpt>
      <trkpt lat="41.45104" lon="20.52055">
        <ele>667.446022</ele>
        <time>2022-04-27T09:25:20.776Z</time>
      </trkpt>
      <trkpt lat="41.45095" lon="20.52046">
        <ele>667.268273</ele>
        <time>2022-04-27T09:25:22.785Z</time>
      </trkpt>
      <trkpt lat="41.45088" lon="20.52037">
        <ele>667.112019</ele>
        <time>2022-04-27T09:25:24.769Z</time>
      </trkpt>
      <trkpt lat="41.45081" lon="20.52027">
        <ele>666.94807</ele>
        <time>2022-04-27T09:25:26.774Z</time>
      </trkpt>
      <trkpt lat="41.45074" lon="20.52018">
        <ele>666.792063</ele>
        <time>2022-04-27T09:25:28.772Z</time>
      </trkpt>
      <trkpt lat="41.45067" lon="20.52008">
        <ele>666.630002</ele>
        <time>2022-04-27T09:25:30.791Z</time>
      </trkpt>
      <trkpt lat="41.45058" lon="20.52">
        <ele>666.459139</ele>
        <time>2022-04-27T09:25:32.806Z</time>
      </trkpt>
      <trkpt lat="41.45049" lon="20.51994">
        <ele>666.283531</ele>
        <time>2022-04-27T09:25:34.765Z</time>
      </trkpt>
      <trkpt lat="41.45037" lon="20.51989">
        <ele>666.090668</ele>
        <time>2022-04-27T09:25:36.755Z</time>
      </trkpt>
      <trkpt lat="41.45026" lon="20.51985">
        <ele>665.902766</ele>
        <time>2022-04-27T09:25:38.774Z</time>
      </trkpt>
      <trkpt lat="41.45015" lon="20.5198">
        <ele>665.726186</ele>
        <time>2022-04-27T09:25:40.776Z</time>
      </trkpt>
      <trkpt lat="41.45005" lon="20.51974">
        <ele>665.546334</ele>
        <time>2022-04-27T09:25:42.778Z</time>
      </trkpt>
      <trkpt lat="41.44997" lon="20.51966">
        <ele>665.377891</ele>
        <time>2022-04-27T09:25:44.758Z</time>
      </trkpt>
      <trkpt lat="41.4499" lon="20.51956">
        <ele>665.215829</ele>
        <time>2022-04-27T09:25:46.757Z</time>
      </trkpt>
      <trkpt lat="41.44985" lon="20.51945">
        <ele>665.057544</ele>
        <time>2022-04-27T09:25:48.770Z</time>
      </trkpt>
      <trkpt lat="41.44981" lon="20.51932">
        <ele>664.893142</ele>
        <time>2022-04-27T09:25:50.812Z</time>
      </trkpt>
      <trkpt lat="41.44977" lon="20.51918">
        <ele>664.775509</ele>
        <time>2022-04-27T09:25:52.788Z</time>
      </trkpt>
      <trkpt lat="41.44973" lon="20.51903">
        <ele>664.65197</ele>
        <time>2022-04-27T09:25:54.764Z</time>
      </trkpt>
      <trkpt lat="41.44967" lon="20.5189">
        <ele>664.527978</ele>
        <time>2022-04-27T09:25:56.764Z</time>
      </trkpt>
      <trkpt lat="41.44957" lon="20.5188">
        <ele>664.401068</ele>
        <time>2022-04-27T09:25:58.772Z</time>
      </trkpt>
      <trkpt lat="41.44947" lon="20.51871">
        <ele>664.275991</ele>
        <time>2022-04-27T09:26:00.777Z</time>
      </trkpt>
      <trkpt lat="41.44937" lon="20.51866">
        <ele>664.162699</ele>
        <time>2022-04-27T09:26:02.808Z</time>
      </trkpt>
      <trkpt lat="41.44927" lon="20.51863">
        <ele>664.052902</ele>
        <time>2022-04-27T09:26:04.767Z</time>
      </trkpt>
      <trkpt lat="41.44916" lon="20.51862">
        <ele>663.941478</ele>
        <time>2022-04-27T09:26:06.780Z</time>
      </trkpt>
      <trkpt lat="41.44905" lon="20.51862">
        <ele>663.822063</ele>
        <time>2022-04-27T09:26:08.776Z</time>
      </trkpt>
      <trkpt lat="41.44893" lon="20.51861">
        <ele>663.701447</ele>
        <time>2022-04-27T09:26:10.787Z</time>
      </trkpt>
      <trkpt lat="41.44881" lon="20.51858">
        <ele>663.574111</ele>
        <time>2022-04-27T09:26:12.782Z</time>
      </trkpt>
      <trkpt lat="41.44869" lon="20.51855">
        <ele>663.438591</ele>
        <time>2022-04-27T09:26:14.776Z</time>
      </trkpt>
      <trkpt lat="41.44857" lon="20.51849">
        <ele>663.305892</ele>
        <time>2022-04-27T09:26:16.777Z</time>
      </trkpt>
      <trkpt lat="41.44846" lon="20.51843">
        <ele>663.184979</ele>
        <time>2022-04-27T09:26:18.782Z</time>
      </trkpt>
      <trkpt lat="41.44836" lon="20.51836">
        <ele>663.066501</ele>
        <time>2022-04-27T09:26:20.771Z</time>
      </trkpt>
      <trkpt lat="41.44826" lon="20.51829">
        <ele>663.369064</ele>
        <time>2022-04-27T09:26:22.753Z</time>
      </trkpt>
      <trkpt lat="41.44816" lon="20.51823">
        <ele>664.03929</ele>
        <time>2022-04-27T09:26:24.747Z</time>
      </trkpt>
      <trkpt lat="41.44806" lon="20.51818">
        <ele>664.698546</ele>
        <time>2022-04-27T09:26:26.763Z</time>
      </trkpt>
      <trkpt lat="41.44796" lon="20.51816">
        <ele>665.283681</ele>
        <time>2022-04-27T09:26:28.747Z</time>
      </trkpt>
      <trkpt lat="41.44784" lon="20.51816">
        <ele>666.03971</ele>
        <time>2022-04-27T09:26:31.744Z</time>
      </trkpt>
      <trkpt lat="41.44775" lon="20.51819">
        <ele>666.622901</ele>
        <time>2022-04-27T09:26:34.746Z</time>
      </trkpt>
      <trkpt lat="41.44766" lon="20.51827">
        <ele>667.272173</ele>
        <time>2022-04-27T09:26:38.773Z</time>
      </trkpt>
      <trkpt lat="41.4476" lon="20.51839">
        <ele>667.937617</ele>
        <time>2022-04-27T09:26:43.760Z</time>
      </trkpt>
      <trkpt lat="41.44755" lon="20.5185">
        <ele>668.518305</ele>
        <time>2022-04-27T09:26:48.752Z</time>
      </trkpt>
      <trkpt lat="41.4475" lon="20.51863">
        <ele>669.164049</ele>
        <time>2022-04-27T09:26:53.759Z</time>
      </trkpt>
      <trkpt lat="41.44747" lon="20.51876">
        <ele>669.796032</ele>
        <time>2022-04-27T09:26:58.760Z</time>
      </trkpt>
      <trkpt lat="41.44747" lon="20.51889">
        <ele>670.413567</ele>
        <time>2022-04-27T09:27:03.753Z</time>
      </trkpt>
      <trkpt lat="41.44745" lon="20.51902">
        <ele>671.012212</ele>
        <time>2022-04-27T09:27:08.748Z</time>
      </trkpt>
      <trkpt lat="41.44746" lon="20.51914">
        <ele>671.556747</ele>
        <time>2022-04-27T09:27:13.747Z</time>
      </trkpt>
      <trkpt lat="41.44746" lon="20.51926">
        <ele>672.118737</ele>
        <time>2022-04-27T09:27:18.742Z</time>
      </trkpt>
      <trkpt lat="41.44748" lon="20.51938">
        <ele>672.686169</ele>
        <time>2022-04-27T09:27:24.747Z</time>
      </trkpt>
      <trkpt lat="41.44748" lon="20.51953">
        <ele>673.335189</ele>
        <time>2022-04-27T09:27:31.745Z</time>
      </trkpt>
      <trkpt lat="41.44749" lon="20.51965">
        <ele>673.92258</ele>
        <time>2022-04-27T09:27:36.748Z</time>
      </trkpt>
      <trkpt lat="41.44748" lon="20.51979">
        <ele>674.693288</ele>
        <time>2022-04-27T09:27:42.745Z</time>
      </trkpt>
      <trkpt lat="41.44744" lon="20.5199">
        <ele>675.386291</ele>
        <time>2022-04-27T09:27:48.749Z</time>
      </trkpt>
      <trkpt lat="41.44739" lon="20.52001">
        <ele>676.13191</ele>
        <time>2022-04-27T09:27:55.756Z</time>
      </trkpt>
      <trkpt lat="41.44735" lon="20.52013">
        <ele>676.8962</ele>
        <time>2022-04-27T09:28:02.741Z</time>
      </trkpt>
      <trkpt lat="41.44731" lon="20.52025">
        <ele>677.630954</ele>
        <time>2022-04-27T09:28:08.757Z</time>
      </trkpt>
      <trkpt lat="41.44726" lon="20.52035">
        <ele>678.352993</ele>
        <time>2022-04-27T09:28:14.749Z</time>
      </trkpt>
      <trkpt lat="41.44721" lon="20.52047">
        <ele>679.156586</ele>
        <time>2022-04-27T09:28:21.746Z</time>
      </trkpt>
      <trkpt lat="41.44718" lon="20.52058">
        <ele>679.849303</ele>
        <time>2022-04-27T09:28:28.742Z</time>
      </trkpt>
      <trkpt lat="41.44713" lon="20.52071">
        <ele>680.663168</ele>
        <time>2022-04-27T09:28:35.774Z</time>
      </trkpt>
      <trkpt lat="41.44712" lon="20.52083">
        <ele>681.383946</ele>
        <time>2022-04-27T09:28:41.748Z</time>
      </trkpt>
      <trkpt lat="41.44712" lon="20.52096">
        <ele>682.155073</ele>
        <time>2022-04-27T09:28:47.745Z</time>
      </trkpt>
      <trkpt lat="41.44715" lon="20.52108">
        <ele>682.865313</ele>
        <time>2022-04-27T09:28:52.749Z</time>
      </trkpt>
      <trkpt lat="41.44719" lon="20.52121">
        <ele>683.670698</ele>
        <time>2022-04-27T09:28:58.754Z</time>
      </trkpt>
      <trkpt lat="41.44725" lon="20.52132">
        <ele>684.429352</ele>
        <time>2022-04-27T09:29:04.746Z</time>
      </trkpt>
      <trkpt lat="41.4473" lon="20.52142">
        <ele>685.173889</ele>
        <time>2022-04-27T09:29:11.748Z</time>
      </trkpt>
      <trkpt lat="41.44736" lon="20.52154">
        <ele>685.977842</ele>
        <time>2022-04-27T09:29:18.752Z</time>
      </trkpt>
      <trkpt lat="41.4474" lon="20.52165">
        <ele>686.708602</ele>
        <time>2022-04-27T09:29:25.770Z</time>
      </trkpt>
      <trkpt lat="41.44745" lon="20.52177">
        <ele>687.527436</ele>
        <time>2022-04-27T09:29:32.741Z</time>
      </trkpt>
      <trkpt lat="41.4475" lon="20.52188">
        <ele>688.114059</ele>
        <time>2022-04-27T09:29:38.752Z</time>
      </trkpt>
      <trkpt lat="41.4475" lon="20.522">
        <ele>688.566226</ele>
        <time>2022-04-27T09:29:45.747Z</time>
      </trkpt>
      <trkpt lat="41.44747" lon="20.52214">
        <ele>689.078838</ele>
        <time>2022-04-27T09:29:52.750Z</time>
      </trkpt>
      <trkpt lat="41.44745" lon="20.52227">
        <ele>689.591206</ele>
        <time>2022-04-27T09:30:00.744Z</time>
      </trkpt>
      <trkpt lat="41.4474" lon="20.52238">
        <ele>690.044871</ele>
        <time>2022-04-27T09:30:06.744Z</time>
      </trkpt>
      <trkpt lat="41.44735" lon="20.52249">
        <ele>690.553139</ele>
        <time>2022-04-27T09:30:13.745Z</time>
      </trkpt>
      <trkpt lat="41.44732" lon="20.52261">
        <ele>691.022766</ele>
        <time>2022-04-27T09:30:19.747Z</time>
      </trkpt>
      <trkpt lat="41.44731" lon="20.52274">
        <ele>691.506873</ele>
        <time>2022-04-27T09:30:26.750Z</time>
      </trkpt>
      <trkpt lat="41.44729" lon="20.52287">
        <ele>691.994672</ele>
        <time>2022-04-27T09:30:33.761Z</time>
      </trkpt>
      <trkpt lat="41.44729" lon="20.523">
        <ele>692.477967</ele>
        <time>2022-04-27T09:30:40.752Z</time>
      </trkpt>
      <trkpt lat="41.44729" lon="20.52314">
        <ele>692.991083</ele>
        <time>2022-04-27T09:30:46.761Z</time>
      </trkpt>
      <trkpt lat="41.44731" lon="20.52326">
        <ele>693.459374</ele>
        <time>2022-04-27T09:30:52.747Z</time>
      </trkpt>
      <trkpt lat="41.44734" lon="20.52338">
        <ele>693.916817</ele>
        <time>2022-04-27T09:30:58.746Z</time>
      </trkpt>
      <trkpt lat="41.44738" lon="20.5235">
        <ele>694.405133</ele>
        <time>2022-04-27T09:31:04.774Z</time>
      </trkpt>
      <trkpt lat="41.44741" lon="20.52363">
        <ele>694.910931</ele>
        <time>2022-04-27T09:31:10.780Z</time>
      </trkpt>
      <trkpt lat="41.44744" lon="20.52376">
        <ele>695.451774</ele>
        <time>2022-04-27T09:31:16.750Z</time>
      </trkpt>
      <trkpt lat="41.44744" lon="20.52389">
        <ele>695.911819</ele>
        <time>2022-04-27T09:31:23.747Z</time>
      </trkpt>
      <trkpt lat="41.44742" lon="20.52401">
        <ele>696.393035</ele>
        <time>2022-04-27T09:31:30.749Z</time>
      </trkpt>
      <trkpt lat="41.44739" lon="20.52413">
        <ele>696.882965</ele>
        <time>2022-04-27T09:31:37.792Z</time>
      </trkpt>
      <trkpt lat="41.44735" lon="20.52425">
        <ele>697.445526</ele>
        <time>2022-04-27T09:31:44.751Z</time>
      </trkpt>
      <trkpt lat="41.44729" lon="20.52436">
        <ele>698.05537</ele>
        <time>2022-04-27T09:31:52.753Z</time>
      </trkpt>
      <trkpt lat="41.44723" lon="20.52447">
        <ele>698.654518</ele>
        <time>2022-04-27T09:32:00.757Z</time>
      </trkpt>
      <trkpt lat="41.44718" lon="20.52456">
        <ele>699.203731</ele>
        <time>2022-04-27T09:32:07.749Z</time>
      </trkpt>
      <trkpt lat="41.4471" lon="20.52465">
        <ele>699.796288</ele>
        <time>2022-04-27T09:32:15.745Z</time>
      </trkpt>
      <trkpt lat="41.44704" lon="20.52475">
        <ele>700.393481</ele>
        <time>2022-04-27T09:32:23.740Z</time>
      </trkpt>
      <trkpt lat="41.44697" lon="20.52484">
        <ele>700.937586</ele>
        <time>2022-04-27T09:32:31.749Z</time>
      </trkpt>
      <trkpt lat="41.44691" lon="20.52492">
        <ele>701.478211</ele>
        <time>2022-04-27T09:32:38.755Z</time>
      </trkpt>
      <trkpt lat="41.44684" lon="20.52502">
        <ele>702.046886</ele>
        <time>2022-04-27T09:32:45.744Z</time>
      </trkpt>
      <trkpt lat="41.44679" lon="20.52512">
        <ele>702.592528</ele>
        <time>2022-04-27T09:32:52.756Z</time>
      </trkpt>
      <trkpt lat="41.44671" lon="20.52521">
        <ele>703.208751</ele>
        <time>2022-04-27T09:32:59.771Z</time>
      </trkpt>
      <trkpt lat="41.44665" lon="20.52531">
        <ele>703.755186</ele>
        <time>2022-04-27T09:33:06.755Z</time>
      </trkpt>
      <trkpt lat="41.44658" lon="20.52539">
        <ele>704.356863</ele>
        <time>2022-04-27T09:33:13.742Z</time>
      </trkpt>
      <trkpt lat="41.44651" lon="20.52548">
        <ele>704.920167</ele>
        <time>2022-04-27T09:33:20.750Z</time>
      </trkpt>
      <trkpt lat="41.44645" lon="20.52557">
        <ele>705.452937</ele>
        <time>2022-04-27T09:33:27.798Z</time>
      </trkpt>
      <trkpt lat="41.44638" lon="20.52565">
        <ele>706.000412</ele>
        <time>2022-04-27T09:33:34.748Z</time>
      </trkpt>
      <trkpt lat="41.44631" lon="20.52574">
        <ele>706.559463</ele>
        <time>2022-04-27T09:33:41.747Z</time>
      </trkpt>
      <trkpt lat="41.44625" lon="20.52584">
        <ele>707.131026</ele>
        <time>2022-04-27T09:33:48.767Z</time>
      </trkpt>
      <trkpt lat="41.44619" lon="20.52594">
        <ele>707.81768</ele>
        <time>2022-04-27T09:33:56.750Z</time>
      </trkpt>
      <trkpt lat="41.44613" lon="20.52605">
        <ele>708.788006</ele>
        <time>2022-04-27T09:34:04.750Z</time>
      </trkpt>
      <trkpt lat="41.44608" lon="20.52617">
        <ele>709.727735</ele>
        <time>2022-04-27T09:34:11.745Z</time>
      </trkpt>
      <trkpt lat="41.44604" lon="20.52629">
        <ele>710.575202</ele>
        <time>2022-04-27T09:34:18.762Z</time>
      </trkpt>
      <trkpt lat="41.44602" lon="20.52641">
        <ele>711.410715</ele>
        <time>2022-04-27T09:34:26.752Z</time>
      </trkpt>
      <trkpt lat="41.44602" lon="20.52653">
        <ele>712.276067</ele>
        <time>2022-04-27T09:34:33.741Z</time>
      </trkpt>
      <trkpt lat="41.44603" lon="20.52667">
        <ele>713.189772</ele>
        <time>2022-04-27T09:34:40.743Z</time>
      </trkpt>
      <trkpt lat="41.44607" lon="20.52679">
        <ele>714.047746</ele>
        <time>2022-04-27T09:34:47.740Z</time>
      </trkpt>
      <trkpt lat="41.44612" lon="20.52689">
        <ele>714.892684</ele>
        <time>2022-04-27T09:34:54.753Z</time>
      </trkpt>
      <trkpt lat="41.44618" lon="20.52699">
        <ele>715.781194</ele>
        <time>2022-04-27T09:35:02.745Z</time>
      </trkpt>
      <trkpt lat="41.44627" lon="20.52705">
        <ele>716.69054</ele>
        <time>2022-04-27T09:35:09.751Z</time>
      </trkpt>
      <trkpt lat="41.44634" lon="20.52714">
        <ele>717.60278</ele>
        <time>2022-04-27T09:35:16.749Z</time>
      </trkpt>
      <trkpt lat="41.44642" lon="20.52722">
        <ele>718.51141</ele>
        <time>2022-04-27T09:35:24.749Z</time>
      </trkpt>
      <trkpt lat="41.44649" lon="20.5273">
        <ele>719.353542</ele>
        <time>2022-04-27T09:35:31.742Z</time>
      </trkpt>
      <trkpt lat="41.44656" lon="20.5274">
        <ele>720.234816</ele>
        <time>2022-04-27T09:35:38.749Z</time>
      </trkpt>
      <trkpt lat="41.44662" lon="20.52751">
        <ele>721.172458</ele>
        <time>2022-04-27T09:35:46.749Z</time>
      </trkpt>
      <trkpt lat="41.44667" lon="20.52761">
        <ele>722.023185</ele>
        <time>2022-04-27T09:35:53.740Z</time>
      </trkpt>
      <trkpt lat="41.44671" lon="20.52773">
        <ele>722.882405</ele>
        <time>2022-04-27T09:36:00.754Z</time>
      </trkpt>
      <trkpt lat="41.44675" lon="20.52785">
        <ele>723.788477</ele>
        <time>2022-04-27T09:36:08.749Z</time>
      </trkpt>
      <trkpt lat="41.44677" lon="20.52798">
        <ele>724.228333</ele>
        <time>2022-04-27T09:36:16.749Z</time>
      </trkpt>
      <trkpt lat="41.44677" lon="20.52811">
        <ele>724.583284</ele>
        <time>2022-04-27T09:36:24.771Z</time>
      </trkpt>
      <trkpt lat="41.44676" lon="20.52824">
        <ele>724.982325</ele>
        <time>2022-04-27T09:36:33.747Z</time>
      </trkpt>
      <trkpt lat="41.44673" lon="20.52836">
        <ele>725.356922</ele>
        <time>2022-04-27T09:36:42.744Z</time>
      </trkpt>
      <trkpt lat="41.44671" lon="20.52848">
        <ele>725.712628</ele>
        <time>2022-04-27T09:36:49.747Z</time>
      </trkpt>
      <trkpt lat="41.44668" lon="20.52861">
        <ele>726.106738</ele>
        <time>2022-04-27T09:36:56.752Z</time>
      </trkpt>
      <trkpt lat="41.44662" lon="20.52873">
        <ele>726.501964</ele>
        <time>2022-04-27T09:37:03.743Z</time>
      </trkpt>
      <trkpt lat="41.44656" lon="20.52882">
        <ele>726.856423</ele>
        <time>2022-04-27T09:37:10.757Z</time>
      </trkpt>
      <trkpt lat="41.44647" lon="20.52886">
        <ele>727.243068</ele>
        <time>2022-04-27T09:37:16.741Z</time>
      </trkpt>
      <trkpt lat="41.44639" lon="20.52893">
        <ele>727.603309</ele>
        <time>2022-04-27T09:37:22.757Z</time>
      </trkpt>
      <trkpt lat="41.44631" lon="20.52898">
        <ele>727.958233</ele>
        <time>2022-04-27T09:37:29.757Z</time>
      </trkpt>
      <trkpt lat="41.44621" lon="20.52903">
        <ele>728.354314</ele>
        <time>2022-04-27T09:37:36.746Z</time>
      </trkpt>
      <trkpt lat="41.44613" lon="20.52908">
        <ele>728.711433</ele>
        <time>2022-04-27T09:37:43.750Z</time>
      </trkpt>
      <trkpt lat="41.44604" lon="20.52915">
        <ele>729.110039</ele>
        <time>2022-04-27T09:37:51.740Z</time>
      </trkpt>
      <trkpt lat="41.44596" lon="20.52922">
        <ele>729.48469</ele>
        <time>2022-04-27T09:37:59.740Z</time>
      </trkpt>
      <trkpt lat="41.44588" lon="20.5293">
        <ele>729.868907</ele>
        <time>2022-04-27T09:38:07.757Z</time>
      </trkpt>
      <trkpt lat="41.44582" lon="20.5294">
        <ele>730.24268</ele>
        <time>2022-04-27T09:38:14.743Z</time>
      </trkpt>
      <trkpt lat="41.44575" lon="20.5295">
        <ele>730.631727</ele>
        <time>2022-04-27T09:38:21.766Z</time>
      </trkpt>
      <trkpt lat="41.44571" lon="20.5296">
        <ele>731.144953</ele>
        <time>2022-04-27T09:38:28.751Z</time>
      </trkpt>
      <trkpt lat="41.44565" lon="20.52971">
        <ele>731.936029</ele>
        <time>2022-04-27T09:38:36.749Z</time>
      </trkpt>
      <trkpt lat="41.44559" lon="20.5298">
        <ele>732.663104</ele>
        <time>2022-04-27T09:38:43.740Z</time>
      </trkpt>
      <trkpt lat="41.44551" lon="20.52987">
        <ele>733.405912</ele>
        <time>2022-04-27T09:38:49.740Z</time>
      </trkpt>
      <trkpt lat="41.44543" lon="20.52994">
        <ele>734.164821</ele>
        <time>2022-04-27T09:38:55.770Z</time>
      </trkpt>
      <trkpt lat="41.44533" lon="20.52999">
        <ele>734.970173</ele>
        <time>2022-04-27T09:39:02.752Z</time>
      </trkpt>
      <trkpt lat="41.44524" lon="20.53002">
        <ele>735.733443</ele>
        <time>2022-04-27T09:39:09.745Z</time>
      </trkpt>
      <trkpt lat="41.44514" lon="20.53001">
        <ele>736.499549</ele>
        <time>2022-04-27T09:39:16.752Z</time>
      </trkpt>
      <trkpt lat="41.44504" lon="20.53">
        <ele>737.303475</ele>
        <time>2022-04-27T09:39:22.740Z</time>
      </trkpt>
      <trkpt lat="41.44495" lon="20.52996">
        <ele>738.041433</ele>
        <time>2022-04-27T09:39:27.754Z</time>
      </trkpt>
      <trkpt lat="41.44486" lon="20.52992">
        <ele>738.85613</ele>
        <time>2022-04-27T09:39:33.752Z</time>
      </trkpt>
      <trkpt lat="41.44478" lon="20.52983">
        <ele>739.605958</ele>
        <time>2022-04-27T09:39:39.749Z</time>
      </trkpt>
      <trkpt lat="41.44473" lon="20.52973">
        <ele>740.369531</ele>
        <time>2022-04-27T09:39:45.776Z</time>
      </trkpt>
      <trkpt lat="41.44468" lon="20.52962">
        <ele>741.096679</ele>
        <time>2022-04-27T09:39:51.750Z</time>
      </trkpt>
      <trkpt lat="41.44463" lon="20.5295">
        <ele>741.931701</ele>
        <time>2022-04-27T09:39:59.752Z</time>
      </trkpt>
      <trkpt lat="41.4446" lon="20.52937">
        <ele>742.735948</ele>
        <time>2022-04-27T09:40:05.751Z</time>
      </trkpt>
      <trkpt lat="41.44458" lon="20.52925">
        <ele>743.463647</ele>
        <time>2022-04-27T09:40:11.748Z</time>
      </trkpt>
      <trkpt lat="41.44454" lon="20.52912">
        <ele>744.279177</ele>
        <time>2022-04-27T09:40:17.742Z</time>
      </trkpt>
      <trkpt lat="41.44448" lon="20.52903">
        <ele>745.014541</ele>
        <time>2022-04-27T09:40:23.751Z</time>
      </trkpt>
      <trkpt lat="41.44441" lon="20.52894">
        <ele>745.73676</ele>
        <time>2022-04-27T09:40:29.769Z</time>
      </trkpt>
      <trkpt lat="41.44432" lon="20.52888">
        <ele>746.55168</ele>
        <time>2022-04-27T09:40:35.770Z</time>
      </trkpt>
      <trkpt lat="41.44424" lon="20.5288">
        <ele>747.326766</ele>
        <time>2022-04-27T09:40:40.746Z</time>
      </trkpt>
      <trkpt lat="41.44414" lon="20.52876">
        <ele>748.155596</ele>
        <time>2022-04-27T09:40:46.743Z</time>
      </trkpt>
      <trkpt lat="41.44404" lon="20.52873">
        <ele>748.954659</ele>
        <time>2022-04-27T09:40:52.761Z</time>
      </trkpt>
      <trkpt lat="41.44394" lon="20.52871">
        <ele>749.67782</ele>
        <time>2022-04-27T09:40:57.745Z</time>
      </trkpt>
      <trkpt lat="41.44385" lon="20.52867">
        <ele>750.426618</ele>
        <time>2022-04-27T09:41:03.746Z</time>
      </trkpt>
      <trkpt lat="41.44376" lon="20.52866">
        <ele>751.161762</ele>
        <time>2022-04-27T09:41:09.744Z</time>
      </trkpt>
      <trkpt lat="41.44367" lon="20.52868">
        <ele>751.871237</ele>
        <time>2022-04-27T09:41:14.747Z</time>
      </trkpt>
      <trkpt lat="41.44358" lon="20.5287">
        <ele>752.611566</ele>
        <time>2022-04-27T09:41:20.752Z</time>
      </trkpt>
      <trkpt lat="41.44348" lon="20.52872">
        <ele>753.377665</ele>
        <time>2022-04-27T09:41:26.740Z</time>
      </trkpt>
      <trkpt lat="41.44339" lon="20.52876">
        <ele>754.086365</ele>
        <time>2022-04-27T09:41:33.741Z</time>
      </trkpt>
      <trkpt lat="41.44331" lon="20.52882">
        <ele>754.790687</ele>
        <time>2022-04-27T09:41:40.751Z</time>
      </trkpt>
      <trkpt lat="41.44324" lon="20.5289">
        <ele>755.538931</ele>
        <time>2022-04-27T09:41:48.741Z</time>
      </trkpt>
      <trkpt lat="41.44318" lon="20.52901">
        <ele>756.319826</ele>
        <time>2022-04-27T09:41:55.746Z</time>
      </trkpt>
      <trkpt lat="41.44313" lon="20.52911">
        <ele>757.072664</ele>
        <time>2022-04-27T09:42:01.739Z</time>
      </trkpt>
      <trkpt lat="41.44309" lon="20.52923">
        <ele>757.818845</ele>
        <time>2022-04-27T09:42:09.744Z</time>
      </trkpt>
      <trkpt lat="41.44305" lon="20.52935">
        <ele>758.552166</ele>
        <time>2022-04-27T09:42:15.742Z</time>
      </trkpt>
      <trkpt lat="41.44303" lon="20.52948">
        <ele>759.077126</ele>
        <time>2022-04-27T09:42:21.745Z</time>
      </trkpt>
      <trkpt lat="41.44301" lon="20.52962">
        <ele>759.133815</ele>
        <time>2022-04-27T09:42:27.741Z</time>
      </trkpt>
      <trkpt lat="41.44301" lon="20.52976">
        <ele>759.188677</ele>
        <time>2022-04-27T09:42:33.759Z</time>
      </trkpt>
      <trkpt lat="41.44302" lon="20.52989">
        <ele>759.240126</ele>
        <time>2022-04-27T09:42:39.746Z</time>
      </trkpt>
      <trkpt lat="41.44304" lon="20.53002">
        <ele>759.294539</ele>
        <time>2022-04-27T09:42:45.740Z</time>
      </trkpt>
      <trkpt lat="41.44305" lon="20.53015">
        <ele>759.343911</ele>
        <time>2022-04-27T09:42:50.763Z</time>
      </trkpt>
      <trkpt lat="41.44305" lon="20.53027">
        <ele>759.39162</ele>
        <time>2022-04-27T09:42:55.755Z</time>
      </trkpt>
      <trkpt lat="41.44302" lon="20.5304">
        <ele>759.448586</ele>
        <time>2022-04-27T09:43:01.744Z</time>
      </trkpt>
      <trkpt lat="41.44299" lon="20.53053">
        <ele>759.500918</ele>
        <time>2022-04-27T09:43:06.742Z</time>
      </trkpt>
      <trkpt lat="41.44295" lon="20.53066">
        <ele>759.558424</ele>
        <time>2022-04-27T09:43:12.748Z</time>
      </trkpt>
      <trkpt lat="41.44292" lon="20.53078">
        <ele>759.608111</ele>
        <time>2022-04-27T09:43:17.752Z</time>
      </trkpt>
      <trkpt lat="41.44288" lon="20.53092">
        <ele>759.665264</ele>
        <time>2022-04-27T09:43:23.735Z</time>
      </trkpt>
      <trkpt lat="41.44284" lon="20.53103">
        <ele>759.714983</ele>
        <time>2022-04-27T09:43:28.744Z</time>
      </trkpt>
      <trkpt lat="41.4428" lon="20.53114">
        <ele>759.764685</ele>
        <time>2022-04-27T09:43:34.755Z</time>
      </trkpt>
      <trkpt lat="41.44276" lon="20.53126">
        <ele>759.81638</ele>
        <time>2022-04-27T09:43:40.751Z</time>
      </trkpt>
      <trkpt lat="41.44271" lon="20.53137">
        <ele>759.868407</ele>
        <time>2022-04-27T09:43:46.739Z</time>
      </trkpt>
      <trkpt lat="41.44264" lon="20.53147">
        <ele>759.921583</ele>
        <time>2022-04-27T09:43:51.743Z</time>
      </trkpt>
      <trkpt lat="41.4426" lon="20.5316">
        <ele>759.975996</ele>
        <time>2022-04-27T09:43:57.745Z</time>
      </trkpt>
      <trkpt lat="41.44256" lon="20.53172">
        <ele>760.091853</ele>
        <time>2022-04-27T09:44:03.751Z</time>
      </trkpt>
      <trkpt lat="41.44253" lon="20.53185">
        <ele>760.322644</ele>
        <time>2022-04-27T09:44:09.762Z</time>
      </trkpt>
      <trkpt lat="41.4425" lon="20.53197">
        <ele>760.549128</ele>
        <time>2022-04-27T09:44:15.754Z</time>
      </trkpt>
      <trkpt lat="41.44248" lon="20.53209">
        <ele>760.756235</ele>
        <time>2022-04-27T09:44:20.746Z</time>
      </trkpt>
      <trkpt lat="41.44247" lon="20.53222">
        <ele>760.991095</ele>
        <time>2022-04-27T09:44:26.750Z</time>
      </trkpt>
      <trkpt lat="41.44246" lon="20.53235">
        <ele>761.213235</ele>
        <time>2022-04-27T09:44:31.751Z</time>
      </trkpt>
      <trkpt lat="41.44244" lon="20.53248">
        <ele>761.436017</ele>
        <time>2022-04-27T09:44:36.764Z</time>
      </trkpt>
      <trkpt lat="41.44243" lon="20.53261">
        <ele>761.661456</ele>
        <time>2022-04-27T09:44:41.745Z</time>
      </trkpt>
      <trkpt lat="41.44242" lon="20.53274">
        <ele>761.902755</ele>
        <time>2022-04-27T09:44:47.747Z</time>
      </trkpt>
      <trkpt lat="41.4424" lon="20.53289">
        <ele>762.150321</ele>
        <time>2022-04-27T09:44:53.745Z</time>
      </trkpt>
      <trkpt lat="41.44237" lon="20.53301">
        <ele>762.375676</ele>
        <time>2022-04-27T09:44:58.743Z</time>
      </trkpt>
      <trkpt lat="41.44235" lon="20.53313">
        <ele>762.583386</ele>
        <time>2022-04-27T09:45:03.743Z</time>
      </trkpt>
      <trkpt lat="41.44232" lon="20.53324">
        <ele>762.799996</ele>
        <time>2022-04-27T09:45:08.757Z</time>
      </trkpt>
      <trkpt lat="41.44228" lon="20.53336">
        <ele>763.015706</ele>
        <time>2022-04-27T09:45:13.746Z</time>
      </trkpt>
      <trkpt lat="41.44225" lon="20.53347">
        <ele>763.229738</ele>
        <time>2022-04-27T09:45:18.760Z</time>
      </trkpt>
      <trkpt lat="41.44221" lon="20.53358">
        <ele>763.438244</ele>
        <time>2022-04-27T09:45:23.740Z</time>
      </trkpt>
      <trkpt lat="41.44214" lon="20.53369">
        <ele>763.690808</ele>
        <time>2022-04-27T09:45:28.748Z</time>
      </trkpt>
      <trkpt lat="41.44208" lon="20.53379">
        <ele>763.91518</ele>
        <time>2022-04-27T09:45:33.740Z</time>
      </trkpt>
      <trkpt lat="41.44202" lon="20.5339">
        <ele>764.138158</ele>
        <time>2022-04-27T09:45:38.776Z</time>
      </trkpt>
      <trkpt lat="41.44196" lon="20.534">
        <ele>764.162786</ele>
        <time>2022-04-27T09:45:43.742Z</time>
      </trkpt>
      <trkpt lat="41.44189" lon="20.5341">
        <ele>764.162674</ele>
        <time>2022-04-27T09:45:48.742Z</time>
      </trkpt>
      <trkpt lat="41.44183" lon="20.5342">
        <ele>764.162562</ele>
        <time>2022-04-27T09:45:53.746Z</time>
      </trkpt>
      <trkpt lat="41.44175" lon="20.5343">
        <ele>764.162442</ele>
        <time>2022-04-27T09:45:57.742Z</time>
      </trkpt>
      <trkpt lat="41.44167" lon="20.53438">
        <ele>764.162335</ele>
        <time>2022-04-27T09:46:01.777Z</time>
      </trkpt>
      <trkpt lat="41.4416" lon="20.53447">
        <ele>764.162224</ele>
        <time>2022-04-27T09:46:05.754Z</time>
      </trkpt>
      <trkpt lat="41.44151" lon="20.53456">
        <ele>764.162104</ele>
        <time>2022-04-27T09:46:09.757Z</time>
      </trkpt>
      <trkpt lat="41.44145" lon="20.53468">
        <ele>764.161983</ele>
        <time>2022-04-27T09:46:14.741Z</time>
      </trkpt>
      <trkpt lat="41.44139" lon="20.53479">
        <ele>764.161872</ele>
        <time>2022-04-27T09:46:18.765Z</time>
      </trkpt>
      <trkpt lat="41.44133" lon="20.53488">
        <ele>764.161772</ele>
        <time>2022-04-27T09:46:21.747Z</time>
      </trkpt>
      <trkpt lat="41.44128" lon="20.535">
        <ele>764.161657</ele>
        <time>2022-04-27T09:46:24.754Z</time>
      </trkpt>
      <trkpt lat="41.44123" lon="20.53513">
        <ele>764.161535</ele>
        <time>2022-04-27T09:46:27.741Z</time>
      </trkpt>
      <trkpt lat="41.44119" lon="20.53528">
        <ele>764.161406</ele>
        <time>2022-04-27T09:46:30.751Z</time>
      </trkpt>
      <trkpt lat="41.44118" lon="20.53541">
        <ele>764.161301</ele>
        <time>2022-04-27T09:46:32.756Z</time>
      </trkpt>
      <trkpt lat="41.4412" lon="20.53556">
        <ele>764.161174</ele>
        <time>2022-04-27T09:46:34.768Z</time>
      </trkpt>
      <trkpt lat="41.44127" lon="20.53571">
        <ele>764.161028</ele>
        <time>2022-04-27T09:46:36.749Z</time>
      </trkpt>
      <trkpt lat="41.44134" lon="20.53583">
        <ele>764.160908</ele>
        <time>2022-04-27T09:46:38.763Z</time>
      </trkpt>
      <trkpt lat="41.44144" lon="20.53592">
        <ele>763.69793</ele>
        <time>2022-04-27T09:46:40.764Z</time>
      </trkpt>
      <trkpt lat="41.44155" lon="20.53602">
        <ele>763.11765</ele>
        <time>2022-04-27T09:46:42.746Z</time>
      </trkpt>
      <trkpt lat="41.44165" lon="20.53612">
        <ele>762.603944</ele>
        <time>2022-04-27T09:46:44.748Z</time>
      </trkpt>
      <trkpt lat="41.44172" lon="20.5362">
        <ele>762.195692</ele>
        <time>2022-04-27T09:46:46.750Z</time>
      </trkpt>
      <trkpt lat="41.44178" lon="20.5363">
        <ele>761.801336</ele>
        <time>2022-04-27T09:46:49.741Z</time>
      </trkpt>
      <trkpt lat="41.44187" lon="20.53636">
        <ele>761.406854</ele>
        <time>2022-04-27T09:46:52.752Z</time>
      </trkpt>
      <trkpt lat="41.44196" lon="20.53642">
        <ele>760.976845</ele>
        <time>2022-04-27T09:46:56.750Z</time>
      </trkpt>
      <trkpt lat="41.44213" lon="20.5368">
        <ele>759.578433</ele>
        <time>2022-04-27T09:48:53.747Z</time>
      </trkpt>
      <trkpt lat="41.44223" lon="20.53688">
        <ele>759.087145</ele>
        <time>2022-04-27T09:48:55.740Z</time>
      </trkpt>
      <trkpt lat="41.44234" lon="20.53696">
        <ele>758.568554</ele>
        <time>2022-04-27T09:48:57.747Z</time>
      </trkpt>
      <trkpt lat="41.44246" lon="20.53699">
        <ele>758.070207</ele>
        <time>2022-04-27T09:48:59.771Z</time>
      </trkpt>
      <trkpt lat="41.44259" lon="20.53699">
        <ele>757.536592</ele>
        <time>2022-04-27T09:49:01.748Z</time>
      </trkpt>
      <trkpt lat="41.44272" lon="20.53696">
        <ele>756.968095</ele>
        <time>2022-04-27T09:49:03.746Z</time>
      </trkpt>
      <trkpt lat="41.44285" lon="20.53694">
        <ele>756.220485</ele>
        <time>2022-04-27T09:49:05.771Z</time>
      </trkpt>
      <trkpt lat="41.44297" lon="20.53695">
        <ele>755.121442</ele>
        <time>2022-04-27T09:49:07.739Z</time>
      </trkpt>
      <trkpt lat="41.44308" lon="20.53697">
        <ele>754.044444</ele>
        <time>2022-04-27T09:49:09.745Z</time>
      </trkpt>
      <trkpt lat="41.44318" lon="20.53702">
        <ele>753.068212</ele>
        <time>2022-04-27T09:49:11.741Z</time>
      </trkpt>
      <trkpt lat="41.44328" lon="20.53708">
        <ele>752.058487</ele>
        <time>2022-04-27T09:49:13.750Z</time>
      </trkpt>
      <trkpt lat="41.44339" lon="20.53717">
        <ele>750.838219</ele>
        <time>2022-04-27T09:49:15.750Z</time>
      </trkpt>
      <trkpt lat="41.44348" lon="20.53731">
        <ele>749.534201</ele>
        <time>2022-04-27T09:49:17.743Z</time>
      </trkpt>
      <trkpt lat="41.44356" lon="20.53746">
        <ele>748.286534</ele>
        <time>2022-04-27T09:49:19.750Z</time>
      </trkpt>
      <trkpt lat="41.44366" lon="20.53762">
        <ele>746.832921</ele>
        <time>2022-04-27T09:49:21.749Z</time>
      </trkpt>
      <trkpt lat="41.44374" lon="20.5378">
        <ele>745.382926</ele>
        <time>2022-04-27T09:49:23.748Z</time>
      </trkpt>
      <trkpt lat="41.44377" lon="20.53799">
        <ele>743.974111</ele>
        <time>2022-04-27T09:49:25.743Z</time>
      </trkpt>
      <trkpt lat="41.44381" lon="20.53819">
        <ele>742.574437</ele>
        <time>2022-04-27T09:49:27.739Z</time>
      </trkpt>
      <trkpt lat="41.44385" lon="20.53839">
        <ele>741.09575</ele>
        <time>2022-04-27T09:49:29.747Z</time>
      </trkpt>
      <trkpt lat="41.44389" lon="20.53861">
        <ele>739.527814</ele>
        <time>2022-04-27T09:49:31.740Z</time>
      </trkpt>
      <trkpt lat="41.44392" lon="20.53882">
        <ele>738.08666</ele>
        <time>2022-04-27T09:49:33.776Z</time>
      </trkpt>
      <trkpt lat="41.44393" lon="20.53905">
        <ele>736.567689</ele>
        <time>2022-04-27T09:49:35.745Z</time>
      </trkpt>
      <trkpt lat="41.44394" lon="20.53926">
        <ele>735.139116</ele>
        <time>2022-04-27T09:49:37.744Z</time>
      </trkpt>
      <trkpt lat="41.44394" lon="20.53946">
        <ele>733.786342</ele>
        <time>2022-04-27T09:49:39.751Z</time>
      </trkpt>
      <trkpt lat="41.44394" lon="20.53966">
        <ele>732.440061</ele>
        <time>2022-04-27T09:49:41.739Z</time>
      </trkpt>
      <trkpt lat="41.44392" lon="20.53986">
        <ele>731.059426</ele>
        <time>2022-04-27T09:49:43.746Z</time>
      </trkpt>
      <trkpt lat="41.44388" lon="20.54007">
        <ele>729.589325</ele>
        <time>2022-04-27T09:49:45.741Z</time>
      </trkpt>
      <trkpt lat="41.44382" lon="20.54027">
        <ele>728.097726</ele>
        <time>2022-04-27T09:49:47.746Z</time>
      </trkpt>
      <trkpt lat="41.44375" lon="20.54049">
        <ele>726.51358</ele>
        <time>2022-04-27T09:49:49.735Z</time>
      </trkpt>
      <trkpt lat="41.44368" lon="20.5407">
        <ele>724.97608</ele>
        <time>2022-04-27T09:49:51.753Z</time>
      </trkpt>
      <trkpt lat="41.44362" lon="20.5409">
        <ele>723.546946</ele>
        <time>2022-04-27T09:49:53.741Z</time>
      </trkpt>
      <trkpt lat="41.44355" lon="20.5411">
        <ele>722.571471</ele>
        <time>2022-04-27T09:49:55.782Z</time>
      </trkpt>
      <trkpt lat="41.44348" lon="20.54132">
        <ele>721.543867</ele>
        <time>2022-04-27T09:49:57.742Z</time>
      </trkpt>
      <trkpt lat="41.4434" lon="20.54153">
        <ele>720.53317</ele>
        <time>2022-04-27T09:49:59.741Z</time>
      </trkpt>
      <trkpt lat="41.44331" lon="20.54173">
        <ele>719.537995</ele>
        <time>2022-04-27T09:50:01.776Z</time>
      </trkpt>
      <trkpt lat="41.44326" lon="20.54183">
        <ele>719.001113</ele>
        <time>2022-04-27T09:50:02.740Z</time>
      </trkpt>
      <trkpt lat="41.44321" lon="20.54194">
        <ele>718.460987</ele>
        <time>2022-04-27T09:50:03.751Z</time>
      </trkpt>
      <trkpt lat="41.44312" lon="20.54212">
        <ele>717.523523</ele>
        <time>2022-04-27T09:50:05.745Z</time>
      </trkpt>
      <trkpt lat="41.44304" lon="20.54229">
        <ele>716.664029</ele>
        <time>2022-04-27T09:50:07.743Z</time>
      </trkpt>
      <trkpt lat="41.44296" lon="20.54244">
        <ele>715.857252</ele>
        <time>2022-04-27T09:50:09.738Z</time>
      </trkpt>
      <trkpt lat="41.44288" lon="20.5426">
        <ele>715.022861</ele>
        <time>2022-04-27T09:50:11.739Z</time>
      </trkpt>
      <trkpt lat="41.44283" lon="20.54278">
        <ele>714.198472</ele>
        <time>2022-04-27T09:50:13.756Z</time>
      </trkpt>
      <trkpt lat="41.44279" lon="20.54294">
        <ele>713.46126</ele>
        <time>2022-04-27T09:50:15.741Z</time>
      </trkpt>
      <trkpt lat="41.44278" lon="20.54308">
        <ele>713.5435</ele>
        <time>2022-04-27T09:50:17.750Z</time>
      </trkpt>
      <trkpt lat="41.44278" lon="20.54321">
        <ele>713.980896</ele>
        <time>2022-04-27T09:50:19.742Z</time>
      </trkpt>
      <trkpt lat="41.44281" lon="20.54335">
        <ele>714.47913</ele>
        <time>2022-04-27T09:50:21.746Z</time>
      </trkpt>
      <trkpt lat="41.44282" lon="20.54351">
        <ele>715.00076</ele>
        <time>2022-04-27T09:50:23.773Z</time>
      </trkpt>
      <trkpt lat="41.44283" lon="20.54364">
        <ele>715.444092</ele>
        <time>2022-04-27T09:50:25.747Z</time>
      </trkpt>
      <trkpt lat="41.44288" lon="20.54376">
        <ele>715.873984</ele>
        <time>2022-04-27T09:50:27.745Z</time>
      </trkpt>
      <trkpt lat="41.44292" lon="20.54388">
        <ele>716.313613</ele>
        <time>2022-04-27T09:50:29.766Z</time>
      </trkpt>
      <trkpt lat="41.44298" lon="20.54399">
        <ele>716.771409</ele>
        <time>2022-04-27T09:50:31.746Z</time>
      </trkpt>
      <trkpt lat="41.44305" lon="20.54407">
        <ele>717.189857</ele>
        <time>2022-04-27T09:50:33.744Z</time>
      </trkpt>
      <trkpt lat="41.44314" lon="20.54417">
        <ele>717.661085</ele>
        <time>2022-04-27T09:50:36.761Z</time>
      </trkpt>
      <trkpt lat="41.44323" lon="20.54425">
        <ele>718.165512</ele>
        <time>2022-04-27T09:50:39.744Z</time>
      </trkpt>
      <trkpt lat="41.44332" lon="20.54432">
        <ele>718.637988</ele>
        <time>2022-04-27T09:50:42.749Z</time>
      </trkpt>
      <trkpt lat="41.4434" lon="20.54439">
        <ele>719.041594</ele>
        <time>2022-04-27T09:50:45.742Z</time>
      </trkpt>
      <trkpt lat="41.44349" lon="20.54448">
        <ele>719.531429</ele>
        <time>2022-04-27T09:50:49.745Z</time>
      </trkpt>
      <trkpt lat="41.44357" lon="20.54457">
        <ele>720.013652</ele>
        <time>2022-04-27T09:50:54.746Z</time>
      </trkpt>
      <trkpt lat="41.44365" lon="20.54466">
        <ele>720.458587</ele>
        <time>2022-04-27T09:50:59.737Z</time>
      </trkpt>
      <trkpt lat="41.44373" lon="20.54475">
        <ele>720.915571</ele>
        <time>2022-04-27T09:51:04.738Z</time>
      </trkpt>
      <trkpt lat="41.44377" lon="20.54486">
        <ele>721.574649</ele>
        <time>2022-04-27T09:51:09.748Z</time>
      </trkpt>
      <trkpt lat="41.44381" lon="20.54497">
        <ele>722.617193</ele>
        <time>2022-04-27T09:51:14.762Z</time>
      </trkpt>
      <trkpt lat="41.44388" lon="20.54506">
        <ele>723.745244</ele>
        <time>2022-04-27T09:51:19.740Z</time>
      </trkpt>
      <trkpt lat="41.44394" lon="20.54517">
        <ele>724.914831</ele>
        <time>2022-04-27T09:51:25.743Z</time>
      </trkpt>
      <trkpt lat="41.444" lon="20.54528">
        <ele>726.132688</ele>
        <time>2022-04-27T09:51:31.740Z</time>
      </trkpt>
      <trkpt lat="41.44406" lon="20.54541">
        <ele>727.370776</ele>
        <time>2022-04-27T09:51:37.747Z</time>
      </trkpt>
      <trkpt lat="41.44414" lon="20.54547">
        <ele>728.510709</ele>
        <time>2022-04-27T09:51:41.744Z</time>
      </trkpt>
      <trkpt lat="41.44421" lon="20.54557">
        <ele>729.63247</ele>
        <time>2022-04-27T09:51:46.775Z</time>
      </trkpt>
      <trkpt lat="41.44429" lon="20.54566">
        <ele>730.840377</ele>
        <time>2022-04-27T09:51:52.742Z</time>
      </trkpt>
      <trkpt lat="41.44436" lon="20.54573">
        <ele>731.926876</ele>
        <time>2022-04-27T09:51:57.769Z</time>
      </trkpt>
      <trkpt lat="41.44444" lon="20.54581">
        <ele>733.055439</ele>
        <time>2022-04-27T09:52:03.784Z</time>
      </trkpt>
      <trkpt lat="41.44452" lon="20.54588">
        <ele>734.150954</ele>
        <time>2022-04-27T09:52:08.754Z</time>
      </trkpt>
      <trkpt lat="41.4446" lon="20.54597">
        <ele>735.363697</ele>
        <time>2022-04-27T09:52:14.768Z</time>
      </trkpt>
      <trkpt lat="41.44468" lon="20.54605">
        <ele>736.547441</ele>
        <time>2022-04-27T09:52:20.753Z</time>
      </trkpt>
      <trkpt lat="41.44476" lon="20.54614">
        <ele>737.697546</ele>
        <time>2022-04-27T09:52:26.747Z</time>
      </trkpt>
      <trkpt lat="41.44483" lon="20.54623">
        <ele>738.825435</ele>
        <time>2022-04-27T09:52:32.742Z</time>
      </trkpt>
      <trkpt lat="41.44489" lon="20.54632">
        <ele>739.994696</ele>
        <time>2022-04-27T09:52:38.739Z</time>
      </trkpt>
      <trkpt lat="41.44496" lon="20.54642">
        <ele>741.126488</ele>
        <time>2022-04-27T09:52:43.743Z</time>
      </trkpt>
      <trkpt lat="41.44504" lon="20.54652">
        <ele>741.912034</ele>
        <time>2022-04-27T09:52:49.751Z</time>
      </trkpt>
      <trkpt lat="41.44509" lon="20.54664">
        <ele>741.369021</ele>
        <time>2022-04-27T09:52:55.746Z</time>
      </trkpt>
      <trkpt lat="41.44514" lon="20.54676">
        <ele>740.807383</ele>
        <time>2022-04-27T09:53:01.741Z</time>
      </trkpt>
      <trkpt lat="41.44518" lon="20.54687">
        <ele>740.331668</ele>
        <time>2022-04-27T09:53:06.746Z</time>
      </trkpt>
      <trkpt lat="41.44521" lon="20.547">
        <ele>739.763605</ele>
        <time>2022-04-27T09:53:12.765Z</time>
      </trkpt>
      <trkpt lat="41.44524" lon="20.54713">
        <ele>739.24445</ele>
        <time>2022-04-27T09:53:17.740Z</time>
      </trkpt>
      <trkpt lat="41.44525" lon="20.54728">
        <ele>738.640414</ele>
        <time>2022-04-27T09:53:22.756Z</time>
      </trkpt>
      <trkpt lat="41.44526" lon="20.54741">
        <ele>738.131477</ele>
        <time>2022-04-27T09:53:26.755Z</time>
      </trkpt>
      <trkpt lat="41.44525" lon="20.54754">
        <ele>737.611169</ele>
        <time>2022-04-27T09:53:30.749Z</time>
      </trkpt>
      <trkpt lat="41.44524" lon="20.54769">
        <ele>737.016751</ele>
        <time>2022-04-27T09:53:34.746Z</time>
      </trkpt>
      <trkpt lat="41.44523" lon="20.54783">
        <ele>736.442351</ele>
        <time>2022-04-27T09:53:38.741Z</time>
      </trkpt>
      <trkpt lat="41.4452" lon="20.54797">
        <ele>735.867361</ele>
        <time>2022-04-27T09:53:42.753Z</time>
      </trkpt>
      <trkpt lat="41.44516" lon="20.54808">
        <ele>735.375136</ele>
        <time>2022-04-27T09:53:45.740Z</time>
      </trkpt>
      <trkpt lat="41.4451" lon="20.54821">
        <ele>734.782126</ele>
        <time>2022-04-27T09:53:48.770Z</time>
      </trkpt>
      <trkpt lat="41.44502" lon="20.54836">
        <ele>734.048461</ele>
        <time>2022-04-27T09:53:51.747Z</time>
      </trkpt>
      <trkpt lat="41.44498" lon="20.54848">
        <ele>733.531399</ele>
        <time>2022-04-27T09:53:53.744Z</time>
      </trkpt>
      <trkpt lat="41.44493" lon="20.54863">
        <ele>732.888124</ele>
        <time>2022-04-27T09:53:56.742Z</time>
      </trkpt>
      <trkpt lat="41.44491" lon="20.54878">
        <ele>732.172965</ele>
        <time>2022-04-27T09:53:59.770Z</time>
      </trkpt>
      <trkpt lat="41.44487" lon="20.54895">
        <ele>731.190005</ele>
        <time>2022-04-27T09:54:02.753Z</time>
      </trkpt>
      <trkpt lat="41.44485" lon="20.54908">
        <ele>730.480385</ele>
        <time>2022-04-27T09:54:04.751Z</time>
      </trkpt>
      <trkpt lat="41.44483" lon="20.54923">
        <ele>729.627127</ele>
        <time>2022-04-27T09:54:06.745Z</time>
      </trkpt>
      <trkpt lat="41.4448" lon="20.54938">
        <ele>728.761406</ele>
        <time>2022-04-27T09:54:08.754Z</time>
      </trkpt>
      <trkpt lat="41.44477" lon="20.54951">
        <ele>728.010334</ele>
        <time>2022-04-27T09:54:10.744Z</time>
      </trkpt>
      <trkpt lat="41.44473" lon="20.54962">
        <ele>727.304388</ele>
        <time>2022-04-27T09:54:12.749Z</time>
      </trkpt>
      <trkpt lat="41.44469" lon="20.54975">
        <ele>726.53583</ele>
        <time>2022-04-27T09:54:14.749Z</time>
      </trkpt>
      <trkpt lat="41.44464" lon="20.54986">
        <ele>725.783158</ele>
        <time>2022-04-27T09:54:16.746Z</time>
      </trkpt>
      <trkpt lat="41.44457" lon="20.54998">
        <ele>724.956514</ele>
        <time>2022-04-27T09:54:18.747Z</time>
      </trkpt>
      <trkpt lat="41.44449" lon="20.5501">
        <ele>724.08779</ele>
        <time>2022-04-27T09:54:20.745Z</time>
      </trkpt>
      <trkpt lat="41.44439" lon="20.55022">
        <ele>723.130018</ele>
        <time>2022-04-27T09:54:22.740Z</time>
      </trkpt>
      <trkpt lat="41.4443" lon="20.55034">
        <ele>722.146273</ele>
        <time>2022-04-27T09:54:24.750Z</time>
      </trkpt>
      <trkpt lat="41.44421" lon="20.55045">
        <ele>721.256729</ele>
        <time>2022-04-27T09:54:26.752Z</time>
      </trkpt>
      <trkpt lat="41.44412" lon="20.55055">
        <ele>720.359994</ele>
        <time>2022-04-27T09:54:28.754Z</time>
      </trkpt>
      <trkpt lat="41.44403" lon="20.55065">
        <ele>719.495882</ele>
        <time>2022-04-27T09:54:30.750Z</time>
      </trkpt>
      <trkpt lat="41.44395" lon="20.55075">
        <ele>718.890104</ele>
        <time>2022-04-27T09:54:32.740Z</time>
      </trkpt>
      <trkpt lat="41.44387" lon="20.55086">
        <ele>718.366322</ele>
        <time>2022-04-27T09:54:34.749Z</time>
      </trkpt>
      <trkpt lat="41.4438" lon="20.55097">
        <ele>717.885742</ele>
        <time>2022-04-27T09:54:36.741Z</time>
      </trkpt>
      <trkpt lat="41.44374" lon="20.55108">
        <ele>717.416776</ele>
        <time>2022-04-27T09:54:38.757Z</time>
      </trkpt>
      <trkpt lat="41.44368" lon="20.55119">
        <ele>716.957702</ele>
        <time>2022-04-27T09:54:40.755Z</time>
      </trkpt>
      <trkpt lat="41.44363" lon="20.55131">
        <ele>716.493614</ele>
        <time>2022-04-27T09:54:42.776Z</time>
      </trkpt>
      <trkpt lat="41.44357" lon="20.55142">
        <ele>716.032048</ele>
        <time>2022-04-27T09:54:44.747Z</time>
      </trkpt>
      <trkpt lat="41.4435" lon="20.55153">
        <ele>715.534006</ele>
        <time>2022-04-27T09:54:46.743Z</time>
      </trkpt>
      <trkpt lat="41.44339" lon="20.55163">
        <ele>714.954955</ele>
        <time>2022-04-27T09:54:48.749Z</time>
      </trkpt>
      <trkpt lat="41.44326" lon="20.5517">
        <ele>714.312492</ele>
        <time>2022-04-27T09:54:50.792Z</time>
      </trkpt>
      <trkpt lat="41.44312" lon="20.55174">
        <ele>713.665661</ele>
        <time>2022-04-27T09:54:52.755Z</time>
      </trkpt>
      <trkpt lat="41.44297" lon="20.55173">
        <ele>712.951496</ele>
        <time>2022-04-27T09:54:54.744Z</time>
      </trkpt>
      <trkpt lat="41.44283" lon="20.55167">
        <ele>712.301173</ele>
        <time>2022-04-27T09:54:56.767Z</time>
      </trkpt>
      <trkpt lat="41.44272" lon="20.55156">
        <ele>711.66931</ele>
        <time>2022-04-27T09:54:58.749Z</time>
      </trkpt>
      <trkpt lat="41.44264" lon="20.55143">
        <ele>711.110393</ele>
        <time>2022-04-27T09:55:00.761Z</time>
      </trkpt>
      <trkpt lat="41.44258" lon="20.5513">
        <ele>711.038986</ele>
        <time>2022-04-27T09:55:02.780Z</time>
      </trkpt>
      <trkpt lat="41.44254" lon="20.55117">
        <ele>711.026766</ele>
        <time>2022-04-27T09:55:04.749Z</time>
      </trkpt>
      <trkpt lat="41.4425" lon="20.55104">
        <ele>711.014945</ele>
        <time>2022-04-27T09:55:06.760Z</time>
      </trkpt>
      <trkpt lat="41.44246" lon="20.5509">
        <ele>711.002509</ele>
        <time>2022-04-27T09:55:08.740Z</time>
      </trkpt>
      <trkpt lat="41.44239" lon="20.55078">
        <ele>710.989862</ele>
        <time>2022-04-27T09:55:10.743Z</time>
      </trkpt>
      <trkpt lat="41.44232" lon="20.55067">
        <ele>710.977193</ele>
        <time>2022-04-27T09:55:12.749Z</time>
      </trkpt>
      <trkpt lat="41.44224" lon="20.55056">
        <ele>710.964778</ele>
        <time>2022-04-27T09:55:14.744Z</time>
      </trkpt>
      <trkpt lat="41.44214" lon="20.55046">
        <ele>710.950535</ele>
        <time>2022-04-27T09:55:16.753Z</time>
      </trkpt>
      <trkpt lat="41.442" lon="20.55039">
        <ele>710.934117</ele>
        <time>2022-04-27T09:55:18.737Z</time>
      </trkpt>
      <trkpt lat="41.44188" lon="20.55033">
        <ele>710.918837</ele>
        <time>2022-04-27T09:55:20.745Z</time>
      </trkpt>
      <trkpt lat="41.44175" lon="20.55028">
        <ele>710.903611</ele>
        <time>2022-04-27T09:55:22.752Z</time>
      </trkpt>
      <trkpt lat="41.44161" lon="20.55024">
        <ele>710.888293</ele>
        <time>2022-04-27T09:55:24.741Z</time>
      </trkpt>
      <trkpt lat="41.4415" lon="20.55026">
        <ele>710.87542</ele>
        <time>2022-04-27T09:55:26.741Z</time>
      </trkpt>
      <trkpt lat="41.44141" lon="20.5503">
        <ele>710.864535</ele>
        <time>2022-04-27T09:55:28.750Z</time>
      </trkpt>
      <trkpt lat="41.44132" lon="20.55037">
        <ele>710.852688</ele>
        <time>2022-04-27T09:55:30.739Z</time>
      </trkpt>
      <trkpt lat="41.44123" lon="20.55045">
        <ele>710.920474</ele>
        <time>2022-04-27T09:55:32.753Z</time>
      </trkpt>
      <trkpt lat="41.44116" lon="20.55055">
        <ele>711.033927</ele>
        <time>2022-04-27T09:55:34.751Z</time>
      </trkpt>
      <trkpt lat="41.44111" lon="20.55065">
        <ele>711.137428</ele>
        <time>2022-04-27T09:55:36.746Z</time>
      </trkpt>
      <trkpt lat="41.44107" lon="20.55077">
        <ele>711.244989</ele>
        <time>2022-04-27T09:55:38.743Z</time>
      </trkpt>
      <trkpt lat="41.44105" lon="20.55093">
        <ele>711.385792</ele>
        <time>2022-04-27T09:55:41.748Z</time>
      </trkpt>
      <trkpt lat="41.44104" lon="20.55105">
        <ele>711.490204</ele>
        <time>2022-04-27T09:55:44.749Z</time>
      </trkpt>
      <trkpt lat="41.44104" lon="20.5512">
        <ele>711.619568</ele>
        <time>2022-04-27T09:55:48.760Z</time>
      </trkpt>
      <trkpt lat="41.44103" lon="20.55135">
        <ele>711.74708</ele>
        <time>2022-04-27T09:55:52.747Z</time>
      </trkpt>
      <trkpt lat="41.44101" lon="20.5515">
        <ele>711.874261</ele>
        <time>2022-04-27T09:55:56.747Z</time>
      </trkpt>
      <trkpt lat="41.44097" lon="20.55164">
        <ele>711.995815</ele>
        <time>2022-04-27T09:56:00.743Z</time>
      </trkpt>
      <trkpt lat="41.44094" lon="20.55176">
        <ele>712.10394</ele>
        <time>2022-04-27T09:56:04.748Z</time>
      </trkpt>
      <trkpt lat="41.4409" lon="20.55189">
        <ele>712.227609</ele>
        <time>2022-04-27T09:56:09.747Z</time>
      </trkpt>
      <trkpt lat="41.44085" lon="20.552">
        <ele>712.337068</ele>
        <time>2022-04-27T09:56:14.766Z</time>
      </trkpt>
      <trkpt lat="41.44082" lon="20.55212">
        <ele>712.439959</ele>
        <time>2022-04-27T09:56:19.738Z</time>
      </trkpt>
      <trkpt lat="41.44074" lon="20.55219">
        <ele>712.553425</ele>
        <time>2022-04-27T09:56:26.745Z</time>
      </trkpt>
      <trkpt lat="41.44065" lon="20.55223">
        <ele>712.658112</ele>
        <time>2022-04-27T09:56:31.747Z</time>
      </trkpt>
      <trkpt lat="41.44056" lon="20.55226">
        <ele>712.76266</ele>
        <time>2022-04-27T09:56:37.746Z</time>
      </trkpt>
      <trkpt lat="41.44047" lon="20.55229">
        <ele>712.867066</ele>
        <time>2022-04-27T09:56:42.767Z</time>
      </trkpt>
      <trkpt lat="41.44038" lon="20.55233">
        <ele>713.057668</ele>
        <time>2022-04-27T09:56:47.743Z</time>
      </trkpt>
      <trkpt lat="41.4403" lon="20.5524">
        <ele>713.269328</ele>
        <time>2022-04-27T09:56:54.744Z</time>
      </trkpt>
      <trkpt lat="41.44022" lon="20.55246">
        <ele>713.4746</ele>
        <time>2022-04-27T09:57:01.749Z</time>
      </trkpt>
      <trkpt lat="41.44013" lon="20.55252">
        <ele>713.704324</ele>
        <time>2022-04-27T09:57:08.748Z</time>
      </trkpt>
      <trkpt lat="41.44003" lon="20.55255">
        <ele>713.909643</ele>
        <time>2022-04-27T09:57:13.777Z</time>
      </trkpt>
      <trkpt lat="41.43993" lon="20.55258">
        <ele>714.142196</ele>
        <time>2022-04-27T09:57:19.741Z</time>
      </trkpt>
      <trkpt lat="41.43984" lon="20.55262">
        <ele>714.35033</ele>
        <time>2022-04-27T09:57:25.747Z</time>
      </trkpt>
      <trkpt lat="41.43974" lon="20.55263">
        <ele>714.571321</ele>
        <time>2022-04-27T09:57:32.779Z</time>
      </trkpt>
      <trkpt lat="41.43964" lon="20.55264">
        <ele>714.79646</ele>
        <time>2022-04-27T09:57:38.744Z</time>
      </trkpt>
      <trkpt lat="41.43954" lon="20.55266">
        <ele>715.011277</ele>
        <time>2022-04-27T09:57:44.749Z</time>
      </trkpt>
      <trkpt lat="41.43944" lon="20.55266">
        <ele>715.238133</ele>
        <time>2022-04-27T09:57:51.742Z</time>
      </trkpt>
      <trkpt lat="41.43935" lon="20.55267">
        <ele>715.439104</ele>
        <time>2022-04-27T09:57:56.743Z</time>
      </trkpt>
      <trkpt lat="41.43926" lon="20.5527">
        <ele>715.636657</ele>
        <time>2022-04-27T09:58:01.748Z</time>
      </trkpt>
      <trkpt lat="41.43916" lon="20.55274">
        <ele>715.871165</ele>
        <time>2022-04-27T09:58:07.748Z</time>
      </trkpt>
      <trkpt lat="41.43906" lon="20.55278">
        <ele>716.098901</ele>
        <time>2022-04-27T09:58:12.738Z</time>
      </trkpt>
      <trkpt lat="41.43898" lon="20.55282">
        <ele>716.300606</ele>
        <time>2022-04-27T09:58:16.744Z</time>
      </trkpt>
      <trkpt lat="41.43888" lon="20.55287">
        <ele>716.523195</ele>
        <time>2022-04-27T09:58:20.744Z</time>
      </trkpt>
      <trkpt lat="41.43879" lon="20.55291">
        <ele>716.734307</ele>
        <time>2022-04-27T09:58:23.741Z</time>
      </trkpt>
      <trkpt lat="41.43869" lon="20.55296">
        <ele>716.511829</ele>
        <time>2022-04-27T09:58:26.749Z</time>
      </trkpt>
      <trkpt lat="41.43857" lon="20.55303">
        <ele>715.785673</ele>
        <time>2022-04-27T09:58:29.745Z</time>
      </trkpt>
      <trkpt lat="41.43848" lon="20.5531">
        <ele>715.211075</ele>
        <time>2022-04-27T09:58:31.757Z</time>
      </trkpt>
      <trkpt lat="41.43839" lon="20.55317">
        <ele>714.578281</ele>
        <time>2022-04-27T09:58:33.771Z</time>
      </trkpt>
      <trkpt lat="41.43829" lon="20.55325">
        <ele>713.951376</ele>
        <time>2022-04-27T09:58:35.749Z</time>
      </trkpt>
      <trkpt lat="41.4382" lon="20.55333">
        <ele>713.33152</ele>
        <time>2022-04-27T09:58:37.743Z</time>
      </trkpt>
      <trkpt lat="41.4381" lon="20.55341">
        <ele>712.69303</ele>
        <time>2022-04-27T09:58:39.741Z</time>
      </trkpt>
      <trkpt lat="41.43801" lon="20.55349">
        <ele>712.0358</ele>
        <time>2022-04-27T09:58:41.745Z</time>
      </trkpt>
      <trkpt lat="41.4379" lon="20.55358">
        <ele>711.354727</ele>
        <time>2022-04-27T09:58:43.738Z</time>
      </trkpt>
      <trkpt lat="41.43781" lon="20.55367">
        <ele>710.68533</ele>
        <time>2022-04-27T09:58:45.748Z</time>
      </trkpt>
      <trkpt lat="41.43771" lon="20.55377">
        <ele>709.978062</ele>
        <time>2022-04-27T09:58:47.743Z</time>
      </trkpt>
      <trkpt lat="41.43761" lon="20.55389">
        <ele>709.220531</ele>
        <time>2022-04-27T09:58:49.739Z</time>
      </trkpt>
      <trkpt lat="41.4375" lon="20.55401">
        <ele>708.406621</ele>
        <time>2022-04-27T09:58:51.747Z</time>
      </trkpt>
      <trkpt lat="41.4374" lon="20.55415">
        <ele>707.572904</ele>
        <time>2022-04-27T09:58:53.746Z</time>
      </trkpt>
      <trkpt lat="41.43731" lon="20.55429">
        <ele>706.811053</ele>
        <time>2022-04-27T09:58:55.767Z</time>
      </trkpt>
      <trkpt lat="41.43722" lon="20.55444">
        <ele>705.610168</ele>
        <time>2022-04-27T09:58:57.749Z</time>
      </trkpt>
      <trkpt lat="41.43712" lon="20.55459">
        <ele>704.291358</ele>
        <time>2022-04-27T09:58:59.739Z</time>
      </trkpt>
      <trkpt lat="41.43703" lon="20.55473">
        <ele>702.982123</ele>
        <time>2022-04-27T09:59:01.747Z</time>
      </trkpt>
      <trkpt lat="41.43695" lon="20.55488">
        <ele>701.768247</ele>
        <time>2022-04-27T09:59:03.744Z</time>
      </trkpt>
      <trkpt lat="41.43687" lon="20.55502">
        <ele>700.591891</ele>
        <time>2022-04-27T09:59:05.738Z</time>
      </trkpt>
      <trkpt lat="41.43678" lon="20.55518">
        <ele>699.242558</ele>
        <time>2022-04-27T09:59:07.751Z</time>
      </trkpt>
      <trkpt lat="41.43669" lon="20.55535">
        <ele>697.779324</ele>
        <time>2022-04-27T09:59:09.740Z</time>
      </trkpt>
      <trkpt lat="41.4366" lon="20.55553">
        <ele>696.306953</ele>
        <time>2022-04-27T09:59:11.750Z</time>
      </trkpt>
      <trkpt lat="41.43652" lon="20.55572">
        <ele>694.896087</ele>
        <time>2022-04-27T09:59:13.743Z</time>
      </trkpt>
      <trkpt lat="41.43646" lon="20.55588">
        <ele>693.625272</ele>
        <time>2022-04-27T09:59:15.748Z</time>
      </trkpt>
      <trkpt lat="41.43639" lon="20.55605">
        <ele>692.330572</ele>
        <time>2022-04-27T09:59:17.743Z</time>
      </trkpt>
      <trkpt lat="41.43631" lon="20.55622">
        <ele>690.962325</ele>
        <time>2022-04-27T09:59:19.751Z</time>
      </trkpt>
      <trkpt lat="41.43621" lon="20.55638">
        <ele>689.568378</ele>
        <time>2022-04-27T09:59:21.741Z</time>
      </trkpt>
      <trkpt lat="41.4361" lon="20.55654">
        <ele>688.124912</ele>
        <time>2022-04-27T09:59:23.776Z</time>
      </trkpt>
      <trkpt lat="41.43597" lon="20.5567">
        <ele>686.592805</ele>
        <time>2022-04-27T09:59:25.747Z</time>
      </trkpt>
      <trkpt lat="41.43585" lon="20.55683">
        <ele>685.150012</ele>
        <time>2022-04-27T09:59:27.751Z</time>
      </trkpt>
      <trkpt lat="41.43572" lon="20.55696">
        <ele>683.758368</ele>
        <time>2022-04-27T09:59:29.749Z</time>
      </trkpt>
      <trkpt lat="41.4356" lon="20.55707">
        <ele>682.432932</ele>
        <time>2022-04-27T09:59:31.743Z</time>
      </trkpt>
      <trkpt lat="41.43546" lon="20.55718">
        <ele>681.063572</ele>
        <time>2022-04-27T09:59:33.741Z</time>
      </trkpt>
      <trkpt lat="41.43533" lon="20.55726">
        <ele>679.756775</ele>
        <time>2022-04-27T09:59:35.743Z</time>
      </trkpt>
      <trkpt lat="41.43519" lon="20.55734">
        <ele>678.410156</ele>
        <time>2022-04-27T09:59:37.746Z</time>
      </trkpt>
      <trkpt lat="41.43504" lon="20.55741">
        <ele>677.00584</ele>
        <time>2022-04-27T09:59:39.780Z</time>
      </trkpt>
      <trkpt lat="41.43489" lon="20.55747">
        <ele>675.58556</ele>
        <time>2022-04-27T09:59:41.753Z</time>
      </trkpt>
      <trkpt lat="41.43472" lon="20.55751">
        <ele>674.173963</ele>
        <time>2022-04-27T09:59:43.742Z</time>
      </trkpt>
      <trkpt lat="41.43455" lon="20.55755">
        <ele>673.098879</ele>
        <time>2022-04-27T09:59:45.743Z</time>
      </trkpt>
      <trkpt lat="41.43438" lon="20.5576">
        <ele>672.01277</ele>
        <time>2022-04-27T09:59:47.742Z</time>
      </trkpt>
      <trkpt lat="41.43421" lon="20.55763">
        <ele>670.937686</ele>
        <time>2022-04-27T09:59:49.767Z</time>
      </trkpt>
      <trkpt lat="41.43405" lon="20.55767">
        <ele>669.929003</ele>
        <time>2022-04-27T09:59:51.764Z</time>
      </trkpt>
      <trkpt lat="41.4339" lon="20.55772">
        <ele>668.971463</ele>
        <time>2022-04-27T09:59:53.746Z</time>
      </trkpt>
      <trkpt lat="41.43375" lon="20.55777">
        <ele>668.053486</ele>
        <time>2022-04-27T09:59:55.744Z</time>
      </trkpt>
      <trkpt lat="41.43362" lon="20.55782">
        <ele>667.173496</ele>
        <time>2022-04-27T09:59:57.743Z</time>
      </trkpt>
      <trkpt lat="41.43347" lon="20.55788">
        <ele>666.227765</ele>
        <time>2022-04-27T09:59:59.743Z</time>
      </trkpt>
      <trkpt lat="41.43332" lon="20.55795">
        <ele>665.239396</ele>
        <time>2022-04-27T10:00:01.747Z</time>
      </trkpt>
      <trkpt lat="41.43317" lon="20.55802">
        <ele>664.22455</ele>
        <time>2022-04-27T10:00:03.738Z</time>
      </trkpt>
      <trkpt lat="41.43301" lon="20.5581">
        <ele>663.148544</ele>
        <time>2022-04-27T10:00:05.774Z</time>
      </trkpt>
      <trkpt lat="41.43285" lon="20.55818">
        <ele>661.697042</ele>
        <time>2022-04-27T10:00:07.745Z</time>
      </trkpt>
      <trkpt lat="41.4327" lon="20.55827">
        <ele>660.3023</ele>
        <time>2022-04-27T10:00:09.751Z</time>
      </trkpt>
      <trkpt lat="41.43255" lon="20.55837">
        <ele>658.903784</ele>
        <time>2022-04-27T10:00:11.739Z</time>
      </trkpt>
      <trkpt lat="41.43241" lon="20.55848">
        <ele>657.506459</ele>
        <time>2022-04-27T10:00:13.761Z</time>
      </trkpt>
      <trkpt lat="41.43228" lon="20.55861">
        <ele>656.096189</ele>
        <time>2022-04-27T10:00:15.751Z</time>
      </trkpt>
      <trkpt lat="41.43215" lon="20.55875">
        <ele>654.674217</ele>
        <time>2022-04-27T10:00:17.746Z</time>
      </trkpt>
      <trkpt lat="41.43202" lon="20.5589">
        <ele>653.275539</ele>
        <time>2022-04-27T10:00:19.743Z</time>
      </trkpt>
      <trkpt lat="41.43191" lon="20.55906">
        <ele>651.865158</ele>
        <time>2022-04-27T10:00:21.745Z</time>
      </trkpt>
      <trkpt lat="41.43179" lon="20.55921">
        <ele>650.488271</ele>
        <time>2022-04-27T10:00:23.748Z</time>
      </trkpt>
      <trkpt lat="41.43169" lon="20.55935">
        <ele>649.235821</ele>
        <time>2022-04-27T10:00:25.741Z</time>
      </trkpt>
      <trkpt lat="41.43159" lon="20.5595">
        <ele>648.00144</ele>
        <time>2022-04-27T10:00:27.767Z</time>
      </trkpt>
      <trkpt lat="41.43151" lon="20.55966">
        <ele>647.020269</ele>
        <time>2022-04-27T10:00:29.749Z</time>
      </trkpt>
      <trkpt lat="41.43143" lon="20.55983">
        <ele>645.99293</ele>
        <time>2022-04-27T10:00:31.741Z</time>
      </trkpt>
      <trkpt lat="41.43136" lon="20.56">
        <ele>645.00333</ele>
        <time>2022-04-27T10:00:33.740Z</time>
      </trkpt>
      <trkpt lat="41.43131" lon="20.56019">
        <ele>643.967987</ele>
        <time>2022-04-27T10:00:35.748Z</time>
      </trkpt>
      <trkpt lat="41.43125" lon="20.56038">
        <ele>642.897085</ele>
        <time>2022-04-27T10:00:37.743Z</time>
      </trkpt>
      <trkpt lat="41.4312" lon="20.56057">
        <ele>641.895326</ele>
        <time>2022-04-27T10:00:39.748Z</time>
      </trkpt>
      <trkpt lat="41.43115" lon="20.56075">
        <ele>640.914984</ele>
        <time>2022-04-27T10:00:41.743Z</time>
      </trkpt>
      <trkpt lat="41.43107" lon="20.56092">
        <ele>639.897198</ele>
        <time>2022-04-27T10:00:43.749Z</time>
      </trkpt>
      <trkpt lat="41.43096" lon="20.56108">
        <ele>638.807843</ele>
        <time>2022-04-27T10:00:45.738Z</time>
      </trkpt>
      <trkpt lat="41.43082" lon="20.5612">
        <ele>637.63423</ele>
        <time>2022-04-27T10:00:47.740Z</time>
      </trkpt>
      <trkpt lat="41.43067" lon="20.56128">
        <ele>636.552882</ele>
        <time>2022-04-27T10:00:49.770Z</time>
      </trkpt>
      <trkpt lat="41.43052" lon="20.56132">
        <ele>635.669234</ele>
        <time>2022-04-27T10:00:51.742Z</time>
      </trkpt>
      <trkpt lat="41.43037" lon="20.56134">
        <ele>635.108523</ele>
        <time>2022-04-27T10:00:53.743Z</time>
      </trkpt>
      <trkpt lat="41.43022" lon="20.56135">
        <ele>634.556839</ele>
        <time>2022-04-27T10:00:55.770Z</time>
      </trkpt>
      <trkpt lat="41.43008" lon="20.56135">
        <ele>634.010067</ele>
        <time>2022-04-27T10:00:57.738Z</time>
      </trkpt>
      <trkpt lat="41.42992" lon="20.56135">
        <ele>633.429819</ele>
        <time>2022-04-27T10:00:59.744Z</time>
      </trkpt>
      <trkpt lat="41.42975" lon="20.56134">
        <ele>632.797277</ele>
        <time>2022-04-27T10:01:01.738Z</time>
      </trkpt>
      <trkpt lat="41.42957" lon="20.56133">
        <ele>632.112314</ele>
        <time>2022-04-27T10:01:03.743Z</time>
      </trkpt>
      <trkpt lat="41.42947" lon="20.56133">
        <ele>631.769833</ele>
        <time>2022-04-27T10:01:04.753Z</time>
      </trkpt>
      <trkpt lat="41.42938" lon="20.56133">
        <ele>631.431252</ele>
        <time>2022-04-27T10:01:05.741Z</time>
      </trkpt>
      <trkpt lat="41.42921" lon="20.56132">
        <ele>630.780237</ele>
        <time>2022-04-27T10:01:07.741Z</time>
      </trkpt>
      <trkpt lat="41.42903" lon="20.56132">
        <ele>630.099511</ele>
        <time>2022-04-27T10:01:09.746Z</time>
      </trkpt>
      <trkpt lat="41.42893" lon="20.56132">
        <ele>629.753549</ele>
        <time>2022-04-27T10:01:10.749Z</time>
      </trkpt>
      <trkpt lat="41.42884" lon="20.56131">
        <ele>629.407587</ele>
        <time>2022-04-27T10:01:11.743Z</time>
      </trkpt>
      <trkpt lat="41.42875" lon="20.56131">
        <ele>629.07947</ele>
        <time>2022-04-27T10:01:12.753Z</time>
      </trkpt>
      <trkpt lat="41.42866" lon="20.56131">
        <ele>628.810338</ele>
        <time>2022-04-27T10:01:13.740Z</time>
      </trkpt>
      <trkpt lat="41.42856" lon="20.5613">
        <ele>628.54413</ele>
        <time>2022-04-27T10:01:14.749Z</time>
      </trkpt>
      <trkpt lat="41.4284" lon="20.56129">
        <ele>628.063535</ele>
        <time>2022-04-27T10:01:16.743Z</time>
      </trkpt>
      <trkpt lat="41.42825" lon="20.56129">
        <ele>627.621934</ele>
        <time>2022-04-27T10:01:18.747Z</time>
      </trkpt>
      <trkpt lat="41.42811" lon="20.56129">
        <ele>627.20081</ele>
        <time>2022-04-27T10:01:20.762Z</time>
      </trkpt>
      <trkpt lat="41.42796" lon="20.56129">
        <ele>626.785511</ele>
        <time>2022-04-27T10:01:22.748Z</time>
      </trkpt>
      <trkpt lat="41.42783" lon="20.56129">
        <ele>626.402349</ele>
        <time>2022-04-27T10:01:24.739Z</time>
      </trkpt>
      <trkpt lat="41.42771" lon="20.56131">
        <ele>626.033901</ele>
        <time>2022-04-27T10:01:26.753Z</time>
      </trkpt>
      <trkpt lat="41.42759" lon="20.56136">
        <ele>625.689639</ele>
        <time>2022-04-27T10:01:28.765Z</time>
      </trkpt>
      <trkpt lat="41.42749" lon="20.56143">
        <ele>625.332527</ele>
        <time>2022-04-27T10:01:30.753Z</time>
      </trkpt>
      <trkpt lat="41.42739" lon="20.56152">
        <ele>624.985736</ele>
        <time>2022-04-27T10:01:32.744Z</time>
      </trkpt>
      <trkpt lat="41.4273" lon="20.56162">
        <ele>624.647634</ele>
        <time>2022-04-27T10:01:34.748Z</time>
      </trkpt>
      <trkpt lat="41.42721" lon="20.56172">
        <ele>624.302321</ele>
        <time>2022-04-27T10:01:36.746Z</time>
      </trkpt>
      <trkpt lat="41.42713" lon="20.56183">
        <ele>623.967501</ele>
        <time>2022-04-27T10:01:38.736Z</time>
      </trkpt>
      <trkpt lat="41.42707" lon="20.56195">
        <ele>623.722226</ele>
        <time>2022-04-27T10:01:40.746Z</time>
      </trkpt>
      <trkpt lat="41.42702" lon="20.56207">
        <ele>623.507949</ele>
        <time>2022-04-27T10:01:42.759Z</time>
      </trkpt>
      <trkpt lat="41.42696" lon="20.5622">
        <ele>623.287733</ele>
        <time>2022-04-27T10:01:44.739Z</time>
      </trkpt>
      <trkpt lat="41.4269" lon="20.56233">
        <ele>623.062255</ele>
        <time>2022-04-27T10:01:46.751Z</time>
      </trkpt>
      <trkpt lat="41.42685" lon="20.56246">
        <ele>622.83542</ele>
        <time>2022-04-27T10:01:48.749Z</time>
      </trkpt>
      <trkpt lat="41.42678" lon="20.56257">
        <ele>622.61447</ele>
        <time>2022-04-27T10:01:50.742Z</time>
      </trkpt>
      <trkpt lat="41.42671" lon="20.56268">
        <ele>622.412598</ele>
        <time>2022-04-27T10:01:52.750Z</time>
      </trkpt>
      <trkpt lat="41.42664" lon="20.56277">
        <ele>622.213475</ele>
        <time>2022-04-27T10:01:54.752Z</time>
      </trkpt>
      <trkpt lat="41.42657" lon="20.56286">
        <ele>622.021176</ele>
        <time>2022-04-27T10:01:56.746Z</time>
      </trkpt>
      <trkpt lat="41.42649" lon="20.56294">
        <ele>621.815306</ele>
        <time>2022-04-27T10:01:58.742Z</time>
      </trkpt>
      <trkpt lat="41.42641" lon="20.56302">
        <ele>621.616472</ele>
        <time>2022-04-27T10:02:00.758Z</time>
      </trkpt>
      <trkpt lat="41.42632" lon="20.56308">
        <ele>621.421264</ele>
        <time>2022-04-27T10:02:02.765Z</time>
      </trkpt>
      <trkpt lat="41.42623" lon="20.56314">
        <ele>621.217198</ele>
        <time>2022-04-27T10:02:04.741Z</time>
      </trkpt>
      <trkpt lat="41.42614" lon="20.56318">
        <ele>621.020705</ele>
        <time>2022-04-27T10:02:06.763Z</time>
      </trkpt>
      <trkpt lat="41.42604" lon="20.56322">
        <ele>620.822919</ele>
        <time>2022-04-27T10:02:08.765Z</time>
      </trkpt>
      <trkpt lat="41.42595" lon="20.56327">
        <ele>620.619754</ele>
        <time>2022-04-27T10:02:10.741Z</time>
      </trkpt>
      <trkpt lat="41.42585" lon="20.56332">
        <ele>620.420325</ele>
        <time>2022-04-27T10:02:12.754Z</time>
      </trkpt>
      <trkpt lat="41.42577" lon="20.56336">
        <ele>620.282977</ele>
        <time>2022-04-27T10:02:14.740Z</time>
      </trkpt>
      <trkpt lat="41.42568" lon="20.56341">
        <ele>620.326519</ele>
        <time>2022-04-27T10:02:16.741Z</time>
      </trkpt>
      <trkpt lat="41.42558" lon="20.56346">
        <ele>620.370415</ele>
        <time>2022-04-27T10:02:18.748Z</time>
      </trkpt>
      <trkpt lat="41.42549" lon="20.56351">
        <ele>620.415632</ele>
        <time>2022-04-27T10:02:20.757Z</time>
      </trkpt>
      <trkpt lat="41.4254" lon="20.56357">
        <ele>620.460165</ele>
        <time>2022-04-27T10:02:22.761Z</time>
      </trkpt>
      <trkpt lat="41.42531" lon="20.56362">
        <ele>620.503526</ele>
        <time>2022-04-27T10:02:24.751Z</time>
      </trkpt>
      <trkpt lat="41.42523" lon="20.56367">
        <ele>620.544266</ele>
        <time>2022-04-27T10:02:26.754Z</time>
      </trkpt>
      <trkpt lat="41.42514" lon="20.56371">
        <ele>620.585691</ele>
        <time>2022-04-27T10:02:28.739Z</time>
      </trkpt>
      <trkpt lat="41.42505" lon="20.56376">
        <ele>620.627378</ele>
        <time>2022-04-27T10:02:30.760Z</time>
      </trkpt>
      <trkpt lat="41.42497" lon="20.56381">
        <ele>620.668524</ele>
        <time>2022-04-27T10:02:32.747Z</time>
      </trkpt>
      <trkpt lat="41.42488" lon="20.56386">
        <ele>620.710771</ele>
        <time>2022-04-27T10:02:34.769Z</time>
      </trkpt>
      <trkpt lat="41.42479" lon="20.56391">
        <ele>620.754667</ele>
        <time>2022-04-27T10:02:36.753Z</time>
      </trkpt>
      <trkpt lat="41.4247" lon="20.56396">
        <ele>620.798687</ele>
        <time>2022-04-27T10:02:38.747Z</time>
      </trkpt>
      <trkpt lat="41.42461" lon="20.56401">
        <ele>620.841049</ele>
        <time>2022-04-27T10:02:40.743Z</time>
      </trkpt>
      <trkpt lat="41.42453" lon="20.56407">
        <ele>620.881446</ele>
        <time>2022-04-27T10:02:42.738Z</time>
      </trkpt>
      <trkpt lat="41.42445" lon="20.56414">
        <ele>620.923814</ele>
        <time>2022-04-27T10:02:44.744Z</time>
      </trkpt>
      <trkpt lat="41.42438" lon="20.56422">
        <ele>620.966348</ele>
        <time>2022-04-27T10:02:46.754Z</time>
      </trkpt>
      <trkpt lat="41.4243" lon="20.56429">
        <ele>621.007771</ele>
        <time>2022-04-27T10:02:48.774Z</time>
      </trkpt>
      <trkpt lat="41.42423" lon="20.56437">
        <ele>621.048573</ele>
        <time>2022-04-27T10:02:50.784Z</time>
      </trkpt>
      <trkpt lat="41.42415" lon="20.56444">
        <ele>621.121776</ele>
        <time>2022-04-27T10:02:52.779Z</time>
      </trkpt>
      <trkpt lat="41.42408" lon="20.5645">
        <ele>621.254691</ele>
        <time>2022-04-27T10:02:54.776Z</time>
      </trkpt>
      <trkpt lat="41.424" lon="20.56456">
        <ele>621.387602</ele>
        <time>2022-04-27T10:02:56.794Z</time>
      </trkpt>
      <trkpt lat="41.42391" lon="20.56462">
        <ele>621.529869</ele>
        <time>2022-04-27T10:02:58.802Z</time>
      </trkpt>
      <trkpt lat="41.42378" lon="20.56467">
        <ele>621.717417</ele>
        <time>2022-04-27T10:03:01.761Z</time>
      </trkpt>
      <trkpt lat="41.42367" lon="20.56473">
        <ele>621.891318</ele>
        <time>2022-04-27T10:03:04.753Z</time>
      </trkpt>
      <trkpt lat="41.42356" lon="20.56476">
        <ele>622.063498</ele>
        <time>2022-04-27T10:03:07.783Z</time>
      </trkpt>
      <trkpt lat="41.42344" lon="20.56479">
        <ele>622.226615</ele>
        <time>2022-04-27T10:03:10.797Z</time>
      </trkpt>
      <trkpt lat="41.42332" lon="20.56482">
        <ele>622.403968</ele>
        <time>2022-04-27T10:03:13.768Z</time>
      </trkpt>
      <trkpt lat="41.42321" lon="20.56485">
        <ele>622.577238</ele>
        <time>2022-04-27T10:03:16.778Z</time>
      </trkpt>
      <trkpt lat="41.42309" lon="20.56488">
        <ele>622.744086</ele>
        <time>2022-04-27T10:03:19.781Z</time>
      </trkpt>
      <trkpt lat="41.42297" lon="20.56491">
        <ele>622.922419</ele>
        <time>2022-04-27T10:03:22.768Z</time>
      </trkpt>
      <trkpt lat="41.42286" lon="20.56494">
        <ele>623.093039</ele>
        <time>2022-04-27T10:03:25.764Z</time>
      </trkpt>
      <trkpt lat="41.42274" lon="20.56497">
        <ele>623.261237</ele>
        <time>2022-04-27T10:03:28.762Z</time>
      </trkpt>
      <trkpt lat="41.42263" lon="20.565">
        <ele>623.426827</ele>
        <time>2022-04-27T10:03:31.775Z</time>
      </trkpt>
      <trkpt lat="41.42252" lon="20.56504">
        <ele>623.591975</ele>
        <time>2022-04-27T10:03:34.773Z</time>
      </trkpt>
      <trkpt lat="41.42241" lon="20.56508">
        <ele>623.867309</ele>
        <time>2022-04-27T10:03:37.778Z</time>
      </trkpt>
      <trkpt lat="41.42232" lon="20.56512">
        <ele>624.185802</ele>
        <time>2022-04-27T10:03:40.766Z</time>
      </trkpt>
      <trkpt lat="41.42222" lon="20.5652">
        <ele>624.583403</ele>
        <time>2022-04-27T10:03:44.784Z</time>
      </trkpt>
      <trkpt lat="41.42215" lon="20.56528">
        <ele>624.91718</ele>
        <time>2022-04-27T10:03:47.768Z</time>
      </trkpt>
      <trkpt lat="41.42205" lon="20.56535">
        <ele>625.310065</ele>
        <time>2022-04-27T10:03:50.782Z</time>
      </trkpt>
      <trkpt lat="41.42195" lon="20.56542">
        <ele>625.689595</ele>
        <time>2022-04-27T10:03:53.773Z</time>
      </trkpt>
      <trkpt lat="41.42184" lon="20.56548">
        <ele>626.087695</ele>
        <time>2022-04-27T10:03:56.778Z</time>
      </trkpt>
      <trkpt lat="41.42175" lon="20.56554">
        <ele>626.447051</ele>
        <time>2022-04-27T10:03:59.769Z</time>
      </trkpt>
      <trkpt lat="41.42164" lon="20.56559">
        <ele>626.824502</ele>
        <time>2022-04-27T10:04:02.764Z</time>
      </trkpt>
      <trkpt lat="41.42154" lon="20.56566">
        <ele>627.218446</ele>
        <time>2022-04-27T10:04:05.763Z</time>
      </trkpt>
      <trkpt lat="41.42145" lon="20.56571">
        <ele>627.575768</ele>
        <time>2022-04-27T10:04:08.780Z</time>
      </trkpt>
      <trkpt lat="41.42135" lon="20.56578">
        <ele>627.950852</ele>
        <time>2022-04-27T10:04:11.813Z</time>
      </trkpt>
      <trkpt lat="41.42126" lon="20.56585">
        <ele>628.295602</ele>
        <time>2022-04-27T10:04:14.771Z</time>
      </trkpt>
      <trkpt lat="41.42118" lon="20.56592">
        <ele>628.654732</ele>
        <time>2022-04-27T10:04:17.765Z</time>
      </trkpt>
      <trkpt lat="41.4211" lon="20.56601">
        <ele>628.997465</ele>
        <time>2022-04-27T10:04:20.772Z</time>
      </trkpt>
      <trkpt lat="41.42105" lon="20.56613">
        <ele>629.351428</ele>
        <time>2022-04-27T10:04:23.766Z</time>
      </trkpt>
      <trkpt lat="41.42099" lon="20.56625">
        <ele>629.714584</ele>
        <time>2022-04-27T10:04:26.775Z</time>
      </trkpt>
      <trkpt lat="41.42094" lon="20.56638">
        <ele>629.635162</ele>
        <time>2022-04-27T10:04:29.768Z</time>
      </trkpt>
      <trkpt lat="41.42088" lon="20.56651">
        <ele>629.255814</ele>
        <time>2022-04-27T10:04:32.754Z</time>
      </trkpt>
      <trkpt lat="41.4208" lon="20.56664">
        <ele>628.843042</ele>
        <time>2022-04-27T10:04:35.770Z</time>
      </trkpt>
      <trkpt lat="41.4207" lon="20.56677">
        <ele>628.406328</ele>
        <time>2022-04-27T10:04:38.765Z</time>
      </trkpt>
      <trkpt lat="41.42064" lon="20.56685">
        <ele>628.109774</ele>
        <time>2022-04-27T10:04:40.770Z</time>
      </trkpt>
      <trkpt lat="41.42055" lon="20.56696">
        <ele>627.694752</ele>
        <time>2022-04-27T10:04:43.769Z</time>
      </trkpt>
      <trkpt lat="41.42045" lon="20.56707">
        <ele>627.282376</ele>
        <time>2022-04-27T10:04:46.778Z</time>
      </trkpt>
      <trkpt lat="41.42036" lon="20.56717">
        <ele>626.899688</ele>
        <time>2022-04-27T10:04:49.756Z</time>
      </trkpt>
      <trkpt lat="41.42028" lon="20.56726">
        <ele>626.565467</ele>
        <time>2022-04-27T10:04:52.773Z</time>
      </trkpt>
      <trkpt lat="41.42021" lon="20.56735">
        <ele>626.224681</ele>
        <time>2022-04-27T10:04:55.822Z</time>
      </trkpt>
      <trkpt lat="41.42013" lon="20.56744">
        <ele>625.873212</ele>
        <time>2022-04-27T10:04:58.757Z</time>
      </trkpt>
      <trkpt lat="41.42006" lon="20.56755">
        <ele>625.54147</ele>
        <time>2022-04-27T10:05:01.753Z</time>
      </trkpt>
      <trkpt lat="41.41999" lon="20.56765">
        <ele>625.183899</ele>
        <time>2022-04-27T10:05:04.824Z</time>
      </trkpt>
      <trkpt lat="41.41992" lon="20.56777">
        <ele>624.828685</ele>
        <time>2022-04-27T10:05:07.774Z</time>
      </trkpt>
      <trkpt lat="41.41986" lon="20.56789">
        <ele>624.465454</ele>
        <time>2022-04-27T10:05:10.762Z</time>
      </trkpt>
      <trkpt lat="41.4198" lon="20.56801">
        <ele>624.113101</ele>
        <time>2022-04-27T10:05:13.779Z</time>
      </trkpt>
      <trkpt lat="41.41974" lon="20.56813">
        <ele>623.857505</ele>
        <time>2022-04-27T10:05:16.822Z</time>
      </trkpt>
      <trkpt lat="41.41967" lon="20.56823">
        <ele>623.695429</ele>
        <time>2022-04-27T10:05:19.764Z</time>
      </trkpt>
      <trkpt lat="41.41962" lon="20.56835">
        <ele>623.534811</ele>
        <time>2022-04-27T10:05:22.781Z</time>
      </trkpt>
      <trkpt lat="41.41955" lon="20.56848">
        <ele>623.344843</ele>
        <time>2022-04-27T10:05:25.762Z</time>
      </trkpt>
      <trkpt lat="41.41946" lon="20.5686">
        <ele>623.147778</ele>
        <time>2022-04-27T10:05:28.771Z</time>
      </trkpt>
      <trkpt lat="41.41938" lon="20.56872">
        <ele>622.962015</ele>
        <time>2022-04-27T10:05:31.774Z</time>
      </trkpt>
      <trkpt lat="41.4193" lon="20.56883">
        <ele>622.781218</ele>
        <time>2022-04-27T10:05:34.764Z</time>
      </trkpt>
      <trkpt lat="41.41921" lon="20.56892">
        <ele>622.613042</ele>
        <time>2022-04-27T10:05:37.767Z</time>
      </trkpt>
      <trkpt lat="41.41912" lon="20.56902">
        <ele>622.420656</ele>
        <time>2022-04-27T10:05:40.769Z</time>
      </trkpt>
      <trkpt lat="41.41904" lon="20.5691">
        <ele>622.269355</ele>
        <time>2022-04-27T10:05:42.760Z</time>
      </trkpt>
      <trkpt lat="41.41894" lon="20.5692">
        <ele>622.071408</ele>
        <time>2022-04-27T10:05:45.806Z</time>
      </trkpt>
      <trkpt lat="41.41884" lon="20.5693">
        <ele>621.877362</ele>
        <time>2022-04-27T10:05:48.752Z</time>
      </trkpt>
      <trkpt lat="41.41874" lon="20.5694">
        <ele>621.69277</ele>
        <time>2022-04-27T10:05:51.763Z</time>
      </trkpt>
      <trkpt lat="41.41865" lon="20.56949">
        <ele>621.513488</ele>
        <time>2022-04-27T10:05:54.779Z</time>
      </trkpt>
      <trkpt lat="41.41855" lon="20.56958">
        <ele>621.323334</ele>
        <time>2022-04-27T10:05:57.768Z</time>
      </trkpt>
      <trkpt lat="41.41846" lon="20.56967">
        <ele>621.14296</ele>
        <time>2022-04-27T10:06:00.774Z</time>
      </trkpt>
      <trkpt lat="41.41836" lon="20.56975">
        <ele>620.835395</ele>
        <time>2022-04-27T10:06:03.765Z</time>
      </trkpt>
      <trkpt lat="41.41826" lon="20.56983">
        <ele>620.528379</ele>
        <time>2022-04-27T10:06:06.755Z</time>
      </trkpt>
      <trkpt lat="41.41816" lon="20.56992">
        <ele>620.222475</ele>
        <time>2022-04-27T10:06:09.765Z</time>
      </trkpt>
      <trkpt lat="41.41807" lon="20.57001">
        <ele>619.931701</ele>
        <time>2022-04-27T10:06:12.778Z</time>
      </trkpt>
      <trkpt lat="41.41797" lon="20.5701">
        <ele>619.623518</ele>
        <time>2022-04-27T10:06:15.770Z</time>
      </trkpt>
      <trkpt lat="41.41788" lon="20.57019">
        <ele>619.317569</ele>
        <time>2022-04-27T10:06:18.761Z</time>
      </trkpt>
      <trkpt lat="41.41779" lon="20.57029">
        <ele>619.010385</ele>
        <time>2022-04-27T10:06:21.773Z</time>
      </trkpt>
      <trkpt lat="41.41771" lon="20.5704">
        <ele>618.700147</ele>
        <time>2022-04-27T10:06:24.784Z</time>
      </trkpt>
      <trkpt lat="41.41764" lon="20.57051">
        <ele>618.422836</ele>
        <time>2022-04-27T10:06:27.770Z</time>
      </trkpt>
      <trkpt lat="41.41756" lon="20.57064">
        <ele>618.085266</ele>
        <time>2022-04-27T10:06:30.756Z</time>
      </trkpt>
      <trkpt lat="41.41749" lon="20.57078">
        <ele>617.760619</ele>
        <time>2022-04-27T10:06:33.772Z</time>
      </trkpt>
      <trkpt lat="41.41742" lon="20.57092">
        <ele>617.414838</ele>
        <time>2022-04-27T10:06:36.769Z</time>
      </trkpt>
      <trkpt lat="41.41734" lon="20.57107">
        <ele>617.06597</ele>
        <time>2022-04-27T10:06:39.760Z</time>
      </trkpt>
      <trkpt lat="41.41727" lon="20.57122">
        <ele>616.713804</ele>
        <time>2022-04-27T10:06:42.779Z</time>
      </trkpt>
      <trkpt lat="41.41722" lon="20.57133">
        <ele>616.46126</ele>
        <time>2022-04-27T10:06:44.781Z</time>
      </trkpt>
      <trkpt lat="41.41715" lon="20.57147">
        <ele>616.033228</ele>
        <time>2022-04-27T10:06:47.804Z</time>
      </trkpt>
      <trkpt lat="41.41708" lon="20.57162">
        <ele>615.571427</ele>
        <time>2022-04-27T10:06:50.777Z</time>
      </trkpt>
      <trkpt lat="41.41702" lon="20.57173">
        <ele>615.247089</ele>
        <time>2022-04-27T10:06:52.771Z</time>
      </trkpt>
      <trkpt lat="41.41695" lon="20.57187">
        <ele>614.80914</ele>
        <time>2022-04-27T10:06:55.750Z</time>
      </trkpt>
      <trkpt lat="41.41688" lon="20.57195">
        <ele>614.478064</ele>
        <time>2022-04-27T10:06:57.831Z</time>
      </trkpt>
      <trkpt lat="41.41682" lon="20.57204">
        <ele>614.161123</ele>
        <time>2022-04-27T10:06:59.763Z</time>
      </trkpt>
      <trkpt lat="41.41675" lon="20.57213">
        <ele>613.836255</ele>
        <time>2022-04-27T10:07:01.770Z</time>
      </trkpt>
      <trkpt lat="41.41667" lon="20.57222">
        <ele>613.494155</ele>
        <time>2022-04-27T10:07:03.768Z</time>
      </trkpt>
      <trkpt lat="41.4166" lon="20.5723">
        <ele>613.151126</ele>
        <time>2022-04-27T10:07:05.766Z</time>
      </trkpt>
      <trkpt lat="41.41652" lon="20.57239">
        <ele>612.815006</ele>
        <time>2022-04-27T10:07:07.768Z</time>
      </trkpt>
      <trkpt lat="41.41645" lon="20.57247">
        <ele>612.488184</ele>
        <time>2022-04-27T10:07:09.765Z</time>
      </trkpt>
      <trkpt lat="41.41638" lon="20.57255">
        <ele>612.175897</ele>
        <time>2022-04-27T10:07:11.762Z</time>
      </trkpt>
      <trkpt lat="41.41627" lon="20.57266">
        <ele>611.71407</ele>
        <time>2022-04-27T10:07:14.757Z</time>
      </trkpt>
      <trkpt lat="41.41618" lon="20.57276">
        <ele>611.287821</ele>
        <time>2022-04-27T10:07:17.763Z</time>
      </trkpt>
      <trkpt lat="41.41607" lon="20.57286">
        <ele>610.845266</ele>
        <time>2022-04-27T10:07:20.790Z</time>
      </trkpt>
      <trkpt lat="41.41596" lon="20.57296">
        <ele>610.394112</ele>
        <time>2022-04-27T10:07:23.781Z</time>
      </trkpt>
      <trkpt lat="41.41585" lon="20.57304">
        <ele>610.533741</ele>
        <time>2022-04-27T10:07:26.769Z</time>
      </trkpt>
      <trkpt lat="41.41574" lon="20.57312">
        <ele>611.039169</ele>
        <time>2022-04-27T10:07:29.753Z</time>
      </trkpt>
      <trkpt lat="41.41562" lon="20.57321">
        <ele>611.545982</ele>
        <time>2022-04-27T10:07:32.754Z</time>
      </trkpt>
      <trkpt lat="41.41552" lon="20.57329">
        <ele>612.022755</ele>
        <time>2022-04-27T10:07:35.740Z</time>
      </trkpt>
      <trkpt lat="41.41541" lon="20.57334">
        <ele>612.478899</ele>
        <time>2022-04-27T10:07:38.749Z</time>
      </trkpt>
      <trkpt lat="41.4153" lon="20.5734">
        <ele>612.93359</ele>
        <time>2022-04-27T10:07:41.745Z</time>
      </trkpt>
      <trkpt lat="41.41519" lon="20.57345">
        <ele>613.379126</ele>
        <time>2022-04-27T10:07:44.752Z</time>
      </trkpt>
      <trkpt lat="41.41507" lon="20.57351">
        <ele>613.844078</ele>
        <time>2022-04-27T10:07:47.736Z</time>
      </trkpt>
      <trkpt lat="41.41496" lon="20.57355">
        <ele>614.307316</ele>
        <time>2022-04-27T10:07:50.737Z</time>
      </trkpt>
      <trkpt lat="41.41484" lon="20.57358">
        <ele>614.785318</ele>
        <time>2022-04-27T10:07:53.743Z</time>
      </trkpt>
      <trkpt lat="41.4147" lon="20.57362">
        <ele>615.311055</ele>
        <time>2022-04-27T10:07:56.772Z</time>
      </trkpt>
      <trkpt lat="41.41461" lon="20.57363">
        <ele>615.685369</ele>
        <time>2022-04-27T10:07:58.740Z</time>
      </trkpt>
      <trkpt lat="41.41451" lon="20.57364">
        <ele>616.069118</ele>
        <time>2022-04-27T10:08:00.739Z</time>
      </trkpt>
      <trkpt lat="41.41442" lon="20.57366">
        <ele>616.434704</ele>
        <time>2022-04-27T10:08:02.748Z</time>
      </trkpt>
      <trkpt lat="41.41432" lon="20.57368">
        <ele>616.795973</ele>
        <time>2022-04-27T10:08:04.741Z</time>
      </trkpt>
      <trkpt lat="41.41423" lon="20.5737">
        <ele>617.156741</ele>
        <time>2022-04-27T10:08:06.750Z</time>
      </trkpt>
      <trkpt lat="41.41411" lon="20.57372">
        <ele>617.745065</ele>
        <time>2022-04-27T10:08:09.742Z</time>
      </trkpt>
      <trkpt lat="41.41399" lon="20.57374">
        <ele>618.350571</ele>
        <time>2022-04-27T10:08:12.745Z</time>
      </trkpt>
      <trkpt lat="41.41386" lon="20.57377">
        <ele>618.992276</ele>
        <time>2022-04-27T10:08:15.739Z</time>
      </trkpt>
      <trkpt lat="41.41373" lon="20.57378">
        <ele>619.64763</ele>
        <time>2022-04-27T10:08:18.762Z</time>
      </trkpt>
      <trkpt lat="41.41363" lon="20.57379">
        <ele>620.106143</ele>
        <time>2022-04-27T10:08:20.745Z</time>
      </trkpt>
      <trkpt lat="41.41354" lon="20.57379">
        <ele>620.553343</ele>
        <time>2022-04-27T10:08:22.738Z</time>
      </trkpt>
      <trkpt lat="41.41342" lon="20.57381">
        <ele>621.168966</ele>
        <time>2022-04-27T10:08:25.743Z</time>
      </trkpt>
      <trkpt lat="41.41329" lon="20.57381">
        <ele>621.798038</ele>
        <time>2022-04-27T10:08:28.740Z</time>
      </trkpt>
      <trkpt lat="41.41319" lon="20.57382">
        <ele>622.270974</ele>
        <time>2022-04-27T10:08:30.741Z</time>
      </trkpt>
      <trkpt lat="41.41307" lon="20.57383">
        <ele>622.87867</ele>
        <time>2022-04-27T10:08:33.746Z</time>
      </trkpt>
      <trkpt lat="41.41293" lon="20.57384">
        <ele>623.556933</ele>
        <time>2022-04-27T10:08:36.748Z</time>
      </trkpt>
      <trkpt lat="41.41283" lon="20.57384">
        <ele>624.063225</ele>
        <time>2022-04-27T10:08:38.746Z</time>
      </trkpt>
      <trkpt lat="41.41273" lon="20.57384">
        <ele>624.54484</ele>
        <time>2022-04-27T10:08:40.739Z</time>
      </trkpt>
      <trkpt lat="41.41264" lon="20.57384">
        <ele>624.992283</ele>
        <time>2022-04-27T10:08:42.742Z</time>
      </trkpt>
      <trkpt lat="41.41252" lon="20.57385">
        <ele>625.601755</ele>
        <time>2022-04-27T10:08:45.742Z</time>
      </trkpt>
      <trkpt lat="41.41239" lon="20.57386">
        <ele>625.977269</ele>
        <time>2022-04-27T10:08:48.745Z</time>
      </trkpt>
      <trkpt lat="41.41226" lon="20.57389">
        <ele>625.853231</ele>
        <time>2022-04-27T10:08:51.751Z</time>
      </trkpt>
      <trkpt lat="41.41214" lon="20.57393">
        <ele>625.729518</ele>
        <time>2022-04-27T10:08:54.744Z</time>
      </trkpt>
      <trkpt lat="41.41202" lon="20.57398">
        <ele>625.606071</ele>
        <time>2022-04-27T10:08:57.737Z</time>
      </trkpt>
      <trkpt lat="41.41189" lon="20.57404">
        <ele>625.472919</ele>
        <time>2022-04-27T10:09:00.738Z</time>
      </trkpt>
      <trkpt lat="41.4118" lon="20.57409">
        <ele>625.382305</ele>
        <time>2022-04-27T10:09:02.762Z</time>
      </trkpt>
      <trkpt lat="41.41169" lon="20.57416">
        <ele>625.261623</ele>
        <time>2022-04-27T10:09:05.756Z</time>
      </trkpt>
      <trkpt lat="41.41158" lon="20.57422">
        <ele>625.142407</ele>
        <time>2022-04-27T10:09:08.761Z</time>
      </trkpt>
      <trkpt lat="41.41145" lon="20.57428">
        <ele>625.014976</ele>
        <time>2022-04-27T10:09:11.743Z</time>
      </trkpt>
      <trkpt lat="41.41133" lon="20.57434">
        <ele>624.892857</ele>
        <time>2022-04-27T10:09:14.743Z</time>
      </trkpt>
      <trkpt lat="41.41121" lon="20.57438">
        <ele>624.76881</ele>
        <time>2022-04-27T10:09:17.739Z</time>
      </trkpt>
      <trkpt lat="41.41109" lon="20.57443">
        <ele>624.644211</ele>
        <time>2022-04-27T10:09:20.745Z</time>
      </trkpt>
      <trkpt lat="41.41096" lon="20.57445">
        <ele>624.516565</ele>
        <time>2022-04-27T10:09:23.742Z</time>
      </trkpt>
      <trkpt lat="41.41087" lon="20.57448">
        <ele>624.427715</ele>
        <time>2022-04-27T10:09:25.744Z</time>
      </trkpt>
      <trkpt lat="41.41074" lon="20.57451">
        <ele>624.298259</ele>
        <time>2022-04-27T10:09:28.744Z</time>
      </trkpt>
      <trkpt lat="41.41061" lon="20.57454">
        <ele>624.102656</ele>
        <time>2022-04-27T10:09:31.741Z</time>
      </trkpt>
      <trkpt lat="41.41052" lon="20.57456">
        <ele>623.943825</ele>
        <time>2022-04-27T10:09:33.739Z</time>
      </trkpt>
      <trkpt lat="41.41039" lon="20.57459">
        <ele>623.72477</ele>
        <time>2022-04-27T10:09:36.747Z</time>
      </trkpt>
      <trkpt lat="41.41026" lon="20.57463">
        <ele>623.507781</ele>
        <time>2022-04-27T10:09:39.744Z</time>
      </trkpt>
      <trkpt lat="41.41013" lon="20.57468">
        <ele>623.285091</ele>
        <time>2022-04-27T10:09:42.767Z</time>
      </trkpt>
      <trkpt lat="41.41005" lon="20.57473">
        <ele>623.131993</ele>
        <time>2022-04-27T10:09:44.756Z</time>
      </trkpt>
      <trkpt lat="41.40992" lon="20.57481">
        <ele>622.90685</ele>
        <time>2022-04-27T10:09:47.743Z</time>
      </trkpt>
      <trkpt lat="41.40981" lon="20.57489">
        <ele>622.687272</ele>
        <time>2022-04-27T10:09:50.748Z</time>
      </trkpt>
      <trkpt lat="41.4097" lon="20.57498">
        <ele>622.473065</ele>
        <time>2022-04-27T10:09:53.748Z</time>
      </trkpt>
      <trkpt lat="41.40958" lon="20.57505">
        <ele>622.265327</ele>
        <time>2022-04-27T10:09:56.743Z</time>
      </trkpt>
      <trkpt lat="41.40947" lon="20.57511">
        <ele>622.06225</ele>
        <time>2022-04-27T10:09:59.741Z</time>
      </trkpt>
      <trkpt lat="41.40936" lon="20.57515">
        <ele>621.872763</ele>
        <time>2022-04-27T10:10:02.747Z</time>
      </trkpt>
      <trkpt lat="41.40925" lon="20.57516">
        <ele>621.69087</ele>
        <time>2022-04-27T10:10:05.759Z</time>
      </trkpt>
      <trkpt lat="41.40913" lon="20.57517">
        <ele>621.501187</ele>
        <time>2022-04-27T10:10:08.747Z</time>
      </trkpt>
      <trkpt lat="41.40901" lon="20.57519">
        <ele>621.296071</ele>
        <time>2022-04-27T10:10:11.740Z</time>
      </trkpt>
      <trkpt lat="41.4089" lon="20.5752">
        <ele>621.266503</ele>
        <time>2022-04-27T10:10:14.742Z</time>
      </trkpt>
      <trkpt lat="41.40876" lon="20.57521">
        <ele>621.238208</ele>
        <time>2022-04-27T10:10:17.745Z</time>
      </trkpt>
      <trkpt lat="41.40862" lon="20.57521">
        <ele>621.210205</ele>
        <time>2022-04-27T10:10:20.757Z</time>
      </trkpt>
      <trkpt lat="41.40849" lon="20.57522">
        <ele>621.182956</ele>
        <time>2022-04-27T10:10:23.743Z</time>
      </trkpt>
      <trkpt lat="41.40836" lon="20.57525">
        <ele>621.154387</ele>
        <time>2022-04-27T10:10:26.759Z</time>
      </trkpt>
      <trkpt lat="41.40823" lon="20.57529">
        <ele>621.127252</ele>
        <time>2022-04-27T10:10:29.743Z</time>
      </trkpt>
      <trkpt lat="41.40811" lon="20.57534">
        <ele>621.100734</ele>
        <time>2022-04-27T10:10:32.755Z</time>
      </trkpt>
      <trkpt lat="41.40799" lon="20.5754">
        <ele>621.073867</ele>
        <time>2022-04-27T10:10:35.748Z</time>
      </trkpt>
      <trkpt lat="41.4079" lon="20.57545">
        <ele>621.054719</ele>
        <time>2022-04-27T10:10:37.734Z</time>
      </trkpt>
      <trkpt lat="41.40782" lon="20.57551">
        <ele>621.035573</ele>
        <time>2022-04-27T10:10:39.748Z</time>
      </trkpt>
      <trkpt lat="41.40771" lon="20.57561">
        <ele>621.008128</ele>
        <time>2022-04-27T10:10:42.739Z</time>
      </trkpt>
      <trkpt lat="41.40763" lon="20.57572">
        <ele>620.983229</ele>
        <time>2022-04-27T10:10:45.736Z</time>
      </trkpt>
      <trkpt lat="41.40755" lon="20.57584">
        <ele>620.957997</ele>
        <time>2022-04-27T10:10:48.748Z</time>
      </trkpt>
      <trkpt lat="41.40747" lon="20.57597">
        <ele>620.933221</ele>
        <time>2022-04-27T10:10:51.748Z</time>
      </trkpt>
      <trkpt lat="41.40739" lon="20.57611">
        <ele>620.816282</ele>
        <time>2022-04-27T10:10:54.739Z</time>
      </trkpt>
      <trkpt lat="41.40733" lon="20.5762">
        <ele>620.640966</ele>
        <time>2022-04-27T10:10:56.751Z</time>
      </trkpt>
      <trkpt lat="41.40727" lon="20.5763">
        <ele>620.461781</ele>
        <time>2022-04-27T10:10:58.743Z</time>
      </trkpt>
      <trkpt lat="41.4072" lon="20.57639">
        <ele>620.263722</ele>
        <time>2022-04-27T10:11:00.740Z</time>
      </trkpt>
      <trkpt lat="41.40714" lon="20.57648">
        <ele>620.085626</ele>
        <time>2022-04-27T10:11:02.743Z</time>
      </trkpt>
      <trkpt lat="41.40707" lon="20.57658">
        <ele>619.901708</ele>
        <time>2022-04-27T10:11:04.753Z</time>
      </trkpt>
      <trkpt lat="41.40702" lon="20.57668">
        <ele>619.719542</ele>
        <time>2022-04-27T10:11:06.748Z</time>
      </trkpt>
      <trkpt lat="41.40695" lon="20.57677">
        <ele>619.535413</ele>
        <time>2022-04-27T10:11:08.743Z</time>
      </trkpt>
      <trkpt lat="41.40688" lon="20.57686">
        <ele>619.346714</ele>
        <time>2022-04-27T10:11:10.737Z</time>
      </trkpt>
      <trkpt lat="41.40682" lon="20.57696">
        <ele>619.16102</ele>
        <time>2022-04-27T10:11:12.741Z</time>
      </trkpt>
      <trkpt lat="41.40675" lon="20.57705">
        <ele>618.973444</ele>
        <time>2022-04-27T10:11:14.750Z</time>
      </trkpt>
      <trkpt lat="41.40669" lon="20.57715">
        <ele>618.78801</ele>
        <time>2022-04-27T10:11:16.776Z</time>
      </trkpt>
      <trkpt lat="41.40662" lon="20.57724">
        <ele>618.606798</ele>
        <time>2022-04-27T10:11:18.750Z</time>
      </trkpt>
      <trkpt lat="41.40656" lon="20.57732">
        <ele>618.425556</ele>
        <time>2022-04-27T10:11:20.743Z</time>
      </trkpt>
      <trkpt lat="41.40649" lon="20.5774">
        <ele>618.248735</ele>
        <time>2022-04-27T10:11:22.754Z</time>
      </trkpt>
      <trkpt lat="41.40639" lon="20.57751">
        <ele>618.010245</ele>
        <time>2022-04-27T10:11:25.743Z</time>
      </trkpt>
      <trkpt lat="41.40629" lon="20.57761">
        <ele>617.758855</ele>
        <time>2022-04-27T10:11:28.743Z</time>
      </trkpt>
      <trkpt lat="41.40621" lon="20.57768">
        <ele>617.581865</ele>
        <time>2022-04-27T10:11:30.763Z</time>
      </trkpt>
      <trkpt lat="41.40612" lon="20.5778">
        <ele>617.119871</ele>
        <time>2022-04-27T10:11:33.753Z</time>
      </trkpt>
      <trkpt lat="41.40602" lon="20.57791">
        <ele>616.38904</ele>
        <time>2022-04-27T10:11:36.736Z</time>
      </trkpt>
      <trkpt lat="41.40591" lon="20.57801">
        <ele>615.665601</ele>
        <time>2022-04-27T10:11:39.749Z</time>
      </trkpt>
      <trkpt lat="41.40581" lon="20.57812">
        <ele>614.941194</ele>
        <time>2022-04-27T10:11:42.739Z</time>
      </trkpt>
      <trkpt lat="41.4057" lon="20.57823">
        <ele>614.202014</ele>
        <time>2022-04-27T10:11:45.745Z</time>
      </trkpt>
      <trkpt lat="41.40563" lon="20.5783">
        <ele>613.701431</ele>
        <time>2022-04-27T10:11:47.740Z</time>
      </trkpt>
      <trkpt lat="41.40556" lon="20.57838">
        <ele>613.197351</ele>
        <time>2022-04-27T10:11:49.761Z</time>
      </trkpt>
      <trkpt lat="41.40549" lon="20.57845">
        <ele>612.683995</ele>
        <time>2022-04-27T10:11:51.742Z</time>
      </trkpt>
      <trkpt lat="41.40538" lon="20.57855">
        <ele>611.992868</ele>
        <time>2022-04-27T10:11:54.759Z</time>
      </trkpt>
      <trkpt lat="41.4053" lon="20.57866">
        <ele>611.304429</ele>
        <time>2022-04-27T10:11:57.743Z</time>
      </trkpt>
      <trkpt lat="41.40523" lon="20.57875">
        <ele>610.796731</ele>
        <time>2022-04-27T10:11:59.741Z</time>
      </trkpt>
      <trkpt lat="41.40517" lon="20.57884">
        <ele>610.296748</ele>
        <time>2022-04-27T10:12:01.738Z</time>
      </trkpt>
      <trkpt lat="41.40511" lon="20.57893">
        <ele>609.787631</ele>
        <time>2022-04-27T10:12:03.749Z</time>
      </trkpt>
      <trkpt lat="41.40504" lon="20.57905">
        <ele>609.131044</ele>
        <time>2022-04-27T10:12:06.750Z</time>
      </trkpt>
      <trkpt lat="41.40498" lon="20.57918">
        <ele>608.525543</ele>
        <time>2022-04-27T10:12:09.737Z</time>
      </trkpt>
      <trkpt lat="41.40493" lon="20.57932">
        <ele>607.873361</ele>
        <time>2022-04-27T10:12:12.753Z</time>
      </trkpt>
      <trkpt lat="41.40488" lon="20.57947">
        <ele>607.497049</ele>
        <time>2022-04-27T10:12:15.743Z</time>
      </trkpt>
      <trkpt lat="41.40482" lon="20.57962">
        <ele>607.633596</ele>
        <time>2022-04-27T10:12:18.744Z</time>
      </trkpt>
      <trkpt lat="41.40478" lon="20.57974">
        <ele>607.73238</ele>
        <time>2022-04-27T10:12:20.752Z</time>
      </trkpt>
      <trkpt lat="41.40475" lon="20.57985">
        <ele>607.833786</ele>
        <time>2022-04-27T10:12:22.743Z</time>
      </trkpt>
      <trkpt lat="41.40472" lon="20.57997">
        <ele>607.929972</ele>
        <time>2022-04-27T10:12:24.758Z</time>
      </trkpt>
      <trkpt lat="41.40468" lon="20.58012">
        <ele>608.057901</ele>
        <time>2022-04-27T10:12:27.765Z</time>
      </trkpt>
      <trkpt lat="41.40462" lon="20.58028">
        <ele>608.198782</ele>
        <time>2022-04-27T10:12:30.754Z</time>
      </trkpt>
      <trkpt lat="41.40457" lon="20.58044">
        <ele>608.335454</ele>
        <time>2022-04-27T10:12:33.764Z</time>
      </trkpt>
      <trkpt lat="41.40453" lon="20.58055">
        <ele>608.433984</ele>
        <time>2022-04-27T10:12:35.740Z</time>
      </trkpt>
      <trkpt lat="41.40448" lon="20.58066">
        <ele>608.532368</ele>
        <time>2022-04-27T10:12:37.742Z</time>
      </trkpt>
      <trkpt lat="41.40444" lon="20.58076">
        <ele>608.628933</ele>
        <time>2022-04-27T10:12:39.766Z</time>
      </trkpt>
      <trkpt lat="41.40437" lon="20.5809">
        <ele>608.762088</ele>
        <time>2022-04-27T10:12:42.763Z</time>
      </trkpt>
      <trkpt lat="41.4043" lon="20.58104">
        <ele>608.89465</ele>
        <time>2022-04-27T10:12:45.741Z</time>
      </trkpt>
      <trkpt lat="41.40421" lon="20.58117">
        <ele>609.033885</ele>
        <time>2022-04-27T10:12:48.741Z</time>
      </trkpt>
      <trkpt lat="41.40412" lon="20.58128">
        <ele>609.166156</ele>
        <time>2022-04-27T10:12:51.746Z</time>
      </trkpt>
      <trkpt lat="41.40403" lon="20.58139">
        <ele>609.297679</ele>
        <time>2022-04-27T10:12:54.738Z</time>
      </trkpt>
      <trkpt lat="41.40393" lon="20.58148">
        <ele>609.728108</ele>
        <time>2022-04-27T10:12:57.752Z</time>
      </trkpt>
      <trkpt lat="41.40383" lon="20.58156">
        <ele>610.427181</ele>
        <time>2022-04-27T10:13:00.748Z</time>
      </trkpt>
      <trkpt lat="41.40372" lon="20.58164">
        <ele>611.19435</ele>
        <time>2022-04-27T10:13:03.743Z</time>
      </trkpt>
      <trkpt lat="41.40361" lon="20.58173">
        <ele>611.924953</ele>
        <time>2022-04-27T10:13:06.752Z</time>
      </trkpt>
      <trkpt lat="41.40351" lon="20.58181">
        <ele>612.611465</ele>
        <time>2022-04-27T10:13:09.747Z</time>
      </trkpt>
      <trkpt lat="41.40342" lon="20.58187">
        <ele>613.239458</ele>
        <time>2022-04-27T10:13:12.773Z</time>
      </trkpt>
      <trkpt lat="41.40334" lon="20.58193">
        <ele>613.804195</ele>
        <time>2022-04-27T10:13:15.744Z</time>
      </trkpt>
      <trkpt lat="41.40325" lon="20.58198">
        <ele>614.391569</ele>
        <time>2022-04-27T10:13:18.744Z</time>
      </trkpt>
      <trkpt lat="41.40314" lon="20.58203">
        <ele>615.050072</ele>
        <time>2022-04-27T10:13:21.749Z</time>
      </trkpt>
      <trkpt lat="41.40304" lon="20.5821">
        <ele>615.71961</ele>
        <time>2022-04-27T10:13:24.737Z</time>
      </trkpt>
      <trkpt lat="41.40293" lon="20.58218">
        <ele>616.462422</ele>
        <time>2022-04-27T10:13:27.736Z</time>
      </trkpt>
      <trkpt lat="41.40282" lon="20.58226">
        <ele>617.209594</ele>
        <time>2022-04-27T10:13:30.741Z</time>
      </trkpt>
      <trkpt lat="41.40271" lon="20.58234">
        <ele>617.971569</ele>
        <time>2022-04-27T10:13:33.744Z</time>
      </trkpt>
      <trkpt lat="41.4026" lon="20.58243">
        <ele>618.739732</ele>
        <time>2022-04-27T10:13:36.735Z</time>
      </trkpt>
      <trkpt lat="41.40249" lon="20.58252">
        <ele>619.491346</ele>
        <time>2022-04-27T10:13:39.742Z</time>
      </trkpt>
      <trkpt lat="41.40241" lon="20.58258">
        <ele>620.037146</ele>
        <time>2022-04-27T10:13:41.746Z</time>
      </trkpt>
      <trkpt lat="41.4023" lon="20.58265">
        <ele>620.480337</ele>
        <time>2022-04-27T10:13:44.751Z</time>
      </trkpt>
      <trkpt lat="41.40218" lon="20.58272">
        <ele>620.912999</ele>
        <time>2022-04-27T10:13:47.738Z</time>
      </trkpt>
      <trkpt lat="41.40205" lon="20.58277">
        <ele>621.361592</ele>
        <time>2022-04-27T10:13:50.740Z</time>
      </trkpt>
      <trkpt lat="41.40193" lon="20.58282">
        <ele>621.795776</ele>
        <time>2022-04-27T10:13:53.738Z</time>
      </trkpt>
      <trkpt lat="41.40184" lon="20.58285">
        <ele>622.09911</ele>
        <time>2022-04-27T10:13:55.736Z</time>
      </trkpt>
      <trkpt lat="41.40175" lon="20.58288">
        <ele>622.405217</ele>
        <time>2022-04-27T10:13:57.762Z</time>
      </trkpt>
      <trkpt lat="41.40165" lon="20.5829">
        <ele>622.729785</ele>
        <time>2022-04-27T10:13:59.750Z</time>
      </trkpt>
      <trkpt lat="41.40156" lon="20.58293">
        <ele>623.043377</ele>
        <time>2022-04-27T10:14:01.732Z</time>
      </trkpt>
      <trkpt lat="41.40147" lon="20.58297">
        <ele>623.346711</ele>
        <time>2022-04-27T10:14:03.771Z</time>
      </trkpt>
      <trkpt lat="41.40134" lon="20.583">
        <ele>623.786786</ele>
        <time>2022-04-27T10:14:06.738Z</time>
      </trkpt>
      <trkpt lat="41.40121" lon="20.58304">
        <ele>624.236149</ele>
        <time>2022-04-27T10:14:09.739Z</time>
      </trkpt>
      <trkpt lat="41.40108" lon="20.58308">
        <ele>624.68478</ele>
        <time>2022-04-27T10:14:12.743Z</time>
      </trkpt>
      <trkpt lat="41.40098" lon="20.5831">
        <ele>625.003334</ele>
        <time>2022-04-27T10:14:14.773Z</time>
      </trkpt>
      <trkpt lat="41.40089" lon="20.58313">
        <ele>625.320833</ele>
        <time>2022-04-27T10:14:16.739Z</time>
      </trkpt>
      <trkpt lat="41.4008" lon="20.58316">
        <ele>625.628665</ele>
        <time>2022-04-27T10:14:18.740Z</time>
      </trkpt>
      <trkpt lat="41.40067" lon="20.5832">
        <ele>626.072657</ele>
        <time>2022-04-27T10:14:21.740Z</time>
      </trkpt>
      <trkpt lat="41.40058" lon="20.58324">
        <ele>626.381647</ele>
        <time>2022-04-27T10:14:23.735Z</time>
      </trkpt>
      <trkpt lat="41.40049" lon="20.58328">
        <ele>626.68276</ele>
        <time>2022-04-27T10:14:25.734Z</time>
      </trkpt>
      <trkpt lat="41.4004" lon="20.58332">
        <ele>626.975702</ele>
        <time>2022-04-27T10:14:27.736Z</time>
      </trkpt>
      <trkpt lat="41.40031" lon="20.58337">
        <ele>627.282594</ele>
        <time>2022-04-27T10:14:29.745Z</time>
      </trkpt>
      <trkpt lat="41.40022" lon="20.58343">
        <ele>627.585993</ele>
        <time>2022-04-27T10:14:31.760Z</time>
      </trkpt>
      <trkpt lat="41.40014" lon="20.58349">
        <ele>627.873173</ele>
        <time>2022-04-27T10:14:33.741Z</time>
      </trkpt>
      <trkpt lat="41.40002" lon="20.58355">
        <ele>628.28273</ele>
        <time>2022-04-27T10:14:36.741Z</time>
      </trkpt>
      <trkpt lat="41.3999" lon="20.58361">
        <ele>628.686844</ele>
        <time>2022-04-27T10:14:39.745Z</time>
      </trkpt>
      <trkpt lat="41.39982" lon="20.58365">
        <ele>628.983156</ele>
        <time>2022-04-27T10:14:41.739Z</time>
      </trkpt>
      <trkpt lat="41.39973" lon="20.58369">
        <ele>629.273749</ele>
        <time>2022-04-27T10:14:43.763Z</time>
      </trkpt>
      <trkpt lat="41.39962" lon="20.58375">
        <ele>629.659219</ele>
        <time>2022-04-27T10:14:46.738Z</time>
      </trkpt>
      <trkpt lat="41.3995" lon="20.58379">
        <ele>630.041047</ele>
        <time>2022-04-27T10:14:49.766Z</time>
      </trkpt>
      <trkpt lat="41.39938" lon="20.58383">
        <ele>630.426857</ele>
        <time>2022-04-27T10:14:52.755Z</time>
      </trkpt>
      <trkpt lat="41.39927" lon="20.58384">
        <ele>630.78059</ele>
        <time>2022-04-27T10:14:55.745Z</time>
      </trkpt>
      <trkpt lat="41.39916" lon="20.58385">
        <ele>631.12351</ele>
        <time>2022-04-27T10:14:58.740Z</time>
      </trkpt>
      <trkpt lat="41.39906" lon="20.58386">
        <ele>631.430838</ele>
        <time>2022-04-27T10:15:01.741Z</time>
      </trkpt>
      <trkpt lat="41.39897" lon="20.58385">
        <ele>631.726048</ele>
        <time>2022-04-27T10:15:04.754Z</time>
      </trkpt>
      <trkpt lat="41.39887" lon="20.58384">
        <ele>632.235252</ele>
        <time>2022-04-27T10:15:07.737Z</time>
      </trkpt>
      <trkpt lat="41.39876" lon="20.58381">
        <ele>632.830054</ele>
        <time>2022-04-27T10:15:11.765Z</time>
      </trkpt>
      <trkpt lat="41.39866" lon="20.58378">
        <ele>633.38601</ele>
        <time>2022-04-27T10:15:15.780Z</time>
      </trkpt>
      <trkpt lat="41.39856" lon="20.58373">
        <ele>633.940118</ele>
        <time>2022-04-27T10:15:19.738Z</time>
      </trkpt>
      <trkpt lat="41.39848" lon="20.58368">
        <ele>634.431142</ele>
        <time>2022-04-27T10:15:22.767Z</time>
      </trkpt>
      <trkpt lat="41.39837" lon="20.58362">
        <ele>635.023158</ele>
        <time>2022-04-27T10:15:26.745Z</time>
      </trkpt>
      <trkpt lat="41.39828" lon="20.58358">
        <ele>635.542074</ele>
        <time>2022-04-27T10:15:30.762Z</time>
      </trkpt>
      <trkpt lat="41.39818" lon="20.58355">
        <ele>636.080808</ele>
        <time>2022-04-27T10:15:34.756Z</time>
      </trkpt>
      <trkpt lat="41.39808" lon="20.58353">
        <ele>636.646568</ele>
        <time>2022-04-27T10:15:38.759Z</time>
      </trkpt>
      <trkpt lat="41.39798" lon="20.58351">
        <ele>637.164351</ele>
        <time>2022-04-27T10:15:42.745Z</time>
      </trkpt>
      <trkpt lat="41.39788" lon="20.58348">
        <ele>637.714493</ele>
        <time>2022-04-27T10:15:46.756Z</time>
      </trkpt>
      <trkpt lat="41.39779" lon="20.58345">
        <ele>638.212064</ele>
        <time>2022-04-27T10:15:50.757Z</time>
      </trkpt>
      <trkpt lat="41.39769" lon="20.58343">
        <ele>638.754214</ele>
        <time>2022-04-27T10:15:55.739Z</time>
      </trkpt>
      <trkpt lat="41.39758" lon="20.58343">
        <ele>639.336961</ele>
        <time>2022-04-27T10:16:00.740Z</time>
      </trkpt>
      <trkpt lat="41.39748" lon="20.58344">
        <ele>639.841797</ele>
        <time>2022-04-27T10:16:05.739Z</time>
      </trkpt>
      <trkpt lat="41.39739" lon="20.58347">
        <ele>640.321079</ele>
        <time>2022-04-27T10:16:09.744Z</time>
      </trkpt>
      <trkpt lat="41.39729" lon="20.58349">
        <ele>640.875683</ele>
        <time>2022-04-27T10:16:14.744Z</time>
      </trkpt>
      <trkpt lat="41.39719" lon="20.5835">
        <ele>641.255749</ele>
        <time>2022-04-27T10:16:18.759Z</time>
      </trkpt>
      <trkpt lat="41.39708" lon="20.58353">
        <ele>641.11294</ele>
        <time>2022-04-27T10:16:22.747Z</time>
      </trkpt>
      <trkpt lat="41.39699" lon="20.58356">
        <ele>640.992764</ele>
        <time>2022-04-27T10:16:26.776Z</time>
      </trkpt>
      <trkpt lat="41.3969" lon="20.58358">
        <ele>640.876002</ele>
        <time>2022-04-27T10:16:30.744Z</time>
      </trkpt>
      <trkpt lat="41.3968" lon="20.58361">
        <ele>640.743635</ele>
        <time>2022-04-27T10:16:35.742Z</time>
      </trkpt>
      <trkpt lat="41.3967" lon="20.58366">
        <ele>640.60338</ele>
        <time>2022-04-27T10:16:40.742Z</time>
      </trkpt>
      <trkpt lat="41.39661" lon="20.58372">
        <ele>640.471168</ele>
        <time>2022-04-27T10:16:45.739Z</time>
      </trkpt>
      <trkpt lat="41.39651" lon="20.58376">
        <ele>640.337518</ele>
        <time>2022-04-27T10:16:50.755Z</time>
      </trkpt>
      <trkpt lat="41.39641" lon="20.58379">
        <ele>640.211347</ele>
        <time>2022-04-27T10:16:54.772Z</time>
      </trkpt>
      <trkpt lat="41.39632" lon="20.58382">
        <ele>640.091403</ele>
        <time>2022-04-27T10:16:58.740Z</time>
      </trkpt>
      <trkpt lat="41.39622" lon="20.58386">
        <ele>639.948207</ele>
        <time>2022-04-27T10:17:03.739Z</time>
      </trkpt>
      <trkpt lat="41.39612" lon="20.58389">
        <ele>639.816781</ele>
        <time>2022-04-27T10:17:07.741Z</time>
      </trkpt>
      <trkpt lat="41.39601" lon="20.58394">
        <ele>639.663568</ele>
        <time>2022-04-27T10:17:11.739Z</time>
      </trkpt>
      <trkpt lat="41.39592" lon="20.58398">
        <ele>639.543127</ele>
        <time>2022-04-27T10:17:14.755Z</time>
      </trkpt>
      <trkpt lat="41.39581" lon="20.58401">
        <ele>639.401428</ele>
        <time>2022-04-27T10:17:17.741Z</time>
      </trkpt>
      <trkpt lat="41.39568" lon="20.58404">
        <ele>639.230135</ele>
        <time>2022-04-27T10:17:20.740Z</time>
      </trkpt>
      <trkpt lat="41.39557" lon="20.58405">
        <ele>639.087856</ele>
        <time>2022-04-27T10:17:22.754Z</time>
      </trkpt>
      <trkpt lat="41.39548" lon="20.58408">
        <ele>638.966228</ele>
        <time>2022-04-27T10:17:24.755Z</time>
      </trkpt>
      <trkpt lat="41.39538" lon="20.5841">
        <ele>638.803818</ele>
        <time>2022-04-27T10:17:26.742Z</time>
      </trkpt>
      <trkpt lat="41.39528" lon="20.58413">
        <ele>638.622061</ele>
        <time>2022-04-27T10:17:28.740Z</time>
      </trkpt>
      <trkpt lat="41.39516" lon="20.58416">
        <ele>638.417871</ele>
        <time>2022-04-27T10:17:30.744Z</time>
      </trkpt>
      <trkpt lat="41.39504" lon="20.58418">
        <ele>638.203145</ele>
        <time>2022-04-27T10:17:32.743Z</time>
      </trkpt>
      <trkpt lat="41.39485" lon="20.58422">
        <ele>637.879165</ele>
        <time>2022-04-27T10:17:35.739Z</time>
      </trkpt>
      <trkpt lat="41.39473" lon="20.58426">
        <ele>637.662074</ele>
        <time>2022-04-27T10:17:37.743Z</time>
      </trkpt>
      <trkpt lat="41.39461" lon="20.5843">
        <ele>637.450785</ele>
        <time>2022-04-27T10:17:39.746Z</time>
      </trkpt>
      <trkpt lat="41.39447" lon="20.58432">
        <ele>637.21611</ele>
        <time>2022-04-27T10:17:41.770Z</time>
      </trkpt>
      <trkpt lat="41.39432" lon="20.58433">
        <ele>636.959053</ele>
        <time>2022-04-27T10:17:43.786Z</time>
      </trkpt>
      <trkpt lat="41.39416" lon="20.58432">
        <ele>636.684989</ele>
        <time>2022-04-27T10:17:45.784Z</time>
      </trkpt>
      <trkpt lat="41.39401" lon="20.58429">
        <ele>636.422323</ele>
        <time>2022-04-27T10:17:47.763Z</time>
      </trkpt>
      <trkpt lat="41.39384" lon="20.58424">
        <ele>636.131064</ele>
        <time>2022-04-27T10:17:49.751Z</time>
      </trkpt>
      <trkpt lat="41.39368" lon="20.58416">
        <ele>635.863975</ele>
        <time>2022-04-27T10:17:51.772Z</time>
      </trkpt>
      <trkpt lat="41.39355" lon="20.58408">
        <ele>635.784918</ele>
        <time>2022-04-27T10:17:53.768Z</time>
      </trkpt>
      <trkpt lat="41.39343" lon="20.58401">
        <ele>635.712014</ele>
        <time>2022-04-27T10:17:55.783Z</time>
      </trkpt>
      <trkpt lat="41.3933" lon="20.58394">
        <ele>635.636943</ele>
        <time>2022-04-27T10:17:57.776Z</time>
      </trkpt>
      <trkpt lat="41.39317" lon="20.58386">
        <ele>635.558714</ele>
        <time>2022-04-27T10:17:59.765Z</time>
      </trkpt>
      <trkpt lat="41.39305" lon="20.58377">
        <ele>635.481473</ele>
        <time>2022-04-27T10:18:01.818Z</time>
      </trkpt>
      <trkpt lat="41.39292" lon="20.58367">
        <ele>635.400037</ele>
        <time>2022-04-27T10:18:03.790Z</time>
      </trkpt>
      <trkpt lat="41.39278" lon="20.58356">
        <ele>635.311628</ele>
        <time>2022-04-27T10:18:05.776Z</time>
      </trkpt>
      <trkpt lat="41.39263" lon="20.58345">
        <ele>635.216242</ele>
        <time>2022-04-27T10:18:07.778Z</time>
      </trkpt>
      <trkpt lat="41.39249" lon="20.58334">
        <ele>635.124837</ele>
        <time>2022-04-27T10:18:09.769Z</time>
      </trkpt>
      <trkpt lat="41.39233" lon="20.58324">
        <ele>635.032033</ele>
        <time>2022-04-27T10:18:11.778Z</time>
      </trkpt>
      <trkpt lat="41.39224" lon="20.5832">
        <ele>634.978825</ele>
        <time>2022-04-27T10:18:12.772Z</time>
      </trkpt>
      <trkpt lat="41.39215" lon="20.58316">
        <ele>634.92653</ele>
        <time>2022-04-27T10:18:13.773Z</time>
      </trkpt>
      <trkpt lat="41.39207" lon="20.58313">
        <ele>634.818621</ele>
        <time>2022-04-27T10:18:14.784Z</time>
      </trkpt>
      <trkpt lat="41.3919" lon="20.58309">
        <ele>634.329866</ele>
        <time>2022-04-27T10:18:16.763Z</time>
      </trkpt>
      <trkpt lat="41.39173" lon="20.58308">
        <ele>633.82482</ele>
        <time>2022-04-27T10:18:18.753Z</time>
      </trkpt>
      <trkpt lat="41.39156" lon="20.58311">
        <ele>633.345644</ele>
        <time>2022-04-27T10:18:20.780Z</time>
      </trkpt>
      <trkpt lat="41.39142" lon="20.58314">
        <ele>632.906726</ele>
        <time>2022-04-27T10:18:22.772Z</time>
      </trkpt>
      <trkpt lat="41.39128" lon="20.58317">
        <ele>632.496691</ele>
        <time>2022-04-27T10:18:24.761Z</time>
      </trkpt>
      <trkpt lat="41.39115" lon="20.58319">
        <ele>632.120997</ele>
        <time>2022-04-27T10:18:26.781Z</time>
      </trkpt>
      <trkpt lat="41.39103" lon="20.58323">
        <ele>631.763303</ele>
        <time>2022-04-27T10:18:28.774Z</time>
      </trkpt>
      <trkpt lat="41.39092" lon="20.58326">
        <ele>631.426988</ele>
        <time>2022-04-27T10:18:30.769Z</time>
      </trkpt>
      <trkpt lat="41.39081" lon="20.58329">
        <ele>631.09437</ele>
        <time>2022-04-27T10:18:32.769Z</time>
      </trkpt>
      <trkpt lat="41.39071" lon="20.58331">
        <ele>630.822249</ele>
        <time>2022-04-27T10:18:34.789Z</time>
      </trkpt>
      <trkpt lat="41.3906" lon="20.58334">
        <ele>630.485934</ele>
        <time>2022-04-27T10:18:37.802Z</time>
      </trkpt>
      <trkpt lat="41.39051" lon="20.58336">
        <ele>630.205534</ele>
        <time>2022-04-27T10:18:40.759Z</time>
      </trkpt>
      <trkpt lat="41.39042" lon="20.58336">
        <ele>629.942604</ele>
        <time>2022-04-27T10:18:43.769Z</time>
      </trkpt>
      <trkpt lat="41.39032" lon="20.58335">
        <ele>629.670713</ele>
        <time>2022-04-27T10:18:46.773Z</time>
      </trkpt>
      <trkpt lat="41.39023" lon="20.58333">
        <ele>629.756598</ele>
        <time>2022-04-27T10:18:49.773Z</time>
      </trkpt>
      <trkpt lat="41.39013" lon="20.58331">
        <ele>629.888369</ele>
        <time>2022-04-27T10:18:53.761Z</time>
      </trkpt>
      <trkpt lat="41.39004" lon="20.58328">
        <ele>630.021999</ele>
        <time>2022-04-27T10:18:56.805Z</time>
      </trkpt>
      <trkpt lat="41.3899" lon="20.58325">
        <ele>630.2041</ele>
        <time>2022-04-27T10:18:59.805Z</time>
      </trkpt>
      <trkpt lat="41.38981" lon="20.58324">
        <ele>630.327961</ele>
        <time>2022-04-27T10:19:01.792Z</time>
      </trkpt>
      <trkpt lat="41.38972" lon="20.58324">
        <ele>630.458029</ele>
        <time>2022-04-27T10:19:03.750Z</time>
      </trkpt>
      <trkpt lat="41.38962" lon="20.58325">
        <ele>630.584198</ele>
        <time>2022-04-27T10:19:05.739Z</time>
      </trkpt>
      <trkpt lat="41.38953" lon="20.58326">
        <ele>630.709225</ele>
        <time>2022-04-27T10:19:07.766Z</time>
      </trkpt>
      <trkpt lat="41.38942" lon="20.58328">
        <ele>630.862422</ele>
        <time>2022-04-27T10:19:10.775Z</time>
      </trkpt>
      <trkpt lat="41.38929" lon="20.58331">
        <ele>631.047377</ele>
        <time>2022-04-27T10:19:13.808Z</time>
      </trkpt>
      <trkpt lat="41.38919" lon="20.58334">
        <ele>631.178538</ele>
        <time>2022-04-27T10:19:15.766Z</time>
      </trkpt>
      <trkpt lat="41.3891" lon="20.58336">
        <ele>631.30932</ele>
        <time>2022-04-27T10:19:17.760Z</time>
      </trkpt>
      <trkpt lat="41.389" lon="20.58339">
        <ele>631.436298</ele>
        <time>2022-04-27T10:19:19.809Z</time>
      </trkpt>
      <trkpt lat="41.38891" lon="20.58342">
        <ele>631.561714</ele>
        <time>2022-04-27T10:19:21.760Z</time>
      </trkpt>
      <trkpt lat="41.38879" lon="20.58346">
        <ele>631.738951</ele>
        <time>2022-04-27T10:19:24.765Z</time>
      </trkpt>
      <trkpt lat="41.38866" lon="20.5835">
        <ele>631.910685</ele>
        <time>2022-04-27T10:19:27.772Z</time>
      </trkpt>
      <trkpt lat="41.38854" lon="20.58354">
        <ele>632.082136</ele>
        <time>2022-04-27T10:19:30.749Z</time>
      </trkpt>
      <trkpt lat="41.38845" lon="20.58356">
        <ele>632.145167</ele>
        <time>2022-04-27T10:19:32.741Z</time>
      </trkpt>
      <trkpt lat="41.38832" lon="20.58359">
        <ele>632.233567</ele>
        <time>2022-04-27T10:19:35.746Z</time>
      </trkpt>
      <trkpt lat="41.38822" lon="20.58362">
        <ele>632.306759</ele>
        <time>2022-04-27T10:19:38.738Z</time>
      </trkpt>
      <trkpt lat="41.38812" lon="20.58365">
        <ele>632.37771</ele>
        <time>2022-04-27T10:19:41.746Z</time>
      </trkpt>
      <trkpt lat="41.38802" lon="20.58368">
        <ele>632.445525</ele>
        <time>2022-04-27T10:19:44.743Z</time>
      </trkpt>
      <trkpt lat="41.38792" lon="20.5837">
        <ele>632.517044</ele>
        <time>2022-04-27T10:19:47.741Z</time>
      </trkpt>
      <trkpt lat="41.38781" lon="20.58373">
        <ele>632.595401</ele>
        <time>2022-04-27T10:19:50.748Z</time>
      </trkpt>
      <trkpt lat="41.38769" lon="20.58376">
        <ele>632.681486</ele>
        <time>2022-04-27T10:19:53.736Z</time>
      </trkpt>
      <trkpt lat="41.38756" lon="20.5838">
        <ele>632.774247</ele>
        <time>2022-04-27T10:19:56.741Z</time>
      </trkpt>
      <trkpt lat="41.38744" lon="20.58385">
        <ele>632.864807</ele>
        <time>2022-04-27T10:19:59.737Z</time>
      </trkpt>
      <trkpt lat="41.38733" lon="20.58388">
        <ele>632.941961</ele>
        <time>2022-04-27T10:20:02.750Z</time>
      </trkpt>
      <trkpt lat="41.38723" lon="20.5839">
        <ele>633.011502</ele>
        <time>2022-04-27T10:20:05.768Z</time>
      </trkpt>
      <trkpt lat="41.38712" lon="20.58393">
        <ele>633.091714</ele>
        <time>2022-04-27T10:20:09.740Z</time>
      </trkpt>
      <trkpt lat="41.38701" lon="20.58397">
        <ele>633.16857</ele>
        <time>2022-04-27T10:20:13.733Z</time>
      </trkpt>
      <trkpt lat="41.38692" lon="20.584">
        <ele>633.23092</ele>
        <time>2022-04-27T10:20:17.762Z</time>
      </trkpt>
      <trkpt lat="41.38682" lon="20.58402">
        <ele>633.301474</ele>
        <time>2022-04-27T10:20:21.749Z</time>
      </trkpt>
      <trkpt lat="41.38672" lon="20.58405">
        <ele>633.366952</ele>
        <time>2022-04-27T10:20:25.739Z</time>
      </trkpt>
      <trkpt lat="41.38662" lon="20.58406">
        <ele>633.435415</ele>
        <time>2022-04-27T10:20:29.742Z</time>
      </trkpt>
      <trkpt lat="41.38652" lon="20.58408">
        <ele>633.500101</ele>
        <time>2022-04-27T10:20:33.739Z</time>
      </trkpt>
      <trkpt lat="41.38642" lon="20.58411">
        <ele>633.56455</ele>
        <time>2022-04-27T10:20:37.740Z</time>
      </trkpt>
      <trkpt lat="41.38632" lon="20.58415">
        <ele>633.631042</ele>
        <time>2022-04-27T10:20:41.740Z</time>
      </trkpt>
      <trkpt lat="41.38622" lon="20.58417">
        <ele>633.692096</ele>
        <time>2022-04-27T10:20:44.753Z</time>
      </trkpt>
      <trkpt lat="41.3861" lon="20.58419">
        <ele>633.768808</ele>
        <time>2022-04-27T10:20:48.744Z</time>
      </trkpt>
      <trkpt lat="41.38598" lon="20.5842">
        <ele>633.847034</ele>
        <time>2022-04-27T10:20:52.742Z</time>
      </trkpt>
      <trkpt lat="41.38587" lon="20.5842">
        <ele>633.915593</ele>
        <time>2022-04-27T10:20:55.752Z</time>
      </trkpt>
      <trkpt lat="41.38577" lon="20.58419">
        <ele>633.975929</ele>
        <time>2022-04-27T10:20:58.737Z</time>
      </trkpt>
      <trkpt lat="41.38567" lon="20.58419">
        <ele>634.041357</ele>
        <time>2022-04-27T10:21:01.762Z</time>
      </trkpt>
      <trkpt lat="41.38556" lon="20.58417">
        <ele>634.110239</ele>
        <time>2022-04-27T10:21:04.743Z</time>
      </trkpt>
      <trkpt lat="41.38546" lon="20.58415">
        <ele>634.175832</ele>
        <time>2022-04-27T10:21:07.758Z</time>
      </trkpt>
      <trkpt lat="41.38535" lon="20.58415">
        <ele>634.247579</ele>
        <time>2022-04-27T10:21:10.756Z</time>
      </trkpt>
      <trkpt lat="41.38522" lon="20.58414">
        <ele>634.329536</ele>
        <time>2022-04-27T10:21:13.735Z</time>
      </trkpt>
      <trkpt lat="41.38512" lon="20.58412">
        <ele>634.392704</ele>
        <time>2022-04-27T10:21:16.738Z</time>
      </trkpt>
      <trkpt lat="41.38501" lon="20.5841">
        <ele>634.466103</ele>
        <time>2022-04-27T10:21:19.765Z</time>
      </trkpt>
      <trkpt lat="41.38488" lon="20.58409">
        <ele>634.883003</ele>
        <time>2022-04-27T10:21:22.740Z</time>
      </trkpt>
      <trkpt lat="41.38478" lon="20.58409">
        <ele>635.249307</ele>
        <time>2022-04-27T10:21:25.740Z</time>
      </trkpt>
      <trkpt lat="41.38467" lon="20.5841">
        <ele>635.612463</ele>
        <time>2022-04-27T10:21:28.748Z</time>
      </trkpt>
      <trkpt lat="41.38456" lon="20.5841">
        <ele>636.0068</ele>
        <time>2022-04-27T10:21:31.739Z</time>
      </trkpt>
      <trkpt lat="41.38443" lon="20.58412">
        <ele>636.441387</ele>
        <time>2022-04-27T10:21:34.746Z</time>
      </trkpt>
      <trkpt lat="41.38433" lon="20.58414">
        <ele>636.796159</ele>
        <time>2022-04-27T10:21:36.741Z</time>
      </trkpt>
      <trkpt lat="41.38422" lon="20.58415">
        <ele>637.174423</ele>
        <time>2022-04-27T10:21:38.740Z</time>
      </trkpt>
      <trkpt lat="41.38411" lon="20.58417">
        <ele>637.560679</ele>
        <time>2022-04-27T10:21:40.770Z</time>
      </trkpt>
      <trkpt lat="41.384" lon="20.58419">
        <ele>637.941889</ele>
        <time>2022-04-27T10:21:42.757Z</time>
      </trkpt>
      <trkpt lat="41.3839" lon="20.58423">
        <ele>638.317725</ele>
        <time>2022-04-27T10:21:44.745Z</time>
      </trkpt>
      <trkpt lat="41.38379" lon="20.58427">
        <ele>638.689798</ele>
        <time>2022-04-27T10:21:46.748Z</time>
      </trkpt>
      <trkpt lat="41.3837" lon="20.58431">
        <ele>639.038319</ele>
        <time>2022-04-27T10:21:48.738Z</time>
      </trkpt>
      <trkpt lat="41.38358" lon="20.58437">
        <ele>639.472554</ele>
        <time>2022-04-27T10:21:51.767Z</time>
      </trkpt>
      <trkpt lat="41.38346" lon="20.58444">
        <ele>639.917112</ele>
        <time>2022-04-27T10:21:54.744Z</time>
      </trkpt>
      <trkpt lat="41.38338" lon="20.58449">
        <ele>640.235962</ele>
        <time>2022-04-27T10:21:56.748Z</time>
      </trkpt>
      <trkpt lat="41.38327" lon="20.58457">
        <ele>640.652467</ele>
        <time>2022-04-27T10:21:59.741Z</time>
      </trkpt>
      <trkpt lat="41.38317" lon="20.58465">
        <ele>640.793659</ele>
        <time>2022-04-27T10:22:02.779Z</time>
      </trkpt>
      <trkpt lat="41.38306" lon="20.58473">
        <ele>640.909816</ele>
        <time>2022-04-27T10:22:05.739Z</time>
      </trkpt>
      <trkpt lat="41.38298" lon="20.58479">
        <ele>641.000838</ele>
        <time>2022-04-27T10:22:07.740Z</time>
      </trkpt>
      <trkpt lat="41.38288" lon="20.58487">
        <ele>641.118741</ele>
        <time>2022-04-27T10:22:10.742Z</time>
      </trkpt>
      <trkpt lat="41.38277" lon="20.58499">
        <ele>641.252916</ele>
        <time>2022-04-27T10:22:13.743Z</time>
      </trkpt>
      <trkpt lat="41.38268" lon="20.58507">
        <ele>641.365116</ele>
        <time>2022-04-27T10:22:15.748Z</time>
      </trkpt>
      <trkpt lat="41.38259" lon="20.58515">
        <ele>641.465888</ele>
        <time>2022-04-27T10:22:17.745Z</time>
      </trkpt>
      <trkpt lat="41.3825" lon="20.58523">
        <ele>641.572884</ele>
        <time>2022-04-27T10:22:19.749Z</time>
      </trkpt>
      <trkpt lat="41.38242" lon="20.58532">
        <ele>641.679489</ele>
        <time>2022-04-27T10:22:21.747Z</time>
      </trkpt>
      <trkpt lat="41.38233" lon="20.58543">
        <ele>641.7953</ele>
        <time>2022-04-27T10:22:23.776Z</time>
      </trkpt>
      <trkpt lat="41.38225" lon="20.58554">
        <ele>641.910448</ele>
        <time>2022-04-27T10:22:25.753Z</time>
      </trkpt>
      <trkpt lat="41.38217" lon="20.58565">
        <ele>642.023681</ele>
        <time>2022-04-27T10:22:27.745Z</time>
      </trkpt>
      <trkpt lat="41.38209" lon="20.58576">
        <ele>642.135224</ele>
        <time>2022-04-27T10:22:29.736Z</time>
      </trkpt>
      <trkpt lat="41.38202" lon="20.58587">
        <ele>642.242948</ele>
        <time>2022-04-27T10:22:31.743Z</time>
      </trkpt>
      <trkpt lat="41.38195" lon="20.58598">
        <ele>642.350187</ele>
        <time>2022-04-27T10:22:33.734Z</time>
      </trkpt>
      <trkpt lat="41.38188" lon="20.58609">
        <ele>642.416339</ele>
        <time>2022-04-27T10:22:35.741Z</time>
      </trkpt>
      <trkpt lat="41.38182" lon="20.58621">
        <ele>642.090347</ele>
        <time>2022-04-27T10:22:37.737Z</time>
      </trkpt>
      <trkpt lat="41.38175" lon="20.58632">
        <ele>641.77347</ele>
        <time>2022-04-27T10:22:39.735Z</time>
      </trkpt>
      <trkpt lat="41.38168" lon="20.58643">
        <ele>641.445122</ele>
        <time>2022-04-27T10:22:41.748Z</time>
      </trkpt>
      <trkpt lat="41.38161" lon="20.58654">
        <ele>641.11714</ele>
        <time>2022-04-27T10:22:43.735Z</time>
      </trkpt>
      <trkpt lat="41.38155" lon="20.58665">
        <ele>640.792684</ele>
        <time>2022-04-27T10:22:45.765Z</time>
      </trkpt>
      <trkpt lat="41.38148" lon="20.58675">
        <ele>640.482602</ele>
        <time>2022-04-27T10:22:47.738Z</time>
      </trkpt>
      <trkpt lat="41.38143" lon="20.58686">
        <ele>640.188556</ele>
        <time>2022-04-27T10:22:49.731Z</time>
      </trkpt>
      <trkpt lat="41.38137" lon="20.58697">
        <ele>639.898765</ele>
        <time>2022-04-27T10:22:51.757Z</time>
      </trkpt>
      <trkpt lat="41.38132" lon="20.58707">
        <ele>639.623049</ele>
        <time>2022-04-27T10:22:53.734Z</time>
      </trkpt>
      <trkpt lat="41.38126" lon="20.58716">
        <ele>639.343833</ele>
        <time>2022-04-27T10:22:55.776Z</time>
      </trkpt>
      <trkpt lat="41.3812" lon="20.58725">
        <ele>639.067734</ele>
        <time>2022-04-27T10:22:57.748Z</time>
      </trkpt>
      <trkpt lat="41.38114" lon="20.58734">
        <ele>638.789593</ele>
        <time>2022-04-27T10:22:59.822Z</time>
      </trkpt>
      <trkpt lat="41.38108" lon="20.58744">
        <ele>638.503704</ele>
        <time>2022-04-27T10:23:01.764Z</time>
      </trkpt>
      <trkpt lat="41.38102" lon="20.58754">
        <ele>638.214746</ele>
        <time>2022-04-27T10:23:03.756Z</time>
      </trkpt>
      <trkpt lat="41.38093" lon="20.58767">
        <ele>637.818188</ele>
        <time>2022-04-27T10:23:06.770Z</time>
      </trkpt>
      <trkpt lat="41.38084" lon="20.58779">
        <ele>637.41851</ele>
        <time>2022-04-27T10:23:09.781Z</time>
      </trkpt>
      <trkpt lat="41.38075" lon="20.5879">
        <ele>637.044917</ele>
        <time>2022-04-27T10:23:12.781Z</time>
      </trkpt>
      <trkpt lat="41.38066" lon="20.58801">
        <ele>637.438669</ele>
        <time>2022-04-27T10:23:15.780Z</time>
      </trkpt>
      <trkpt lat="41.38058" lon="20.58812">
        <ele>637.920255</ele>
        <time>2022-04-27T10:23:18.768Z</time>
      </trkpt>
      <trkpt lat="41.3805" lon="20.5882">
        <ele>638.358491</ele>
        <time>2022-04-27T10:23:21.771Z</time>
      </trkpt>
      <trkpt lat="41.38043" lon="20.58828">
        <ele>638.758222</ele>
        <time>2022-04-27T10:23:24.748Z</time>
      </trkpt>
      <trkpt lat="41.38035" lon="20.58836">
        <ele>639.174241</ele>
        <time>2022-04-27T10:23:27.770Z</time>
      </trkpt>
      <trkpt lat="41.38026" lon="20.58846">
        <ele>639.675507</ele>
        <time>2022-04-27T10:23:31.780Z</time>
      </trkpt>
      <trkpt lat="41.38017" lon="20.58856">
        <ele>640.171958</ele>
        <time>2022-04-27T10:23:35.763Z</time>
      </trkpt>
      <trkpt lat="41.38007" lon="20.58865">
        <ele>640.684256</ele>
        <time>2022-04-27T10:23:39.763Z</time>
      </trkpt>
      <trkpt lat="41.37999" lon="20.58872">
        <ele>641.118484</ele>
        <time>2022-04-27T10:23:42.771Z</time>
      </trkpt>
      <trkpt lat="41.37991" lon="20.58879">
        <ele>641.53638</ele>
        <time>2022-04-27T10:23:45.764Z</time>
      </trkpt>
      <trkpt lat="41.37982" lon="20.58886">
        <ele>641.983328</ele>
        <time>2022-04-27T10:23:48.758Z</time>
      </trkpt>
      <trkpt lat="41.37972" lon="20.58894">
        <ele>642.44626</ele>
        <time>2022-04-27T10:23:51.774Z</time>
      </trkpt>
      <trkpt lat="41.37963" lon="20.589">
        <ele>642.901237</ele>
        <time>2022-04-27T10:23:54.777Z</time>
      </trkpt>
      <trkpt lat="41.37953" lon="20.58908">
        <ele>643.383852</ele>
        <time>2022-04-27T10:23:57.765Z</time>
      </trkpt>
      <trkpt lat="41.37945" lon="20.58915">
        <ele>643.80325</ele>
        <time>2022-04-27T10:24:00.770Z</time>
      </trkpt>
      <trkpt lat="41.37935" lon="20.58923">
        <ele>644.303613</ele>
        <time>2022-04-27T10:24:03.760Z</time>
      </trkpt>
      <trkpt lat="41.37926" lon="20.58931">
        <ele>644.740544</ele>
        <time>2022-04-27T10:24:06.774Z</time>
      </trkpt>
      <trkpt lat="41.37917" lon="20.58938">
        <ele>645.009803</ele>
        <time>2022-04-27T10:24:09.765Z</time>
      </trkpt>
      <trkpt lat="41.37909" lon="20.58946">
        <ele>645.271585</ele>
        <time>2022-04-27T10:24:12.809Z</time>
      </trkpt>
      <trkpt lat="41.379" lon="20.58954">
        <ele>645.534247</ele>
        <time>2022-04-27T10:24:15.789Z</time>
      </trkpt>
      <trkpt lat="41.37891" lon="20.58961">
        <ele>645.809727</ele>
        <time>2022-04-27T10:24:18.771Z</time>
      </trkpt>
      <trkpt lat="41.37881" lon="20.5897">
        <ele>646.12878</ele>
        <time>2022-04-27T10:24:21.774Z</time>
      </trkpt>
      <trkpt lat="41.37871" lon="20.58981">
        <ele>646.454972</ele>
        <time>2022-04-27T10:24:24.776Z</time>
      </trkpt>
      <trkpt lat="41.37863" lon="20.58989">
        <ele>646.699703</ele>
        <time>2022-04-27T10:24:26.766Z</time>
      </trkpt>
      <trkpt lat="41.37855" lon="20.59">
        <ele>647.004311</ele>
        <time>2022-04-27T10:24:29.804Z</time>
      </trkpt>
      <trkpt lat="41.37847" lon="20.59012">
        <ele>647.29875</ele>
        <time>2022-04-27T10:24:32.762Z</time>
      </trkpt>
      <trkpt lat="41.3784" lon="20.59025">
        <ele>647.611662</ele>
        <time>2022-04-27T10:24:35.766Z</time>
      </trkpt>
      <trkpt lat="41.37833" lon="20.59038">
        <ele>647.917021</ele>
        <time>2022-04-27T10:24:38.768Z</time>
      </trkpt>
      <trkpt lat="41.37826" lon="20.5905">
        <ele>648.213167</ele>
        <time>2022-04-27T10:24:41.758Z</time>
      </trkpt>
      <trkpt lat="41.37819" lon="20.59062">
        <ele>648.503909</ele>
        <time>2022-04-27T10:24:44.756Z</time>
      </trkpt>
      <trkpt lat="41.37813" lon="20.59074">
        <ele>648.777189</ele>
        <time>2022-04-27T10:24:47.783Z</time>
      </trkpt>
      <trkpt lat="41.37809" lon="20.59087">
        <ele>649.059771</ele>
        <time>2022-04-27T10:24:50.758Z</time>
      </trkpt>
      <trkpt lat="41.37804" lon="20.591">
        <ele>649.264003</ele>
        <time>2022-04-27T10:24:53.752Z</time>
      </trkpt>
      <trkpt lat="41.37799" lon="20.59114">
        <ele>648.965122</ele>
        <time>2022-04-27T10:24:56.791Z</time>
      </trkpt>
      <trkpt lat="41.37794" lon="20.59128">
        <ele>648.665489</ele>
        <time>2022-04-27T10:24:59.781Z</time>
      </trkpt>
      <trkpt lat="41.37791" lon="20.59142">
        <ele>648.387897</ele>
        <time>2022-04-27T10:25:02.781Z</time>
      </trkpt>
      <trkpt lat="41.37788" lon="20.59157">
        <ele>648.084452</ele>
        <time>2022-04-27T10:25:05.780Z</time>
      </trkpt>
      <trkpt lat="41.37782" lon="20.59172">
        <ele>647.763269</ele>
        <time>2022-04-27T10:25:08.760Z</time>
      </trkpt>
      <trkpt lat="41.37776" lon="20.59184">
        <ele>647.457463</ele>
        <time>2022-04-27T10:25:11.746Z</time>
      </trkpt>
      <trkpt lat="41.37767" lon="20.59196">
        <ele>647.13703</ele>
        <time>2022-04-27T10:25:14.759Z</time>
      </trkpt>
      <trkpt lat="41.37757" lon="20.59208">
        <ele>646.801519</ele>
        <time>2022-04-27T10:25:17.747Z</time>
      </trkpt>
      <trkpt lat="41.37749" lon="20.59219">
        <ele>646.482533</ele>
        <time>2022-04-27T10:25:20.767Z</time>
      </trkpt>
      <trkpt lat="41.3774" lon="20.59232">
        <ele>646.140045</ele>
        <time>2022-04-27T10:25:23.746Z</time>
      </trkpt>
      <trkpt lat="41.37732" lon="20.59241">
        <ele>645.875759</ele>
        <time>2022-04-27T10:25:25.749Z</time>
      </trkpt>
      <trkpt lat="41.37726" lon="20.5925">
        <ele>645.640907</ele>
        <time>2022-04-27T10:25:27.735Z</time>
      </trkpt>
      <trkpt lat="41.37717" lon="20.59262">
        <ele>645.310855</ele>
        <time>2022-04-27T10:25:30.745Z</time>
      </trkpt>
      <trkpt lat="41.37707" lon="20.59273">
        <ele>644.972585</ele>
        <time>2022-04-27T10:25:33.740Z</time>
      </trkpt>
      <trkpt lat="41.37698" lon="20.59283">
        <ele>644.663209</ele>
        <time>2022-04-27T10:25:36.752Z</time>
      </trkpt>
      <trkpt lat="41.37689" lon="20.59293">
        <ele>644.726353</ele>
        <time>2022-04-27T10:25:39.747Z</time>
      </trkpt>
      <trkpt lat="41.37682" lon="20.593">
        <ele>644.816008</ele>
        <time>2022-04-27T10:25:41.741Z</time>
      </trkpt>
      <trkpt lat="41.37673" lon="20.59307">
        <ele>644.912316</ele>
        <time>2022-04-27T10:25:43.733Z</time>
      </trkpt>
      <trkpt lat="41.37665" lon="20.59314">
        <ele>645.004559</ele>
        <time>2022-04-27T10:25:45.757Z</time>
      </trkpt>
      <trkpt lat="41.37655" lon="20.59323">
        <ele>645.127879</ele>
        <time>2022-04-27T10:25:48.754Z</time>
      </trkpt>
      <trkpt lat="41.37645" lon="20.59334">
        <ele>645.252522</ele>
        <time>2022-04-27T10:25:51.738Z</time>
      </trkpt>
      <trkpt lat="41.37635" lon="20.59344">
        <ele>645.376317</ele>
        <time>2022-04-27T10:25:54.763Z</time>
      </trkpt>
      <trkpt lat="41.37627" lon="20.59351">
        <ele>645.476699</ele>
        <time>2022-04-27T10:25:57.740Z</time>
      </trkpt>
      <trkpt lat="41.37617" lon="20.5936">
        <ele>645.586529</ele>
        <time>2022-04-27T10:26:01.744Z</time>
      </trkpt>
      <trkpt lat="41.37608" lon="20.59368">
        <ele>645.693035</ele>
        <time>2022-04-27T10:26:04.758Z</time>
      </trkpt>
      <trkpt lat="41.37598" lon="20.59376">
        <ele>645.809468</ele>
        <time>2022-04-27T10:26:07.773Z</time>
      </trkpt>
      <trkpt lat="41.37588" lon="20.59384">
        <ele>645.926956</ele>
        <time>2022-04-27T10:26:10.743Z</time>
      </trkpt>
      <trkpt lat="41.3758" lon="20.59391">
        <ele>646.025269</ele>
        <time>2022-04-27T10:26:13.736Z</time>
      </trkpt>
      <trkpt lat="41.37571" lon="20.594">
        <ele>646.130561</ele>
        <time>2022-04-27T10:26:16.736Z</time>
      </trkpt>
      <trkpt lat="41.37561" lon="20.59409">
        <ele>646.250192</ele>
        <time>2022-04-27T10:26:19.740Z</time>
      </trkpt>
      <trkpt lat="41.3755" lon="20.59418">
        <ele>646.376883</ele>
        <time>2022-04-27T10:26:22.755Z</time>
      </trkpt>
      <trkpt lat="41.3754" lon="20.59424">
        <ele>646.722033</ele>
        <time>2022-04-27T10:26:24.737Z</time>
      </trkpt>
      <trkpt lat="41.3753" lon="20.59429">
        <ele>647.108973</ele>
        <time>2022-04-27T10:26:26.751Z</time>
      </trkpt>
      <trkpt lat="41.37519" lon="20.59433">
        <ele>647.520995</ele>
        <time>2022-04-27T10:26:28.743Z</time>
      </trkpt>
      <trkpt lat="41.3751" lon="20.59439">
        <ele>647.860047</ele>
        <time>2022-04-27T10:26:30.745Z</time>
      </trkpt>
      <trkpt lat="41.37501" lon="20.59454">
        <ele>648.370335</ele>
        <time>2022-04-27T10:26:33.737Z</time>
      </trkpt>
      <trkpt lat="41.37497" lon="20.59464">
        <ele>648.694905</ele>
        <time>2022-04-27T10:26:35.735Z</time>
      </trkpt>
      <trkpt lat="41.37488" lon="20.59473">
        <ele>649.073199</ele>
        <time>2022-04-27T10:26:38.750Z</time>
      </trkpt>
      <trkpt lat="41.3748" lon="20.59479">
        <ele>649.413121</ele>
        <time>2022-04-27T10:26:41.740Z</time>
      </trkpt>
      <trkpt lat="41.37472" lon="20.59485">
        <ele>649.746462</ele>
        <time>2022-04-27T10:26:44.760Z</time>
      </trkpt>
      <trkpt lat="41.37462" lon="20.59493">
        <ele>650.148653</ele>
        <time>2022-04-27T10:26:48.750Z</time>
      </trkpt>
      <trkpt lat="41.37454" lon="20.59503">
        <ele>650.539085</ele>
        <time>2022-04-27T10:26:53.740Z</time>
      </trkpt>
      <trkpt lat="41.37446" lon="20.59511">
        <ele>650.919221</ele>
        <time>2022-04-27T10:26:58.739Z</time>
      </trkpt>
      <trkpt lat="41.37437" lon="20.59519">
        <ele>651.288384</ele>
        <time>2022-04-27T10:27:03.736Z</time>
      </trkpt>
      <trkpt lat="41.37429" lon="20.59528">
        <ele>651.662211</ele>
        <time>2022-04-27T10:27:08.772Z</time>
      </trkpt>
      <trkpt lat="41.37422" lon="20.59538">
        <ele>652.045534</ele>
        <time>2022-04-27T10:27:13.747Z</time>
      </trkpt>
      <trkpt lat="41.37413" lon="20.59547">
        <ele>652.431416</ele>
        <time>2022-04-27T10:27:18.749Z</time>
      </trkpt>
      <trkpt lat="41.37404" lon="20.59554">
        <ele>652.807987</ele>
        <time>2022-04-27T10:27:23.743Z</time>
      </trkpt>
      <trkpt lat="41.37395" lon="20.59562">
        <ele>652.624639</ele>
        <time>2022-04-27T10:27:28.753Z</time>
      </trkpt>
      <trkpt lat="41.37386" lon="20.5957">
        <ele>652.404407</ele>
        <time>2022-04-27T10:27:33.745Z</time>
      </trkpt>
      <trkpt lat="41.37377" lon="20.59577">
        <ele>652.181242</ele>
        <time>2022-04-27T10:27:38.737Z</time>
      </trkpt>
      <trkpt lat="41.37367" lon="20.59582">
        <ele>651.958929</ele>
        <time>2022-04-27T10:27:42.738Z</time>
      </trkpt>
      <trkpt lat="41.37357" lon="20.59585">
        <ele>651.745596</ele>
        <time>2022-04-27T10:27:46.738Z</time>
      </trkpt>
      <trkpt lat="41.37347" lon="20.59589">
        <ele>651.545115</ele>
        <time>2022-04-27T10:27:50.744Z</time>
      </trkpt>
      <trkpt lat="41.37337" lon="20.59593">
        <ele>651.315952</ele>
        <time>2022-04-27T10:27:54.751Z</time>
      </trkpt>
      <trkpt lat="41.37326" lon="20.59596">
        <ele>651.099905</ele>
        <time>2022-04-27T10:27:58.743Z</time>
      </trkpt>
      <trkpt lat="41.37315" lon="20.59599">
        <ele>650.867084</ele>
        <time>2022-04-27T10:28:02.737Z</time>
      </trkpt>
      <trkpt lat="41.37304" lon="20.59601">
        <ele>650.625691</ele>
        <time>2022-04-27T10:28:06.753Z</time>
      </trkpt>
      <trkpt lat="41.37294" lon="20.59603">
        <ele>650.420932</ele>
        <time>2022-04-27T10:28:09.740Z</time>
      </trkpt>
      <trkpt lat="41.37283" lon="20.59604">
        <ele>650.198746</ele>
        <time>2022-04-27T10:28:12.740Z</time>
      </trkpt>
      <trkpt lat="41.37274" lon="20.59608">
        <ele>650.00336</ele>
        <time>2022-04-27T10:28:15.742Z</time>
      </trkpt>
      <trkpt lat="41.37266" lon="20.59615">
        <ele>649.795217</ele>
        <time>2022-04-27T10:28:18.751Z</time>
      </trkpt>
      <trkpt lat="41.37258" lon="20.59622">
        <ele>649.605717</ele>
        <time>2022-04-27T10:28:20.740Z</time>
      </trkpt>
      <trkpt lat="41.37249" lon="20.59628">
        <ele>649.390972</ele>
        <time>2022-04-27T10:28:22.738Z</time>
      </trkpt>
      <trkpt lat="41.37239" lon="20.59637">
        <ele>649.15286</ele>
        <time>2022-04-27T10:28:24.748Z</time>
      </trkpt>
      <trkpt lat="41.37231" lon="20.59646">
        <ele>648.876103</ele>
        <time>2022-04-27T10:28:26.738Z</time>
      </trkpt>
      <trkpt lat="41.37224" lon="20.59654">
        <ele>648.623695</ele>
        <time>2022-04-27T10:28:28.745Z</time>
      </trkpt>
      <trkpt lat="41.37216" lon="20.59663">
        <ele>648.34128</ele>
        <time>2022-04-27T10:28:30.747Z</time>
      </trkpt>
      <trkpt lat="41.37208" lon="20.59671">
        <ele>648.069951</ele>
        <time>2022-04-27T10:28:32.746Z</time>
      </trkpt>
      <trkpt lat="41.372" lon="20.5968">
        <ele>647.765945</ele>
        <time>2022-04-27T10:28:35.738Z</time>
      </trkpt>
      <trkpt lat="41.37189" lon="20.59688">
        <ele>647.428376</ele>
        <time>2022-04-27T10:28:38.737Z</time>
      </trkpt>
      <trkpt lat="41.37179" lon="20.59696">
        <ele>647.120772</ele>
        <time>2022-04-27T10:28:41.745Z</time>
      </trkpt>
      <trkpt lat="41.3717" lon="20.59703">
        <ele>646.820216</ele>
        <time>2022-04-27T10:28:44.743Z</time>
      </trkpt>
      <trkpt lat="41.37161" lon="20.59709">
        <ele>646.551685</ele>
        <time>2022-04-27T10:28:47.761Z</time>
      </trkpt>
      <trkpt lat="41.37152" lon="20.59712">
        <ele>646.299718</ele>
        <time>2022-04-27T10:28:50.755Z</time>
      </trkpt>
      <trkpt lat="41.37143" lon="20.59716">
        <ele>646.041284</ele>
        <time>2022-04-27T10:28:53.765Z</time>
      </trkpt>
      <trkpt lat="41.37133" lon="20.59722">
        <ele>645.731715</ele>
        <time>2022-04-27T10:28:57.743Z</time>
      </trkpt>
      <trkpt lat="41.37123" lon="20.59729">
        <ele>645.438839</ele>
        <time>2022-04-27T10:29:01.745Z</time>
      </trkpt>
      <trkpt lat="41.37114" lon="20.59736">
        <ele>645.160015</ele>
        <time>2022-04-27T10:29:05.734Z</time>
      </trkpt>
      <trkpt lat="41.37105" lon="20.59742">
        <ele>644.874725</ele>
        <time>2022-04-27T10:29:09.741Z</time>
      </trkpt>
      <trkpt lat="41.37096" lon="20.59747">
        <ele>644.595383</ele>
        <time>2022-04-27T10:29:12.743Z</time>
      </trkpt>
      <trkpt lat="41.37086" lon="20.59753">
        <ele>644.309356</ele>
        <time>2022-04-27T10:29:15.762Z</time>
      </trkpt>
      <trkpt lat="41.37077" lon="20.59758">
        <ele>644.053743</ele>
        <time>2022-04-27T10:29:18.739Z</time>
      </trkpt>
      <trkpt lat="41.37069" lon="20.59766">
        <ele>643.815543</ele>
        <time>2022-04-27T10:29:21.743Z</time>
      </trkpt>
      <trkpt lat="41.37061" lon="20.59773">
        <ele>643.572149</ele>
        <time>2022-04-27T10:29:24.747Z</time>
      </trkpt>
      <trkpt lat="41.37051" lon="20.59781">
        <ele>643.284897</ele>
        <time>2022-04-27T10:29:27.734Z</time>
      </trkpt>
      <trkpt lat="41.37043" lon="20.59792">
        <ele>643.003395</ele>
        <time>2022-04-27T10:29:30.739Z</time>
      </trkpt>
      <trkpt lat="41.37036" lon="20.598">
        <ele>642.779906</ele>
        <time>2022-04-27T10:29:32.745Z</time>
      </trkpt>
      <trkpt lat="41.37026" lon="20.59812">
        <ele>642.449914</ele>
        <time>2022-04-27T10:29:35.736Z</time>
      </trkpt>
      <trkpt lat="41.37019" lon="20.5982">
        <ele>642.219596</ele>
        <time>2022-04-27T10:29:37.740Z</time>
      </trkpt>
      <trkpt lat="41.37011" lon="20.59829">
        <ele>641.971582</ele>
        <time>2022-04-27T10:29:39.746Z</time>
      </trkpt>
      <trkpt lat="41.37003" lon="20.59839">
        <ele>641.702803</ele>
        <time>2022-04-27T10:29:41.741Z</time>
      </trkpt>
      <trkpt lat="41.36995" lon="20.59849">
        <ele>641.433328</ele>
        <time>2022-04-27T10:29:43.735Z</time>
      </trkpt>
      <trkpt lat="41.36989" lon="20.59859">
        <ele>641.192937</ele>
        <time>2022-04-27T10:29:45.743Z</time>
      </trkpt>
      <trkpt lat="41.36985" lon="20.59871">
        <ele>640.94942</ele>
        <time>2022-04-27T10:29:47.739Z</time>
      </trkpt>
      <trkpt lat="41.3698" lon="20.59883">
        <ele>640.701966</ele>
        <time>2022-04-27T10:29:49.742Z</time>
      </trkpt>
      <trkpt lat="41.36975" lon="20.59893">
        <ele>640.471374</ele>
        <time>2022-04-27T10:29:51.743Z</time>
      </trkpt>
      <trkpt lat="41.3697" lon="20.59904">
        <ele>640.242328</ele>
        <time>2022-04-27T10:29:53.732Z</time>
      </trkpt>
      <trkpt lat="41.36964" lon="20.59917">
        <ele>639.964374</ele>
        <time>2022-04-27T10:29:56.739Z</time>
      </trkpt>
      <trkpt lat="41.3696" lon="20.59931">
        <ele>639.656586</ele>
        <time>2022-04-27T10:29:59.773Z</time>
      </trkpt>
      <trkpt lat="41.36957" lon="20.59946">
        <ele>639.295814</ele>
        <time>2022-04-27T10:30:02.736Z</time>
      </trkpt>
      <trkpt lat="41.36954" lon="20.59959">
        <ele>638.993884</ele>
        <time>2022-04-27T10:30:05.737Z</time>
      </trkpt>
      <trkpt lat="41.36951" lon="20.59971">
        <ele>638.695718</ele>
        <time>2022-04-27T10:30:08.740Z</time>
      </trkpt>
      <trkpt lat="41.36948" lon="20.59986">
        <ele>638.351392</ele>
        <time>2022-04-27T10:30:11.740Z</time>
      </trkpt>
      <trkpt lat="41.36947" lon="20.60002">
        <ele>637.977119</ele>
        <time>2022-04-27T10:30:14.744Z</time>
      </trkpt>
      <trkpt lat="41.36944" lon="20.60017">
        <ele>637.612589</ele>
        <time>2022-04-27T10:30:17.740Z</time>
      </trkpt>
      <trkpt lat="41.36942" lon="20.60032">
        <ele>637.263778</ele>
        <time>2022-04-27T10:30:20.741Z</time>
      </trkpt>
      <trkpt lat="41.36942" lon="20.60046">
        <ele>636.938868</ele>
        <time>2022-04-27T10:30:23.746Z</time>
      </trkpt>
      <trkpt lat="41.36943" lon="20.6006">
        <ele>636.624665</ele>
        <time>2022-04-27T10:30:26.743Z</time>
      </trkpt>
      <trkpt lat="41.36942" lon="20.60073">
        <ele>636.323861</ele>
        <time>2022-04-27T10:30:29.738Z</time>
      </trkpt>
      <trkpt lat="41.36941" lon="20.60088">
        <ele>635.959011</ele>
        <time>2022-04-27T10:30:33.753Z</time>
      </trkpt>
      <trkpt lat="41.36939" lon="20.60102">
        <ele>635.643194</ele>
        <time>2022-04-27T10:30:36.738Z</time>
      </trkpt>
      <trkpt lat="41.36937" lon="20.60117">
        <ele>635.29854</ele>
        <time>2022-04-27T10:30:39.737Z</time>
      </trkpt>
      <trkpt lat="41.36937" lon="20.60131">
        <ele>634.976579</ele>
        <time>2022-04-27T10:30:42.742Z</time>
      </trkpt>
      <trkpt lat="41.36937" lon="20.60144">
        <ele>634.658743</ele>
        <time>2022-04-27T10:30:45.738Z</time>
      </trkpt>
      <trkpt lat="41.36934" lon="20.60157">
        <ele>634.3623</ele>
        <time>2022-04-27T10:30:48.763Z</time>
      </trkpt>
      <trkpt lat="41.36927" lon="20.6017">
        <ele>634.458329</ele>
        <time>2022-04-27T10:30:51.741Z</time>
      </trkpt>
      <trkpt lat="41.36919" lon="20.60182">
        <ele>634.700286</ele>
        <time>2022-04-27T10:30:54.756Z</time>
      </trkpt>
      <trkpt lat="41.36912" lon="20.60196">
        <ele>634.939999</ele>
        <time>2022-04-27T10:30:57.734Z</time>
      </trkpt>
      <trkpt lat="41.36903" lon="20.60208">
        <ele>635.184605</ele>
        <time>2022-04-27T10:31:00.741Z</time>
      </trkpt>
      <trkpt lat="41.36897" lon="20.60218">
        <ele>635.371169</ele>
        <time>2022-04-27T10:31:03.737Z</time>
      </trkpt>
      <trkpt lat="41.36891" lon="20.60226">
        <ele>635.548631</ele>
        <time>2022-04-27T10:31:06.739Z</time>
      </trkpt>
      <trkpt lat="41.36886" lon="20.60238">
        <ele>635.743841</ele>
        <time>2022-04-27T10:31:09.739Z</time>
      </trkpt>
      <trkpt lat="41.3688" lon="20.60249">
        <ele>635.939817</ele>
        <time>2022-04-27T10:31:12.739Z</time>
      </trkpt>
      <trkpt lat="41.36876" lon="20.60262">
        <ele>636.141122</ele>
        <time>2022-04-27T10:31:15.742Z</time>
      </trkpt>
      <trkpt lat="41.36872" lon="20.60276">
        <ele>636.360042</ele>
        <time>2022-04-27T10:31:18.745Z</time>
      </trkpt>
      <trkpt lat="41.36867" lon="20.60288">
        <ele>636.567431</ele>
        <time>2022-04-27T10:31:21.740Z</time>
      </trkpt>
      <trkpt lat="41.36862" lon="20.60301">
        <ele>636.782211</ele>
        <time>2022-04-27T10:31:24.737Z</time>
      </trkpt>
      <trkpt lat="41.36854" lon="20.60315">
        <ele>637.032397</ele>
        <time>2022-04-27T10:31:27.736Z</time>
      </trkpt>
      <trkpt lat="41.36848" lon="20.60325">
        <ele>637.218252</ele>
        <time>2022-04-27T10:31:29.740Z</time>
      </trkpt>
      <trkpt lat="41.36841" lon="20.60341">
        <ele>637.480365</ele>
        <time>2022-04-27T10:31:32.743Z</time>
      </trkpt>
      <trkpt lat="41.36836" lon="20.60352">
        <ele>637.684065</ele>
        <time>2022-04-27T10:31:35.735Z</time>
      </trkpt>
      <trkpt lat="41.36828" lon="20.60364">
        <ele>638.091623</ele>
        <time>2022-04-27T10:31:38.753Z</time>
      </trkpt>
      <trkpt lat="41.3682" lon="20.60375">
        <ele>638.688205</ele>
        <time>2022-04-27T10:31:41.739Z</time>
      </trkpt>
      <trkpt lat="41.36811" lon="20.60386">
        <ele>639.251507</ele>
        <time>2022-04-27T10:31:44.773Z</time>
      </trkpt>
      <trkpt lat="41.36801" lon="20.60394">
        <ele>639.833514</ele>
        <time>2022-04-27T10:31:47.737Z</time>
      </trkpt>
      <trkpt lat="41.36793" lon="20.60402">
        <ele>640.288963</ele>
        <time>2022-04-27T10:31:50.744Z</time>
      </trkpt>
      <trkpt lat="41.36784" lon="20.60409">
        <ele>640.792652</ele>
        <time>2022-04-27T10:31:53.739Z</time>
      </trkpt>
      <trkpt lat="41.36776" lon="20.60415">
        <ele>641.247749</ele>
        <time>2022-04-27T10:31:56.739Z</time>
      </trkpt>
      <trkpt lat="41.36766" lon="20.6042">
        <ele>641.779433</ele>
        <time>2022-04-27T10:32:00.744Z</time>
      </trkpt>
      <trkpt lat="41.36754" lon="20.60423">
        <ele>642.355859</ele>
        <time>2022-04-27T10:32:04.745Z</time>
      </trkpt>
      <trkpt lat="41.36742" lon="20.60426">
        <ele>642.918025</ele>
        <time>2022-04-27T10:32:08.751Z</time>
      </trkpt>
      <trkpt lat="41.36731" lon="20.60429">
        <ele>643.449723</ele>
        <time>2022-04-27T10:32:12.736Z</time>
      </trkpt>
      <trkpt lat="41.36721" lon="20.6043">
        <ele>643.958673</ele>
        <time>2022-04-27T10:32:15.736Z</time>
      </trkpt>
      <trkpt lat="41.3671" lon="20.60432">
        <ele>644.497162</ele>
        <time>2022-04-27T10:32:19.740Z</time>
      </trkpt>
      <trkpt lat="41.36698" lon="20.60434">
        <ele>645.078763</ele>
        <time>2022-04-27T10:32:23.744Z</time>
      </trkpt>
      <trkpt lat="41.36686" lon="20.60437">
        <ele>645.666092</ele>
        <time>2022-04-27T10:32:26.743Z</time>
      </trkpt>
      <trkpt lat="41.36674" lon="20.60442">
        <ele>646.272525</ele>
        <time>2022-04-27T10:32:29.745Z</time>
      </trkpt>
      <trkpt lat="41.36663" lon="20.60449">
        <ele>646.61467</ele>
        <time>2022-04-27T10:32:32.771Z</time>
      </trkpt>
      <trkpt lat="41.36654" lon="20.60454">
        <ele>646.789801</ele>
        <time>2022-04-27T10:32:34.740Z</time>
      </trkpt>
      <trkpt lat="41.36646" lon="20.60459">
        <ele>646.959397</ele>
        <time>2022-04-27T10:32:36.738Z</time>
      </trkpt>
      <trkpt lat="41.36634" lon="20.60468">
        <ele>647.200786</ele>
        <time>2022-04-27T10:32:39.735Z</time>
      </trkpt>
      <trkpt lat="41.36626" lon="20.60472">
        <ele>647.378368</ele>
        <time>2022-04-27T10:32:41.748Z</time>
      </trkpt>
      <trkpt lat="41.36615" lon="20.60481">
        <ele>647.607023</ele>
        <time>2022-04-27T10:32:44.741Z</time>
      </trkpt>
      <trkpt lat="41.36603" lon="20.60488">
        <ele>647.858214</ele>
        <time>2022-04-27T10:32:47.739Z</time>
      </trkpt>
      <trkpt lat="41.36593" lon="20.60492">
        <ele>648.050258</ele>
        <time>2022-04-27T10:32:50.739Z</time>
      </trkpt>
      <trkpt lat="41.36584" lon="20.60496">
        <ele>648.225114</ele>
        <time>2022-04-27T10:32:54.739Z</time>
      </trkpt>
      <trkpt lat="41.36573" lon="20.60503">
        <ele>648.45699</ele>
        <time>2022-04-27T10:32:58.742Z</time>
      </trkpt>
      <trkpt lat="41.36563" lon="20.60506">
        <ele>648.648066</ele>
        <time>2022-04-27T10:33:01.745Z</time>
      </trkpt>
      <trkpt lat="41.36554" lon="20.60508">
        <ele>648.81828</ele>
        <time>2022-04-27T10:33:04.767Z</time>
      </trkpt>
      <trkpt lat="41.36544" lon="20.60509">
        <ele>648.993996</ele>
        <time>2022-04-27T10:33:08.742Z</time>
      </trkpt>
      <trkpt lat="41.36534" lon="20.60509">
        <ele>649.180804</ele>
        <time>2022-04-27T10:33:12.735Z</time>
      </trkpt>
      <trkpt lat="41.36525" lon="20.60507">
        <ele>649.349405</ele>
        <time>2022-04-27T10:33:15.734Z</time>
      </trkpt>
      <trkpt lat="41.36513" lon="20.60506">
        <ele>649.579953</ele>
        <time>2022-04-27T10:33:18.755Z</time>
      </trkpt>
      <trkpt lat="41.36501" lon="20.60503">
        <ele>649.803279</ele>
        <time>2022-04-27T10:33:21.765Z</time>
      </trkpt>
      <trkpt lat="41.3649" lon="20.60501">
        <ele>649.849329</ele>
        <time>2022-04-27T10:33:23.749Z</time>
      </trkpt>
      <trkpt lat="41.3648" lon="20.60499">
        <ele>649.896866</ele>
        <time>2022-04-27T10:33:25.735Z</time>
      </trkpt>
      <trkpt lat="41.36468" lon="20.60497">
        <ele>649.949075</ele>
        <time>2022-04-27T10:33:27.731Z</time>
      </trkpt>
      <trkpt lat="41.36457" lon="20.60494">
        <ele>649.997736</ele>
        <time>2022-04-27T10:33:29.738Z</time>
      </trkpt>
      <trkpt lat="41.36447" lon="20.60489">
        <ele>650.044681</ele>
        <time>2022-04-27T10:33:32.746Z</time>
      </trkpt>
      <trkpt lat="41.36439" lon="20.60481">
        <ele>650.088121</ele>
        <time>2022-04-27T10:33:35.734Z</time>
      </trkpt>
      <trkpt lat="41.3643" lon="20.60474">
        <ele>650.13371</ele>
        <time>2022-04-27T10:33:38.744Z</time>
      </trkpt>
      <trkpt lat="41.36421" lon="20.60471">
        <ele>650.174525</ele>
        <time>2022-04-27T10:33:40.738Z</time>
      </trkpt>
      <trkpt lat="41.36412" lon="20.60467">
        <ele>650.218242</ele>
        <time>2022-04-27T10:33:42.747Z</time>
      </trkpt>
      <trkpt lat="41.364" lon="20.6046">
        <ele>650.273462</ele>
        <time>2022-04-27T10:33:45.737Z</time>
      </trkpt>
      <trkpt lat="41.3639" lon="20.60455">
        <ele>650.322168</ele>
        <time>2022-04-27T10:33:48.737Z</time>
      </trkpt>
      <trkpt lat="41.3638" lon="20.60458">
        <ele>650.363702</ele>
        <time>2022-04-27T10:33:50.743Z</time>
      </trkpt>
      <trkpt lat="41.36368" lon="20.60453">
        <ele>650.420653</ele>
        <time>2022-04-27T10:33:53.747Z</time>
      </trkpt>
      <trkpt lat="41.36357" lon="20.60446">
        <ele>650.474307</ele>
        <time>2022-04-27T10:33:56.750Z</time>
      </trkpt>
      <trkpt lat="41.36347" lon="20.6044">
        <ele>650.519919</ele>
        <time>2022-04-27T10:33:59.744Z</time>
      </trkpt>
      <trkpt lat="41.36339" lon="20.60432">
        <ele>650.564413</ele>
        <time>2022-04-27T10:34:02.740Z</time>
      </trkpt>
      <trkpt lat="41.36331" lon="20.60424">
        <ele>650.568134</ele>
        <time>2022-04-27T10:34:05.733Z</time>
      </trkpt>
      <trkpt lat="41.36323" lon="20.60416">
        <ele>650.521854</ele>
        <time>2022-04-27T10:34:08.747Z</time>
      </trkpt>
      <trkpt lat="41.36312" lon="20.60413">
        <ele>650.472835</ele>
        <time>2022-04-27T10:34:11.737Z</time>
      </trkpt>
      <trkpt lat="41.36299" lon="20.6041">
        <ele>650.414976</ele>
        <time>2022-04-27T10:34:14.741Z</time>
      </trkpt>
      <trkpt lat="41.36288" lon="20.60408">
        <ele>650.363701</ele>
        <time>2022-04-27T10:34:17.759Z</time>
      </trkpt>
      <trkpt lat="41.36276" lon="20.60408">
        <ele>650.313648</ele>
        <time>2022-04-27T10:34:20.739Z</time>
      </trkpt>
      <trkpt lat="41.36266" lon="20.60406">
        <ele>650.268621</ele>
        <time>2022-04-27T10:34:23.738Z</time>
      </trkpt>
      <trkpt lat="41.36255" lon="20.60403">
        <ele>650.216344</ele>
        <time>2022-04-27T10:34:27.735Z</time>
      </trkpt>
      <trkpt lat="41.36245" lon="20.60399">
        <ele>650.169127</ele>
        <time>2022-04-27T10:34:30.744Z</time>
      </trkpt>
      <trkpt lat="41.36235" lon="20.60392">
        <ele>650.118425</ele>
        <time>2022-04-27T10:34:33.746Z</time>
      </trkpt>
      <trkpt lat="41.36228" lon="20.60382">
        <ele>650.07294</ele>
        <time>2022-04-27T10:34:36.755Z</time>
      </trkpt>
      <trkpt lat="41.36221" lon="20.60374">
        <ele>650.032181</ele>
        <time>2022-04-27T10:34:39.767Z</time>
      </trkpt>
      <trkpt lat="41.36215" lon="20.6036">
        <ele>649.977605</ele>
        <time>2022-04-27T10:34:43.733Z</time>
      </trkpt>
      <trkpt lat="41.3621" lon="20.60349">
        <ele>649.932518</ele>
        <time>2022-04-27T10:34:46.745Z</time>
      </trkpt>
      <trkpt lat="41.36203" lon="20.60339">
        <ele>649.88733</ele>
        <time>2022-04-27T10:34:49.734Z</time>
      </trkpt>
      <trkpt lat="41.36196" lon="20.60329">
        <ele>649.842284</ele>
        <time>2022-04-27T10:34:52.744Z</time>
      </trkpt>
      <trkpt lat="41.36189" lon="20.6032">
        <ele>649.79887</ele>
        <time>2022-04-27T10:34:55.734Z</time>
      </trkpt>
      <trkpt lat="41.36181" lon="20.60312">
        <ele>649.625516</ele>
        <time>2022-04-27T10:34:58.745Z</time>
      </trkpt>
      <trkpt lat="41.36174" lon="20.60305">
        <ele>649.395997</ele>
        <time>2022-04-27T10:35:01.769Z</time>
      </trkpt>
      <trkpt lat="41.36164" lon="20.60299">
        <ele>649.148803</ele>
        <time>2022-04-27T10:35:04.738Z</time>
      </trkpt>
      <trkpt lat="41.36153" lon="20.60296">
        <ele>648.867855</ele>
        <time>2022-04-27T10:35:08.743Z</time>
      </trkpt>
      <trkpt lat="41.36141" lon="20.60296">
        <ele>648.575927</ele>
        <time>2022-04-27T10:35:12.772Z</time>
      </trkpt>
      <trkpt lat="41.36132" lon="20.60296">
        <ele>648.338138</ele>
        <time>2022-04-27T10:35:15.742Z</time>
      </trkpt>
      <trkpt lat="41.3612" lon="20.60297">
        <ele>648.043272</ele>
        <time>2022-04-27T10:35:19.739Z</time>
      </trkpt>
      <trkpt lat="41.36109" lon="20.60298">
        <ele>647.768558</ele>
        <time>2022-04-27T10:35:22.739Z</time>
      </trkpt>
      <trkpt lat="41.36099" lon="20.60298">
        <ele>647.540568</ele>
        <time>2022-04-27T10:35:25.744Z</time>
      </trkpt>
      <trkpt lat="41.36088" lon="20.60297">
        <ele>647.255911</ele>
        <time>2022-04-27T10:35:29.744Z</time>
      </trkpt>
      <trkpt lat="41.36075" lon="20.60296">
        <ele>646.949035</ele>
        <time>2022-04-27T10:35:32.760Z</time>
      </trkpt>
      <trkpt lat="41.36063" lon="20.60298">
        <ele>646.643808</ele>
        <time>2022-04-27T10:35:34.757Z</time>
      </trkpt>
      <trkpt lat="41.36052" lon="20.60301">
        <ele>646.378022</ele>
        <time>2022-04-27T10:35:36.742Z</time>
      </trkpt>
      <trkpt lat="41.36039" lon="20.60303">
        <ele>646.060741</ele>
        <time>2022-04-27T10:35:39.742Z</time>
      </trkpt>
      <trkpt lat="41.36026" lon="20.60302">
        <ele>645.744459</ele>
        <time>2022-04-27T10:35:42.739Z</time>
      </trkpt>
      <trkpt lat="41.36014" lon="20.60302">
        <ele>645.440459</ele>
        <time>2022-04-27T10:35:45.737Z</time>
      </trkpt>
      <trkpt lat="41.36002" lon="20.60305">
        <ele>645.49158</ele>
        <time>2022-04-27T10:35:48.745Z</time>
      </trkpt>
      <trkpt lat="41.35993" lon="20.60307">
        <ele>645.600321</ele>
        <time>2022-04-27T10:35:50.749Z</time>
      </trkpt>
      <trkpt lat="41.3598" lon="20.60311">
        <ele>645.752164</ele>
        <time>2022-04-27T10:35:53.743Z</time>
      </trkpt>
      <trkpt lat="41.35972" lon="20.60314">
        <ele>645.859492</ele>
        <time>2022-04-27T10:35:55.742Z</time>
      </trkpt>
      <trkpt lat="41.3596" lon="20.60319">
        <ele>646.00848</ele>
        <time>2022-04-27T10:35:58.736Z</time>
      </trkpt>
      <trkpt lat="41.35948" lon="20.60327">
        <ele>646.16424</ele>
        <time>2022-04-27T10:36:01.738Z</time>
      </trkpt>
      <trkpt lat="41.35939" lon="20.60332">
        <ele>646.278715</ele>
        <time>2022-04-27T10:36:03.745Z</time>
      </trkpt>
      <trkpt lat="41.35932" lon="20.60339">
        <ele>646.390796</ele>
        <time>2022-04-27T10:36:05.733Z</time>
      </trkpt>
      <trkpt lat="41.35924" lon="20.60348">
        <ele>646.509312</ele>
        <time>2022-04-27T10:36:07.744Z</time>
      </trkpt>
      <trkpt lat="41.35917" lon="20.60362">
        <ele>646.660982</ele>
        <time>2022-04-27T10:36:10.742Z</time>
      </trkpt>
      <trkpt lat="41.35911" lon="20.60375">
        <ele>646.792197</ele>
        <time>2022-04-27T10:36:13.736Z</time>
      </trkpt>
      <trkpt lat="41.35906" lon="20.60389">
        <ele>646.940727</ele>
        <time>2022-04-27T10:36:16.745Z</time>
      </trkpt>
      <trkpt lat="41.35901" lon="20.60403">
        <ele>647.07408</ele>
        <time>2022-04-27T10:36:19.763Z</time>
      </trkpt>
      <trkpt lat="41.35897" lon="20.60414">
        <ele>647.185276</ele>
        <time>2022-04-27T10:36:22.755Z</time>
      </trkpt>
      <trkpt lat="41.35892" lon="20.60425">
        <ele>647.301845</ele>
        <time>2022-04-27T10:36:25.745Z</time>
      </trkpt>
      <trkpt lat="41.35886" lon="20.60436">
        <ele>647.422319</ele>
        <time>2022-04-27T10:36:28.748Z</time>
      </trkpt>
      <trkpt lat="41.3588" lon="20.60447">
        <ele>647.508974</ele>
        <time>2022-04-27T10:36:31.739Z</time>
      </trkpt>
      <trkpt lat="41.35873" lon="20.60458">
        <ele>647.447622</ele>
        <time>2022-04-27T10:36:35.734Z</time>
      </trkpt>
      <trkpt lat="41.35867" lon="20.60468">
        <ele>647.39362</ele>
        <time>2022-04-27T10:36:38.773Z</time>
      </trkpt>
      <trkpt lat="41.35862" lon="20.60479">
        <ele>647.337302</ele>
        <time>2022-04-27T10:36:41.759Z</time>
      </trkpt>
      <trkpt lat="41.35854" lon="20.60491">
        <ele>647.270784</ele>
        <time>2022-04-27T10:36:44.763Z</time>
      </trkpt>
      <trkpt lat="41.35847" lon="20.60505">
        <ele>647.200338</ele>
        <time>2022-04-27T10:36:47.735Z</time>
      </trkpt>
      <trkpt lat="41.3584" lon="20.60514">
        <ele>647.149178</ele>
        <time>2022-04-27T10:36:49.737Z</time>
      </trkpt>
      <trkpt lat="41.35832" lon="20.60527">
        <ele>647.078674</ele>
        <time>2022-04-27T10:36:52.772Z</time>
      </trkpt>
      <trkpt lat="41.35825" lon="20.6054">
        <ele>647.006224</ele>
        <time>2022-04-27T10:36:55.738Z</time>
      </trkpt>
      <trkpt lat="41.35816" lon="20.60554">
        <ele>646.931386</ele>
        <time>2022-04-27T10:36:58.737Z</time>
      </trkpt>
      <trkpt lat="41.35811" lon="20.60564">
        <ele>646.879151</ele>
        <time>2022-04-27T10:37:00.748Z</time>
      </trkpt>
      <trkpt lat="41.35804" lon="20.60579">
        <ele>646.807702</ele>
        <time>2022-04-27T10:37:03.764Z</time>
      </trkpt>
      <trkpt lat="41.358" lon="20.60593">
        <ele>646.744081</ele>
        <time>2022-04-27T10:37:06.738Z</time>
      </trkpt>
      <trkpt lat="41.35794" lon="20.60607">
        <ele>646.677755</ele>
        <time>2022-04-27T10:37:09.732Z</time>
      </trkpt>
      <trkpt lat="41.35788" lon="20.60619">
        <ele>646.613923</ele>
        <time>2022-04-27T10:37:12.735Z</time>
      </trkpt>
      <trkpt lat="41.35781" lon="20.60631">
        <ele>646.549542</ele>
        <time>2022-04-27T10:37:15.741Z</time>
      </trkpt>
      <trkpt lat="41.35775" lon="20.60643">
        <ele>646.712052</ele>
        <time>2022-04-27T10:37:18.740Z</time>
      </trkpt>
      <trkpt lat="41.35768" lon="20.60654">
        <ele>647.278567</ele>
        <time>2022-04-27T10:37:21.749Z</time>
      </trkpt>
      <trkpt lat="41.35761" lon="20.60664">
        <ele>647.816276</ele>
        <time>2022-04-27T10:37:24.737Z</time>
      </trkpt>
      <trkpt lat="41.35754" lon="20.60675">
        <ele>648.408568</ele>
        <time>2022-04-27T10:37:27.733Z</time>
      </trkpt>
      <trkpt lat="41.35745" lon="20.60688">
        <ele>649.072599</ele>
        <time>2022-04-27T10:37:30.761Z</time>
      </trkpt>
      <trkpt lat="41.35736" lon="20.60699">
        <ele>649.735344</ele>
        <time>2022-04-27T10:37:33.744Z</time>
      </trkpt>
      <trkpt lat="41.35726" lon="20.6071">
        <ele>650.433884</ele>
        <time>2022-04-27T10:37:36.765Z</time>
      </trkpt>
      <trkpt lat="41.35716" lon="20.60721">
        <ele>651.087647</ele>
        <time>2022-04-27T10:37:39.752Z</time>
      </trkpt>
      <trkpt lat="41.35707" lon="20.60731">
        <ele>651.746309</ele>
        <time>2022-04-27T10:37:42.737Z</time>
      </trkpt>
      <trkpt lat="41.35698" lon="20.60741">
        <ele>652.374708</ele>
        <time>2022-04-27T10:37:45.733Z</time>
      </trkpt>
      <trkpt lat="41.35688" lon="20.60751">
        <ele>653.024308</ele>
        <time>2022-04-27T10:37:48.750Z</time>
      </trkpt>
      <trkpt lat="41.35678" lon="20.60761">
        <ele>653.648694</ele>
        <time>2022-04-27T10:37:51.736Z</time>
      </trkpt>
      <trkpt lat="41.35669" lon="20.6077">
        <ele>654.254388</ele>
        <time>2022-04-27T10:37:54.748Z</time>
      </trkpt>
      <trkpt lat="41.35662" lon="20.60779">
        <ele>654.804921</ele>
        <time>2022-04-27T10:37:57.739Z</time>
      </trkpt>
      <trkpt lat="41.35653" lon="20.60788">
        <ele>655.376842</ele>
        <time>2022-04-27T10:38:00.747Z</time>
      </trkpt>
      <trkpt lat="41.35645" lon="20.60796">
        <ele>655.883227</ele>
        <time>2022-04-27T10:38:03.736Z</time>
      </trkpt>
      <trkpt lat="41.35636" lon="20.60806">
        <ele>655.765513</ele>
        <time>2022-04-27T10:38:07.737Z</time>
      </trkpt>
      <trkpt lat="41.3563" lon="20.60814">
        <ele>655.483963</ele>
        <time>2022-04-27T10:38:10.742Z</time>
      </trkpt>
      <trkpt lat="41.3562" lon="20.60824">
        <ele>655.124148</ele>
        <time>2022-04-27T10:38:14.743Z</time>
      </trkpt>
      <trkpt lat="41.35611" lon="20.60833">
        <ele>654.773287</ele>
        <time>2022-04-27T10:38:18.739Z</time>
      </trkpt>
      <trkpt lat="41.35604" lon="20.60841">
        <ele>654.487237</ele>
        <time>2022-04-27T10:38:21.738Z</time>
      </trkpt>
      <trkpt lat="41.35595" lon="20.60849">
        <ele>654.157231</ele>
        <time>2022-04-27T10:38:24.740Z</time>
      </trkpt>
      <trkpt lat="41.35586" lon="20.60858">
        <ele>653.818042</ele>
        <time>2022-04-27T10:38:27.734Z</time>
      </trkpt>
      <trkpt lat="41.35578" lon="20.60867">
        <ele>653.510741</ele>
        <time>2022-04-27T10:38:30.741Z</time>
      </trkpt>
      <trkpt lat="41.3557" lon="20.60875">
        <ele>653.211905</ele>
        <time>2022-04-27T10:38:33.741Z</time>
      </trkpt>
      <trkpt lat="41.35562" lon="20.60883">
        <ele>652.903212</ele>
        <time>2022-04-27T10:38:36.739Z</time>
      </trkpt>
      <trkpt lat="41.35554" lon="20.6089">
        <ele>652.622126</ele>
        <time>2022-04-27T10:38:39.734Z</time>
      </trkpt>
      <trkpt lat="41.35546" lon="20.60901">
        <ele>652.285449</ele>
        <time>2022-04-27T10:38:43.744Z</time>
      </trkpt>
      <trkpt lat="41.35543" lon="20.60912">
        <ele>651.993782</ele>
        <time>2022-04-27T10:38:46.744Z</time>
      </trkpt>
      <trkpt lat="41.35539" lon="20.60924">
        <ele>651.704507</ele>
        <time>2022-04-27T10:38:50.744Z</time>
      </trkpt>
      <trkpt lat="41.35527" lon="20.6093">
        <ele>651.321207</ele>
        <time>2022-04-27T10:40:06.753Z</time>
      </trkpt>
      <trkpt lat="41.35521" lon="20.60949">
        <ele>650.85716</ele>
        <time>2022-04-27T10:40:48.753Z</time>
      </trkpt>
      <trkpt lat="41.35523" lon="20.60937">
        <ele>650.606894</ele>
        <time>2022-04-27T11:04:28.757Z</time>
      </trkpt>
      <trkpt lat="41.35516" lon="20.60954">
        <ele>651.51331</ele>
        <time>2022-04-27T11:07:38.739Z</time>
      </trkpt>
      <trkpt lat="41.35511" lon="20.60969">
        <ele>652.239473</ele>
        <time>2022-04-27T11:07:42.747Z</time>
      </trkpt>
      <trkpt lat="41.35507" lon="20.60982">
        <ele>652.918824</ele>
        <time>2022-04-27T11:07:46.739Z</time>
      </trkpt>
      <trkpt lat="41.35503" lon="20.60997">
        <ele>653.622998</ele>
        <time>2022-04-27T11:07:51.742Z</time>
      </trkpt>
      <trkpt lat="41.35498" lon="20.6101">
        <ele>654.308695</ele>
        <time>2022-04-27T11:07:55.743Z</time>
      </trkpt>
      <trkpt lat="41.35493" lon="20.61024">
        <ele>654.989045</ele>
        <time>2022-04-27T11:07:59.740Z</time>
      </trkpt>
      <trkpt lat="41.35488" lon="20.61034">
        <ele>655.553171</ele>
        <time>2022-04-27T11:08:02.744Z</time>
      </trkpt>
      <trkpt lat="41.35484" lon="20.61048">
        <ele>656.259459</ele>
        <time>2022-04-27T11:08:06.742Z</time>
      </trkpt>
      <trkpt lat="41.3548" lon="20.61059">
        <ele>656.809329</ele>
        <time>2022-04-27T11:08:09.738Z</time>
      </trkpt>
      <trkpt lat="41.35476" lon="20.61072">
        <ele>657.457366</ele>
        <time>2022-04-27T11:08:13.738Z</time>
      </trkpt>
      <trkpt lat="41.35473" lon="20.61084">
        <ele>658.015071</ele>
        <time>2022-04-27T11:08:16.768Z</time>
      </trkpt>
      <trkpt lat="41.3547" lon="20.61096">
        <ele>658.615499</ele>
        <time>2022-04-27T11:08:19.737Z</time>
      </trkpt>
      <trkpt lat="41.35467" lon="20.61108">
        <ele>659.201108</ele>
        <time>2022-04-27T11:08:22.738Z</time>
      </trkpt>
      <trkpt lat="41.35465" lon="20.61121">
        <ele>659.780598</ele>
        <time>2022-04-27T11:08:25.749Z</time>
      </trkpt>
      <trkpt lat="41.35463" lon="20.61135">
        <ele>660.466279</ele>
        <time>2022-04-27T11:08:29.740Z</time>
      </trkpt>
      <trkpt lat="41.3546" lon="20.6115">
        <ele>661.164576</ele>
        <time>2022-04-27T11:08:33.739Z</time>
      </trkpt>
      <trkpt lat="41.3546" lon="20.61163">
        <ele>661.633461</ele>
        <time>2022-04-27T11:08:36.738Z</time>
      </trkpt>
      <trkpt lat="41.35459" lon="20.61177">
        <ele>661.899838</ele>
        <time>2022-04-27T11:08:40.739Z</time>
      </trkpt>
      <trkpt lat="41.35459" lon="20.6119">
        <ele>662.127507</ele>
        <time>2022-04-27T11:08:43.735Z</time>
      </trkpt>
      <trkpt lat="41.35458" lon="20.61203">
        <ele>662.365132</ele>
        <time>2022-04-27T11:08:46.733Z</time>
      </trkpt>
      <trkpt lat="41.35456" lon="20.61216">
        <ele>662.60207</ele>
        <time>2022-04-27T11:08:49.744Z</time>
      </trkpt>
      <trkpt lat="41.35454" lon="20.61229">
        <ele>662.82749</ele>
        <time>2022-04-27T11:08:52.748Z</time>
      </trkpt>
      <trkpt lat="41.35453" lon="20.6124">
        <ele>663.043159</ele>
        <time>2022-04-27T11:08:55.768Z</time>
      </trkpt>
      <trkpt lat="41.35452" lon="20.61253">
        <ele>663.262724</ele>
        <time>2022-04-27T11:08:58.743Z</time>
      </trkpt>
      <trkpt lat="41.3545" lon="20.61266">
        <ele>663.498652</ele>
        <time>2022-04-27T11:09:01.732Z</time>
      </trkpt>
      <trkpt lat="41.35449" lon="20.61281">
        <ele>663.774986</ele>
        <time>2022-04-27T11:09:04.729Z</time>
      </trkpt>
      <trkpt lat="41.35447" lon="20.61297">
        <ele>664.065009</ele>
        <time>2022-04-27T11:09:07.738Z</time>
      </trkpt>
      <trkpt lat="41.35446" lon="20.61312">
        <ele>664.345071</ele>
        <time>2022-04-27T11:09:10.734Z</time>
      </trkpt>
      <trkpt lat="41.35443" lon="20.61327">
        <ele>664.620804</ele>
        <time>2022-04-27T11:09:13.741Z</time>
      </trkpt>
      <trkpt lat="41.35443" lon="20.61343">
        <ele>664.897293</ele>
        <time>2022-04-27T11:09:16.732Z</time>
      </trkpt>
      <trkpt lat="41.35439" lon="20.61357">
        <ele>665.167271</ele>
        <time>2022-04-27T11:09:19.739Z</time>
      </trkpt>
      <trkpt lat="41.35436" lon="20.61372">
        <ele>665.445293</ele>
        <time>2022-04-27T11:09:22.736Z</time>
      </trkpt>
      <trkpt lat="41.35433" lon="20.61388">
        <ele>665.738364</ele>
        <time>2022-04-27T11:09:25.761Z</time>
      </trkpt>
      <trkpt lat="41.35429" lon="20.61403">
        <ele>665.899458</ele>
        <time>2022-04-27T11:09:28.769Z</time>
      </trkpt>
      <trkpt lat="41.35424" lon="20.61417">
        <ele>665.962499</ele>
        <time>2022-04-27T11:09:31.737Z</time>
      </trkpt>
      <trkpt lat="41.3542" lon="20.6143">
        <ele>666.018414</ele>
        <time>2022-04-27T11:09:34.729Z</time>
      </trkpt>
      <trkpt lat="41.35414" lon="20.61443">
        <ele>666.076391</ele>
        <time>2022-04-27T11:09:37.741Z</time>
      </trkpt>
      <trkpt lat="41.35408" lon="20.61455">
        <ele>666.133299</ele>
        <time>2022-04-27T11:09:40.742Z</time>
      </trkpt>
      <trkpt lat="41.35403" lon="20.61466">
        <ele>666.185191</ele>
        <time>2022-04-27T11:09:43.736Z</time>
      </trkpt>
      <trkpt lat="41.35398" lon="20.61477">
        <ele>666.236404</ele>
        <time>2022-04-27T11:09:46.737Z</time>
      </trkpt>
      <trkpt lat="41.35393" lon="20.61487">
        <ele>666.285523</ele>
        <time>2022-04-27T11:09:49.752Z</time>
      </trkpt>
      <trkpt lat="41.35386" lon="20.615">
        <ele>666.3481</ele>
        <time>2022-04-27T11:09:53.738Z</time>
      </trkpt>
      <trkpt lat="41.35381" lon="20.61512">
        <ele>666.405606</ele>
        <time>2022-04-27T11:09:57.742Z</time>
      </trkpt>
      <trkpt lat="41.35376" lon="20.61525">
        <ele>666.463609</ele>
        <time>2022-04-27T11:10:01.741Z</time>
      </trkpt>
      <trkpt lat="41.3537" lon="20.61539">
        <ele>666.528288</ele>
        <time>2022-04-27T11:10:05.735Z</time>
      </trkpt>
      <trkpt lat="41.35366" lon="20.6155">
        <ele>666.576294</ele>
        <time>2022-04-27T11:10:08.732Z</time>
      </trkpt>
      <trkpt lat="41.35362" lon="20.61561">
        <ele>666.627165</ele>
        <time>2022-04-27T11:10:11.743Z</time>
      </trkpt>
      <trkpt lat="41.35357" lon="20.61574">
        <ele>666.683884</ele>
        <time>2022-04-27T11:10:14.739Z</time>
      </trkpt>
      <trkpt lat="41.35355" lon="20.61589">
        <ele>666.742276</ele>
        <time>2022-04-27T11:10:17.754Z</time>
      </trkpt>
      <trkpt lat="41.35352" lon="20.61606">
        <ele>666.814482</ele>
        <time>2022-04-27T11:10:20.737Z</time>
      </trkpt>
      <trkpt lat="41.3535" lon="20.61623">
        <ele>666.025839</ele>
        <time>2022-04-27T11:10:23.745Z</time>
      </trkpt>
      <trkpt lat="41.35344" lon="20.61638">
        <ele>665.192203</ele>
        <time>2022-04-27T11:10:26.736Z</time>
      </trkpt>
      <trkpt lat="41.35339" lon="20.61651">
        <ele>664.4213</ele>
        <time>2022-04-27T11:10:29.739Z</time>
      </trkpt>
      <trkpt lat="41.35335" lon="20.61665">
        <ele>663.654499</ele>
        <time>2022-04-27T11:10:32.748Z</time>
      </trkpt>
      <trkpt lat="41.35332" lon="20.61679">
        <ele>662.932898</ele>
        <time>2022-04-27T11:10:35.735Z</time>
      </trkpt>
      <trkpt lat="41.35328" lon="20.61691">
        <ele>662.279766</ele>
        <time>2022-04-27T11:10:38.740Z</time>
      </trkpt>
      <trkpt lat="41.35324" lon="20.61703">
        <ele>661.586152</ele>
        <time>2022-04-27T11:10:41.742Z</time>
      </trkpt>
      <trkpt lat="41.35318" lon="20.61717">
        <ele>660.758676</ele>
        <time>2022-04-27T11:10:44.740Z</time>
      </trkpt>
      <trkpt lat="41.35311" lon="20.6173">
        <ele>659.957357</ele>
        <time>2022-04-27T11:10:47.734Z</time>
      </trkpt>
      <trkpt lat="41.35305" lon="20.61739">
        <ele>659.319284</ele>
        <time>2022-04-27T11:10:49.736Z</time>
      </trkpt>
      <trkpt lat="41.35299" lon="20.61748">
        <ele>658.694405</ele>
        <time>2022-04-27T11:10:51.741Z</time>
      </trkpt>
      <trkpt lat="41.35292" lon="20.61761">
        <ele>657.883611</ele>
        <time>2022-04-27T11:10:54.738Z</time>
      </trkpt>
      <trkpt lat="41.35287" lon="20.61776">
        <ele>657.08618</ele>
        <time>2022-04-27T11:10:57.755Z</time>
      </trkpt>
      <trkpt lat="41.35286" lon="20.61788">
        <ele>656.462934</ele>
        <time>2022-04-27T11:10:59.745Z</time>
      </trkpt>
      <trkpt lat="41.35284" lon="20.61805">
        <ele>655.597012</ele>
        <time>2022-04-27T11:11:02.738Z</time>
      </trkpt>
      <trkpt lat="41.3528" lon="20.61819">
        <ele>654.827625</ele>
        <time>2022-04-27T11:11:05.740Z</time>
      </trkpt>
      <trkpt lat="41.35278" lon="20.61832">
        <ele>654.408669</ele>
        <time>2022-04-27T11:11:08.741Z</time>
      </trkpt>
      <trkpt lat="41.35275" lon="20.61844">
        <ele>654.145205</ele>
        <time>2022-04-27T11:11:11.745Z</time>
      </trkpt>
      <trkpt lat="41.35272" lon="20.61856">
        <ele>653.867998</ele>
        <time>2022-04-27T11:11:14.737Z</time>
      </trkpt>
      <trkpt lat="41.35269" lon="20.61868">
        <ele>653.59156</ele>
        <time>2022-04-27T11:11:17.749Z</time>
      </trkpt>
      <trkpt lat="41.35264" lon="20.6188">
        <ele>653.309237</ele>
        <time>2022-04-27T11:11:20.733Z</time>
      </trkpt>
      <trkpt lat="41.35258" lon="20.61891">
        <ele>652.99</ele>
        <time>2022-04-27T11:11:23.740Z</time>
      </trkpt>
      <trkpt lat="41.35251" lon="20.61903">
        <ele>652.681084</ele>
        <time>2022-04-27T11:11:26.732Z</time>
      </trkpt>
      <trkpt lat="41.35245" lon="20.61913">
        <ele>652.394766</ele>
        <time>2022-04-27T11:11:29.731Z</time>
      </trkpt>
      <trkpt lat="41.3524" lon="20.61924">
        <ele>652.114594</ele>
        <time>2022-04-27T11:11:32.741Z</time>
      </trkpt>
      <trkpt lat="41.35233" lon="20.61933">
        <ele>651.840619</ele>
        <time>2022-04-27T11:11:35.750Z</time>
      </trkpt>
      <trkpt lat="41.35224" lon="20.61944">
        <ele>651.494833</ele>
        <time>2022-04-27T11:11:38.732Z</time>
      </trkpt>
      <trkpt lat="41.35214" lon="20.61954">
        <ele>651.134775</ele>
        <time>2022-04-27T11:11:41.737Z</time>
      </trkpt>
      <trkpt lat="41.35205" lon="20.61963">
        <ele>650.797406</ele>
        <time>2022-04-27T11:11:44.732Z</time>
      </trkpt>
      <trkpt lat="41.35198" lon="20.61974">
        <ele>650.496568</ele>
        <time>2022-04-27T11:11:47.741Z</time>
      </trkpt>
      <trkpt lat="41.35191" lon="20.61984">
        <ele>650.187859</ele>
        <time>2022-04-27T11:11:50.750Z</time>
      </trkpt>
      <trkpt lat="41.35183" lon="20.61995">
        <ele>649.839377</ele>
        <time>2022-04-27T11:11:53.736Z</time>
      </trkpt>
      <trkpt lat="41.35174" lon="20.62005">
        <ele>649.500687</ele>
        <time>2022-04-27T11:11:56.732Z</time>
      </trkpt>
      <trkpt lat="41.35167" lon="20.62016">
        <ele>649.519122</ele>
        <time>2022-04-27T11:11:59.745Z</time>
      </trkpt>
      <trkpt lat="41.3516" lon="20.62025">
        <ele>649.639846</ele>
        <time>2022-04-27T11:12:02.740Z</time>
      </trkpt>
      <trkpt lat="41.35152" lon="20.62036">
        <ele>649.782865</ele>
        <time>2022-04-27T11:12:06.739Z</time>
      </trkpt>
      <trkpt lat="41.35145" lon="20.62044">
        <ele>649.896655</ele>
        <time>2022-04-27T11:12:09.740Z</time>
      </trkpt>
      <trkpt lat="41.35137" lon="20.62055">
        <ele>650.041361</ele>
        <time>2022-04-27T11:12:12.739Z</time>
      </trkpt>
      <trkpt lat="41.35127" lon="20.62066">
        <ele>650.196956</ele>
        <time>2022-04-27T11:12:15.735Z</time>
      </trkpt>
      <trkpt lat="41.35118" lon="20.62078">
        <ele>650.35351</ele>
        <time>2022-04-27T11:12:18.728Z</time>
      </trkpt>
      <trkpt lat="41.35108" lon="20.62086">
        <ele>650.493711</ele>
        <time>2022-04-27T11:12:21.746Z</time>
      </trkpt>
      <trkpt lat="41.351" lon="20.62094">
        <ele>650.622314</ele>
        <time>2022-04-27T11:12:24.748Z</time>
      </trkpt>
      <trkpt lat="41.35091" lon="20.62101">
        <ele>650.745605</ele>
        <time>2022-04-27T11:12:27.737Z</time>
      </trkpt>
      <trkpt lat="41.35083" lon="20.6211">
        <ele>650.879185</ele>
        <time>2022-04-27T11:12:31.735Z</time>
      </trkpt>
      <trkpt lat="41.35075" lon="20.62118">
        <ele>651.006047</ele>
        <time>2022-04-27T11:12:35.735Z</time>
      </trkpt>
      <trkpt lat="41.35066" lon="20.62127">
        <ele>651.143348</ele>
        <time>2022-04-27T11:12:39.741Z</time>
      </trkpt>
      <trkpt lat="41.35059" lon="20.62135">
        <ele>651.259284</ele>
        <time>2022-04-27T11:12:42.740Z</time>
      </trkpt>
      <trkpt lat="41.35049" lon="20.62145">
        <ele>651.406961</ele>
        <time>2022-04-27T11:12:45.737Z</time>
      </trkpt>
      <trkpt lat="41.3504" lon="20.62155">
        <ele>651.55335</ele>
        <time>2022-04-27T11:12:48.740Z</time>
      </trkpt>
      <trkpt lat="41.35033" lon="20.62164">
        <ele>651.740087</ele>
        <time>2022-04-27T11:12:51.737Z</time>
      </trkpt>
      <trkpt lat="41.35024" lon="20.62173">
        <ele>652.112575</ele>
        <time>2022-04-27T11:12:54.733Z</time>
      </trkpt>
      <trkpt lat="41.35014" lon="20.6218">
        <ele>652.511487</ele>
        <time>2022-04-27T11:12:57.738Z</time>
      </trkpt>
      <trkpt lat="41.35003" lon="20.62186">
        <ele>652.899933</ele>
        <time>2022-04-27T11:13:00.734Z</time>
      </trkpt>
      <trkpt lat="41.34995" lon="20.62192">
        <ele>653.212874</ele>
        <time>2022-04-27T11:13:03.736Z</time>
      </trkpt>
      <trkpt lat="41.34985" lon="20.62198">
        <ele>653.612777</ele>
        <time>2022-04-27T11:13:07.746Z</time>
      </trkpt>
      <trkpt lat="41.34973" lon="20.62201">
        <ele>654.039299</ele>
        <time>2022-04-27T11:13:10.731Z</time>
      </trkpt>
      <trkpt lat="41.34964" lon="20.62204">
        <ele>654.351626</ele>
        <time>2022-04-27T11:13:12.746Z</time>
      </trkpt>
      <trkpt lat="41.34954" lon="20.62211">
        <ele>654.741482</ele>
        <time>2022-04-27T11:13:15.738Z</time>
      </trkpt>
      <trkpt lat="41.34945" lon="20.6222">
        <ele>655.111976</ele>
        <time>2022-04-27T11:13:18.738Z</time>
      </trkpt>
      <trkpt lat="41.34938" lon="20.62231">
        <ele>655.494398</ele>
        <time>2022-04-27T11:13:21.742Z</time>
      </trkpt>
      <trkpt lat="41.34931" lon="20.62243">
        <ele>655.883274</ele>
        <time>2022-04-27T11:13:24.730Z</time>
      </trkpt>
      <trkpt lat="41.34926" lon="20.62258">
        <ele>656.321196</ele>
        <time>2022-04-27T11:13:27.747Z</time>
      </trkpt>
      <trkpt lat="41.3492" lon="20.62273">
        <ele>656.751808</ele>
        <time>2022-04-27T11:13:30.737Z</time>
      </trkpt>
      <trkpt lat="41.34916" lon="20.62287">
        <ele>657.152843</ele>
        <time>2022-04-27T11:13:33.738Z</time>
      </trkpt>
      <trkpt lat="41.34911" lon="20.62302">
        <ele>657.557985</ele>
        <time>2022-04-27T11:13:36.733Z</time>
      </trkpt>
      <trkpt lat="41.34907" lon="20.62315">
        <ele>658.115092</ele>
        <time>2022-04-27T11:13:39.736Z</time>
      </trkpt>
      <trkpt lat="41.34902" lon="20.62329">
        <ele>659.18076</ele>
        <time>2022-04-27T11:13:42.732Z</time>
      </trkpt>
      <trkpt lat="41.34896" lon="20.62342">
        <ele>660.146235</ele>
        <time>2022-04-27T11:13:45.737Z</time>
      </trkpt>
      <trkpt lat="41.34889" lon="20.62353">
        <ele>661.140527</ele>
        <time>2022-04-27T11:13:48.761Z</time>
      </trkpt>
      <trkpt lat="41.34882" lon="20.62362">
        <ele>662.050281</ele>
        <time>2022-04-27T11:13:51.746Z</time>
      </trkpt>
      <trkpt lat="41.34872" lon="20.6237">
        <ele>663.118716</ele>
        <time>2022-04-27T11:13:55.735Z</time>
      </trkpt>
      <trkpt lat="41.34862" lon="20.62377">
        <ele>664.198928</ele>
        <time>2022-04-27T11:13:59.771Z</time>
      </trkpt>
      <trkpt lat="41.34852" lon="20.62381">
        <ele>665.148194</ele>
        <time>2022-04-27T11:14:02.734Z</time>
      </trkpt>
      <trkpt lat="41.34842" lon="20.62386">
        <ele>666.075516</ele>
        <time>2022-04-27T11:14:05.737Z</time>
      </trkpt>
      <trkpt lat="41.34834" lon="20.62391">
        <ele>666.918658</ele>
        <time>2022-04-27T11:14:08.735Z</time>
      </trkpt>
      <trkpt lat="41.34824" lon="20.62395">
        <ele>667.821378</ele>
        <time>2022-04-27T11:14:11.738Z</time>
      </trkpt>
      <trkpt lat="41.34816" lon="20.624">
        <ele>668.675428</ele>
        <time>2022-04-27T11:14:14.732Z</time>
      </trkpt>
      <trkpt lat="41.34805" lon="20.62405">
        <ele>669.716605</ele>
        <time>2022-04-27T11:14:18.739Z</time>
      </trkpt>
      <trkpt lat="41.34797" lon="20.62411">
        <ele>670.545503</ele>
        <time>2022-04-27T11:14:21.774Z</time>
      </trkpt>
      <trkpt lat="41.34788" lon="20.62417">
        <ele>671.442537</ele>
        <time>2022-04-27T11:14:24.734Z</time>
      </trkpt>
      <trkpt lat="41.34778" lon="20.62423">
        <ele>672.501385</ele>
        <time>2022-04-27T11:14:28.737Z</time>
      </trkpt>
      <trkpt lat="41.34769" lon="20.62427">
        <ele>673.333796</ele>
        <time>2022-04-27T11:14:31.735Z</time>
      </trkpt>
      <trkpt lat="41.34761" lon="20.62432">
        <ele>674.15779</ele>
        <time>2022-04-27T11:14:34.732Z</time>
      </trkpt>
      <trkpt lat="41.3475" lon="20.62438">
        <ele>675.336385</ele>
        <time>2022-04-27T11:14:38.737Z</time>
      </trkpt>
      <trkpt lat="41.34741" lon="20.62441">
        <ele>676.330553</ele>
        <time>2022-04-27T11:14:42.730Z</time>
      </trkpt>
      <trkpt lat="41.34732" lon="20.62447">
        <ele>677.40495</ele>
        <time>2022-04-27T11:14:46.744Z</time>
      </trkpt>
      <trkpt lat="41.34723" lon="20.62453">
        <ele>678.46975</ele>
        <time>2022-04-27T11:14:50.749Z</time>
      </trkpt>
      <trkpt lat="41.34715" lon="20.62457">
        <ele>679.449913</ele>
        <time>2022-04-27T11:14:53.740Z</time>
      </trkpt>
      <trkpt lat="41.34705" lon="20.62463">
        <ele>680.598559</ele>
        <time>2022-04-27T11:14:56.742Z</time>
      </trkpt>
      <trkpt lat="41.34696" lon="20.62469">
        <ele>681.676433</ele>
        <time>2022-04-27T11:14:59.735Z</time>
      </trkpt>
      <trkpt lat="41.34686" lon="20.62474">
        <ele>682.826796</ele>
        <time>2022-04-27T11:15:02.745Z</time>
      </trkpt>
      <trkpt lat="41.34676" lon="20.6248">
        <ele>683.989203</ele>
        <time>2022-04-27T11:15:05.742Z</time>
      </trkpt>
      <trkpt lat="41.34668" lon="20.62486">
        <ele>684.964851</ele>
        <time>2022-04-27T11:15:08.738Z</time>
      </trkpt>
      <trkpt lat="41.34659" lon="20.62493">
        <ele>686.073964</ele>
        <time>2022-04-27T11:15:12.733Z</time>
      </trkpt>
      <trkpt lat="41.3465" lon="20.62498">
        <ele>687.144937</ele>
        <time>2022-04-27T11:15:16.741Z</time>
      </trkpt>
      <trkpt lat="41.34641" lon="20.62504">
        <ele>688.151359</ele>
        <time>2022-04-27T11:15:21.747Z</time>
      </trkpt>
      <trkpt lat="41.34634" lon="20.62511">
        <ele>689.117985</ele>
        <time>2022-04-27T11:15:26.729Z</time>
      </trkpt>
      <trkpt lat="41.34624" lon="20.62517">
        <ele>690.227099</ele>
        <time>2022-04-27T11:15:33.744Z</time>
      </trkpt>
      <trkpt lat="41.34615" lon="20.62522">
        <ele>691.271903</ele>
        <time>2022-04-27T11:15:39.758Z</time>
      </trkpt>
      <trkpt lat="41.34607" lon="20.62529">
        <ele>692.313898</ele>
        <time>2022-04-27T11:15:47.750Z</time>
      </trkpt>
      <trkpt lat="41.34599" lon="20.62538">
        <ele>693.373888</ele>
        <time>2022-04-27T11:15:54.745Z</time>
      </trkpt>
      <trkpt lat="41.34592" lon="20.62544">
        <ele>693.587188</ele>
        <time>2022-04-27T11:16:00.740Z</time>
      </trkpt>
      <trkpt lat="41.34585" lon="20.62553">
        <ele>693.769475</ele>
        <time>2022-04-27T11:16:08.772Z</time>
      </trkpt>
      <trkpt lat="41.3458" lon="20.62564">
        <ele>693.938689</ele>
        <time>2022-04-27T11:16:15.746Z</time>
      </trkpt>
      <trkpt lat="41.34574" lon="20.62573">
        <ele>694.117632</ele>
        <time>2022-04-27T11:16:21.735Z</time>
      </trkpt>
      <trkpt lat="41.34567" lon="20.62581">
        <ele>694.285015</ele>
        <time>2022-04-27T11:16:28.736Z</time>
      </trkpt>
      <trkpt lat="41.34558" lon="20.62589">
        <ele>694.474725</ele>
        <time>2022-04-27T11:16:35.740Z</time>
      </trkpt>
      <trkpt lat="41.34552" lon="20.626">
        <ele>694.665122</ele>
        <time>2022-04-27T11:16:44.728Z</time>
      </trkpt>
      <trkpt lat="41.34547" lon="20.6261">
        <ele>694.831316</ele>
        <time>2022-04-27T11:16:49.737Z</time>
      </trkpt>
      <trkpt lat="41.3454" lon="20.6262">
        <ele>695.023714</ele>
        <time>2022-04-27T11:16:54.735Z</time>
      </trkpt>
      <trkpt lat="41.34531" lon="20.62626">
        <ele>695.206958</ele>
        <time>2022-04-27T11:16:59.748Z</time>
      </trkpt>
      <trkpt lat="41.34521" lon="20.62634">
        <ele>695.410772</ele>
        <time>2022-04-27T11:17:05.740Z</time>
      </trkpt>
      <trkpt lat="41.34513" lon="20.62641">
        <ele>695.606443</ele>
        <time>2022-04-27T11:17:11.736Z</time>
      </trkpt>
      <trkpt lat="41.34505" lon="20.62649">
        <ele>695.778991</ele>
        <time>2022-04-27T11:17:17.736Z</time>
      </trkpt>
      <trkpt lat="41.345" lon="20.62659">
        <ele>695.950625</ele>
        <time>2022-04-27T11:17:24.768Z</time>
      </trkpt>
      <trkpt lat="41.34493" lon="20.62668">
        <ele>696.124468</ele>
        <time>2022-04-27T11:17:30.733Z</time>
      </trkpt>
      <trkpt lat="41.34485" lon="20.62675">
        <ele>696.307157</ele>
        <time>2022-04-27T11:17:34.735Z</time>
      </trkpt>
      <trkpt lat="41.34477" lon="20.62685">
        <ele>696.504854</ele>
        <time>2022-04-27T11:17:38.748Z</time>
      </trkpt>
      <trkpt lat="41.34469" lon="20.62691">
        <ele>696.671623</ele>
        <time>2022-04-27T11:17:43.745Z</time>
      </trkpt>
      <trkpt lat="41.3446" lon="20.62697">
        <ele>696.685226</ele>
        <time>2022-04-27T11:17:49.745Z</time>
      </trkpt>
      <trkpt lat="41.34451" lon="20.62704">
        <ele>696.584468</ele>
        <time>2022-04-27T11:17:55.744Z</time>
      </trkpt>
      <trkpt lat="41.34442" lon="20.62711">
        <ele>696.486043</ele>
        <time>2022-04-27T11:18:02.731Z</time>
      </trkpt>
      <trkpt lat="41.34433" lon="20.62716">
        <ele>696.392938</ele>
        <time>2022-04-27T11:18:08.735Z</time>
      </trkpt>
      <trkpt lat="41.34424" lon="20.62723">
        <ele>696.289801</ele>
        <time>2022-04-27T11:18:14.736Z</time>
      </trkpt>
      <trkpt lat="41.34414" lon="20.62728">
        <ele>696.193384</ele>
        <time>2022-04-27T11:18:20.736Z</time>
      </trkpt>
      <trkpt lat="41.34405" lon="20.62732">
        <ele>696.097197</ele>
        <time>2022-04-27T11:18:25.740Z</time>
      </trkpt>
      <trkpt lat="41.34396" lon="20.62736">
        <ele>696.005558</ele>
        <time>2022-04-27T11:18:31.736Z</time>
      </trkpt>
      <trkpt lat="41.34386" lon="20.62737">
        <ele>695.910031</ele>
        <time>2022-04-27T11:18:36.741Z</time>
      </trkpt>
      <trkpt lat="41.34377" lon="20.62736">
        <ele>695.819414</ele>
        <time>2022-04-27T11:18:41.741Z</time>
      </trkpt>
      <trkpt lat="41.34367" lon="20.62736">
        <ele>695.728121</ele>
        <time>2022-04-27T11:18:46.736Z</time>
      </trkpt>
      <trkpt lat="41.34357" lon="20.62738">
        <ele>695.628098</ele>
        <time>2022-04-27T11:18:52.734Z</time>
      </trkpt>
      <trkpt lat="41.34346" lon="20.62737">
        <ele>695.523955</ele>
        <time>2022-04-27T11:18:58.735Z</time>
      </trkpt>
      <trkpt lat="41.34337" lon="20.62735">
        <ele>695.435892</ele>
        <time>2022-04-27T11:19:03.746Z</time>
      </trkpt>
      <trkpt lat="41.34327" lon="20.62731">
        <ele>695.338527</ele>
        <time>2022-04-27T11:19:09.748Z</time>
      </trkpt>
      <trkpt lat="41.34318" lon="20.62726">
        <ele>695.243196</ele>
        <time>2022-04-27T11:19:15.743Z</time>
      </trkpt>
      <trkpt lat="41.34308" lon="20.62722">
        <ele>695.144492</ele>
        <time>2022-04-27T11:19:21.739Z</time>
      </trkpt>
      <trkpt lat="41.34299" lon="20.62718">
        <ele>695.049219</ele>
        <time>2022-04-27T11:19:27.737Z</time>
      </trkpt>
      <trkpt lat="41.3429" lon="20.62714">
        <ele>694.811909</ele>
        <time>2022-04-27T11:19:33.762Z</time>
      </trkpt>
      <trkpt lat="41.3428" lon="20.62712">
        <ele>694.445055</ele>
        <time>2022-04-27T11:19:41.736Z</time>
      </trkpt>
      <trkpt lat="41.34271" lon="20.62709">
        <ele>694.119159</ele>
        <time>2022-04-27T11:19:47.734Z</time>
      </trkpt>
      <trkpt lat="41.34261" lon="20.62706">
        <ele>693.742048</ele>
        <time>2022-04-27T11:19:54.737Z</time>
      </trkpt>
      <trkpt lat="41.34252" lon="20.62702">
        <ele>693.417434</ele>
        <time>2022-04-27T11:20:00.740Z</time>
      </trkpt>
      <trkpt lat="41.34243" lon="20.62697">
        <ele>693.054206</ele>
        <time>2022-04-27T11:20:07.742Z</time>
      </trkpt>
      <trkpt lat="41.34234" lon="20.62693">
        <ele>692.706011</ele>
        <time>2022-04-27T11:20:13.760Z</time>
      </trkpt>
      <trkpt lat="41.34225" lon="20.62689">
        <ele>692.370565</ele>
        <time>2022-04-27T11:20:19.734Z</time>
      </trkpt>
      <trkpt lat="41.34215" lon="20.62687">
        <ele>692.022255</ele>
        <time>2022-04-27T11:20:25.740Z</time>
      </trkpt>
      <trkpt lat="41.34206" lon="20.62685">
        <ele>691.682249</ele>
        <time>2022-04-27T11:20:31.737Z</time>
      </trkpt>
      <trkpt lat="41.34196" lon="20.62681">
        <ele>691.329754</ele>
        <time>2022-04-27T11:20:39.732Z</time>
      </trkpt>
      <trkpt lat="41.34187" lon="20.62679">
        <ele>690.994023</ele>
        <time>2022-04-27T11:20:46.731Z</time>
      </trkpt>
      <trkpt lat="41.34178" lon="20.62678">
        <ele>690.663063</ele>
        <time>2022-04-27T11:20:52.754Z</time>
      </trkpt>
      <trkpt lat="41.34169" lon="20.62673">
        <ele>690.295477</ele>
        <time>2022-04-27T11:20:59.736Z</time>
      </trkpt>
      <trkpt lat="41.34159" lon="20.62667">
        <ele>689.923436</ele>
        <time>2022-04-27T11:21:05.734Z</time>
      </trkpt>
      <trkpt lat="41.3415" lon="20.62663">
        <ele>689.576102</ele>
        <time>2022-04-27T11:21:11.734Z</time>
      </trkpt>
      <trkpt lat="41.3414" lon="20.6266">
        <ele>689.221314</ele>
        <time>2022-04-27T11:21:17.735Z</time>
      </trkpt>
      <trkpt lat="41.34131" lon="20.62658">
        <ele>688.900455</ele>
        <time>2022-04-27T11:21:22.733Z</time>
      </trkpt>
      <trkpt lat="41.34121" lon="20.62656">
        <ele>688.595537</ele>
        <time>2022-04-27T11:21:28.739Z</time>
      </trkpt>
      <trkpt lat="41.34111" lon="20.62654">
        <ele>688.715048</ele>
        <time>2022-04-27T11:21:33.738Z</time>
      </trkpt>
      <trkpt lat="41.34102" lon="20.62653">
        <ele>688.830423</ele>
        <time>2022-04-27T11:21:38.730Z</time>
      </trkpt>
      <trkpt lat="41.34093" lon="20.62654">
        <ele>688.94195</ele>
        <time>2022-04-27T11:21:43.776Z</time>
      </trkpt>
      <trkpt lat="41.34083" lon="20.62654">
        <ele>689.068128</ele>
        <time>2022-04-27T11:21:49.742Z</time>
      </trkpt>
      <trkpt lat="41.34074" lon="20.62658">
        <ele>689.180647</ele>
        <time>2022-04-27T11:21:55.746Z</time>
      </trkpt>
      <trkpt lat="41.34064" lon="20.62659">
        <ele>689.30226</ele>
        <time>2022-04-27T11:22:02.732Z</time>
      </trkpt>
      <trkpt lat="41.34055" lon="20.62664">
        <ele>689.426077</ele>
        <time>2022-04-27T11:22:08.730Z</time>
      </trkpt>
      <trkpt lat="41.34046" lon="20.62671">
        <ele>689.552368</ele>
        <time>2022-04-27T11:22:14.734Z</time>
      </trkpt>
      <trkpt lat="41.34036" lon="20.62676">
        <ele>689.681114</ele>
        <time>2022-04-27T11:22:20.729Z</time>
      </trkpt>
      <trkpt lat="41.34027" lon="20.6268">
        <ele>689.796882</ele>
        <time>2022-04-27T11:22:26.731Z</time>
      </trkpt>
      <trkpt lat="41.34017" lon="20.6268">
        <ele>689.912056</ele>
        <time>2022-04-27T11:22:33.769Z</time>
      </trkpt>
      <trkpt lat="41.34009" lon="20.62687">
        <ele>690.030863</ele>
        <time>2022-04-27T11:22:39.743Z</time>
      </trkpt>
      <trkpt lat="41.34001" lon="20.62693">
        <ele>690.146338</ele>
        <time>2022-04-27T11:22:46.741Z</time>
      </trkpt>
      <trkpt lat="41.33992" lon="20.62699">
        <ele>690.265686</ele>
        <time>2022-04-27T11:22:52.738Z</time>
      </trkpt>
      <trkpt lat="41.33983" lon="20.62705">
        <ele>690.388154</ele>
        <time>2022-04-27T11:22:58.732Z</time>
      </trkpt>
      <trkpt lat="41.33974" lon="20.62712">
        <ele>690.516752</ele>
        <time>2022-04-27T11:23:05.732Z</time>
      </trkpt>
      <trkpt lat="41.33966" lon="20.62718">
        <ele>690.634588</ele>
        <time>2022-04-27T11:23:12.755Z</time>
      </trkpt>
      <trkpt lat="41.33957" lon="20.62723">
        <ele>690.756909</ele>
        <time>2022-04-27T11:23:19.739Z</time>
      </trkpt>
      <trkpt lat="41.33947" lon="20.62727">
        <ele>691.412996</ele>
        <time>2022-04-27T11:23:26.734Z</time>
      </trkpt>
      <trkpt lat="41.33938" lon="20.62732">
        <ele>692.154447</ele>
        <time>2022-04-27T11:23:32.739Z</time>
      </trkpt>
      <trkpt lat="41.33929" lon="20.62738">
        <ele>692.986168</ele>
        <time>2022-04-27T11:23:38.737Z</time>
      </trkpt>
      <trkpt lat="41.3392" lon="20.62745">
        <ele>693.802885</ele>
        <time>2022-04-27T11:23:43.732Z</time>
      </trkpt>
      <trkpt lat="41.3391" lon="20.62751">
        <ele>694.635235</ele>
        <time>2022-04-27T11:23:49.738Z</time>
      </trkpt>
      <trkpt lat="41.33901" lon="20.62757">
        <ele>695.464472</ele>
        <time>2022-04-27T11:23:55.734Z</time>
      </trkpt>
      <trkpt lat="41.33892" lon="20.62764">
        <ele>696.232403</ele>
        <time>2022-04-27T11:24:01.738Z</time>
      </trkpt>
      <trkpt lat="41.33884" lon="20.6277">
        <ele>696.999387</ele>
        <time>2022-04-27T11:24:08.770Z</time>
      </trkpt>
      <trkpt lat="41.33875" lon="20.62778">
        <ele>697.813433</ele>
        <time>2022-04-27T11:24:15.737Z</time>
      </trkpt>
      <trkpt lat="41.33868" lon="20.62786">
        <ele>698.54284</ele>
        <time>2022-04-27T11:24:21.733Z</time>
      </trkpt>
      <trkpt lat="41.33861" lon="20.62795">
        <ele>699.288058</ele>
        <time>2022-04-27T11:24:27.739Z</time>
      </trkpt>
      <trkpt lat="41.33856" lon="20.62805">
        <ele>700.01368</ele>
        <time>2022-04-27T11:24:33.738Z</time>
      </trkpt>
      <trkpt lat="41.33852" lon="20.62816">
        <ele>700.779357</ele>
        <time>2022-04-27T11:24:39.737Z</time>
      </trkpt>
      <trkpt lat="41.33848" lon="20.62828">
        <ele>701.512664</ele>
        <time>2022-04-27T11:24:45.739Z</time>
      </trkpt>
      <trkpt lat="41.33846" lon="20.6284">
        <ele>702.256397</ele>
        <time>2022-04-27T11:24:51.739Z</time>
      </trkpt>
      <trkpt lat="41.33845" lon="20.62852">
        <ele>702.982793</ele>
        <time>2022-04-27T11:24:57.740Z</time>
      </trkpt>
      <trkpt lat="41.33844" lon="20.62866">
        <ele>703.761538</ele>
        <time>2022-04-27T11:25:05.732Z</time>
      </trkpt>
      <trkpt lat="41.33845" lon="20.62878">
        <ele>704.487939</ele>
        <time>2022-04-27T11:25:13.738Z</time>
      </trkpt>
      <trkpt lat="41.33847" lon="20.6289">
        <ele>705.202021</ele>
        <time>2022-04-27T11:25:20.730Z</time>
      </trkpt>
      <trkpt lat="41.33848" lon="20.62903">
        <ele>706.005597</ele>
        <time>2022-04-27T11:25:27.744Z</time>
      </trkpt>
      <trkpt lat="41.33851" lon="20.62916">
        <ele>706.776824</ele>
        <time>2022-04-27T11:25:34.729Z</time>
      </trkpt>
      <trkpt lat="41.33852" lon="20.62929">
        <ele>707.582508</ele>
        <time>2022-04-27T11:25:42.730Z</time>
      </trkpt>
      <trkpt lat="41.33854" lon="20.62942">
        <ele>708.324946</ele>
        <time>2022-04-27T11:25:48.732Z</time>
      </trkpt>
      <trkpt lat="41.33857" lon="20.62954">
        <ele>709.06928</ele>
        <time>2022-04-27T11:25:54.746Z</time>
      </trkpt>
      <trkpt lat="41.33858" lon="20.62966">
        <ele>709.775981</ele>
        <time>2022-04-27T11:25:59.736Z</time>
      </trkpt>
      <trkpt lat="41.3386" lon="20.62979">
        <ele>710.562969</ele>
        <time>2022-04-27T11:26:04.738Z</time>
      </trkpt>
      <trkpt lat="41.33859" lon="20.62991">
        <ele>711.275843</ele>
        <time>2022-04-27T11:26:09.736Z</time>
      </trkpt>
      <trkpt lat="41.33859" lon="20.63004">
        <ele>712.037094</ele>
        <time>2022-04-27T11:26:15.736Z</time>
      </trkpt>
      <trkpt lat="41.33856" lon="20.63017">
        <ele>712.856761</ele>
        <time>2022-04-27T11:26:22.743Z</time>
      </trkpt>
      <trkpt lat="41.33852" lon="20.63029">
        <ele>713.581674</ele>
        <time>2022-04-27T11:26:28.733Z</time>
      </trkpt>
      <trkpt lat="41.33848" lon="20.63041">
        <ele>714.361573</ele>
        <time>2022-04-27T11:26:35.747Z</time>
      </trkpt>
      <trkpt lat="41.33843" lon="20.63052">
        <ele>715.138947</ele>
        <time>2022-04-27T11:26:42.747Z</time>
      </trkpt>
      <trkpt lat="41.33835" lon="20.63061">
        <ele>715.934328</ele>
        <time>2022-04-27T11:26:51.763Z</time>
      </trkpt>
      <trkpt lat="41.33828" lon="20.63069">
        <ele>716.696534</ele>
        <time>2022-04-27T11:26:57.754Z</time>
      </trkpt>
      <trkpt lat="41.33819" lon="20.63075">
        <ele>717.436848</ele>
        <time>2022-04-27T11:27:03.741Z</time>
      </trkpt>
      <trkpt lat="41.3381" lon="20.63082">
        <ele>718.244131</ele>
        <time>2022-04-27T11:27:10.741Z</time>
      </trkpt>
      <trkpt lat="41.33802" lon="20.63089">
        <ele>719.031393</ele>
        <time>2022-04-27T11:27:15.741Z</time>
      </trkpt>
      <trkpt lat="41.33793" lon="20.63098">
        <ele>719.720322</ele>
        <time>2022-04-27T11:27:22.737Z</time>
      </trkpt>
      <trkpt lat="41.33787" lon="20.63108">
        <ele>720.385138</ele>
        <time>2022-04-27T11:27:29.732Z</time>
      </trkpt>
      <trkpt lat="41.33779" lon="20.63116">
        <ele>721.014185</ele>
        <time>2022-04-27T11:27:35.732Z</time>
      </trkpt>
      <trkpt lat="41.33772" lon="20.63124">
        <ele>721.634952</ele>
        <time>2022-04-27T11:27:41.739Z</time>
      </trkpt>
      <trkpt lat="41.33765" lon="20.63133">
        <ele>722.247619</ele>
        <time>2022-04-27T11:27:47.737Z</time>
      </trkpt>
      <trkpt lat="41.33756" lon="20.63142">
        <ele>722.955036</ele>
        <time>2022-04-27T11:27:53.755Z</time>
      </trkpt>
      <trkpt lat="41.33749" lon="20.63149">
        <ele>723.562659</ele>
        <time>2022-04-27T11:27:58.736Z</time>
      </trkpt>
      <trkpt lat="41.3374" lon="20.63156">
        <ele>724.215494</ele>
        <time>2022-04-27T11:28:03.732Z</time>
      </trkpt>
      <trkpt lat="41.33731" lon="20.63161">
        <ele>724.893593</ele>
        <time>2022-04-27T11:28:09.738Z</time>
      </trkpt>
      <trkpt lat="41.33721" lon="20.63166">
        <ele>725.569916</ele>
        <time>2022-04-27T11:28:15.736Z</time>
      </trkpt>
      <trkpt lat="41.33712" lon="20.63172">
        <ele>726.20579</ele>
        <time>2022-04-27T11:28:21.774Z</time>
      </trkpt>
      <trkpt lat="41.33704" lon="20.6318">
        <ele>726.828239</ele>
        <time>2022-04-27T11:28:28.739Z</time>
      </trkpt>
      <trkpt lat="41.33699" lon="20.63191">
        <ele>727.469884</ele>
        <time>2022-04-27T11:28:35.745Z</time>
      </trkpt>
      <trkpt lat="41.33691" lon="20.632">
        <ele>728.152384</ele>
        <time>2022-04-27T11:28:42.738Z</time>
      </trkpt>
      <trkpt lat="41.33684" lon="20.6321">
        <ele>728.819461</ele>
        <time>2022-04-27T11:28:49.744Z</time>
      </trkpt>
      <trkpt lat="41.33678" lon="20.6322">
        <ele>729.452621</ele>
        <time>2022-04-27T11:28:56.730Z</time>
      </trkpt>
      <trkpt lat="41.33673" lon="20.6323">
        <ele>730.036909</ele>
        <time>2022-04-27T11:29:02.739Z</time>
      </trkpt>
      <trkpt lat="41.33668" lon="20.63241">
        <ele>730.671871</ele>
        <time>2022-04-27T11:29:09.754Z</time>
      </trkpt>
      <trkpt lat="41.33665" lon="20.63254">
        <ele>730.856544</ele>
        <time>2022-04-27T11:29:16.737Z</time>
      </trkpt>
      <trkpt lat="41.33663" lon="20.63265">
        <ele>731.015257</ele>
        <time>2022-04-27T11:29:22.737Z</time>
      </trkpt>
      <trkpt lat="41.33659" lon="20.63277">
        <ele>731.175222</ele>
        <time>2022-04-27T11:29:28.761Z</time>
      </trkpt>
      <trkpt lat="41.33656" lon="20.63288">
        <ele>731.338338</ele>
        <time>2022-04-27T11:29:34.733Z</time>
      </trkpt>
      <trkpt lat="41.33654" lon="20.633">
        <ele>731.496048</ele>
        <time>2022-04-27T11:29:40.744Z</time>
      </trkpt>
      <trkpt lat="41.33649" lon="20.63311">
        <ele>731.671127</ele>
        <time>2022-04-27T11:29:47.742Z</time>
      </trkpt>
      <trkpt lat="41.33645" lon="20.63324">
        <ele>731.850853</ele>
        <time>2022-04-27T11:29:54.740Z</time>
      </trkpt>
      <trkpt lat="41.33642" lon="20.63336">
        <ele>732.017395</ele>
        <time>2022-04-27T11:30:01.737Z</time>
      </trkpt>
      <trkpt lat="41.3364" lon="20.63349">
        <ele>732.188967</ele>
        <time>2022-04-27T11:30:08.732Z</time>
      </trkpt>
      <trkpt lat="41.33638" lon="20.63361">
        <ele>732.356637</ele>
        <time>2022-04-27T11:30:14.744Z</time>
      </trkpt>
      <trkpt lat="41.33634" lon="20.63373">
        <ele>732.527788</ele>
        <time>2022-04-27T11:30:20.744Z</time>
      </trkpt>
      <trkpt lat="41.3363" lon="20.63386">
        <ele>732.716934</ele>
        <time>2022-04-27T11:30:26.733Z</time>
      </trkpt>
      <trkpt lat="41.33627" lon="20.63399">
        <ele>732.888285</ele>
        <time>2022-04-27T11:30:32.731Z</time>
      </trkpt>
      <trkpt lat="41.33622" lon="20.63409">
        <ele>733.049858</ele>
        <time>2022-04-27T11:30:36.732Z</time>
      </trkpt>
      <trkpt lat="41.33617" lon="20.63419">
        <ele>733.208369</ele>
        <time>2022-04-27T11:30:40.728Z</time>
      </trkpt>
      <trkpt lat="41.33611" lon="20.63428">
        <ele>733.37147</ele>
        <time>2022-04-27T11:30:44.740Z</time>
      </trkpt>
      <trkpt lat="41.33602" lon="20.63437">
        <ele>733.558709</ele>
        <time>2022-04-27T11:30:48.738Z</time>
      </trkpt>
      <trkpt lat="41.33593" lon="20.63445">
        <ele>733.754121</ele>
        <time>2022-04-27T11:30:52.748Z</time>
      </trkpt>
      <trkpt lat="41.33582" lon="20.63453">
        <ele>733.979895</ele>
        <time>2022-04-27T11:30:56.755Z</time>
      </trkpt>
      <trkpt lat="41.33575" lon="20.63459">
        <ele>734.152347</ele>
        <time>2022-04-27T11:30:59.756Z</time>
      </trkpt>
      <trkpt lat="41.33564" lon="20.63465">
        <ele>734.376953</ele>
        <time>2022-04-27T11:31:03.755Z</time>
      </trkpt>
      <trkpt lat="41.33553" lon="20.63472">
        <ele>734.604691</ele>
        <time>2022-04-27T11:31:07.759Z</time>
      </trkpt>
      <trkpt lat="41.33545" lon="20.63477">
        <ele>734.782022</ele>
        <time>2022-04-27T11:31:10.746Z</time>
      </trkpt>
      <trkpt lat="41.33536" lon="20.63482">
        <ele>734.972112</ele>
        <time>2022-04-27T11:31:13.730Z</time>
      </trkpt>
      <trkpt lat="41.33526" lon="20.6349">
        <ele>735.195005</ele>
        <time>2022-04-27T11:31:17.733Z</time>
      </trkpt>
      <trkpt lat="41.33516" lon="20.63495">
        <ele>735.393198</ele>
        <time>2022-04-27T11:31:20.740Z</time>
      </trkpt>
      <trkpt lat="41.33507" lon="20.63499">
        <ele>735.589527</ele>
        <time>2022-04-27T11:31:23.734Z</time>
      </trkpt>
      <trkpt lat="41.33497" lon="20.63504">
        <ele>735.795943</ele>
        <time>2022-04-27T11:31:26.732Z</time>
      </trkpt>
      <trkpt lat="41.33487" lon="20.63509">
        <ele>735.99152</ele>
        <time>2022-04-27T11:31:29.757Z</time>
      </trkpt>
      <trkpt lat="41.33478" lon="20.63514">
        <ele>736.184463</ele>
        <time>2022-04-27T11:31:32.735Z</time>
      </trkpt>
      <trkpt lat="41.33469" lon="20.63519">
        <ele>736.369288</ele>
        <time>2022-04-27T11:31:35.736Z</time>
      </trkpt>
      <trkpt lat="41.3346" lon="20.63523">
        <ele>736.550558</ele>
        <time>2022-04-27T11:31:38.733Z</time>
      </trkpt>
      <trkpt lat="41.3345" lon="20.63528">
        <ele>736.763385</ele>
        <time>2022-04-27T11:31:41.732Z</time>
      </trkpt>
      <trkpt lat="41.3344" lon="20.63532">
        <ele>736.950212</ele>
        <time>2022-04-27T11:31:44.742Z</time>
      </trkpt>
      <trkpt lat="41.33428" lon="20.63535">
        <ele>737.185103</ele>
        <time>2022-04-27T11:31:48.740Z</time>
      </trkpt>
      <trkpt lat="41.33418" lon="20.63539">
        <ele>737.47196</ele>
        <time>2022-04-27T11:31:52.732Z</time>
      </trkpt>
      <trkpt lat="41.33407" lon="20.63543">
        <ele>737.814472</ele>
        <time>2022-04-27T11:31:56.731Z</time>
      </trkpt>
      <trkpt lat="41.33396" lon="20.63545">
        <ele>738.20053</ele>
        <time>2022-04-27T11:32:00.733Z</time>
      </trkpt>
      <trkpt lat="41.33387" lon="20.63546">
        <ele>738.497144</ele>
        <time>2022-04-27T11:32:03.736Z</time>
      </trkpt>
      <trkpt lat="41.33376" lon="20.63546">
        <ele>738.841756</ele>
        <time>2022-04-27T11:32:06.731Z</time>
      </trkpt>
      <trkpt lat="41.33365" lon="20.63547">
        <ele>739.20307</ele>
        <time>2022-04-27T11:32:09.741Z</time>
      </trkpt>
      <trkpt lat="41.33356" lon="20.63549">
        <ele>739.515484</ele>
        <time>2022-04-27T11:32:12.756Z</time>
      </trkpt>
      <trkpt lat="41.33346" lon="20.63551">
        <ele>739.844887</ele>
        <time>2022-04-27T11:32:15.741Z</time>
      </trkpt>
      <trkpt lat="41.33336" lon="20.63555">
        <ele>740.179871</ele>
        <time>2022-04-27T11:32:18.731Z</time>
      </trkpt>
      <trkpt lat="41.33327" lon="20.63559">
        <ele>740.51698</ele>
        <time>2022-04-27T11:32:21.733Z</time>
      </trkpt>
      <trkpt lat="41.33317" lon="20.63566">
        <ele>740.854269</ele>
        <time>2022-04-27T11:32:24.730Z</time>
      </trkpt>
      <trkpt lat="41.33308" lon="20.63572">
        <ele>741.187522</ele>
        <time>2022-04-27T11:32:27.746Z</time>
      </trkpt>
      <trkpt lat="41.33299" lon="20.63577">
        <ele>741.507566</ele>
        <time>2022-04-27T11:32:30.762Z</time>
      </trkpt>
      <trkpt lat="41.33292" lon="20.63583">
        <ele>741.806733</ele>
        <time>2022-04-27T11:32:33.739Z</time>
      </trkpt>
      <trkpt lat="41.33282" lon="20.63592">
        <ele>742.191927</ele>
        <time>2022-04-27T11:32:37.735Z</time>
      </trkpt>
      <trkpt lat="41.33273" lon="20.63602">
        <ele>742.558631</ele>
        <time>2022-04-27T11:32:40.739Z</time>
      </trkpt>
      <trkpt lat="41.33265" lon="20.6361">
        <ele>742.904547</ele>
        <time>2022-04-27T11:32:43.733Z</time>
      </trkpt>
      <trkpt lat="41.33257" lon="20.63616">
        <ele>743.203829</ele>
        <time>2022-04-27T11:32:46.745Z</time>
      </trkpt>
      <trkpt lat="41.33247" lon="20.63623">
        <ele>743.068308</ele>
        <time>2022-04-27T11:32:50.733Z</time>
      </trkpt>
      <trkpt lat="41.33237" lon="20.63633">
        <ele>742.922156</ele>
        <time>2022-04-27T11:32:54.745Z</time>
      </trkpt>
      <trkpt lat="41.33228" lon="20.63643">
        <ele>742.770962</ele>
        <time>2022-04-27T11:32:58.758Z</time>
      </trkpt>
      <trkpt lat="41.3322" lon="20.63654">
        <ele>742.62973</ele>
        <time>2022-04-27T11:33:02.734Z</time>
      </trkpt>
      <trkpt lat="41.33213" lon="20.63664">
        <ele>742.504596</ele>
        <time>2022-04-27T11:33:05.738Z</time>
      </trkpt>
      <trkpt lat="41.33205" lon="20.63673">
        <ele>742.376209</ele>
        <time>2022-04-27T11:33:08.739Z</time>
      </trkpt>
      <trkpt lat="41.33195" lon="20.63683">
        <ele>742.223118</ele>
        <time>2022-04-27T11:33:11.736Z</time>
      </trkpt>
      <trkpt lat="41.33185" lon="20.63691">
        <ele>742.0838</ele>
        <time>2022-04-27T11:33:14.737Z</time>
      </trkpt>
      <trkpt lat="41.33174" lon="20.63698">
        <ele>741.925239</ele>
        <time>2022-04-27T11:33:17.728Z</time>
      </trkpt>
      <trkpt lat="41.33165" lon="20.63704">
        <ele>741.806639</ele>
        <time>2022-04-27T11:33:19.739Z</time>
      </trkpt>
      <trkpt lat="41.33157" lon="20.63712">
        <ele>741.68426</ele>
        <time>2022-04-27T11:33:21.741Z</time>
      </trkpt>
      <trkpt lat="41.3315" lon="20.63719">
        <ele>741.570519</ele>
        <time>2022-04-27T11:33:23.735Z</time>
      </trkpt>
      <trkpt lat="41.33138" lon="20.63727">
        <ele>741.41193</ele>
        <time>2022-04-27T11:33:26.758Z</time>
      </trkpt>
      <trkpt lat="41.33128" lon="20.63733">
        <ele>741.274268</ele>
        <time>2022-04-27T11:33:29.753Z</time>
      </trkpt>
      <trkpt lat="41.33118" lon="20.63735">
        <ele>741.147563</ele>
        <time>2022-04-27T11:33:32.729Z</time>
      </trkpt>
      <trkpt lat="41.33106" lon="20.63736">
        <ele>741.004496</ele>
        <time>2022-04-27T11:33:35.731Z</time>
      </trkpt>
      <trkpt lat="41.33094" lon="20.63736">
        <ele>741.13377</ele>
        <time>2022-04-27T11:33:38.768Z</time>
      </trkpt>
      <trkpt lat="41.33082" lon="20.63734">
        <ele>741.287338</ele>
        <time>2022-04-27T11:33:41.738Z</time>
      </trkpt>
      <trkpt lat="41.3307" lon="20.63732">
        <ele>741.436385</ele>
        <time>2022-04-27T11:33:44.736Z</time>
      </trkpt>
      <trkpt lat="41.33058" lon="20.63731">
        <ele>741.579818</ele>
        <time>2022-04-27T11:33:47.734Z</time>
      </trkpt>
      <trkpt lat="41.33047" lon="20.63729">
        <ele>741.715933</ele>
        <time>2022-04-27T11:33:50.748Z</time>
      </trkpt>
      <trkpt lat="41.33036" lon="20.63726">
        <ele>741.852676</ele>
        <time>2022-04-27T11:33:53.737Z</time>
      </trkpt>
      <trkpt lat="41.33026" lon="20.63724">
        <ele>741.978001</ele>
        <time>2022-04-27T11:33:56.735Z</time>
      </trkpt>
      <trkpt lat="41.33018" lon="20.6372">
        <ele>742.092995</ele>
        <time>2022-04-27T11:33:59.746Z</time>
      </trkpt>
      <trkpt lat="41.33009" lon="20.63715">
        <ele>742.205352</ele>
        <time>2022-04-27T11:34:02.744Z</time>
      </trkpt>
      <trkpt lat="41.33001" lon="20.6371">
        <ele>742.321212</ele>
        <time>2022-04-27T11:34:05.737Z</time>
      </trkpt>
      <trkpt lat="41.32992" lon="20.63702">
        <ele>742.446973</ele>
        <time>2022-04-27T11:34:08.733Z</time>
      </trkpt>
      <trkpt lat="41.32985" lon="20.63695">
        <ele>742.56069</ele>
        <time>2022-04-27T11:34:11.748Z</time>
      </trkpt>
      <trkpt lat="41.32977" lon="20.63688">
        <ele>742.672727</ele>
        <time>2022-04-27T11:34:14.739Z</time>
      </trkpt>
      <trkpt lat="41.32968" lon="20.63682">
        <ele>742.801614</ele>
        <time>2022-04-27T11:34:17.761Z</time>
      </trkpt>
      <trkpt lat="41.32958" lon="20.63674">
        <ele>742.943962</ele>
        <time>2022-04-27T11:34:20.738Z</time>
      </trkpt>
      <trkpt lat="41.3295" lon="20.63667">
        <ele>743.068709</ele>
        <time>2022-04-27T11:34:23.737Z</time>
      </trkpt>
      <trkpt lat="41.32941" lon="20.6366">
        <ele>743.1915</ele>
        <time>2022-04-27T11:34:26.742Z</time>
      </trkpt>
      <trkpt lat="41.32931" lon="20.63653">
        <ele>743.280974</ele>
        <time>2022-04-27T11:34:29.759Z</time>
      </trkpt>
      <trkpt lat="41.32921" lon="20.63646">
        <ele>743.370255</ele>
        <time>2022-04-27T11:34:32.733Z</time>
      </trkpt>
      <trkpt lat="41.32911" lon="20.63638">
        <ele>743.453976</ele>
        <time>2022-04-27T11:34:35.745Z</time>
      </trkpt>
      <trkpt lat="41.32901" lon="20.63632">
        <ele>743.541985</ele>
        <time>2022-04-27T11:34:38.732Z</time>
      </trkpt>
      <trkpt lat="41.32891" lon="20.63628">
        <ele>743.618188</ele>
        <time>2022-04-27T11:34:41.744Z</time>
      </trkpt>
      <trkpt lat="41.32881" lon="20.63625">
        <ele>743.691197</ele>
        <time>2022-04-27T11:34:44.738Z</time>
      </trkpt>
      <trkpt lat="41.32871" lon="20.63622">
        <ele>743.768854</ele>
        <time>2022-04-27T11:34:47.738Z</time>
      </trkpt>
      <trkpt lat="41.32861" lon="20.63619">
        <ele>743.850154</ele>
        <time>2022-04-27T11:34:50.729Z</time>
      </trkpt>
      <trkpt lat="41.32849" lon="20.63616">
        <ele>743.936318</ele>
        <time>2022-04-27T11:34:53.739Z</time>
      </trkpt>
      <trkpt lat="41.32839" lon="20.63614">
        <ele>744.015469</ele>
        <time>2022-04-27T11:34:56.735Z</time>
      </trkpt>
      <trkpt lat="41.3283" lon="20.63609">
        <ele>744.087696</ele>
        <time>2022-04-27T11:34:59.735Z</time>
      </trkpt>
      <trkpt lat="41.3282" lon="20.63606">
        <ele>744.163641</ele>
        <time>2022-04-27T11:35:02.735Z</time>
      </trkpt>
      <trkpt lat="41.32808" lon="20.63602">
        <ele>744.252692</ele>
        <time>2022-04-27T11:35:05.740Z</time>
      </trkpt>
      <trkpt lat="41.32798" lon="20.63597">
        <ele>744.335653</ele>
        <time>2022-04-27T11:35:08.738Z</time>
      </trkpt>
      <trkpt lat="41.32787" lon="20.6359">
        <ele>744.424538</ele>
        <time>2022-04-27T11:35:11.737Z</time>
      </trkpt>
      <trkpt lat="41.32777" lon="20.63583">
        <ele>744.513802</ele>
        <time>2022-04-27T11:35:14.745Z</time>
      </trkpt>
      <trkpt lat="41.32766" lon="20.63575">
        <ele>744.620641</ele>
        <time>2022-04-27T11:35:17.737Z</time>
      </trkpt>
      <trkpt lat="41.32756" lon="20.63564">
        <ele>744.752289</ele>
        <time>2022-04-27T11:35:20.732Z</time>
      </trkpt>
      <trkpt lat="41.32746" lon="20.63554">
        <ele>744.878253</ele>
        <time>2022-04-27T11:35:23.737Z</time>
      </trkpt>
      <trkpt lat="41.32736" lon="20.63548">
        <ele>744.994153</ele>
        <time>2022-04-27T11:35:26.738Z</time>
      </trkpt>
      <trkpt lat="41.32724" lon="20.63545">
        <ele>745.115546</ele>
        <time>2022-04-27T11:35:29.739Z</time>
      </trkpt>
      <trkpt lat="41.32712" lon="20.63541">
        <ele>745.238313</ele>
        <time>2022-04-27T11:35:32.737Z</time>
      </trkpt>
      <trkpt lat="41.32701" lon="20.63537">
        <ele>745.36152</ele>
        <time>2022-04-27T11:35:35.737Z</time>
      </trkpt>
      <trkpt lat="41.3269" lon="20.63533">
        <ele>745.471908</ele>
        <time>2022-04-27T11:35:38.736Z</time>
      </trkpt>
      <trkpt lat="41.3268" lon="20.6353">
        <ele>745.574107</ele>
        <time>2022-04-27T11:35:41.739Z</time>
      </trkpt>
      <trkpt lat="41.32671" lon="20.63527">
        <ele>745.668781</ele>
        <time>2022-04-27T11:35:44.735Z</time>
      </trkpt>
      <trkpt lat="41.32661" lon="20.63524">
        <ele>745.778919</ele>
        <time>2022-04-27T11:35:47.746Z</time>
      </trkpt>
      <trkpt lat="41.3265" lon="20.6352">
        <ele>745.898039</ele>
        <time>2022-04-27T11:35:50.737Z</time>
      </trkpt>
      <trkpt lat="41.32638" lon="20.63515">
        <ele>746.015964</ele>
        <time>2022-04-27T11:35:53.740Z</time>
      </trkpt>
      <trkpt lat="41.32629" lon="20.63509">
        <ele>746.120021</ele>
        <time>2022-04-27T11:35:56.742Z</time>
      </trkpt>
      <trkpt lat="41.32621" lon="20.63499">
        <ele>746.233729</ele>
        <time>2022-04-27T11:35:59.767Z</time>
      </trkpt>
      <trkpt lat="41.32613" lon="20.63491">
        <ele>746.331571</ele>
        <time>2022-04-27T11:36:02.748Z</time>
      </trkpt>
      <trkpt lat="41.32607" lon="20.63481">
        <ele>746.285866</ele>
        <time>2022-04-27T11:36:05.737Z</time>
      </trkpt>
      <trkpt lat="41.326" lon="20.63471">
        <ele>746.044656</ele>
        <time>2022-04-27T11:36:08.737Z</time>
      </trkpt>
      <trkpt lat="41.32592" lon="20.63459">
        <ele>745.764949</ele>
        <time>2022-04-27T11:36:11.770Z</time>
      </trkpt>
      <trkpt lat="41.32584" lon="20.63447">
        <ele>745.480576</ele>
        <time>2022-04-27T11:36:14.736Z</time>
      </trkpt>
      <trkpt lat="41.32576" lon="20.63436">
        <ele>745.222164</ele>
        <time>2022-04-27T11:36:17.740Z</time>
      </trkpt>
      <trkpt lat="41.32569" lon="20.63426">
        <ele>744.980607</ele>
        <time>2022-04-27T11:36:20.734Z</time>
      </trkpt>
      <trkpt lat="41.32562" lon="20.63414">
        <ele>744.70306</ele>
        <time>2022-04-27T11:36:23.743Z</time>
      </trkpt>
      <trkpt lat="41.32554" lon="20.63402">
        <ele>744.427917</ele>
        <time>2022-04-27T11:36:26.739Z</time>
      </trkpt>
      <trkpt lat="41.32547" lon="20.6339">
        <ele>744.155759</ele>
        <time>2022-04-27T11:36:29.730Z</time>
      </trkpt>
      <trkpt lat="41.32539" lon="20.63379">
        <ele>743.900601</ele>
        <time>2022-04-27T11:36:32.735Z</time>
      </trkpt>
      <trkpt lat="41.32531" lon="20.6337">
        <ele>743.641594</ele>
        <time>2022-04-27T11:36:35.743Z</time>
      </trkpt>
      <trkpt lat="41.32521" lon="20.63362">
        <ele>743.387975</ele>
        <time>2022-04-27T11:36:38.737Z</time>
      </trkpt>
      <trkpt lat="41.32513" lon="20.63356">
        <ele>743.171263</ele>
        <time>2022-04-27T11:36:41.741Z</time>
      </trkpt>
      <trkpt lat="41.32505" lon="20.63351">
        <ele>742.95864</ele>
        <time>2022-04-27T11:36:44.731Z</time>
      </trkpt>
      <trkpt lat="41.32495" lon="20.63347">
        <ele>742.721486</ele>
        <time>2022-04-27T11:36:47.754Z</time>
      </trkpt>
      <trkpt lat="41.32486" lon="20.63343">
        <ele>742.485983</ele>
        <time>2022-04-27T11:36:50.739Z</time>
      </trkpt>
      <trkpt lat="41.32475" lon="20.6334">
        <ele>742.227528</ele>
        <time>2022-04-27T11:36:53.740Z</time>
      </trkpt>
      <trkpt lat="41.32464" lon="20.63338">
        <ele>742.474251</ele>
        <time>2022-04-27T11:36:56.756Z</time>
      </trkpt>
      <trkpt lat="41.32454" lon="20.63335">
        <ele>742.804071</ele>
        <time>2022-04-27T11:36:59.737Z</time>
      </trkpt>
      <trkpt lat="41.32443" lon="20.63332">
        <ele>743.149816</ele>
        <time>2022-04-27T11:37:02.737Z</time>
      </trkpt>
      <trkpt lat="41.32433" lon="20.63334">
        <ele>743.468556</ele>
        <time>2022-04-27T11:37:05.733Z</time>
      </trkpt>
      <trkpt lat="41.32423" lon="20.63336">
        <ele>743.781166</ele>
        <time>2022-04-27T11:37:08.744Z</time>
      </trkpt>
      <trkpt lat="41.32412" lon="20.63338">
        <ele>744.116981</ele>
        <time>2022-04-27T11:37:11.739Z</time>
      </trkpt>
      <trkpt lat="41.32401" lon="20.63338">
        <ele>744.442138</ele>
        <time>2022-04-27T11:37:14.743Z</time>
      </trkpt>
      <trkpt lat="41.32391" lon="20.63339">
        <ele>744.762327</ele>
        <time>2022-04-27T11:37:17.756Z</time>
      </trkpt>
      <trkpt lat="41.32381" lon="20.63342">
        <ele>745.080253</ele>
        <time>2022-04-27T11:37:20.735Z</time>
      </trkpt>
      <trkpt lat="41.32371" lon="20.63345">
        <ele>745.40165</ele>
        <time>2022-04-27T11:37:23.764Z</time>
      </trkpt>
      <trkpt lat="41.32359" lon="20.63348">
        <ele>745.764239</ele>
        <time>2022-04-27T11:37:26.734Z</time>
      </trkpt>
      <trkpt lat="41.32349" lon="20.6335">
        <ele>746.099302</ele>
        <time>2022-04-27T11:37:29.753Z</time>
      </trkpt>
      <trkpt lat="41.32338" lon="20.63352">
        <ele>746.427897</ele>
        <time>2022-04-27T11:37:32.731Z</time>
      </trkpt>
      <trkpt lat="41.32328" lon="20.63355">
        <ele>746.75455</ele>
        <time>2022-04-27T11:37:35.746Z</time>
      </trkpt>
      <trkpt lat="41.32316" lon="20.63358">
        <ele>747.108107</ele>
        <time>2022-04-27T11:37:38.736Z</time>
      </trkpt>
      <trkpt lat="41.32305" lon="20.6336">
        <ele>747.467658</ele>
        <time>2022-04-27T11:37:41.734Z</time>
      </trkpt>
      <trkpt lat="41.32293" lon="20.63362">
        <ele>747.721391</ele>
        <time>2022-04-27T11:37:44.739Z</time>
      </trkpt>
      <trkpt lat="41.32281" lon="20.63367">
        <ele>747.556</ele>
        <time>2022-04-27T11:37:47.736Z</time>
      </trkpt>
      <trkpt lat="41.3227" lon="20.63373">
        <ele>747.397599</ele>
        <time>2022-04-27T11:37:50.732Z</time>
      </trkpt>
      <trkpt lat="41.3226" lon="20.6338">
        <ele>747.254742</ele>
        <time>2022-04-27T11:37:53.741Z</time>
      </trkpt>
      <trkpt lat="41.32252" lon="20.63387">
        <ele>747.119889</ele>
        <time>2022-04-27T11:37:56.745Z</time>
      </trkpt>
      <trkpt lat="41.32243" lon="20.63397">
        <ele>746.96591</ele>
        <time>2022-04-27T11:37:59.749Z</time>
      </trkpt>
      <trkpt lat="41.32236" lon="20.63405">
        <ele>746.843569</ele>
        <time>2022-04-27T11:38:01.746Z</time>
      </trkpt>
      <trkpt lat="41.32229" lon="20.63413">
        <ele>746.71981</ele>
        <time>2022-04-27T11:38:03.735Z</time>
      </trkpt>
      <trkpt lat="41.32219" lon="20.63422">
        <ele>746.562835</ele>
        <time>2022-04-27T11:38:06.739Z</time>
      </trkpt>
      <trkpt lat="41.3221" lon="20.63431">
        <ele>746.417317</ele>
        <time>2022-04-27T11:38:09.738Z</time>
      </trkpt>
      <trkpt lat="41.32201" lon="20.6344">
        <ele>746.263649</ele>
        <time>2022-04-27T11:38:12.741Z</time>
      </trkpt>
      <trkpt lat="41.32192" lon="20.63449">
        <ele>746.113765</ele>
        <time>2022-04-27T11:38:15.736Z</time>
      </trkpt>
      <trkpt lat="41.32183" lon="20.63455">
        <ele>745.976749</ele>
        <time>2022-04-27T11:38:18.743Z</time>
      </trkpt>
      <trkpt lat="41.32174" lon="20.63461">
        <ele>745.854439</ele>
        <time>2022-04-27T11:38:21.747Z</time>
      </trkpt>
      <trkpt lat="41.32163" lon="20.63467">
        <ele>745.700662</ele>
        <time>2022-04-27T11:38:24.741Z</time>
      </trkpt>
      <trkpt lat="41.32152" lon="20.63471">
        <ele>745.545266</ele>
        <time>2022-04-27T11:38:27.739Z</time>
      </trkpt>
      <trkpt lat="41.32141" lon="20.63475">
        <ele>745.389635</ele>
        <time>2022-04-27T11:38:30.733Z</time>
      </trkpt>
      <trkpt lat="41.3213" lon="20.63475">
        <ele>745.33182</ele>
        <time>2022-04-27T11:38:33.748Z</time>
      </trkpt>
      <trkpt lat="41.32119" lon="20.63475">
        <ele>745.278413</ele>
        <time>2022-04-27T11:38:36.733Z</time>
      </trkpt>
      <trkpt lat="41.32108" lon="20.63477">
        <ele>745.228864</ele>
        <time>2022-04-27T11:38:39.753Z</time>
      </trkpt>
      <trkpt lat="41.32096" lon="20.6348">
        <ele>745.170839</ele>
        <time>2022-04-27T11:38:42.736Z</time>
      </trkpt>
      <trkpt lat="41.32085" lon="20.6348">
        <ele>745.115561</ele>
        <time>2022-04-27T11:38:45.740Z</time>
      </trkpt>
      <trkpt lat="41.32073" lon="20.63479">
        <ele>745.060754</ele>
        <time>2022-04-27T11:38:48.740Z</time>
      </trkpt>
      <trkpt lat="41.32062" lon="20.63481">
        <ele>745.009883</ele>
        <time>2022-04-27T11:38:51.736Z</time>
      </trkpt>
      <trkpt lat="41.32052" lon="20.63482">
        <ele>744.958616</ele>
        <time>2022-04-27T11:38:54.729Z</time>
      </trkpt>
      <trkpt lat="41.32041" lon="20.63484">
        <ele>744.908503</ele>
        <time>2022-04-27T11:38:57.748Z</time>
      </trkpt>
      <trkpt lat="41.3203" lon="20.63489">
        <ele>744.852256</ele>
        <time>2022-04-27T11:39:00.736Z</time>
      </trkpt>
      <trkpt lat="41.32019" lon="20.63492">
        <ele>744.798739</ele>
        <time>2022-04-27T11:39:03.736Z</time>
      </trkpt>
      <trkpt lat="41.32009" lon="20.63497">
        <ele>744.751173</ele>
        <time>2022-04-27T11:39:06.749Z</time>
      </trkpt>
      <trkpt lat="41.32" lon="20.63504">
        <ele>744.702283</ele>
        <time>2022-04-27T11:39:09.741Z</time>
      </trkpt>
      <trkpt lat="41.3199" lon="20.63511">
        <ele>744.648487</ele>
        <time>2022-04-27T11:39:12.756Z</time>
      </trkpt>
      <trkpt lat="41.31981" lon="20.6352">
        <ele>744.59455</ele>
        <time>2022-04-27T11:39:15.736Z</time>
      </trkpt>
      <trkpt lat="41.31972" lon="20.6353">
        <ele>744.536711</ele>
        <time>2022-04-27T11:39:18.767Z</time>
      </trkpt>
      <trkpt lat="41.31962" lon="20.63541">
        <ele>744.106564</ele>
        <time>2022-04-27T11:39:21.733Z</time>
      </trkpt>
      <trkpt lat="41.31953" lon="20.63551">
        <ele>743.622597</ele>
        <time>2022-04-27T11:39:24.740Z</time>
      </trkpt>
      <trkpt lat="41.31944" lon="20.63561">
        <ele>743.131629</ele>
        <time>2022-04-27T11:39:27.737Z</time>
      </trkpt>
      <trkpt lat="41.31935" lon="20.63572">
        <ele>742.662903</ele>
        <time>2022-04-27T11:39:30.743Z</time>
      </trkpt>
      <trkpt lat="41.31927" lon="20.63582">
        <ele>742.215926</ele>
        <time>2022-04-27T11:39:33.745Z</time>
      </trkpt>
      <trkpt lat="41.3192" lon="20.63591">
        <ele>741.818307</ele>
        <time>2022-04-27T11:39:36.733Z</time>
      </trkpt>
      <trkpt lat="41.31914" lon="20.63602">
        <ele>741.407735</ele>
        <time>2022-04-27T11:39:39.736Z</time>
      </trkpt>
      <trkpt lat="41.31906" lon="20.63613">
        <ele>740.963363</ele>
        <time>2022-04-27T11:39:42.750Z</time>
      </trkpt>
      <trkpt lat="41.31898" lon="20.63623">
        <ele>740.507847</ele>
        <time>2022-04-27T11:39:45.731Z</time>
      </trkpt>
      <trkpt lat="41.3189" lon="20.63634">
        <ele>740.032283</ele>
        <time>2022-04-27T11:39:48.736Z</time>
      </trkpt>
      <trkpt lat="41.31882" lon="20.63644">
        <ele>739.607281</ele>
        <time>2022-04-27T11:39:51.741Z</time>
      </trkpt>
      <trkpt lat="41.31874" lon="20.63654">
        <ele>739.138553</ele>
        <time>2022-04-27T11:39:54.736Z</time>
      </trkpt>
      <trkpt lat="41.31866" lon="20.63666">
        <ele>738.662628</ele>
        <time>2022-04-27T11:39:57.735Z</time>
      </trkpt>
      <trkpt lat="41.31857" lon="20.63677">
        <ele>738.15752</ele>
        <time>2022-04-27T11:40:00.737Z</time>
      </trkpt>
      <trkpt lat="41.31848" lon="20.63688">
        <ele>737.680788</ele>
        <time>2022-04-27T11:40:03.741Z</time>
      </trkpt>
      <trkpt lat="41.3184" lon="20.63698">
        <ele>737.250845</ele>
        <time>2022-04-27T11:40:06.743Z</time>
      </trkpt>
      <trkpt lat="41.31832" lon="20.63708">
        <ele>737.146684</ele>
        <time>2022-04-27T11:40:09.746Z</time>
      </trkpt>
      <trkpt lat="41.31823" lon="20.6372">
        <ele>737.030392</ele>
        <time>2022-04-27T11:40:12.743Z</time>
      </trkpt>
      <trkpt lat="41.31814" lon="20.63732">
        <ele>736.909705</ele>
        <time>2022-04-27T11:40:15.739Z</time>
      </trkpt>
      <trkpt lat="41.31804" lon="20.63742">
        <ele>736.794582</ele>
        <time>2022-04-27T11:40:18.732Z</time>
      </trkpt>
      <trkpt lat="41.31794" lon="20.63753">
        <ele>736.66984</ele>
        <time>2022-04-27T11:40:21.745Z</time>
      </trkpt>
      <trkpt lat="41.31784" lon="20.63761">
        <ele>736.560876</ele>
        <time>2022-04-27T11:40:24.732Z</time>
      </trkpt>
      <trkpt lat="41.31774" lon="20.63768">
        <ele>736.457485</ele>
        <time>2022-04-27T11:40:27.740Z</time>
      </trkpt>
      <trkpt lat="41.31764" lon="20.63774">
        <ele>736.35041</ele>
        <time>2022-04-27T11:40:30.739Z</time>
      </trkpt>
      <trkpt lat="41.31753" lon="20.63781">
        <ele>736.237651</ele>
        <time>2022-04-27T11:40:33.735Z</time>
      </trkpt>
      <trkpt lat="41.31743" lon="20.63787">
        <ele>736.13426</ele>
        <time>2022-04-27T11:40:36.730Z</time>
      </trkpt>
      <trkpt lat="41.31733" lon="20.63795">
        <ele>736.0304</ele>
        <time>2022-04-27T11:40:39.732Z</time>
      </trkpt>
      <trkpt lat="41.31724" lon="20.63807">
        <ele>735.913897</ele>
        <time>2022-04-27T11:40:42.744Z</time>
      </trkpt>
      <trkpt lat="41.31718" lon="20.63815">
        <ele>735.828567</ele>
        <time>2022-04-27T11:40:44.735Z</time>
      </trkpt>
      <trkpt lat="41.31708" lon="20.63827">
        <ele>735.706245</ele>
        <time>2022-04-27T11:40:47.751Z</time>
      </trkpt>
      <trkpt lat="41.31698" lon="20.63838">
        <ele>735.587877</ele>
        <time>2022-04-27T11:40:50.734Z</time>
      </trkpt>
      <trkpt lat="41.31689" lon="20.63848">
        <ele>735.855809</ele>
        <time>2022-04-27T11:40:53.741Z</time>
      </trkpt>
      <trkpt lat="41.31679" lon="20.63856">
        <ele>736.157427</ele>
        <time>2022-04-27T11:40:56.736Z</time>
      </trkpt>
      <trkpt lat="41.31669" lon="20.63864">
        <ele>736.479771</ele>
        <time>2022-04-27T11:40:59.731Z</time>
      </trkpt>
      <trkpt lat="41.31658" lon="20.6387">
        <ele>736.778086</ele>
        <time>2022-04-27T11:41:02.733Z</time>
      </trkpt>
      <trkpt lat="41.31648" lon="20.63874">
        <ele>737.04064</ele>
        <time>2022-04-27T11:41:05.746Z</time>
      </trkpt>
      <trkpt lat="41.31638" lon="20.63877">
        <ele>737.313158</ele>
        <time>2022-04-27T11:41:08.740Z</time>
      </trkpt>
      <trkpt lat="41.31627" lon="20.63879">
        <ele>737.604134</ele>
        <time>2022-04-27T11:41:11.740Z</time>
      </trkpt>
      <trkpt lat="41.31617" lon="20.63882">
        <ele>737.890887</ele>
        <time>2022-04-27T11:41:14.735Z</time>
      </trkpt>
      <trkpt lat="41.31605" lon="20.63886">
        <ele>738.19529</ele>
        <time>2022-04-27T11:41:17.736Z</time>
      </trkpt>
      <trkpt lat="41.31592" lon="20.63889">
        <ele>738.542632</ele>
        <time>2022-04-27T11:41:20.731Z</time>
      </trkpt>
      <trkpt lat="41.31583" lon="20.63892">
        <ele>738.789501</ele>
        <time>2022-04-27T11:41:22.738Z</time>
      </trkpt>
      <trkpt lat="41.31573" lon="20.63895">
        <ele>739.052546</ele>
        <time>2022-04-27T11:41:24.736Z</time>
      </trkpt>
      <trkpt lat="41.31561" lon="20.639">
        <ele>739.373633</ele>
        <time>2022-04-27T11:41:27.761Z</time>
      </trkpt>
      <trkpt lat="41.3155" lon="20.63904">
        <ele>739.697777</ele>
        <time>2022-04-27T11:41:30.736Z</time>
      </trkpt>
      <trkpt lat="41.31538" lon="20.63908">
        <ele>740.006677</ele>
        <time>2022-04-27T11:41:33.736Z</time>
      </trkpt>
      <trkpt lat="41.31527" lon="20.63912">
        <ele>740.29556</ele>
        <time>2022-04-27T11:41:36.733Z</time>
      </trkpt>
      <trkpt lat="41.31516" lon="20.63917">
        <ele>740.473353</ele>
        <time>2022-04-27T11:41:40.739Z</time>
      </trkpt>
      <trkpt lat="41.31506" lon="20.6392">
        <ele>740.633753</ele>
        <time>2022-04-27T11:41:44.735Z</time>
      </trkpt>
      <trkpt lat="41.31495" lon="20.63923">
        <ele>740.804851</ele>
        <time>2022-04-27T11:41:48.737Z</time>
      </trkpt>
      <trkpt lat="41.31485" lon="20.63928">
        <ele>740.962849</ele>
        <time>2022-04-27T11:41:51.749Z</time>
      </trkpt>
      <trkpt lat="41.31475" lon="20.63935">
        <ele>741.138528</ele>
        <time>2022-04-27T11:41:54.732Z</time>
      </trkpt>
      <trkpt lat="41.31465" lon="20.63943">
        <ele>741.313178</ele>
        <time>2022-04-27T11:41:57.740Z</time>
      </trkpt>
      <trkpt lat="41.31456" lon="20.6395">
        <ele>741.474802</ele>
        <time>2022-04-27T11:42:00.741Z</time>
      </trkpt>
      <trkpt lat="41.31447" lon="20.63959">
        <ele>741.652603</ele>
        <time>2022-04-27T11:42:03.738Z</time>
      </trkpt>
      <trkpt lat="41.31438" lon="20.63967">
        <ele>741.820838</ele>
        <time>2022-04-27T11:42:06.727Z</time>
      </trkpt>
      <trkpt lat="41.31429" lon="20.63974">
        <ele>741.969188</ele>
        <time>2022-04-27T11:42:09.741Z</time>
      </trkpt>
      <trkpt lat="41.3142" lon="20.63979">
        <ele>742.118018</ele>
        <time>2022-04-27T11:42:12.761Z</time>
      </trkpt>
      <trkpt lat="41.31411" lon="20.63981">
        <ele>742.263472</ele>
        <time>2022-04-27T11:42:15.739Z</time>
      </trkpt>
      <trkpt lat="41.31401" lon="20.63982">
        <ele>742.415283</ele>
        <time>2022-04-27T11:42:18.754Z</time>
      </trkpt>
      <trkpt lat="41.31389" lon="20.63983">
        <ele>742.59297</ele>
        <time>2022-04-27T11:42:21.745Z</time>
      </trkpt>
      <trkpt lat="41.31378" lon="20.6398">
        <ele>742.775681</ele>
        <time>2022-04-27T11:42:24.735Z</time>
      </trkpt>
      <trkpt lat="41.31367" lon="20.63976">
        <ele>742.942229</ele>
        <time>2022-04-27T11:42:27.732Z</time>
      </trkpt>
      <trkpt lat="41.31356" lon="20.63975">
        <ele>742.873084</ele>
        <time>2022-04-27T11:42:30.730Z</time>
      </trkpt>
      <trkpt lat="41.31345" lon="20.63971">
        <ele>742.543062</ele>
        <time>2022-04-27T11:42:33.740Z</time>
      </trkpt>
      <trkpt lat="41.31334" lon="20.63968">
        <ele>742.227805</ele>
        <time>2022-04-27T11:42:36.738Z</time>
      </trkpt>
      <trkpt lat="41.31324" lon="20.63966">
        <ele>741.911265</ele>
        <time>2022-04-27T11:42:39.740Z</time>
      </trkpt>
      <trkpt lat="41.31313" lon="20.63964">
        <ele>741.594519</ele>
        <time>2022-04-27T11:42:42.732Z</time>
      </trkpt>
      <trkpt lat="41.31302" lon="20.63962">
        <ele>741.252793</ele>
        <time>2022-04-27T11:42:45.744Z</time>
      </trkpt>
      <trkpt lat="41.3129" lon="20.63959">
        <ele>740.889176</ele>
        <time>2022-04-27T11:42:48.734Z</time>
      </trkpt>
      <trkpt lat="41.31277" lon="20.63955">
        <ele>740.515067</ele>
        <time>2022-04-27T11:42:51.768Z</time>
      </trkpt>
      <trkpt lat="41.31266" lon="20.63952">
        <ele>740.182618</ele>
        <time>2022-04-27T11:42:54.731Z</time>
      </trkpt>
      <trkpt lat="41.31256" lon="20.6395">
        <ele>739.889284</ele>
        <time>2022-04-27T11:42:57.738Z</time>
      </trkpt>
      <trkpt lat="41.31247" lon="20.63948">
        <ele>739.603306</ele>
        <time>2022-04-27T11:43:00.730Z</time>
      </trkpt>
      <trkpt lat="41.31236" lon="20.63944">
        <ele>739.281252</ele>
        <time>2022-04-27T11:43:03.733Z</time>
      </trkpt>
      <trkpt lat="41.31225" lon="20.63941">
        <ele>738.948239</ele>
        <time>2022-04-27T11:43:06.756Z</time>
      </trkpt>
      <trkpt lat="41.31215" lon="20.63937">
        <ele>738.626978</ele>
        <time>2022-04-27T11:43:09.727Z</time>
      </trkpt>
      <trkpt lat="41.31205" lon="20.63933">
        <ele>738.322399</ele>
        <time>2022-04-27T11:43:12.746Z</time>
      </trkpt>
      <trkpt lat="41.31195" lon="20.63928">
        <ele>738.010925</ele>
        <time>2022-04-27T11:43:15.734Z</time>
      </trkpt>
      <trkpt lat="41.31185" lon="20.63923">
        <ele>737.706585</ele>
        <time>2022-04-27T11:43:18.743Z</time>
      </trkpt>
      <trkpt lat="41.31175" lon="20.63918">
        <ele>737.435431</ele>
        <time>2022-04-27T11:43:21.733Z</time>
      </trkpt>
      <trkpt lat="41.31163" lon="20.63913">
        <ele>737.137571</ele>
        <time>2022-04-27T11:43:24.738Z</time>
      </trkpt>
      <trkpt lat="41.31151" lon="20.63908">
        <ele>736.818342</ele>
        <time>2022-04-27T11:43:27.727Z</time>
      </trkpt>
      <trkpt lat="41.3114" lon="20.63903">
        <ele>736.528156</ele>
        <time>2022-04-27T11:43:30.729Z</time>
      </trkpt>
      <trkpt lat="41.3113" lon="20.63898">
        <ele>736.263202</ele>
        <time>2022-04-27T11:43:33.733Z</time>
      </trkpt>
      <trkpt lat="41.3112" lon="20.63892">
        <ele>735.988423</ele>
        <time>2022-04-27T11:43:36.737Z</time>
      </trkpt>
      <trkpt lat="41.3111" lon="20.63882">
        <ele>735.685061</ele>
        <time>2022-04-27T11:43:39.731Z</time>
      </trkpt>
      <trkpt lat="41.31102" lon="20.63872">
        <ele>735.388801</ele>
        <time>2022-04-27T11:43:42.762Z</time>
      </trkpt>
      <trkpt lat="41.31094" lon="20.63859">
        <ele>735.081669</ele>
        <time>2022-04-27T11:43:45.731Z</time>
      </trkpt>
      <trkpt lat="41.31087" lon="20.63848">
        <ele>734.815328</ele>
        <time>2022-04-27T11:43:48.742Z</time>
      </trkpt>
      <trkpt lat="41.3108" lon="20.63837">
        <ele>734.551763</ele>
        <time>2022-04-27T11:43:51.741Z</time>
      </trkpt>
      <trkpt lat="41.31075" lon="20.63823">
        <ele>734.257867</ele>
        <time>2022-04-27T11:43:54.729Z</time>
      </trkpt>
      <trkpt lat="41.3107" lon="20.63808">
        <ele>733.961747</ele>
        <time>2022-04-27T11:43:57.745Z</time>
      </trkpt>
      <trkpt lat="41.31066" lon="20.63795">
        <ele>733.693485</ele>
        <time>2022-04-27T11:44:00.742Z</time>
      </trkpt>
      <trkpt lat="41.31062" lon="20.63782">
        <ele>733.421069</ele>
        <time>2022-04-27T11:44:03.733Z</time>
      </trkpt>
      <trkpt lat="41.31058" lon="20.63768">
        <ele>733.63699</ele>
        <time>2022-04-27T11:44:06.734Z</time>
      </trkpt>
      <trkpt lat="41.31055" lon="20.63755">
        <ele>734.655525</ele>
        <time>2022-04-27T11:44:09.733Z</time>
      </trkpt>
      <trkpt lat="41.31051" lon="20.6374">
        <ele>735.684902</ele>
        <time>2022-04-27T11:44:12.759Z</time>
      </trkpt>
      <trkpt lat="41.31047" lon="20.63725">
        <ele>736.82063</ele>
        <time>2022-04-27T11:44:15.729Z</time>
      </trkpt>
      <trkpt lat="41.31044" lon="20.63709">
        <ele>737.937725</ele>
        <time>2022-04-27T11:44:18.730Z</time>
      </trkpt>
      <trkpt lat="41.31043" lon="20.63694">
        <ele>739.027777</ele>
        <time>2022-04-27T11:44:21.732Z</time>
      </trkpt>
      <trkpt lat="41.31043" lon="20.63679">
        <ele>740.091464</ele>
        <time>2022-04-27T11:44:24.734Z</time>
      </trkpt>
      <trkpt lat="41.31042" lon="20.63665">
        <ele>741.050226</ele>
        <time>2022-04-27T11:44:27.740Z</time>
      </trkpt>
      <trkpt lat="41.31041" lon="20.63653">
        <ele>741.891774</ele>
        <time>2022-04-27T11:44:30.748Z</time>
      </trkpt>
      <trkpt lat="41.31042" lon="20.63638">
        <ele>742.907022</ele>
        <time>2022-04-27T11:44:34.737Z</time>
      </trkpt>
      <trkpt lat="41.31042" lon="20.63625">
        <ele>743.845839</ele>
        <time>2022-04-27T11:44:37.735Z</time>
      </trkpt>
      <trkpt lat="41.31042" lon="20.63611">
        <ele>744.777294</ele>
        <time>2022-04-27T11:44:40.741Z</time>
      </trkpt>
      <trkpt lat="41.31043" lon="20.63598">
        <ele>745.69713</ele>
        <time>2022-04-27T11:44:43.742Z</time>
      </trkpt>
      <trkpt lat="41.31043" lon="20.63586">
        <ele>746.567797</ele>
        <time>2022-04-27T11:44:46.765Z</time>
      </trkpt>
      <trkpt lat="41.31044" lon="20.63572">
        <ele>747.518619</ele>
        <time>2022-04-27T11:44:49.732Z</time>
      </trkpt>
      <trkpt lat="41.31044" lon="20.6356">
        <ele>748.36913</ele>
        <time>2022-04-27T11:44:52.734Z</time>
      </trkpt>
      <trkpt lat="41.31044" lon="20.63548">
        <ele>749.217625</ele>
        <time>2022-04-27T11:44:55.741Z</time>
      </trkpt>
      <trkpt lat="41.31045" lon="20.63535">
        <ele>749.892035</ele>
        <time>2022-04-27T11:44:58.741Z</time>
      </trkpt>
      <trkpt lat="41.31044" lon="20.63521">
        <ele>749.846996</ele>
        <time>2022-04-27T11:45:01.735Z</time>
      </trkpt>
      <trkpt lat="41.31044" lon="20.63509">
        <ele>749.80422</ele>
        <time>2022-04-27T11:45:04.735Z</time>
      </trkpt>
      <trkpt lat="41.31043" lon="20.63495">
        <ele>749.756998</ele>
        <time>2022-04-27T11:45:07.731Z</time>
      </trkpt>
      <trkpt lat="41.31043" lon="20.6348">
        <ele>749.704701</ele>
        <time>2022-04-27T11:45:10.735Z</time>
      </trkpt>
      <trkpt lat="41.31042" lon="20.63466">
        <ele>749.658424</ele>
        <time>2022-04-27T11:45:13.739Z</time>
      </trkpt>
      <trkpt lat="41.31041" lon="20.6345">
        <ele>749.605527</ele>
        <time>2022-04-27T11:45:16.737Z</time>
      </trkpt>
      <trkpt lat="41.31039" lon="20.63437">
        <ele>749.55754</ele>
        <time>2022-04-27T11:45:19.734Z</time>
      </trkpt>
      <trkpt lat="41.31035" lon="20.63423">
        <ele>749.509228</ele>
        <time>2022-04-27T11:45:22.737Z</time>
      </trkpt>
      <trkpt lat="41.31031" lon="20.63411">
        <ele>749.462477</ele>
        <time>2022-04-27T11:45:25.762Z</time>
      </trkpt>
      <trkpt lat="41.31026" lon="20.63398">
        <ele>749.414633</ele>
        <time>2022-04-27T11:45:28.737Z</time>
      </trkpt>
      <trkpt lat="41.31021" lon="20.63385">
        <ele>749.36394</ele>
        <time>2022-04-27T11:45:31.728Z</time>
      </trkpt>
      <trkpt lat="41.31017" lon="20.63371">
        <ele>749.313221</ele>
        <time>2022-04-27T11:45:34.737Z</time>
      </trkpt>
      <trkpt lat="41.31013" lon="20.63358">
        <ele>749.266595</ele>
        <time>2022-04-27T11:45:37.759Z</time>
      </trkpt>
      <trkpt lat="41.31011" lon="20.63345">
        <ele>749.220125</ele>
        <time>2022-04-27T11:45:40.737Z</time>
      </trkpt>
      <trkpt lat="41.31008" lon="20.63332">
        <ele>749.174651</ele>
        <time>2022-04-27T11:45:43.739Z</time>
      </trkpt>
      <trkpt lat="41.31007" lon="20.63319">
        <ele>749.130403</ele>
        <time>2022-04-27T11:45:46.743Z</time>
      </trkpt>
      <trkpt lat="41.31007" lon="20.63305">
        <ele>749.009709</ele>
        <time>2022-04-27T11:45:49.731Z</time>
      </trkpt>
      <trkpt lat="41.31007" lon="20.63291">
        <ele>748.491126</ele>
        <time>2022-04-27T11:45:52.736Z</time>
      </trkpt>
      <trkpt lat="41.31006" lon="20.63276">
        <ele>747.975896</ele>
        <time>2022-04-27T11:45:55.738Z</time>
      </trkpt>
      <trkpt lat="41.31005" lon="20.63263">
        <ele>747.473649</ele>
        <time>2022-04-27T11:45:58.753Z</time>
      </trkpt>
      <trkpt lat="41.31004" lon="20.63249">
        <ele>746.95796</ele>
        <time>2022-04-27T11:46:01.742Z</time>
      </trkpt>
      <trkpt lat="41.31002" lon="20.63233">
        <ele>746.378884</ele>
        <time>2022-04-27T11:46:04.736Z</time>
      </trkpt>
      <trkpt lat="41.31" lon="20.63221">
        <ele>745.930674</ele>
        <time>2022-04-27T11:46:06.743Z</time>
      </trkpt>
      <trkpt lat="41.30996" lon="20.63205">
        <ele>745.336427</ele>
        <time>2022-04-27T11:46:09.737Z</time>
      </trkpt>
      <trkpt lat="41.30991" lon="20.63191">
        <ele>744.767147</ele>
        <time>2022-04-27T11:46:12.738Z</time>
      </trkpt>
      <trkpt lat="41.30984" lon="20.63179">
        <ele>744.230644</ele>
        <time>2022-04-27T11:46:15.737Z</time>
      </trkpt>
      <trkpt lat="41.30976" lon="20.63171">
        <ele>743.736283</ele>
        <time>2022-04-27T11:46:18.730Z</time>
      </trkpt>
      <trkpt lat="41.30967" lon="20.63165">
        <ele>743.243756</ele>
        <time>2022-04-27T11:46:21.732Z</time>
      </trkpt>
      <trkpt lat="41.30957" lon="20.6316">
        <ele>742.734516</ele>
        <time>2022-04-27T11:46:24.738Z</time>
      </trkpt>
      <trkpt lat="41.30947" lon="20.63155">
        <ele>742.200937</ele>
        <time>2022-04-27T11:46:27.761Z</time>
      </trkpt>
      <trkpt lat="41.30935" lon="20.63151">
        <ele>741.617711</ele>
        <time>2022-04-27T11:46:30.727Z</time>
      </trkpt>
      <trkpt lat="41.30923" lon="20.63148">
        <ele>741.020729</ele>
        <time>2022-04-27T11:46:33.735Z</time>
      </trkpt>
      <trkpt lat="41.30911" lon="20.63149">
        <ele>740.426604</ele>
        <time>2022-04-27T11:46:36.733Z</time>
      </trkpt>
      <trkpt lat="41.30901" lon="20.63151">
        <ele>739.960508</ele>
        <time>2022-04-27T11:46:39.735Z</time>
      </trkpt>
      <trkpt lat="41.30892" lon="20.63154">
        <ele>739.541989</ele>
        <time>2022-04-27T11:46:42.735Z</time>
      </trkpt>
      <trkpt lat="41.30882" lon="20.63157">
        <ele>739.065275</ele>
        <time>2022-04-27T11:46:45.732Z</time>
      </trkpt>
      <trkpt lat="41.30871" lon="20.6316">
        <ele>738.532845</ele>
        <time>2022-04-27T11:46:48.737Z</time>
      </trkpt>
      <trkpt lat="41.30859" lon="20.6316">
        <ele>737.989577</ele>
        <time>2022-04-27T11:46:51.735Z</time>
      </trkpt>
      <trkpt lat="41.30847" lon="20.63158">
        <ele>737.442328</ele>
        <time>2022-04-27T11:46:54.733Z</time>
      </trkpt>
      <trkpt lat="41.30837" lon="20.63155">
        <ele>736.936028</ele>
        <time>2022-04-27T11:46:57.728Z</time>
      </trkpt>
      <trkpt lat="41.30827" lon="20.63151">
        <ele>736.465572</ele>
        <time>2022-04-27T11:47:00.775Z</time>
      </trkpt>
      <trkpt lat="41.30818" lon="20.63146">
        <ele>735.998747</ele>
        <time>2022-04-27T11:47:03.736Z</time>
      </trkpt>
      <trkpt lat="41.30808" lon="20.63141">
        <ele>735.528194</ele>
        <time>2022-04-27T11:47:06.754Z</time>
      </trkpt>
      <trkpt lat="41.30797" lon="20.63134">
        <ele>734.966569</ele>
        <time>2022-04-27T11:47:09.747Z</time>
      </trkpt>
      <trkpt lat="41.30786" lon="20.63126">
        <ele>734.384602</ele>
        <time>2022-04-27T11:47:12.732Z</time>
      </trkpt>
      <trkpt lat="41.30776" lon="20.63119">
        <ele>733.834617</ele>
        <time>2022-04-27T11:47:15.734Z</time>
      </trkpt>
      <trkpt lat="41.30766" lon="20.63112">
        <ele>733.336232</ele>
        <time>2022-04-27T11:47:18.737Z</time>
      </trkpt>
      <trkpt lat="41.30757" lon="20.63106">
        <ele>732.845305</ele>
        <time>2022-04-27T11:47:21.732Z</time>
      </trkpt>
      <trkpt lat="41.30748" lon="20.631">
        <ele>732.378049</ele>
        <time>2022-04-27T11:47:24.735Z</time>
      </trkpt>
      <trkpt lat="41.30739" lon="20.63093">
        <ele>732.128521</ele>
        <time>2022-04-27T11:47:27.731Z</time>
      </trkpt>
      <trkpt lat="41.30731" lon="20.63087">
        <ele>732.323051</ele>
        <time>2022-04-27T11:47:30.732Z</time>
      </trkpt>
      <trkpt lat="41.30722" lon="20.6308">
        <ele>732.531308</ele>
        <time>2022-04-27T11:47:33.764Z</time>
      </trkpt>
      <trkpt lat="41.30714" lon="20.63074">
        <ele>732.737212</ele>
        <time>2022-04-27T11:47:36.755Z</time>
      </trkpt>
      <trkpt lat="41.30705" lon="20.63068">
        <ele>732.949446</ele>
        <time>2022-04-27T11:47:39.732Z</time>
      </trkpt>
      <trkpt lat="41.30696" lon="20.63061">
        <ele>733.155228</ele>
        <time>2022-04-27T11:47:42.736Z</time>
      </trkpt>
      <trkpt lat="41.30688" lon="20.63054">
        <ele>733.367059</ele>
        <time>2022-04-27T11:47:45.740Z</time>
      </trkpt>
      <trkpt lat="41.30678" lon="20.63047">
        <ele>733.586679</ele>
        <time>2022-04-27T11:47:48.730Z</time>
      </trkpt>
      <trkpt lat="41.3067" lon="20.63041">
        <ele>733.79591</ele>
        <time>2022-04-27T11:47:51.736Z</time>
      </trkpt>
      <trkpt lat="41.30661" lon="20.63036">
        <ele>734.006587</ele>
        <time>2022-04-27T11:47:54.734Z</time>
      </trkpt>
      <trkpt lat="41.3065" lon="20.6303">
        <ele>734.24093</ele>
        <time>2022-04-27T11:47:57.733Z</time>
      </trkpt>
      <trkpt lat="41.30639" lon="20.63024">
        <ele>734.501159</ele>
        <time>2022-04-27T11:48:00.736Z</time>
      </trkpt>
      <trkpt lat="41.30627" lon="20.6302">
        <ele>734.760281</ele>
        <time>2022-04-27T11:48:03.732Z</time>
      </trkpt>
      <trkpt lat="41.30615" lon="20.63017">
        <ele>735.019924</ele>
        <time>2022-04-27T11:48:06.725Z</time>
      </trkpt>
      <trkpt lat="41.30604" lon="20.63019">
        <ele>735.233861</ele>
        <time>2022-04-27T11:48:09.744Z</time>
      </trkpt>
      <trkpt lat="41.30594" lon="20.63022">
        <ele>735.450368</ele>
        <time>2022-04-27T11:48:12.744Z</time>
      </trkpt>
      <trkpt lat="41.30583" lon="20.63027">
        <ele>735.699629</ele>
        <time>2022-04-27T11:48:15.738Z</time>
      </trkpt>
      <trkpt lat="41.30573" lon="20.63031">
        <ele>735.80584</ele>
        <time>2022-04-27T11:48:18.745Z</time>
      </trkpt>
      <trkpt lat="41.30564" lon="20.63037">
        <ele>735.735547</ele>
        <time>2022-04-27T11:48:21.743Z</time>
      </trkpt>
      <trkpt lat="41.30553" lon="20.63043">
        <ele>735.656094</ele>
        <time>2022-04-27T11:48:24.736Z</time>
      </trkpt>
      <trkpt lat="41.30542" lon="20.63047">
        <ele>735.578395</ele>
        <time>2022-04-27T11:48:27.763Z</time>
      </trkpt>
      <trkpt lat="41.30531" lon="20.63049">
        <ele>735.494541</ele>
        <time>2022-04-27T11:48:30.733Z</time>
      </trkpt>
      <trkpt lat="41.30522" lon="20.63049">
        <ele>735.431601</ele>
        <time>2022-04-27T11:48:32.735Z</time>
      </trkpt>
      <trkpt lat="41.30509" lon="20.63046">
        <ele>735.34496</ele>
        <time>2022-04-27T11:48:35.732Z</time>
      </trkpt>
      <trkpt lat="41.30498" lon="20.63042">
        <ele>735.263215</ele>
        <time>2022-04-27T11:48:38.737Z</time>
      </trkpt>
      <trkpt lat="41.30487" lon="20.63037">
        <ele>735.184594</ele>
        <time>2022-04-27T11:48:41.738Z</time>
      </trkpt>
      <trkpt lat="41.30478" lon="20.6303">
        <ele>735.110393</ele>
        <time>2022-04-27T11:48:44.742Z</time>
      </trkpt>
      <trkpt lat="41.30468" lon="20.63024">
        <ele>735.037105</ele>
        <time>2022-04-27T11:48:47.733Z</time>
      </trkpt>
      <trkpt lat="41.30459" lon="20.63018">
        <ele>734.963996</ele>
        <time>2022-04-27T11:48:50.729Z</time>
      </trkpt>
      <trkpt lat="41.30449" lon="20.63012">
        <ele>734.886424</ele>
        <time>2022-04-27T11:48:53.743Z</time>
      </trkpt>
      <trkpt lat="41.3044" lon="20.63006">
        <ele>734.814333</ele>
        <time>2022-04-27T11:48:56.745Z</time>
      </trkpt>
      <trkpt lat="41.30431" lon="20.62999">
        <ele>734.741795</ele>
        <time>2022-04-27T11:48:59.733Z</time>
      </trkpt>
      <trkpt lat="41.30421" lon="20.6299">
        <ele>734.656531</ele>
        <time>2022-04-27T11:49:02.736Z</time>
      </trkpt>
      <trkpt lat="41.30412" lon="20.6298">
        <ele>734.59005</ele>
        <time>2022-04-27T11:49:05.740Z</time>
      </trkpt>
      <trkpt lat="41.30404" lon="20.62968">
        <ele>734.940357</ele>
        <time>2022-04-27T11:49:08.733Z</time>
      </trkpt>
      <trkpt lat="41.30397" lon="20.62958">
        <ele>735.224883</ele>
        <time>2022-04-27T11:49:11.735Z</time>
      </trkpt>
      <trkpt lat="41.30389" lon="20.62948">
        <ele>735.545651</ele>
        <time>2022-04-27T11:49:14.736Z</time>
      </trkpt>
      <trkpt lat="41.30383" lon="20.62937">
        <ele>735.841247</ele>
        <time>2022-04-27T11:49:17.731Z</time>
      </trkpt>
      <trkpt lat="41.30376" lon="20.62926">
        <ele>736.140543</ele>
        <time>2022-04-27T11:49:20.735Z</time>
      </trkpt>
      <trkpt lat="41.3037" lon="20.62917">
        <ele>736.412869</ele>
        <time>2022-04-27T11:49:23.726Z</time>
      </trkpt>
      <trkpt lat="41.30363" lon="20.62907">
        <ele>736.703229</ele>
        <time>2022-04-27T11:49:26.743Z</time>
      </trkpt>
      <trkpt lat="41.30355" lon="20.62898">
        <ele>736.997462</ele>
        <time>2022-04-27T11:49:29.740Z</time>
      </trkpt>
      <trkpt lat="41.30347" lon="20.62891">
        <ele>737.287789</ele>
        <time>2022-04-27T11:49:32.736Z</time>
      </trkpt>
      <trkpt lat="41.30337" lon="20.62885">
        <ele>737.588724</ele>
        <time>2022-04-27T11:49:35.747Z</time>
      </trkpt>
      <trkpt lat="41.30328" lon="20.6288">
        <ele>737.882493</ele>
        <time>2022-04-27T11:49:38.742Z</time>
      </trkpt>
      <trkpt lat="41.30318" lon="20.62874">
        <ele>738.190253</ele>
        <time>2022-04-27T11:49:41.731Z</time>
      </trkpt>
      <trkpt lat="41.30309" lon="20.62866">
        <ele>738.511454</ele>
        <time>2022-04-27T11:49:44.728Z</time>
      </trkpt>
      <trkpt lat="41.303" lon="20.62857">
        <ele>738.832125</ele>
        <time>2022-04-27T11:49:47.733Z</time>
      </trkpt>
      <trkpt lat="41.30291" lon="20.62847">
        <ele>739.169406</ele>
        <time>2022-04-27T11:49:50.744Z</time>
      </trkpt>
      <trkpt lat="41.30284" lon="20.62836">
        <ele>739.482925</ele>
        <time>2022-04-27T11:49:53.736Z</time>
      </trkpt>
      <trkpt lat="41.3028" lon="20.62823">
        <ele>739.797523</ele>
        <time>2022-04-27T11:49:56.758Z</time>
      </trkpt>
      <trkpt lat="41.30276" lon="20.6281">
        <ele>740.156418</ele>
        <time>2022-04-27T11:49:59.744Z</time>
      </trkpt>
      <trkpt lat="41.30273" lon="20.62799">
        <ele>740.48421</ele>
        <time>2022-04-27T11:50:02.738Z</time>
      </trkpt>
      <trkpt lat="41.30271" lon="20.62786">
        <ele>740.854512</ele>
        <time>2022-04-27T11:50:05.740Z</time>
      </trkpt>
      <trkpt lat="41.30269" lon="20.62772">
        <ele>741.235266</ele>
        <time>2022-04-27T11:50:08.769Z</time>
      </trkpt>
      <trkpt lat="41.30268" lon="20.62759">
        <ele>741.605074</ele>
        <time>2022-04-27T11:50:11.728Z</time>
      </trkpt>
      <trkpt lat="41.30267" lon="20.62744">
        <ele>742.033808</ele>
        <time>2022-04-27T11:50:14.736Z</time>
      </trkpt>
      <trkpt lat="41.30266" lon="20.62729">
        <ele>742.448477</ele>
        <time>2022-04-27T11:50:17.735Z</time>
      </trkpt>
      <trkpt lat="41.30265" lon="20.62714">
        <ele>742.83778</ele>
        <time>2022-04-27T11:50:20.740Z</time>
      </trkpt>
      <trkpt lat="41.30265" lon="20.627">
        <ele>743.230493</ele>
        <time>2022-04-27T11:50:23.738Z</time>
      </trkpt>
      <trkpt lat="41.30266" lon="20.62684">
        <ele>743.668828</ele>
        <time>2022-04-27T11:50:26.735Z</time>
      </trkpt>
      <trkpt lat="41.30267" lon="20.62671">
        <ele>744.035247</ele>
        <time>2022-04-27T11:50:29.735Z</time>
      </trkpt>
      <trkpt lat="41.30268" lon="20.62655">
        <ele>744.465901</ele>
        <time>2022-04-27T11:50:32.762Z</time>
      </trkpt>
      <trkpt lat="41.3027" lon="20.62642">
        <ele>744.850637</ele>
        <time>2022-04-27T11:50:35.733Z</time>
      </trkpt>
      <trkpt lat="41.30272" lon="20.62628">
        <ele>745.225965</ele>
        <time>2022-04-27T11:50:38.732Z</time>
      </trkpt>
      <trkpt lat="41.30273" lon="20.62616">
        <ele>745.568865</ele>
        <time>2022-04-27T11:50:41.764Z</time>
      </trkpt>
      <trkpt lat="41.30274" lon="20.62601">
        <ele>745.987077</ele>
        <time>2022-04-27T11:50:45.736Z</time>
      </trkpt>
      <trkpt lat="41.30276" lon="20.62586">
        <ele>746.399723</ele>
        <time>2022-04-27T11:50:49.729Z</time>
      </trkpt>
      <trkpt lat="41.30278" lon="20.6257">
        <ele>746.784278</ele>
        <time>2022-04-27T11:50:53.727Z</time>
      </trkpt>
      <trkpt lat="41.30281" lon="20.62557">
        <ele>747.137556</ele>
        <time>2022-04-27T11:50:57.736Z</time>
      </trkpt>
      <trkpt lat="41.30283" lon="20.62543">
        <ele>747.493981</ele>
        <time>2022-04-27T11:51:00.734Z</time>
      </trkpt>
      <trkpt lat="41.30285" lon="20.62528">
        <ele>747.854758</ele>
        <time>2022-04-27T11:51:03.744Z</time>
      </trkpt>
      <trkpt lat="41.30285" lon="20.62515">
        <ele>748.195791</ele>
        <time>2022-04-27T11:51:06.731Z</time>
      </trkpt>
      <trkpt lat="41.30284" lon="20.62502">
        <ele>748.512905</ele>
        <time>2022-04-27T11:51:09.756Z</time>
      </trkpt>
      <trkpt lat="41.30283" lon="20.62488">
        <ele>748.854467</ele>
        <time>2022-04-27T11:51:12.743Z</time>
      </trkpt>
      <trkpt lat="41.30282" lon="20.62474">
        <ele>749.211823</ele>
        <time>2022-04-27T11:51:15.736Z</time>
      </trkpt>
      <trkpt lat="41.30281" lon="20.62459">
        <ele>749.587168</ele>
        <time>2022-04-27T11:51:18.759Z</time>
      </trkpt>
      <trkpt lat="41.3028" lon="20.62446">
        <ele>749.913396</ele>
        <time>2022-04-27T11:51:21.731Z</time>
      </trkpt>
      <trkpt lat="41.30283" lon="20.62434">
        <ele>750.235175</ele>
        <time>2022-04-27T11:51:24.734Z</time>
      </trkpt>
      <trkpt lat="41.30284" lon="20.62421">
        <ele>750.544852</ele>
        <time>2022-04-27T11:51:27.732Z</time>
      </trkpt>
      <trkpt lat="41.30284" lon="20.62408">
        <ele>750.885756</ele>
        <time>2022-04-27T11:51:30.744Z</time>
      </trkpt>
      <trkpt lat="41.30285" lon="20.62395">
        <ele>751.209836</ele>
        <time>2022-04-27T11:51:33.737Z</time>
      </trkpt>
      <trkpt lat="41.30284" lon="20.62382">
        <ele>751.519813</ele>
        <time>2022-04-27T11:51:36.734Z</time>
      </trkpt>
      <trkpt lat="41.30283" lon="20.62367">
        <ele>751.893283</ele>
        <time>2022-04-27T11:51:40.746Z</time>
      </trkpt>
      <trkpt lat="41.30284" lon="20.62352">
        <ele>752.271509</ele>
        <time>2022-04-27T11:51:44.735Z</time>
      </trkpt>
      <trkpt lat="41.30283" lon="20.62339">
        <ele>752.005679</ele>
        <time>2022-04-27T11:51:47.730Z</time>
      </trkpt>
      <trkpt lat="41.30281" lon="20.62326">
        <ele>751.695254</ele>
        <time>2022-04-27T11:51:50.744Z</time>
      </trkpt>
      <trkpt lat="41.30279" lon="20.62312">
        <ele>751.385366</ele>
        <time>2022-04-27T11:51:53.729Z</time>
      </trkpt>
      <trkpt lat="41.30276" lon="20.62299">
        <ele>751.076204</ele>
        <time>2022-04-27T11:51:56.735Z</time>
      </trkpt>
      <trkpt lat="41.30274" lon="20.62287">
        <ele>750.779512</ele>
        <time>2022-04-27T11:51:59.758Z</time>
      </trkpt>
      <trkpt lat="41.30271" lon="20.62275">
        <ele>750.500417</ele>
        <time>2022-04-27T11:52:02.741Z</time>
      </trkpt>
      <trkpt lat="41.30268" lon="20.62263">
        <ele>750.222306</ele>
        <time>2022-04-27T11:52:05.735Z</time>
      </trkpt>
      <trkpt lat="41.30263" lon="20.62252">
        <ele>749.932722</ele>
        <time>2022-04-27T11:52:08.737Z</time>
      </trkpt>
      <trkpt lat="41.30259" lon="20.62241">
        <ele>749.644368</ele>
        <time>2022-04-27T11:52:11.728Z</time>
      </trkpt>
      <trkpt lat="41.30254" lon="20.6223">
        <ele>749.33918</ele>
        <time>2022-04-27T11:52:14.730Z</time>
      </trkpt>
      <trkpt lat="41.30247" lon="20.62219">
        <ele>749.014702</ele>
        <time>2022-04-27T11:52:17.743Z</time>
      </trkpt>
      <trkpt lat="41.30241" lon="20.62207">
        <ele>748.68845</ele>
        <time>2022-04-27T11:52:20.730Z</time>
      </trkpt>
      <trkpt lat="41.30234" lon="20.62194">
        <ele>748.337038</ele>
        <time>2022-04-27T11:52:23.729Z</time>
      </trkpt>
      <trkpt lat="41.30227" lon="20.62181">
        <ele>747.953005</ele>
        <time>2022-04-27T11:52:26.733Z</time>
      </trkpt>
      <trkpt lat="41.3022" lon="20.6217">
        <ele>747.637422</ele>
        <time>2022-04-27T11:52:29.735Z</time>
      </trkpt>
      <trkpt lat="41.30212" lon="20.62158">
        <ele>747.272735</ele>
        <time>2022-04-27T11:52:32.741Z</time>
      </trkpt>
      <trkpt lat="41.30203" lon="20.62147">
        <ele>746.907099</ele>
        <time>2022-04-27T11:52:35.734Z</time>
      </trkpt>
      <trkpt lat="41.30196" lon="20.62134">
        <ele>746.78763</ele>
        <time>2022-04-27T11:52:38.736Z</time>
      </trkpt>
      <trkpt lat="41.30189" lon="20.62121">
        <ele>746.727049</ele>
        <time>2022-04-27T11:52:41.745Z</time>
      </trkpt>
      <trkpt lat="41.30181" lon="20.6211">
        <ele>746.670379</ele>
        <time>2022-04-27T11:52:44.761Z</time>
      </trkpt>
      <trkpt lat="41.30173" lon="20.62097">
        <ele>746.607067</ele>
        <time>2022-04-27T11:52:47.733Z</time>
      </trkpt>
      <trkpt lat="41.30164" lon="20.62084">
        <ele>746.541284</ele>
        <time>2022-04-27T11:52:50.738Z</time>
      </trkpt>
      <trkpt lat="41.30155" lon="20.62075">
        <ele>746.483441</ele>
        <time>2022-04-27T11:52:53.735Z</time>
      </trkpt>
      <trkpt lat="41.30146" lon="20.62068">
        <ele>746.43064</ele>
        <time>2022-04-27T11:52:56.736Z</time>
      </trkpt>
      <trkpt lat="41.30136" lon="20.62062">
        <ele>746.374242</ele>
        <time>2022-04-27T11:52:59.740Z</time>
      </trkpt>
      <trkpt lat="41.30127" lon="20.62056">
        <ele>746.322309</ele>
        <time>2022-04-27T11:53:02.757Z</time>
      </trkpt>
      <trkpt lat="41.30117" lon="20.62051">
        <ele>746.270539</ele>
        <time>2022-04-27T11:53:05.735Z</time>
      </trkpt>
      <trkpt lat="41.30107" lon="20.62044">
        <ele>746.21482</ele>
        <time>2022-04-27T11:53:08.737Z</time>
      </trkpt>
      <trkpt lat="41.30098" lon="20.62038">
        <ele>746.163333</ele>
        <time>2022-04-27T11:53:11.749Z</time>
      </trkpt>
      <trkpt lat="41.30089" lon="20.62032">
        <ele>746.111513</ele>
        <time>2022-04-27T11:53:14.750Z</time>
      </trkpt>
      <trkpt lat="41.3008" lon="20.62026">
        <ele>746.059692</ele>
        <time>2022-04-27T11:53:17.741Z</time>
      </trkpt>
      <trkpt lat="41.3007" lon="20.6202">
        <ele>746.004846</ele>
        <time>2022-04-27T11:53:20.737Z</time>
      </trkpt>
      <trkpt lat="41.30059" lon="20.62016">
        <ele>745.945044</ele>
        <time>2022-04-27T11:53:23.764Z</time>
      </trkpt>
      <trkpt lat="41.30047" lon="20.6201">
        <ele>746.187868</ele>
        <time>2022-04-27T11:53:26.732Z</time>
      </trkpt>
      <trkpt lat="41.30036" lon="20.62004">
        <ele>746.5129</ele>
        <time>2022-04-27T11:53:29.744Z</time>
      </trkpt>
      <trkpt lat="41.30024" lon="20.61999">
        <ele>746.845869</ele>
        <time>2022-04-27T11:53:32.750Z</time>
      </trkpt>
      <trkpt lat="41.30012" lon="20.61994">
        <ele>747.169898</ele>
        <time>2022-04-27T11:53:35.736Z</time>
      </trkpt>
      <trkpt lat="41.3" lon="20.6199">
        <ele>747.507846</ele>
        <time>2022-04-27T11:53:38.731Z</time>
      </trkpt>
      <trkpt lat="41.29988" lon="20.61985">
        <ele>747.841118</ele>
        <time>2022-04-27T11:53:41.733Z</time>
      </trkpt>
      <trkpt lat="41.29978" lon="20.61983">
        <ele>748.141066</ele>
        <time>2022-04-27T11:53:44.732Z</time>
      </trkpt>
      <trkpt lat="41.29968" lon="20.6198">
        <ele>748.406935</ele>
        <time>2022-04-27T11:53:47.739Z</time>
      </trkpt>
      <trkpt lat="41.29957" lon="20.61976">
        <ele>748.725799</ele>
        <time>2022-04-27T11:53:51.755Z</time>
      </trkpt>
      <trkpt lat="41.29946" lon="20.61975">
        <ele>749.006905</ele>
        <time>2022-04-27T11:53:54.736Z</time>
      </trkpt>
      <trkpt lat="41.29936" lon="20.61974">
        <ele>749.27498</ele>
        <time>2022-04-27T11:53:57.755Z</time>
      </trkpt>
      <trkpt lat="41.29925" lon="20.61974">
        <ele>749.566418</ele>
        <time>2022-04-27T11:54:00.735Z</time>
      </trkpt>
      <trkpt lat="41.29915" lon="20.61973">
        <ele>749.855499</ele>
        <time>2022-04-27T11:54:03.731Z</time>
      </trkpt>
      <trkpt lat="41.29904" lon="20.61973">
        <ele>750.146994</ele>
        <time>2022-04-27T11:54:06.733Z</time>
      </trkpt>
      <trkpt lat="41.29893" lon="20.61973">
        <ele>750.441131</ele>
        <time>2022-04-27T11:54:09.754Z</time>
      </trkpt>
      <trkpt lat="41.29883" lon="20.61972">
        <ele>750.719963</ele>
        <time>2022-04-27T11:54:12.752Z</time>
      </trkpt>
      <trkpt lat="41.29872" lon="20.61972">
        <ele>750.786396</ele>
        <time>2022-04-27T11:54:15.726Z</time>
      </trkpt>
      <trkpt lat="41.2986" lon="20.6197">
        <ele>750.789748</ele>
        <time>2022-04-27T11:54:18.744Z</time>
      </trkpt>
      <trkpt lat="41.29848" lon="20.6197">
        <ele>750.792982</ele>
        <time>2022-04-27T11:54:21.732Z</time>
      </trkpt>
      <trkpt lat="41.29836" lon="20.61972">
        <ele>750.796437</ele>
        <time>2022-04-27T11:54:24.740Z</time>
      </trkpt>
      <trkpt lat="41.29825" lon="20.61975">
        <ele>750.799825</ele>
        <time>2022-04-27T11:54:27.743Z</time>
      </trkpt>
      <trkpt lat="41.29814" lon="20.61978">
        <ele>750.802831</ele>
        <time>2022-04-27T11:54:30.741Z</time>
      </trkpt>
      <trkpt lat="41.29803" lon="20.61978">
        <ele>750.806008</ele>
        <time>2022-04-27T11:54:33.733Z</time>
      </trkpt>
      <trkpt lat="41.29792" lon="20.61983">
        <ele>750.809299</ele>
        <time>2022-04-27T11:54:36.764Z</time>
      </trkpt>
      <trkpt lat="41.29781" lon="20.61986">
        <ele>750.812521</ele>
        <time>2022-04-27T11:54:39.729Z</time>
      </trkpt>
      <trkpt lat="41.29768" lon="20.6199">
        <ele>750.816186</ele>
        <time>2022-04-27T11:54:42.753Z</time>
      </trkpt>
      <trkpt lat="41.29756" lon="20.61992">
        <ele>750.81968</ele>
        <time>2022-04-27T11:54:45.736Z</time>
      </trkpt>
      <trkpt lat="41.29744" lon="20.61993">
        <ele>750.823081</ele>
        <time>2022-04-27T11:54:48.742Z</time>
      </trkpt>
      <trkpt lat="41.29733" lon="20.61991">
        <ele>750.826127</ele>
        <time>2022-04-27T11:54:51.732Z</time>
      </trkpt>
      <trkpt lat="41.29723" lon="20.61989">
        <ele>750.829173</ele>
        <time>2022-04-27T11:54:54.735Z</time>
      </trkpt>
      <trkpt lat="41.29711" lon="20.61988">
        <ele>750.832379</ele>
        <time>2022-04-27T11:54:57.755Z</time>
      </trkpt>
      <trkpt lat="41.297" lon="20.61988">
        <ele>750.903683</ele>
        <time>2022-04-27T11:55:00.734Z</time>
      </trkpt>
      <trkpt lat="41.29688" lon="20.61989">
        <ele>751.21699</ele>
        <time>2022-04-27T11:55:03.748Z</time>
      </trkpt>
      <trkpt lat="41.29676" lon="20.6199">
        <ele>751.52043</ele>
        <time>2022-04-27T11:55:06.741Z</time>
      </trkpt>
      <trkpt lat="41.29664" lon="20.61989">
        <ele>751.821109</ele>
        <time>2022-04-27T11:55:09.733Z</time>
      </trkpt>
      <trkpt lat="41.29653" lon="20.61986">
        <ele>752.102216</ele>
        <time>2022-04-27T11:55:12.739Z</time>
      </trkpt>
      <trkpt lat="41.29643" lon="20.61985">
        <ele>752.36547</ele>
        <time>2022-04-27T11:55:15.732Z</time>
      </trkpt>
      <trkpt lat="41.29633" lon="20.61983">
        <ele>752.626834</ele>
        <time>2022-04-27T11:55:18.733Z</time>
      </trkpt>
      <trkpt lat="41.29623" lon="20.61983">
        <ele>752.891717</ele>
        <time>2022-04-27T11:55:21.746Z</time>
      </trkpt>
      <trkpt lat="41.29613" lon="20.61981">
        <ele>753.155395</ele>
        <time>2022-04-27T11:55:24.734Z</time>
      </trkpt>
      <trkpt lat="41.29602" lon="20.6198">
        <ele>753.420277</ele>
        <time>2022-04-27T11:55:27.735Z</time>
      </trkpt>
      <trkpt lat="41.29592" lon="20.6198">
        <ele>753.684774</ele>
        <time>2022-04-27T11:55:30.737Z</time>
      </trkpt>
      <trkpt lat="41.29582" lon="20.6198">
        <ele>753.936377</ele>
        <time>2022-04-27T11:55:33.737Z</time>
      </trkpt>
      <trkpt lat="41.29572" lon="20.61981">
        <ele>754.185884</ele>
        <time>2022-04-27T11:55:36.735Z</time>
      </trkpt>
      <trkpt lat="41.29562" lon="20.61983">
        <ele>754.46302</ele>
        <time>2022-04-27T11:55:39.736Z</time>
      </trkpt>
      <trkpt lat="41.29551" lon="20.61987">
        <ele>754.757267</ele>
        <time>2022-04-27T11:55:42.729Z</time>
      </trkpt>
      <trkpt lat="41.2954" lon="20.61991">
        <ele>755.045943</ele>
        <time>2022-04-27T11:55:45.733Z</time>
      </trkpt>
      <trkpt lat="41.29528" lon="20.61997">
        <ele>755.363057</ele>
        <time>2022-04-27T11:55:48.744Z</time>
      </trkpt>
      <trkpt lat="41.29517" lon="20.62003">
        <ele>755.204777</ele>
        <time>2022-04-27T11:55:51.730Z</time>
      </trkpt>
      <trkpt lat="41.29505" lon="20.6201">
        <ele>754.828258</ele>
        <time>2022-04-27T11:55:54.737Z</time>
      </trkpt>
      <trkpt lat="41.29494" lon="20.62017">
        <ele>754.477913</ele>
        <time>2022-04-27T11:55:57.737Z</time>
      </trkpt>
      <trkpt lat="41.29483" lon="20.62024">
        <ele>754.115199</ele>
        <time>2022-04-27T11:56:00.737Z</time>
      </trkpt>
      <trkpt lat="41.29472" lon="20.62031">
        <ele>753.770129</ele>
        <time>2022-04-27T11:56:03.740Z</time>
      </trkpt>
      <trkpt lat="41.29462" lon="20.62037">
        <ele>753.455507</ele>
        <time>2022-04-27T11:56:06.736Z</time>
      </trkpt>
      <trkpt lat="41.29452" lon="20.62045">
        <ele>753.136765</ele>
        <time>2022-04-27T11:56:09.760Z</time>
      </trkpt>
      <trkpt lat="41.29442" lon="20.62053">
        <ele>752.800881</ele>
        <time>2022-04-27T11:56:12.732Z</time>
      </trkpt>
      <trkpt lat="41.29432" lon="20.6206">
        <ele>752.480323</ele>
        <time>2022-04-27T11:56:15.732Z</time>
      </trkpt>
      <trkpt lat="41.29424" lon="20.62068">
        <ele>752.184296</ele>
        <time>2022-04-27T11:56:18.732Z</time>
      </trkpt>
      <trkpt lat="41.29416" lon="20.62075">
        <ele>751.904972</ele>
        <time>2022-04-27T11:56:21.746Z</time>
      </trkpt>
      <trkpt lat="41.29407" lon="20.62083">
        <ele>751.593391</ele>
        <time>2022-04-27T11:56:24.737Z</time>
      </trkpt>
      <trkpt lat="41.29397" lon="20.62091">
        <ele>751.273898</ele>
        <time>2022-04-27T11:56:27.729Z</time>
      </trkpt>
      <trkpt lat="41.29387" lon="20.62098">
        <ele>750.95044</ele>
        <time>2022-04-27T11:56:30.728Z</time>
      </trkpt>
      <trkpt lat="41.29376" lon="20.62105">
        <ele>750.585836</ele>
        <time>2022-04-27T11:56:33.735Z</time>
      </trkpt>
      <trkpt lat="41.29364" lon="20.62112">
        <ele>750.348876</ele>
        <time>2022-04-27T11:56:36.733Z</time>
      </trkpt>
      <trkpt lat="41.29352" lon="20.62117">
        <ele>750.633625</ele>
        <time>2022-04-27T11:56:39.731Z</time>
      </trkpt>
      <trkpt lat="41.29344" lon="20.62119">
        <ele>750.84177</ele>
        <time>2022-04-27T11:56:41.732Z</time>
      </trkpt>
      <trkpt lat="41.29335" lon="20.62122">
        <ele>751.050301</ele>
        <time>2022-04-27T11:56:43.739Z</time>
      </trkpt>
      <trkpt lat="41.29322" lon="20.62125">
        <ele>751.332308</ele>
        <time>2022-04-27T11:56:46.738Z</time>
      </trkpt>
      <trkpt lat="41.29311" lon="20.62126">
        <ele>751.588518</ele>
        <time>2022-04-27T11:56:49.732Z</time>
      </trkpt>
      <trkpt lat="41.29301" lon="20.62126">
        <ele>751.818878</ele>
        <time>2022-04-27T11:56:52.733Z</time>
      </trkpt>
      <trkpt lat="41.29291" lon="20.62125">
        <ele>752.056768</ele>
        <time>2022-04-27T11:56:55.736Z</time>
      </trkpt>
      <trkpt lat="41.29279" lon="20.62124">
        <ele>752.328308</ele>
        <time>2022-04-27T11:56:58.750Z</time>
      </trkpt>
      <trkpt lat="41.29267" lon="20.62122">
        <ele>752.606334</ele>
        <time>2022-04-27T11:57:01.733Z</time>
      </trkpt>
      <trkpt lat="41.29256" lon="20.62118">
        <ele>752.856652</ele>
        <time>2022-04-27T11:57:04.742Z</time>
      </trkpt>
      <trkpt lat="41.29247" lon="20.62113">
        <ele>753.083485</ele>
        <time>2022-04-27T11:57:07.733Z</time>
      </trkpt>
      <trkpt lat="41.29238" lon="20.62111">
        <ele>753.296045</ele>
        <time>2022-04-27T11:57:10.754Z</time>
      </trkpt>
      <trkpt lat="41.29229" lon="20.62107">
        <ele>753.511364</ele>
        <time>2022-04-27T11:57:13.729Z</time>
      </trkpt>
      <trkpt lat="41.29219" lon="20.62102">
        <ele>753.744307</ele>
        <time>2022-04-27T11:57:16.754Z</time>
      </trkpt>
      <trkpt lat="41.29208" lon="20.62098">
        <ele>754.010929</ele>
        <time>2022-04-27T11:57:20.736Z</time>
      </trkpt>
      <trkpt lat="41.29198" lon="20.62092">
        <ele>754.262479</ele>
        <time>2022-04-27T11:57:23.734Z</time>
      </trkpt>
      <trkpt lat="41.29188" lon="20.62087">
        <ele>754.575144</ele>
        <time>2022-04-27T11:57:26.728Z</time>
      </trkpt>
      <trkpt lat="41.29177" lon="20.62082">
        <ele>754.958059</ele>
        <time>2022-04-27T11:57:29.737Z</time>
      </trkpt>
      <trkpt lat="41.29167" lon="20.62076">
        <ele>755.340974</ele>
        <time>2022-04-27T11:57:32.734Z</time>
      </trkpt>
      <trkpt lat="41.29156" lon="20.62071">
        <ele>755.743153</ele>
        <time>2022-04-27T11:57:35.725Z</time>
      </trkpt>
      <trkpt lat="41.29146" lon="20.62064">
        <ele>756.122403</ele>
        <time>2022-04-27T11:57:38.736Z</time>
      </trkpt>
      <trkpt lat="41.29136" lon="20.62058">
        <ele>756.490536</ele>
        <time>2022-04-27T11:57:41.731Z</time>
      </trkpt>
      <trkpt lat="41.29126" lon="20.62052">
        <ele>756.87066</ele>
        <time>2022-04-27T11:57:44.728Z</time>
      </trkpt>
      <trkpt lat="41.29116" lon="20.62045">
        <ele>757.233906</ele>
        <time>2022-04-27T11:57:47.732Z</time>
      </trkpt>
      <trkpt lat="41.29107" lon="20.62039">
        <ele>757.603678</ele>
        <time>2022-04-27T11:57:50.732Z</time>
      </trkpt>
      <trkpt lat="41.29097" lon="20.62032">
        <ele>757.967593</ele>
        <time>2022-04-27T11:57:53.736Z</time>
      </trkpt>
      <trkpt lat="41.29088" lon="20.62026">
        <ele>758.334168</ele>
        <time>2022-04-27T11:57:56.738Z</time>
      </trkpt>
      <trkpt lat="41.29078" lon="20.6202">
        <ele>758.700002</ele>
        <time>2022-04-27T11:57:59.761Z</time>
      </trkpt>
      <trkpt lat="41.29068" lon="20.62013">
        <ele>759.071141</ele>
        <time>2022-04-27T11:58:02.741Z</time>
      </trkpt>
      <trkpt lat="41.29059" lon="20.62005">
        <ele>759.44549</ele>
        <time>2022-04-27T11:58:05.759Z</time>
      </trkpt>
      <trkpt lat="41.29049" lon="20.61997">
        <ele>759.862893</ele>
        <time>2022-04-27T11:58:08.749Z</time>
      </trkpt>
      <trkpt lat="41.29039" lon="20.6199">
        <ele>760.230361</ele>
        <time>2022-04-27T11:58:11.766Z</time>
      </trkpt>
      <trkpt lat="41.29029" lon="20.61987">
        <ele>760.512931</ele>
        <time>2022-04-27T11:58:14.735Z</time>
      </trkpt>
      <trkpt lat="41.29019" lon="20.6198">
        <ele>760.257771</ele>
        <time>2022-04-27T11:58:17.733Z</time>
      </trkpt>
      <trkpt lat="41.29008" lon="20.61975">
        <ele>760.000777</ele>
        <time>2022-04-27T11:58:20.728Z</time>
      </trkpt>
      <trkpt lat="41.28997" lon="20.61971">
        <ele>759.750097</ele>
        <time>2022-04-27T11:58:23.752Z</time>
      </trkpt>
      <trkpt lat="41.28987" lon="20.61966">
        <ele>759.503147</ele>
        <time>2022-04-27T11:58:26.738Z</time>
      </trkpt>
      <trkpt lat="41.28976" lon="20.61961">
        <ele>759.250848</ele>
        <time>2022-04-27T11:58:29.737Z</time>
      </trkpt>
      <trkpt lat="41.28965" lon="20.61956">
        <ele>758.997558</ele>
        <time>2022-04-27T11:58:32.743Z</time>
      </trkpt>
      <trkpt lat="41.28955" lon="20.6195">
        <ele>758.755437</ele>
        <time>2022-04-27T11:58:35.737Z</time>
      </trkpt>
      <trkpt lat="41.28946" lon="20.61943">
        <ele>758.508823</ele>
        <time>2022-04-27T11:58:38.732Z</time>
      </trkpt>
      <trkpt lat="41.28936" lon="20.61937">
        <ele>758.261886</ele>
        <time>2022-04-27T11:58:41.733Z</time>
      </trkpt>
      <trkpt lat="41.28926" lon="20.6193">
        <ele>758.013276</ele>
        <time>2022-04-27T11:58:44.742Z</time>
      </trkpt>
      <trkpt lat="41.28916" lon="20.61922">
        <ele>757.760629</ele>
        <time>2022-04-27T11:58:47.735Z</time>
      </trkpt>
      <trkpt lat="41.28907" lon="20.61914">
        <ele>757.506254</ele>
        <time>2022-04-27T11:58:50.736Z</time>
      </trkpt>
      <trkpt lat="41.28897" lon="20.61905">
        <ele>757.252814</ele>
        <time>2022-04-27T11:58:53.741Z</time>
      </trkpt>
      <trkpt lat="41.28888" lon="20.61897">
        <ele>756.997483</ele>
        <time>2022-04-27T11:58:56.762Z</time>
      </trkpt>
      <trkpt lat="41.28878" lon="20.61887">
        <ele>756.714697</ele>
        <time>2022-04-27T11:58:59.728Z</time>
      </trkpt>
      <trkpt lat="41.28868" lon="20.61878">
        <ele>756.389337</ele>
        <time>2022-04-27T11:59:02.741Z</time>
      </trkpt>
      <trkpt lat="41.2886" lon="20.61867">
        <ele>755.889068</ele>
        <time>2022-04-27T11:59:05.737Z</time>
      </trkpt>
      <trkpt lat="41.28851" lon="20.61859">
        <ele>755.416448</ele>
        <time>2022-04-27T11:59:08.744Z</time>
      </trkpt>
      <trkpt lat="41.28842" lon="20.61849">
        <ele>754.913294</ele>
        <time>2022-04-27T11:59:11.739Z</time>
      </trkpt>
      <trkpt lat="41.28834" lon="20.61839">
        <ele>754.444758</ele>
        <time>2022-04-27T11:59:14.737Z</time>
      </trkpt>
      <trkpt lat="41.28826" lon="20.6183">
        <ele>753.976301</ele>
        <time>2022-04-27T11:59:17.734Z</time>
      </trkpt>
      <trkpt lat="41.28817" lon="20.6182">
        <ele>753.473944</ele>
        <time>2022-04-27T11:59:20.741Z</time>
      </trkpt>
      <trkpt lat="41.28809" lon="20.6181">
        <ele>752.97593</ele>
        <time>2022-04-27T11:59:23.737Z</time>
      </trkpt>
      <trkpt lat="41.288" lon="20.618">
        <ele>752.488586</ele>
        <time>2022-04-27T11:59:26.740Z</time>
      </trkpt>
      <trkpt lat="41.28792" lon="20.61791">
        <ele>752.015479</ele>
        <time>2022-04-27T11:59:29.731Z</time>
      </trkpt>
      <trkpt lat="41.28783" lon="20.61781">
        <ele>751.518555</ele>
        <time>2022-04-27T11:59:32.741Z</time>
      </trkpt>
      <trkpt lat="41.28775" lon="20.61771">
        <ele>751.018623</ele>
        <time>2022-04-27T11:59:35.766Z</time>
      </trkpt>
      <trkpt lat="41.28766" lon="20.61761">
        <ele>750.537103</ele>
        <time>2022-04-27T11:59:38.736Z</time>
      </trkpt>
      <trkpt lat="41.28757" lon="20.61752">
        <ele>750.014884</ele>
        <time>2022-04-27T11:59:41.735Z</time>
      </trkpt>
      <trkpt lat="41.28747" lon="20.61742">
        <ele>749.512454</ele>
        <time>2022-04-27T11:59:44.735Z</time>
      </trkpt>
      <trkpt lat="41.28737" lon="20.61735">
        <ele>749.007236</ele>
        <time>2022-04-27T11:59:47.739Z</time>
      </trkpt>
      <trkpt lat="41.28727" lon="20.61728">
        <ele>748.691362</ele>
        <time>2022-04-27T11:59:50.737Z</time>
      </trkpt>
      <trkpt lat="41.28716" lon="20.61721">
        <ele>748.67958</ele>
        <time>2022-04-27T11:59:53.737Z</time>
      </trkpt>
      <trkpt lat="41.28707" lon="20.61715">
        <ele>748.668867</ele>
        <time>2022-04-27T11:59:56.738Z</time>
      </trkpt>
      <trkpt lat="41.28698" lon="20.6171">
        <ele>748.659027</ele>
        <time>2022-04-27T11:59:59.731Z</time>
      </trkpt>
      <trkpt lat="41.28689" lon="20.61704">
        <ele>748.648407</ele>
        <time>2022-04-27T12:00:03.744Z</time>
      </trkpt>
      <trkpt lat="41.2868" lon="20.61699">
        <ele>748.638971</ele>
        <time>2022-04-27T12:00:07.745Z</time>
      </trkpt>
      <trkpt lat="41.28669" lon="20.61694">
        <ele>748.627189</ele>
        <time>2022-04-27T12:00:12.730Z</time>
      </trkpt>
      <trkpt lat="41.28659" lon="20.61689">
        <ele>748.615382</ele>
        <time>2022-04-27T12:00:16.734Z</time>
      </trkpt>
      <trkpt lat="41.2865" lon="20.61683">
        <ele>748.605998</ele>
        <time>2022-04-27T12:00:19.757Z</time>
      </trkpt>
      <trkpt lat="41.28642" lon="20.61677">
        <ele>748.596489</ele>
        <time>2022-04-27T12:00:22.735Z</time>
      </trkpt>
      <trkpt lat="41.28633" lon="20.61673">
        <ele>748.586792</ele>
        <time>2022-04-27T12:00:25.774Z</time>
      </trkpt>
      <trkpt lat="41.28623" lon="20.61669">
        <ele>748.575518</ele>
        <time>2022-04-27T12:00:28.733Z</time>
      </trkpt>
      <trkpt lat="41.28613" lon="20.61662">
        <ele>748.564458</ele>
        <time>2022-04-27T12:00:31.734Z</time>
      </trkpt>
      <trkpt lat="41.28604" lon="20.61652">
        <ele>748.552767</ele>
        <time>2022-04-27T12:00:34.745Z</time>
      </trkpt>
      <trkpt lat="41.28595" lon="20.61645">
        <ele>748.541518</ele>
        <time>2022-04-27T12:00:37.732Z</time>
      </trkpt>
      <trkpt lat="41.28585" lon="20.61639">
        <ele>748.530307</ele>
        <time>2022-04-27T12:00:40.738Z</time>
      </trkpt>
      <trkpt lat="41.28575" lon="20.61634">
        <ele>748.519649</ele>
        <time>2022-04-27T12:00:43.736Z</time>
      </trkpt>
      <trkpt lat="41.28565" lon="20.61627">
        <ele>748.292703</ele>
        <time>2022-04-27T12:00:46.738Z</time>
      </trkpt>
      <trkpt lat="41.28556" lon="20.61621">
        <ele>747.705599</ele>
        <time>2022-04-27T12:00:49.735Z</time>
      </trkpt>
      <trkpt lat="41.28546" lon="20.61615">
        <ele>747.090501</ele>
        <time>2022-04-27T12:00:52.746Z</time>
      </trkpt>
      <trkpt lat="41.28536" lon="20.61609">
        <ele>746.47619</ele>
        <time>2022-04-27T12:00:55.735Z</time>
      </trkpt>
      <trkpt lat="41.28526" lon="20.61604">
        <ele>745.873388</ele>
        <time>2022-04-27T12:00:58.759Z</time>
      </trkpt>
      <trkpt lat="41.28517" lon="20.61598">
        <ele>745.344082</ele>
        <time>2022-04-27T12:01:01.741Z</time>
      </trkpt>
      <trkpt lat="41.28508" lon="20.61594">
        <ele>744.768799</ele>
        <time>2022-04-27T12:01:04.734Z</time>
      </trkpt>
      <trkpt lat="41.28497" lon="20.61588">
        <ele>744.142071</ele>
        <time>2022-04-27T12:01:07.730Z</time>
      </trkpt>
      <trkpt lat="41.28485" lon="20.61583">
        <ele>743.448557</ele>
        <time>2022-04-27T12:01:10.740Z</time>
      </trkpt>
      <trkpt lat="41.28473" lon="20.61578">
        <ele>742.753675</ele>
        <time>2022-04-27T12:01:13.755Z</time>
      </trkpt>
      <trkpt lat="41.28461" lon="20.61576">
        <ele>742.053646</ele>
        <time>2022-04-27T12:01:16.735Z</time>
      </trkpt>
      <trkpt lat="41.28449" lon="20.61574">
        <ele>741.359172</ele>
        <time>2022-04-27T12:01:19.727Z</time>
      </trkpt>
      <trkpt lat="41.28436" lon="20.61572">
        <ele>740.665719</ele>
        <time>2022-04-27T12:01:22.746Z</time>
      </trkpt>
      <trkpt lat="41.28425" lon="20.6157">
        <ele>740.015657</ele>
        <time>2022-04-27T12:01:25.744Z</time>
      </trkpt>
      <trkpt lat="41.28413" lon="20.61568">
        <ele>739.33838</ele>
        <time>2022-04-27T12:01:28.736Z</time>
      </trkpt>
      <trkpt lat="41.28401" lon="20.61565">
        <ele>738.680425</ele>
        <time>2022-04-27T12:01:31.728Z</time>
      </trkpt>
      <trkpt lat="41.28391" lon="20.61561">
        <ele>738.50675</ele>
        <time>2022-04-27T12:01:34.744Z</time>
      </trkpt>
      <trkpt lat="41.2838" lon="20.61553">
        <ele>738.617792</ele>
        <time>2022-04-27T12:01:37.727Z</time>
      </trkpt>
      <trkpt lat="41.2837" lon="20.61545">
        <ele>738.732964</ele>
        <time>2022-04-27T12:01:40.737Z</time>
      </trkpt>
      <trkpt lat="41.28362" lon="20.61534">
        <ele>738.844915</ele>
        <time>2022-04-27T12:01:43.753Z</time>
      </trkpt>
      <trkpt lat="41.28354" lon="20.61524">
        <ele>738.946109</ele>
        <time>2022-04-27T12:01:46.748Z</time>
      </trkpt>
      <trkpt lat="41.28348" lon="20.61514">
        <ele>739.041221</ele>
        <time>2022-04-27T12:01:49.728Z</time>
      </trkpt>
      <trkpt lat="41.28342" lon="20.61505">
        <ele>739.129395</ele>
        <time>2022-04-27T12:01:52.745Z</time>
      </trkpt>
      <trkpt lat="41.28335" lon="20.61496">
        <ele>739.21958</ele>
        <time>2022-04-27T12:01:55.731Z</time>
      </trkpt>
      <trkpt lat="41.2833" lon="20.61486">
        <ele>739.305879</ele>
        <time>2022-04-27T12:01:58.737Z</time>
      </trkpt>
      <trkpt lat="41.28324" lon="20.61476">
        <ele>739.396393</ele>
        <time>2022-04-27T12:02:01.761Z</time>
      </trkpt>
      <trkpt lat="41.28316" lon="20.61465">
        <ele>739.50624</ele>
        <time>2022-04-27T12:02:04.741Z</time>
      </trkpt>
      <trkpt lat="41.28309" lon="20.61452">
        <ele>739.623067</ele>
        <time>2022-04-27T12:02:07.733Z</time>
      </trkpt>
      <trkpt lat="41.28301" lon="20.6144">
        <ele>739.737517</ele>
        <time>2022-04-27T12:02:10.733Z</time>
      </trkpt>
      <trkpt lat="41.28294" lon="20.61428">
        <ele>739.848022</ele>
        <time>2022-04-27T12:02:13.738Z</time>
      </trkpt>
      <trkpt lat="41.28285" lon="20.61416">
        <ele>739.968759</ele>
        <time>2022-04-27T12:02:16.736Z</time>
      </trkpt>
      <trkpt lat="41.28277" lon="20.61405">
        <ele>740.077007</ele>
        <time>2022-04-27T12:02:19.735Z</time>
      </trkpt>
      <trkpt lat="41.28266" lon="20.61395">
        <ele>740.381944</ele>
        <time>2022-04-27T12:02:22.732Z</time>
      </trkpt>
      <trkpt lat="41.28255" lon="20.61388">
        <ele>741.044855</ele>
        <time>2022-04-27T12:02:25.738Z</time>
      </trkpt>
      <trkpt lat="41.28241" lon="20.61384">
        <ele>741.741257</ele>
        <time>2022-04-27T12:02:28.736Z</time>
      </trkpt>
      <trkpt lat="41.2823" lon="20.61383">
        <ele>742.333464</ele>
        <time>2022-04-27T12:02:31.735Z</time>
      </trkpt>
      <trkpt lat="41.2822" lon="20.61385">
        <ele>742.829628</ele>
        <time>2022-04-27T12:02:34.761Z</time>
      </trkpt>
      <trkpt lat="41.28212" lon="20.61391">
        <ele>743.339828</ele>
        <time>2022-04-27T12:02:37.731Z</time>
      </trkpt>
      <trkpt lat="41.28203" lon="20.61402">
        <ele>743.958269</ele>
        <time>2022-04-27T12:02:40.736Z</time>
      </trkpt>
      <trkpt lat="41.28196" lon="20.61416">
        <ele>744.581738</ele>
        <time>2022-04-27T12:02:43.740Z</time>
      </trkpt>
      <trkpt lat="41.28193" lon="20.61431">
        <ele>745.194734</ele>
        <time>2022-04-27T12:02:46.743Z</time>
      </trkpt>
      <trkpt lat="41.28191" lon="20.61448">
        <ele>745.858223</ele>
        <time>2022-04-27T12:02:49.739Z</time>
      </trkpt>
      <trkpt lat="41.28191" lon="20.61463">
        <ele>746.444883</ele>
        <time>2022-04-27T12:02:52.730Z</time>
      </trkpt>
      <trkpt lat="41.28193" lon="20.61478">
        <ele>747.045065</ele>
        <time>2022-04-27T12:02:55.730Z</time>
      </trkpt>
      <trkpt lat="41.28195" lon="20.61493">
        <ele>747.622458</ele>
        <time>2022-04-27T12:02:58.737Z</time>
      </trkpt>
      <trkpt lat="41.28198" lon="20.61506">
        <ele>748.151327</ele>
        <time>2022-04-27T12:03:01.734Z</time>
      </trkpt>
      <trkpt lat="41.28202" lon="20.6152">
        <ele>748.71116</ele>
        <time>2022-04-27T12:03:04.747Z</time>
      </trkpt>
      <trkpt lat="41.28206" lon="20.61533">
        <ele>749.25261</ele>
        <time>2022-04-27T12:03:07.732Z</time>
      </trkpt>
      <trkpt lat="41.28209" lon="20.61544">
        <ele>749.259291</ele>
        <time>2022-04-27T12:03:10.732Z</time>
      </trkpt>
      <trkpt lat="41.28211" lon="20.61558">
        <ele>749.045759</ele>
        <time>2022-04-27T12:03:13.735Z</time>
      </trkpt>
      <trkpt lat="41.28213" lon="20.61572">
        <ele>748.820413</ele>
        <time>2022-04-27T12:03:16.752Z</time>
      </trkpt>
      <trkpt lat="41.28216" lon="20.61589">
        <ele>748.558305</ele>
        <time>2022-04-27T12:03:19.756Z</time>
      </trkpt>
      <trkpt lat="41.28218" lon="20.61601">
        <ele>748.369354</ele>
        <time>2022-04-27T12:03:21.738Z</time>
      </trkpt>
      <trkpt lat="41.28219" lon="20.61617">
        <ele>748.122636</ele>
        <time>2022-04-27T12:03:24.741Z</time>
      </trkpt>
      <trkpt lat="41.2822" lon="20.61633">
        <ele>747.86805</ele>
        <time>2022-04-27T12:03:27.740Z</time>
      </trkpt>
      <trkpt lat="41.28221" lon="20.6165">
        <ele>747.6186</ele>
        <time>2022-04-27T12:03:30.731Z</time>
      </trkpt>
      <trkpt lat="41.28221" lon="20.61666">
        <ele>747.369376</ele>
        <time>2022-04-27T12:03:33.730Z</time>
      </trkpt>
      <trkpt lat="41.2822" lon="20.61684">
        <ele>747.090398</ele>
        <time>2022-04-27T12:03:36.761Z</time>
      </trkpt>
      <trkpt lat="41.28219" lon="20.61696">
        <ele>746.904927</ele>
        <time>2022-04-27T12:03:38.739Z</time>
      </trkpt>
      <trkpt lat="41.28217" lon="20.61713">
        <ele>746.639966</ele>
        <time>2022-04-27T12:03:41.737Z</time>
      </trkpt>
      <trkpt lat="41.28213" lon="20.61728">
        <ele>746.396517</ele>
        <time>2022-04-27T12:03:44.736Z</time>
      </trkpt>
      <trkpt lat="41.28209" lon="20.61742">
        <ele>746.168958</ele>
        <time>2022-04-27T12:03:47.729Z</time>
      </trkpt>
      <trkpt lat="41.28203" lon="20.61754">
        <ele>745.943199</ele>
        <time>2022-04-27T12:03:50.731Z</time>
      </trkpt>
      <trkpt lat="41.28197" lon="20.61767">
        <ele>745.709529</ele>
        <time>2022-04-27T12:03:53.756Z</time>
      </trkpt>
      <trkpt lat="41.2819" lon="20.6178">
        <ele>745.770483</ele>
        <time>2022-04-27T12:03:56.734Z</time>
      </trkpt>
      <trkpt lat="41.28183" lon="20.61792">
        <ele>745.832112</ele>
        <time>2022-04-27T12:03:59.734Z</time>
      </trkpt>
      <trkpt lat="41.28175" lon="20.61804">
        <ele>745.890313</ele>
        <time>2022-04-27T12:04:02.732Z</time>
      </trkpt>
      <trkpt lat="41.28169" lon="20.61815">
        <ele>745.94514</ele>
        <time>2022-04-27T12:04:05.731Z</time>
      </trkpt>
      <trkpt lat="41.28162" lon="20.61825">
        <ele>745.998315</ele>
        <time>2022-04-27T12:04:08.726Z</time>
      </trkpt>
      <trkpt lat="41.28155" lon="20.61837">
        <ele>746.056216</ele>
        <time>2022-04-27T12:04:11.735Z</time>
      </trkpt>
      <trkpt lat="41.28147" lon="20.61848">
        <ele>746.116069</ele>
        <time>2022-04-27T12:04:14.736Z</time>
      </trkpt>
      <trkpt lat="41.28139" lon="20.61861">
        <ele>746.179319</ele>
        <time>2022-04-27T12:04:17.741Z</time>
      </trkpt>
      <trkpt lat="41.28131" lon="20.61872">
        <ele>746.240114</ele>
        <time>2022-04-27T12:04:20.745Z</time>
      </trkpt>
      <trkpt lat="41.28123" lon="20.61884">
        <ele>746.301383</ele>
        <time>2022-04-27T12:04:23.734Z</time>
      </trkpt>
      <trkpt lat="41.28117" lon="20.61895">
        <ele>746.356508</ele>
        <time>2022-04-27T12:04:26.754Z</time>
      </trkpt>
      <trkpt lat="41.28109" lon="20.61907">
        <ele>746.415035</ele>
        <time>2022-04-27T12:04:29.734Z</time>
      </trkpt>
      <trkpt lat="41.28101" lon="20.61918">
        <ele>746.478121</ele>
        <time>2022-04-27T12:04:32.736Z</time>
      </trkpt>
      <trkpt lat="41.28093" lon="20.61929">
        <ele>746.534822</ele>
        <time>2022-04-27T12:04:35.734Z</time>
      </trkpt>
      <trkpt lat="41.28084" lon="20.61938">
        <ele>746.591282</ele>
        <time>2022-04-27T12:04:38.730Z</time>
      </trkpt>
      <trkpt lat="41.28075" lon="20.61947">
        <ele>746.711199</ele>
        <time>2022-04-27T12:04:41.739Z</time>
      </trkpt>
      <trkpt lat="41.28067" lon="20.61955">
        <ele>746.991482</ele>
        <time>2022-04-27T12:04:44.737Z</time>
      </trkpt>
      <trkpt lat="41.28058" lon="20.61964">
        <ele>747.290469</ele>
        <time>2022-04-27T12:04:47.728Z</time>
      </trkpt>
      <trkpt lat="41.28049" lon="20.61973">
        <ele>747.622603</ele>
        <time>2022-04-27T12:04:50.734Z</time>
      </trkpt>
      <trkpt lat="41.28041" lon="20.61979">
        <ele>747.87562</ele>
        <time>2022-04-27T12:04:52.735Z</time>
      </trkpt>
      <trkpt lat="41.28029" lon="20.61987">
        <ele>748.230745</ele>
        <time>2022-04-27T12:04:55.731Z</time>
      </trkpt>
      <trkpt lat="41.28019" lon="20.61995">
        <ele>748.571146</ele>
        <time>2022-04-27T12:04:58.735Z</time>
      </trkpt>
      <trkpt lat="41.28008" lon="20.62002">
        <ele>748.899884</ele>
        <time>2022-04-27T12:05:01.744Z</time>
      </trkpt>
      <trkpt lat="41.27998" lon="20.62007">
        <ele>749.195492</ele>
        <time>2022-04-27T12:05:04.732Z</time>
      </trkpt>
      <trkpt lat="41.27987" lon="20.62014">
        <ele>749.533134</ele>
        <time>2022-04-27T12:05:07.740Z</time>
      </trkpt>
      <trkpt lat="41.27977" lon="20.62018">
        <ele>749.828187</ele>
        <time>2022-04-27T12:05:10.763Z</time>
      </trkpt>
      <trkpt lat="41.27966" lon="20.62021">
        <ele>750.124836</ele>
        <time>2022-04-27T12:05:13.735Z</time>
      </trkpt>
      <trkpt lat="41.27957" lon="20.62026">
        <ele>750.412706</ele>
        <time>2022-04-27T12:05:16.729Z</time>
      </trkpt>
      <trkpt lat="41.27947" lon="20.62029">
        <ele>750.702901</ele>
        <time>2022-04-27T12:05:19.737Z</time>
      </trkpt>
      <trkpt lat="41.27936" lon="20.62033">
        <ele>751.01612</ele>
        <time>2022-04-27T12:05:22.735Z</time>
      </trkpt>
      <trkpt lat="41.27924" lon="20.62038">
        <ele>751.342716</ele>
        <time>2022-04-27T12:05:25.732Z</time>
      </trkpt>
      <trkpt lat="41.27915" lon="20.62044">
        <ele>751.633952</ele>
        <time>2022-04-27T12:05:28.735Z</time>
      </trkpt>
      <trkpt lat="41.27907" lon="20.6205">
        <ele>751.875353</ele>
        <time>2022-04-27T12:05:30.742Z</time>
      </trkpt>
      <trkpt lat="41.27896" lon="20.62058">
        <ele>752.195123</ele>
        <time>2022-04-27T12:05:33.741Z</time>
      </trkpt>
      <trkpt lat="41.27886" lon="20.62064">
        <ele>752.497094</ele>
        <time>2022-04-27T12:05:36.744Z</time>
      </trkpt>
      <trkpt lat="41.27875" lon="20.6207">
        <ele>752.801516</ele>
        <time>2022-04-27T12:05:39.733Z</time>
      </trkpt>
      <trkpt lat="41.27865" lon="20.62078">
        <ele>753.115338</ele>
        <time>2022-04-27T12:05:42.746Z</time>
      </trkpt>
      <trkpt lat="41.27854" lon="20.62086">
        <ele>753.437396</ele>
        <time>2022-04-27T12:05:45.732Z</time>
      </trkpt>
      <trkpt lat="41.27844" lon="20.62094">
        <ele>753.752552</ele>
        <time>2022-04-27T12:05:48.736Z</time>
      </trkpt>
      <trkpt lat="41.27834" lon="20.62102">
        <ele>754.055639</ele>
        <time>2022-04-27T12:05:51.735Z</time>
      </trkpt>
      <trkpt lat="41.27825" lon="20.62108">
        <ele>754.328683</ele>
        <time>2022-04-27T12:05:54.740Z</time>
      </trkpt>
      <trkpt lat="41.27815" lon="20.62116">
        <ele>754.62947</ele>
        <time>2022-04-27T12:05:57.733Z</time>
      </trkpt>
      <trkpt lat="41.27804" lon="20.62125">
        <ele>754.952306</ele>
        <time>2022-04-27T12:06:00.734Z</time>
      </trkpt>
      <trkpt lat="41.27795" lon="20.62131">
        <ele>755.239599</ele>
        <time>2022-04-27T12:06:03.729Z</time>
      </trkpt>
      <trkpt lat="41.27785" lon="20.62138">
        <ele>755.524006</ele>
        <time>2022-04-27T12:06:06.729Z</time>
      </trkpt>
      <trkpt lat="41.27776" lon="20.62145">
        <ele>755.805582</ele>
        <time>2022-04-27T12:06:09.738Z</time>
      </trkpt>
      <trkpt lat="41.27766" lon="20.62152">
        <ele>756.083889</ele>
        <time>2022-04-27T12:06:12.756Z</time>
      </trkpt>
      <trkpt lat="41.27756" lon="20.6216">
        <ele>756.30994</ele>
        <time>2022-04-27T12:06:15.737Z</time>
      </trkpt>
      <trkpt lat="41.27746" lon="20.62169">
        <ele>756.074535</ele>
        <time>2022-04-27T12:06:18.758Z</time>
      </trkpt>
      <trkpt lat="41.27736" lon="20.62179">
        <ele>755.836188</ele>
        <time>2022-04-27T12:06:21.732Z</time>
      </trkpt>
      <trkpt lat="41.27727" lon="20.62188">
        <ele>755.612689</ele>
        <time>2022-04-27T12:06:24.744Z</time>
      </trkpt>
      <trkpt lat="41.27718" lon="20.62197">
        <ele>755.390754</ele>
        <time>2022-04-27T12:06:27.747Z</time>
      </trkpt>
      <trkpt lat="41.27709" lon="20.62207">
        <ele>755.171696</ele>
        <time>2022-04-27T12:06:30.740Z</time>
      </trkpt>
      <trkpt lat="41.27701" lon="20.62216">
        <ele>754.970532</ele>
        <time>2022-04-27T12:06:33.739Z</time>
      </trkpt>
      <trkpt lat="41.27694" lon="20.62225">
        <ele>754.778881</ele>
        <time>2022-04-27T12:06:36.742Z</time>
      </trkpt>
      <trkpt lat="41.27687" lon="20.62234">
        <ele>754.585395</ele>
        <time>2022-04-27T12:06:39.742Z</time>
      </trkpt>
      <trkpt lat="41.27679" lon="20.62245">
        <ele>754.37261</ele>
        <time>2022-04-27T12:06:42.733Z</time>
      </trkpt>
      <trkpt lat="41.27673" lon="20.62256">
        <ele>754.173166</ele>
        <time>2022-04-27T12:06:45.731Z</time>
      </trkpt>
      <trkpt lat="41.27666" lon="20.62267">
        <ele>753.969005</ele>
        <time>2022-04-27T12:06:48.736Z</time>
      </trkpt>
      <trkpt lat="41.2766" lon="20.6228">
        <ele>753.746361</ele>
        <time>2022-04-27T12:06:51.757Z</time>
      </trkpt>
      <trkpt lat="41.27652" lon="20.62293">
        <ele>753.508618</ele>
        <time>2022-04-27T12:06:54.735Z</time>
      </trkpt>
      <trkpt lat="41.27646" lon="20.62305">
        <ele>753.29282</ele>
        <time>2022-04-27T12:06:57.759Z</time>
      </trkpt>
      <trkpt lat="41.27639" lon="20.62319">
        <ele>753.056789</ele>
        <time>2022-04-27T12:07:00.737Z</time>
      </trkpt>
      <trkpt lat="41.27634" lon="20.62334">
        <ele>752.816981</ele>
        <time>2022-04-27T12:07:03.759Z</time>
      </trkpt>
      <trkpt lat="41.27628" lon="20.6235">
        <ele>752.588459</ele>
        <time>2022-04-27T12:07:06.733Z</time>
      </trkpt>
      <trkpt lat="41.27622" lon="20.62366">
        <ele>752.366623</ele>
        <time>2022-04-27T12:07:09.732Z</time>
      </trkpt>
      <trkpt lat="41.27616" lon="20.62379">
        <ele>752.16433</ele>
        <time>2022-04-27T12:07:12.740Z</time>
      </trkpt>
      <trkpt lat="41.27609" lon="20.62391">
        <ele>751.96566</ele>
        <time>2022-04-27T12:07:15.741Z</time>
      </trkpt>
      <trkpt lat="41.27601" lon="20.62403">
        <ele>751.763921</ele>
        <time>2022-04-27T12:07:18.735Z</time>
      </trkpt>
      <trkpt lat="41.27593" lon="20.62415">
        <ele>751.561075</ele>
        <time>2022-04-27T12:07:21.736Z</time>
      </trkpt>
      <trkpt lat="41.27585" lon="20.62426">
        <ele>751.359781</ele>
        <time>2022-04-27T12:07:24.743Z</time>
      </trkpt>
      <trkpt lat="41.27579" lon="20.62437">
        <ele>751.178831</ele>
        <time>2022-04-27T12:07:27.732Z</time>
      </trkpt>
      <trkpt lat="41.27571" lon="20.62447">
        <ele>751.003839</ele>
        <time>2022-04-27T12:07:30.755Z</time>
      </trkpt>
      <trkpt lat="41.27567" lon="20.62457">
        <ele>750.845845</ele>
        <time>2022-04-27T12:07:33.736Z</time>
      </trkpt>
      <trkpt lat="41.27561" lon="20.62469">
        <ele>750.674411</ele>
        <time>2022-04-27T12:07:36.741Z</time>
      </trkpt>
      <trkpt lat="41.27551" lon="20.6248">
        <ele>750.45165</ele>
        <time>2022-04-27T12:07:39.739Z</time>
      </trkpt>
      <trkpt lat="41.27542" lon="20.62491">
        <ele>750.242609</ele>
        <time>2022-04-27T12:07:42.736Z</time>
      </trkpt>
      <trkpt lat="41.27533" lon="20.625">
        <ele>750.048658</ele>
        <time>2022-04-27T12:07:45.729Z</time>
      </trkpt>
      <trkpt lat="41.27524" lon="20.62508">
        <ele>749.85707</ele>
        <time>2022-04-27T12:07:48.744Z</time>
      </trkpt>
      <trkpt lat="41.27514" lon="20.62516">
        <ele>750.070912</ele>
        <time>2022-04-27T12:07:51.734Z</time>
      </trkpt>
      <trkpt lat="41.27504" lon="20.62522">
        <ele>750.443095</ele>
        <time>2022-04-27T12:07:54.735Z</time>
      </trkpt>
      <trkpt lat="41.27495" lon="20.62528">
        <ele>750.772627</ele>
        <time>2022-04-27T12:07:57.728Z</time>
      </trkpt>
      <trkpt lat="41.27485" lon="20.62535">
        <ele>751.157142</ele>
        <time>2022-04-27T12:08:00.737Z</time>
      </trkpt>
      <trkpt lat="41.27474" lon="20.6254">
        <ele>751.545229</ele>
        <time>2022-04-27T12:08:03.730Z</time>
      </trkpt>
      <trkpt lat="41.27463" lon="20.62544">
        <ele>751.912619</ele>
        <time>2022-04-27T12:08:06.734Z</time>
      </trkpt>
      <trkpt lat="41.27453" lon="20.62548">
        <ele>752.284344</ele>
        <time>2022-04-27T12:08:09.739Z</time>
      </trkpt>
      <trkpt lat="41.27442" lon="20.62553">
        <ele>752.674655</ele>
        <time>2022-04-27T12:08:12.735Z</time>
      </trkpt>
      <trkpt lat="41.2743" lon="20.62557">
        <ele>753.071332</ele>
        <time>2022-04-27T12:08:15.734Z</time>
      </trkpt>
      <trkpt lat="41.27419" lon="20.62562">
        <ele>753.459792</ele>
        <time>2022-04-27T12:08:18.728Z</time>
      </trkpt>
      <trkpt lat="41.27408" lon="20.62566">
        <ele>753.852147</ele>
        <time>2022-04-27T12:08:21.733Z</time>
      </trkpt>
      <trkpt lat="41.27397" lon="20.6257">
        <ele>754.239948</ele>
        <time>2022-04-27T12:08:24.739Z</time>
      </trkpt>
      <trkpt lat="41.27386" lon="20.62572">
        <ele>754.602819</ele>
        <time>2022-04-27T12:08:27.732Z</time>
      </trkpt>
      <trkpt lat="41.27375" lon="20.62574">
        <ele>754.961585</ele>
        <time>2022-04-27T12:08:30.742Z</time>
      </trkpt>
      <trkpt lat="41.27366" lon="20.62576">
        <ele>755.274048</ele>
        <time>2022-04-27T12:08:33.735Z</time>
      </trkpt>
      <trkpt lat="41.27356" lon="20.62578">
        <ele>755.623312</ele>
        <time>2022-04-27T12:08:36.757Z</time>
      </trkpt>
      <trkpt lat="41.27345" lon="20.6258">
        <ele>756.013685</ele>
        <time>2022-04-27T12:08:39.726Z</time>
      </trkpt>
      <trkpt lat="41.27333" lon="20.62582">
        <ele>756.433977</ele>
        <time>2022-04-27T12:08:42.738Z</time>
      </trkpt>
      <trkpt lat="41.27321" lon="20.62583">
        <ele>756.876307</ele>
        <time>2022-04-27T12:08:45.729Z</time>
      </trkpt>
      <trkpt lat="41.27308" lon="20.62585">
        <ele>757.366779</ele>
        <time>2022-04-27T12:08:48.736Z</time>
      </trkpt>
      <trkpt lat="41.27295" lon="20.62588">
        <ele>757.826141</ele>
        <time>2022-04-27T12:08:51.728Z</time>
      </trkpt>
      <trkpt lat="41.27283" lon="20.62591">
        <ele>758.272911</ele>
        <time>2022-04-27T12:08:54.748Z</time>
      </trkpt>
      <trkpt lat="41.27272" lon="20.62592">
        <ele>758.694511</ele>
        <time>2022-04-27T12:08:57.734Z</time>
      </trkpt>
      <trkpt lat="41.27261" lon="20.62593">
        <ele>759.074212</ele>
        <time>2022-04-27T12:09:00.736Z</time>
      </trkpt>
      <trkpt lat="41.27251" lon="20.62593">
        <ele>759.464611</ele>
        <time>2022-04-27T12:09:03.729Z</time>
      </trkpt>
      <trkpt lat="41.27239" lon="20.62592">
        <ele>759.873336</ele>
        <time>2022-04-27T12:09:06.747Z</time>
      </trkpt>
      <trkpt lat="41.27229" lon="20.62592">
        <ele>760.26033</ele>
        <time>2022-04-27T12:09:09.755Z</time>
      </trkpt>
      <trkpt lat="41.27218" lon="20.62593">
        <ele>760.665658</ele>
        <time>2022-04-27T12:09:12.731Z</time>
      </trkpt>
      <trkpt lat="41.27206" lon="20.62593">
        <ele>761.08547</ele>
        <time>2022-04-27T12:09:15.728Z</time>
      </trkpt>
      <trkpt lat="41.27196" lon="20.62594">
        <ele>761.476831</ele>
        <time>2022-04-27T12:09:18.736Z</time>
      </trkpt>
      <trkpt lat="41.27184" lon="20.62595">
        <ele>761.88945</ele>
        <time>2022-04-27T12:09:21.727Z</time>
      </trkpt>
      <trkpt lat="41.27173" lon="20.62596">
        <ele>762.31105</ele>
        <time>2022-04-27T12:09:24.733Z</time>
      </trkpt>
      <trkpt lat="41.27162" lon="20.62597">
        <ele>762.092968</ele>
        <time>2022-04-27T12:09:27.728Z</time>
      </trkpt>
      <trkpt lat="41.2715" lon="20.62596">
        <ele>761.734269</ele>
        <time>2022-04-27T12:09:30.736Z</time>
      </trkpt>
      <trkpt lat="41.27139" lon="20.62596">
        <ele>761.391122</ele>
        <time>2022-04-27T12:09:33.732Z</time>
      </trkpt>
      <trkpt lat="41.27128" lon="20.62595">
        <ele>761.062808</ele>
        <time>2022-04-27T12:09:36.729Z</time>
      </trkpt>
      <trkpt lat="41.27117" lon="20.62596">
        <ele>760.710314</ele>
        <time>2022-04-27T12:09:39.748Z</time>
      </trkpt>
      <trkpt lat="41.27104" lon="20.62595">
        <ele>760.336449</ele>
        <time>2022-04-27T12:09:42.756Z</time>
      </trkpt>
      <trkpt lat="41.27095" lon="20.62594">
        <ele>760.056899</ele>
        <time>2022-04-27T12:09:44.740Z</time>
      </trkpt>
      <trkpt lat="41.27086" lon="20.62592">
        <ele>759.765623</ele>
        <time>2022-04-27T12:09:46.736Z</time>
      </trkpt>
      <trkpt lat="41.27077" lon="20.6259">
        <ele>759.480486</ele>
        <time>2022-04-27T12:09:48.734Z</time>
      </trkpt>
      <trkpt lat="41.27065" lon="20.62584">
        <ele>759.082812</ele>
        <time>2022-04-27T12:09:51.732Z</time>
      </trkpt>
      <trkpt lat="41.27053" lon="20.62577">
        <ele>758.687943</ele>
        <time>2022-04-27T12:09:54.730Z</time>
      </trkpt>
      <trkpt lat="41.27042" lon="20.6257">
        <ele>758.323931</ele>
        <time>2022-04-27T12:09:57.753Z</time>
      </trkpt>
      <trkpt lat="41.27033" lon="20.62561">
        <ele>757.970661</ele>
        <time>2022-04-27T12:10:00.733Z</time>
      </trkpt>
      <trkpt lat="41.27024" lon="20.62554">
        <ele>757.641314</ele>
        <time>2022-04-27T12:10:03.745Z</time>
      </trkpt>
      <trkpt lat="41.27014" lon="20.62546">
        <ele>757.306372</ele>
        <time>2022-04-27T12:10:06.736Z</time>
      </trkpt>
      <trkpt lat="41.27004" lon="20.6254">
        <ele>756.977687</ele>
        <time>2022-04-27T12:10:09.732Z</time>
      </trkpt>
      <trkpt lat="41.26994" lon="20.62536">
        <ele>756.75545</ele>
        <time>2022-04-27T12:10:12.735Z</time>
      </trkpt>
      <trkpt lat="41.26983" lon="20.62532">
        <ele>756.584834</ele>
        <time>2022-04-27T12:10:15.730Z</time>
      </trkpt>
      <trkpt lat="41.26972" lon="20.6253">
        <ele>756.422089</ele>
        <time>2022-04-27T12:10:18.737Z</time>
      </trkpt>
      <trkpt lat="41.2696" lon="20.6253">
        <ele>756.245107</ele>
        <time>2022-04-27T12:10:21.758Z</time>
      </trkpt>
      <trkpt lat="41.26949" lon="20.6253">
        <ele>756.068124</ele>
        <time>2022-04-27T12:10:24.775Z</time>
      </trkpt>
      <trkpt lat="41.26935" lon="20.62533">
        <ele>755.869935</ele>
        <time>2022-04-27T12:10:27.774Z</time>
      </trkpt>
      <trkpt lat="41.26923" lon="20.62538">
        <ele>755.673674</ele>
        <time>2022-04-27T12:10:30.788Z</time>
      </trkpt>
      <trkpt lat="41.26912" lon="20.62546">
        <ele>755.480213</ele>
        <time>2022-04-27T12:10:33.777Z</time>
      </trkpt>
      <trkpt lat="41.269" lon="20.62554">
        <ele>755.286237</ele>
        <time>2022-04-27T12:10:36.756Z</time>
      </trkpt>
      <trkpt lat="41.26889" lon="20.62563">
        <ele>755.09186</ele>
        <time>2022-04-27T12:10:39.770Z</time>
      </trkpt>
      <trkpt lat="41.26879" lon="20.6257">
        <ele>754.923856</ele>
        <time>2022-04-27T12:10:42.769Z</time>
      </trkpt>
      <trkpt lat="41.26869" lon="20.62578">
        <ele>754.739347</ele>
        <time>2022-04-27T12:10:45.753Z</time>
      </trkpt>
      <trkpt lat="41.2686" lon="20.62586">
        <ele>754.584586</ele>
        <time>2022-04-27T12:10:47.769Z</time>
      </trkpt>
      <trkpt lat="41.26851" lon="20.62593">
        <ele>754.42985</ele>
        <time>2022-04-27T12:10:49.761Z</time>
      </trkpt>
      <trkpt lat="41.26842" lon="20.626">
        <ele>754.275281</ele>
        <time>2022-04-27T12:10:51.766Z</time>
      </trkpt>
      <trkpt lat="41.26833" lon="20.62608">
        <ele>753.971716</ele>
        <time>2022-04-27T12:10:53.757Z</time>
      </trkpt>
      <trkpt lat="41.26823" lon="20.62616">
        <ele>753.374316</ele>
        <time>2022-04-27T12:10:55.767Z</time>
      </trkpt>
      <trkpt lat="41.26812" lon="20.62624">
        <ele>752.748794</ele>
        <time>2022-04-27T12:10:57.763Z</time>
      </trkpt>
      <trkpt lat="41.26801" lon="20.62632">
        <ele>752.112617</ele>
        <time>2022-04-27T12:10:59.773Z</time>
      </trkpt>
      <trkpt lat="41.26789" lon="20.6264">
        <ele>751.448907</ele>
        <time>2022-04-27T12:11:01.759Z</time>
      </trkpt>
      <trkpt lat="41.26777" lon="20.62647">
        <ele>750.784736</ele>
        <time>2022-04-27T12:11:03.743Z</time>
      </trkpt>
      <trkpt lat="41.26765" lon="20.62654">
        <ele>750.094344</ele>
        <time>2022-04-27T12:11:05.748Z</time>
      </trkpt>
      <trkpt lat="41.26752" lon="20.6266">
        <ele>749.435932</ele>
        <time>2022-04-27T12:11:07.774Z</time>
      </trkpt>
      <trkpt lat="41.26738" lon="20.62666">
        <ele>748.691469</ele>
        <time>2022-04-27T12:11:09.757Z</time>
      </trkpt>
      <trkpt lat="41.26723" lon="20.62672">
        <ele>747.906022</ele>
        <time>2022-04-27T12:11:11.755Z</time>
      </trkpt>
      <trkpt lat="41.26708" lon="20.62677">
        <ele>747.089983</ele>
        <time>2022-04-27T12:11:13.759Z</time>
      </trkpt>
      <trkpt lat="41.26692" lon="20.6268">
        <ele>746.289724</ele>
        <time>2022-04-27T12:11:15.755Z</time>
      </trkpt>
      <trkpt lat="41.26677" lon="20.62682">
        <ele>745.514764</ele>
        <time>2022-04-27T12:11:17.774Z</time>
      </trkpt>
      <trkpt lat="41.26661" lon="20.62683">
        <ele>744.704183</ele>
        <time>2022-04-27T12:11:19.756Z</time>
      </trkpt>
      <trkpt lat="41.26645" lon="20.62684">
        <ele>743.876657</ele>
        <time>2022-04-27T12:11:21.759Z</time>
      </trkpt>
      <trkpt lat="41.26629" lon="20.62689">
        <ele>743.021098</ele>
        <time>2022-04-27T12:11:23.767Z</time>
      </trkpt>
      <trkpt lat="41.26614" lon="20.62696">
        <ele>742.166409</ele>
        <time>2022-04-27T12:11:25.750Z</time>
      </trkpt>
      <trkpt lat="41.26599" lon="20.62706">
        <ele>741.283143</ele>
        <time>2022-04-27T12:11:27.748Z</time>
      </trkpt>
      <trkpt lat="41.26586" lon="20.62721">
        <ele>740.378869</ele>
        <time>2022-04-27T12:11:29.745Z</time>
      </trkpt>
      <trkpt lat="41.26575" lon="20.62738">
        <ele>739.492348</ele>
        <time>2022-04-27T12:11:31.768Z</time>
      </trkpt>
      <trkpt lat="41.26568" lon="20.62757">
        <ele>738.626709</ele>
        <time>2022-04-27T12:11:33.761Z</time>
      </trkpt>
      <trkpt lat="41.26562" lon="20.62779">
        <ele>737.720142</ele>
        <time>2022-04-27T12:11:35.761Z</time>
      </trkpt>
      <trkpt lat="41.26561" lon="20.62801">
        <ele>736.843003</ele>
        <time>2022-04-27T12:11:37.770Z</time>
      </trkpt>
      <trkpt lat="41.26563" lon="20.62822">
        <ele>735.990919</ele>
        <time>2022-04-27T12:11:39.782Z</time>
      </trkpt>
      <trkpt lat="41.26569" lon="20.62841">
        <ele>735.463171</ele>
        <time>2022-04-27T12:11:41.749Z</time>
      </trkpt>
      <trkpt lat="41.26576" lon="20.62858">
        <ele>735.225514</ele>
        <time>2022-04-27T12:11:43.750Z</time>
      </trkpt>
      <trkpt lat="41.26585" lon="20.62873">
        <ele>734.989953</ele>
        <time>2022-04-27T12:11:45.773Z</time>
      </trkpt>
      <trkpt lat="41.26596" lon="20.62885">
        <ele>734.758187</ele>
        <time>2022-04-27T12:11:47.766Z</time>
      </trkpt>
      <trkpt lat="41.26607" lon="20.62894">
        <ele>734.547923</ele>
        <time>2022-04-27T12:11:49.793Z</time>
      </trkpt>
      <trkpt lat="41.26619" lon="20.62902">
        <ele>734.34049</ele>
        <time>2022-04-27T12:11:51.773Z</time>
      </trkpt>
      <trkpt lat="41.26632" lon="20.62906">
        <ele>734.121394</ele>
        <time>2022-04-27T12:11:53.766Z</time>
      </trkpt>
      <trkpt lat="41.26644" lon="20.62908">
        <ele>733.923551</ele>
        <time>2022-04-27T12:11:55.736Z</time>
      </trkpt>
      <trkpt lat="41.26655" lon="20.62908">
        <ele>733.74483</ele>
        <time>2022-04-27T12:11:57.766Z</time>
      </trkpt>
      <trkpt lat="41.26666" lon="20.62908">
        <ele>733.564551</ele>
        <time>2022-04-27T12:11:59.748Z</time>
      </trkpt>
      <trkpt lat="41.26677" lon="20.62909">
        <ele>733.385596</ele>
        <time>2022-04-27T12:12:01.748Z</time>
      </trkpt>
      <trkpt lat="41.26688" lon="20.6291">
        <ele>733.206043</ele>
        <time>2022-04-27T12:12:03.744Z</time>
      </trkpt>
      <trkpt lat="41.267" lon="20.62913">
        <ele>733.017802</ele>
        <time>2022-04-27T12:12:05.748Z</time>
      </trkpt>
      <trkpt lat="41.26711" lon="20.62919">
        <ele>732.821996</ele>
        <time>2022-04-27T12:12:07.756Z</time>
      </trkpt>
      <trkpt lat="41.26722" lon="20.62925">
        <ele>732.711196</ele>
        <time>2022-04-27T12:12:09.769Z</time>
      </trkpt>
      <trkpt lat="41.26731" lon="20.62934">
        <ele>732.876432</ele>
        <time>2022-04-27T12:12:11.793Z</time>
      </trkpt>
      <trkpt lat="41.26738" lon="20.62945">
        <ele>733.029731</ele>
        <time>2022-04-27T12:12:13.766Z</time>
      </trkpt>
      <trkpt lat="41.26742" lon="20.62958">
        <ele>733.17938</ele>
        <time>2022-04-27T12:12:15.784Z</time>
      </trkpt>
      <trkpt lat="41.26744" lon="20.62972">
        <ele>733.329643</ele>
        <time>2022-04-27T12:12:17.804Z</time>
      </trkpt>
      <trkpt lat="41.26744" lon="20.62986">
        <ele>733.479883</ele>
        <time>2022-04-27T12:12:19.746Z</time>
      </trkpt>
      <trkpt lat="41.26741" lon="20.63">
        <ele>733.629039</ele>
        <time>2022-04-27T12:12:21.751Z</time>
      </trkpt>
      <trkpt lat="41.26738" lon="20.63012">
        <ele>733.764777</ele>
        <time>2022-04-27T12:12:23.755Z</time>
      </trkpt>
      <trkpt lat="41.26733" lon="20.63028">
        <ele>733.948608</ele>
        <time>2022-04-27T12:12:26.755Z</time>
      </trkpt>
      <trkpt lat="41.26727" lon="20.63041">
        <ele>734.112419</ele>
        <time>2022-04-27T12:12:29.760Z</time>
      </trkpt>
      <trkpt lat="41.2672" lon="20.63054">
        <ele>734.287866</ele>
        <time>2022-04-27T12:12:32.757Z</time>
      </trkpt>
      <trkpt lat="41.26712" lon="20.63068">
        <ele>734.470977</ele>
        <time>2022-04-27T12:12:35.762Z</time>
      </trkpt>
      <trkpt lat="41.26703" lon="20.63081">
        <ele>734.652594</ele>
        <time>2022-04-27T12:12:38.770Z</time>
      </trkpt>
      <trkpt lat="41.26695" lon="20.63094">
        <ele>734.839626</ele>
        <time>2022-04-27T12:12:41.749Z</time>
      </trkpt>
      <trkpt lat="41.26686" lon="20.63107">
        <ele>735.022083</ele>
        <time>2022-04-27T12:12:44.765Z</time>
      </trkpt>
      <trkpt lat="41.26677" lon="20.63118">
        <ele>735.199519</ele>
        <time>2022-04-27T12:12:47.751Z</time>
      </trkpt>
      <trkpt lat="41.26668" lon="20.63127">
        <ele>735.377048</ele>
        <time>2022-04-27T12:12:50.749Z</time>
      </trkpt>
      <trkpt lat="41.26658" lon="20.63137">
        <ele>735.573329</ele>
        <time>2022-04-27T12:12:53.747Z</time>
      </trkpt>
      <trkpt lat="41.26647" lon="20.63146">
        <ele>735.778701</ele>
        <time>2022-04-27T12:12:56.797Z</time>
      </trkpt>
      <trkpt lat="41.26636" lon="20.63155">
        <ele>735.974262</ele>
        <time>2022-04-27T12:12:59.757Z</time>
      </trkpt>
      <trkpt lat="41.26626" lon="20.63163">
        <ele>736.167073</ele>
        <time>2022-04-27T12:13:02.795Z</time>
      </trkpt>
      <trkpt lat="41.26615" lon="20.63173">
        <ele>736.375086</ele>
        <time>2022-04-27T12:13:05.754Z</time>
      </trkpt>
      <trkpt lat="41.26608" lon="20.6318">
        <ele>736.518382</ele>
        <time>2022-04-27T12:13:07.769Z</time>
      </trkpt>
      <trkpt lat="41.26598" lon="20.63189">
        <ele>736.709214</ele>
        <time>2022-04-27T12:13:10.765Z</time>
      </trkpt>
      <trkpt lat="41.26587" lon="20.63199">
        <ele>736.914295</ele>
        <time>2022-04-27T12:13:13.793Z</time>
      </trkpt>
      <trkpt lat="41.26578" lon="20.63208">
        <ele>737.088754</ele>
        <time>2022-04-27T12:13:15.761Z</time>
      </trkpt>
      <trkpt lat="41.2657" lon="20.63216">
        <ele>737.258122</ele>
        <time>2022-04-27T12:13:17.745Z</time>
      </trkpt>
      <trkpt lat="41.26561" lon="20.63225">
        <ele>737.435629</ele>
        <time>2022-04-27T12:13:19.748Z</time>
      </trkpt>
      <trkpt lat="41.26553" lon="20.63234">
        <ele>737.602721</ele>
        <time>2022-04-27T12:13:21.755Z</time>
      </trkpt>
      <trkpt lat="41.26545" lon="20.63242">
        <ele>737.753512</ele>
        <time>2022-04-27T12:13:23.768Z</time>
      </trkpt>
      <trkpt lat="41.26535" lon="20.63252">
        <ele>737.952108</ele>
        <time>2022-04-27T12:13:26.737Z</time>
      </trkpt>
      <trkpt lat="41.26526" lon="20.63261">
        <ele>738.201772</ele>
        <time>2022-04-27T12:13:29.755Z</time>
      </trkpt>
      <trkpt lat="41.26518" lon="20.6327">
        <ele>738.595949</ele>
        <time>2022-04-27T12:13:32.780Z</time>
      </trkpt>
      <trkpt lat="41.26511" lon="20.63279">
        <ele>738.95759</ele>
        <time>2022-04-27T12:13:35.757Z</time>
      </trkpt>
      <trkpt lat="41.26503" lon="20.63287">
        <ele>739.297011</ele>
        <time>2022-04-27T12:13:38.765Z</time>
      </trkpt>
      <trkpt lat="41.26495" lon="20.63296">
        <ele>739.696759</ele>
        <time>2022-04-27T12:13:42.764Z</time>
      </trkpt>
      <trkpt lat="41.26486" lon="20.63305">
        <ele>740.084817</ele>
        <time>2022-04-27T12:13:46.753Z</time>
      </trkpt>
      <trkpt lat="41.26477" lon="20.63313">
        <ele>740.478274</ele>
        <time>2022-04-27T12:13:50.770Z</time>
      </trkpt>
      <trkpt lat="41.26468" lon="20.63321">
        <ele>740.87054</ele>
        <time>2022-04-27T12:13:54.771Z</time>
      </trkpt>
      <trkpt lat="41.26459" lon="20.63327">
        <ele>741.22865</ele>
        <time>2022-04-27T12:13:58.797Z</time>
      </trkpt>
      <trkpt lat="41.2645" lon="20.63334">
        <ele>741.615889</ele>
        <time>2022-04-27T12:14:03.757Z</time>
      </trkpt>
      <trkpt lat="41.26441" lon="20.6334">
        <ele>741.963322</ele>
        <time>2022-04-27T12:14:08.752Z</time>
      </trkpt>
      <trkpt lat="41.26432" lon="20.63347">
        <ele>742.335958</ele>
        <time>2022-04-27T12:14:14.796Z</time>
      </trkpt>
      <trkpt lat="41.26424" lon="20.63352">
        <ele>742.683391</ele>
        <time>2022-04-27T12:14:20.770Z</time>
      </trkpt>
      <trkpt lat="41.26414" lon="20.63357">
        <ele>743.046563</ele>
        <time>2022-04-27T12:14:26.759Z</time>
      </trkpt>
      <trkpt lat="41.26405" lon="20.63362">
        <ele>743.396303</ele>
        <time>2022-04-27T12:14:32.752Z</time>
      </trkpt>
      <trkpt lat="41.26396" lon="20.63366">
        <ele>743.73173</ele>
        <time>2022-04-27T12:14:38.763Z</time>
      </trkpt>
      <trkpt lat="41.26387" lon="20.63371">
        <ele>744.088676</ele>
        <time>2022-04-27T12:14:44.809Z</time>
      </trkpt>
      <trkpt lat="41.26377" lon="20.63373">
        <ele>744.457828</ele>
        <time>2022-04-27T12:14:51.772Z</time>
      </trkpt>
      <trkpt lat="41.26368" lon="20.63375">
        <ele>744.899931</ele>
        <time>2022-04-27T12:14:57.768Z</time>
      </trkpt>
      <trkpt lat="41.26358" lon="20.63378">
        <ele>745.414448</ele>
        <time>2022-04-27T12:15:03.809Z</time>
      </trkpt>
      <trkpt lat="41.26348" lon="20.6338">
        <ele>745.91265</ele>
        <time>2022-04-27T12:15:08.771Z</time>
      </trkpt>
      <trkpt lat="41.26339" lon="20.63382">
        <ele>746.429431</ele>
        <time>2022-04-27T12:15:14.804Z</time>
      </trkpt>
      <trkpt lat="41.26329" lon="20.63387">
        <ele>746.932381</ele>
        <time>2022-04-27T12:15:21.765Z</time>
      </trkpt>
      <trkpt lat="41.26322" lon="20.63393">
        <ele>747.403829</ele>
        <time>2022-04-27T12:15:27.765Z</time>
      </trkpt>
      <trkpt lat="41.26313" lon="20.634">
        <ele>747.922218</ele>
        <time>2022-04-27T12:15:33.756Z</time>
      </trkpt>
      <trkpt lat="41.26306" lon="20.63409">
        <ele>748.423435</ele>
        <time>2022-04-27T12:15:38.756Z</time>
      </trkpt>
      <trkpt lat="41.26298" lon="20.63418">
        <ele>748.950437</ele>
        <time>2022-04-27T12:15:44.768Z</time>
      </trkpt>
      <trkpt lat="41.26291" lon="20.63426">
        <ele>749.454473</ele>
        <time>2022-04-27T12:15:49.768Z</time>
      </trkpt>
      <trkpt lat="41.26283" lon="20.63434">
        <ele>749.951706</ele>
        <time>2022-04-27T12:15:55.789Z</time>
      </trkpt>
      <trkpt lat="41.26275" lon="20.6344">
        <ele>750.440436</ele>
        <time>2022-04-27T12:16:00.745Z</time>
      </trkpt>
      <trkpt lat="41.26266" lon="20.63447">
        <ele>750.978631</ele>
        <time>2022-04-27T12:16:06.765Z</time>
      </trkpt>
      <trkpt lat="41.26257" lon="20.63451">
        <ele>751.446486</ele>
        <time>2022-04-27T12:16:11.748Z</time>
      </trkpt>
      <trkpt lat="41.26248" lon="20.63455">
        <ele>751.967834</ele>
        <time>2022-04-27T12:16:17.794Z</time>
      </trkpt>
      <trkpt lat="41.26237" lon="20.63458">
        <ele>752.524372</ele>
        <time>2022-04-27T12:16:23.765Z</time>
      </trkpt>
      <trkpt lat="41.26228" lon="20.6346">
        <ele>753.025261</ele>
        <time>2022-04-27T12:16:28.794Z</time>
      </trkpt>
      <trkpt lat="41.26218" lon="20.63463">
        <ele>753.544813</ele>
        <time>2022-04-27T12:16:34.792Z</time>
      </trkpt>
      <trkpt lat="41.26208" lon="20.63466">
        <ele>754.077789</ele>
        <time>2022-04-27T12:16:40.761Z</time>
      </trkpt>
      <trkpt lat="41.26198" lon="20.6347">
        <ele>754.670284</ele>
        <time>2022-04-27T12:16:46.770Z</time>
      </trkpt>
      <trkpt lat="41.26188" lon="20.63473">
        <ele>755.245268</ele>
        <time>2022-04-27T12:16:52.770Z</time>
      </trkpt>
      <trkpt lat="41.26179" lon="20.63478">
        <ele>755.767468</ele>
        <time>2022-04-27T12:16:58.755Z</time>
      </trkpt>
      <trkpt lat="41.26171" lon="20.63484">
        <ele>756.296074</ele>
        <time>2022-04-27T12:17:04.770Z</time>
      </trkpt>
      <trkpt lat="41.26164" lon="20.63493">
        <ele>756.872257</ele>
        <time>2022-04-27T12:17:11.753Z</time>
      </trkpt>
      <trkpt lat="41.26157" lon="20.63503">
        <ele>757.442721</ele>
        <time>2022-04-27T12:17:17.776Z</time>
      </trkpt>
      <trkpt lat="41.26151" lon="20.63514">
        <ele>758.019447</ele>
        <time>2022-04-27T12:17:24.796Z</time>
      </trkpt>
      <trkpt lat="41.26147" lon="20.63525">
        <ele>758.535957</ele>
        <time>2022-04-27T12:17:30.750Z</time>
      </trkpt>
      <trkpt lat="41.26142" lon="20.63536">
        <ele>759.074896</ele>
        <time>2022-04-27T12:17:36.792Z</time>
      </trkpt>
      <trkpt lat="41.26138" lon="20.63549">
        <ele>759.670959</ele>
        <time>2022-04-27T12:17:42.801Z</time>
      </trkpt>
      <trkpt lat="41.26135" lon="20.63561">
        <ele>760.222172</ele>
        <time>2022-04-27T12:17:48.761Z</time>
      </trkpt>
      <trkpt lat="41.2613" lon="20.63573">
        <ele>760.797684</ele>
        <time>2022-04-27T12:17:55.750Z</time>
      </trkpt>
      <trkpt lat="41.26127" lon="20.63585">
        <ele>761.341335</ele>
        <time>2022-04-27T12:18:01.753Z</time>
      </trkpt>
      <trkpt lat="41.26123" lon="20.63597">
        <ele>761.890619</ele>
        <time>2022-04-27T12:18:08.810Z</time>
      </trkpt>
      <trkpt lat="41.26118" lon="20.63609">
        <ele>762.471183</ele>
        <time>2022-04-27T12:18:14.757Z</time>
      </trkpt>
      <trkpt lat="41.26113" lon="20.6362">
        <ele>762.987397</ele>
        <time>2022-04-27T12:18:19.776Z</time>
      </trkpt>
      <trkpt lat="41.26108" lon="20.6363">
        <ele>763.499552</ele>
        <time>2022-04-27T12:18:24.766Z</time>
      </trkpt>
      <trkpt lat="41.261" lon="20.63639">
        <ele>763.935658</ele>
        <time>2022-04-27T12:18:30.810Z</time>
      </trkpt>
      <trkpt lat="41.26092" lon="20.63647">
        <ele>763.678282</ele>
        <time>2022-04-27T12:18:36.757Z</time>
      </trkpt>
      <trkpt lat="41.26083" lon="20.63651">
        <ele>763.450014</ele>
        <time>2022-04-27T12:18:41.780Z</time>
      </trkpt>
      <trkpt lat="41.26073" lon="20.63654">
        <ele>763.178073</ele>
        <time>2022-04-27T12:18:47.796Z</time>
      </trkpt>
      <trkpt lat="41.26062" lon="20.63655">
        <ele>762.916296</ele>
        <time>2022-04-27T12:18:53.755Z</time>
      </trkpt>
      <trkpt lat="41.26052" lon="20.63654">
        <ele>762.66957</ele>
        <time>2022-04-27T12:18:58.727Z</time>
      </trkpt>
      <trkpt lat="41.26042" lon="20.63652">
        <ele>762.395561</ele>
        <time>2022-04-27T12:19:03.735Z</time>
      </trkpt>
      <trkpt lat="41.26032" lon="20.63651">
        <ele>762.149451</ele>
        <time>2022-04-27T12:19:07.733Z</time>
      </trkpt>
      <trkpt lat="41.26022" lon="20.63649">
        <ele>761.8884</ele>
        <time>2022-04-27T12:19:11.732Z</time>
      </trkpt>
      <trkpt lat="41.26011" lon="20.63646">
        <ele>761.62068</ele>
        <time>2022-04-27T12:19:15.730Z</time>
      </trkpt>
      <trkpt lat="41.26001" lon="20.63644">
        <ele>761.354409</ele>
        <time>2022-04-27T12:19:19.742Z</time>
      </trkpt>
      <trkpt lat="41.25991" lon="20.6364">
        <ele>761.097942</ele>
        <time>2022-04-27T12:19:23.743Z</time>
      </trkpt>
      <trkpt lat="41.2598" lon="20.63637">
        <ele>760.817695</ele>
        <time>2022-04-27T12:19:27.728Z</time>
      </trkpt>
      <trkpt lat="41.25969" lon="20.63633">
        <ele>760.524522</ele>
        <time>2022-04-27T12:19:31.744Z</time>
      </trkpt>
      <trkpt lat="41.25957" lon="20.6363">
        <ele>760.222983</ele>
        <time>2022-04-27T12:19:35.734Z</time>
      </trkpt>
      <trkpt lat="41.25947" lon="20.63627">
        <ele>759.979621</ele>
        <time>2022-04-27T12:19:38.735Z</time>
      </trkpt>
      <trkpt lat="41.25938" lon="20.63624">
        <ele>759.746003</ele>
        <time>2022-04-27T12:19:41.733Z</time>
      </trkpt>
      <trkpt lat="41.25927" lon="20.63622">
        <ele>759.471888</ele>
        <time>2022-04-27T12:19:45.728Z</time>
      </trkpt>
      <trkpt lat="41.25915" lon="20.63619">
        <ele>759.554577</ele>
        <time>2022-04-27T12:19:49.729Z</time>
      </trkpt>
      <trkpt lat="41.25906" lon="20.63616">
        <ele>759.622456</ele>
        <time>2022-04-27T12:19:52.732Z</time>
      </trkpt>
      <trkpt lat="41.25897" lon="20.63612">
        <ele>759.689055</ele>
        <time>2022-04-27T12:19:55.739Z</time>
      </trkpt>
      <trkpt lat="41.25887" lon="20.6361">
        <ele>759.754862</ele>
        <time>2022-04-27T12:19:58.739Z</time>
      </trkpt>
      <trkpt lat="41.25878" lon="20.63607">
        <ele>759.822246</ele>
        <time>2022-04-27T12:20:01.733Z</time>
      </trkpt>
      <trkpt lat="41.25868" lon="20.63604">
        <ele>759.889196</ele>
        <time>2022-04-27T12:20:04.738Z</time>
      </trkpt>
      <trkpt lat="41.25859" lon="20.63602">
        <ele>759.954218</ele>
        <time>2022-04-27T12:20:07.731Z</time>
      </trkpt>
      <trkpt lat="41.2585" lon="20.63598">
        <ele>760.016762</ele>
        <time>2022-04-27T12:20:10.735Z</time>
      </trkpt>
      <trkpt lat="41.25841" lon="20.63595">
        <ele>760.083714</ele>
        <time>2022-04-27T12:20:13.732Z</time>
      </trkpt>
      <trkpt lat="41.25832" lon="20.63594">
        <ele>760.147574</ele>
        <time>2022-04-27T12:20:16.752Z</time>
      </trkpt>
      <trkpt lat="41.25822" lon="20.63591">
        <ele>760.213731</ele>
        <time>2022-04-27T12:20:19.741Z</time>
      </trkpt>
      <trkpt lat="41.25813" lon="20.63589">
        <ele>760.279034</ele>
        <time>2022-04-27T12:20:22.737Z</time>
      </trkpt>
      <trkpt lat="41.25803" lon="20.63587">
        <ele>760.348944</ele>
        <time>2022-04-27T12:20:25.741Z</time>
      </trkpt>
      <trkpt lat="41.25794" lon="20.63584">
        <ele>760.416104</ele>
        <time>2022-04-27T12:20:28.732Z</time>
      </trkpt>
      <trkpt lat="41.25784" lon="20.63583">
        <ele>760.482675</ele>
        <time>2022-04-27T12:20:31.736Z</time>
      </trkpt>
      <trkpt lat="41.25775" lon="20.63582">
        <ele>760.548698</ele>
        <time>2022-04-27T12:20:34.735Z</time>
      </trkpt>
      <trkpt lat="41.25764" lon="20.63581">
        <ele>760.621355</ele>
        <time>2022-04-27T12:20:37.735Z</time>
      </trkpt>
      <trkpt lat="41.25754" lon="20.63582">
        <ele>760.687732</ele>
        <time>2022-04-27T12:20:40.734Z</time>
      </trkpt>
      <trkpt lat="41.25744" lon="20.63582">
        <ele>760.863243</ele>
        <time>2022-04-27T12:20:43.738Z</time>
      </trkpt>
      <trkpt lat="41.25733" lon="20.63582">
        <ele>761.122413</ele>
        <time>2022-04-27T12:20:46.740Z</time>
      </trkpt>
      <trkpt lat="41.25722" lon="20.63583">
        <ele>761.377529</ele>
        <time>2022-04-27T12:20:49.734Z</time>
      </trkpt>
      <trkpt lat="41.25711" lon="20.63584">
        <ele>761.634377</ele>
        <time>2022-04-27T12:20:52.737Z</time>
      </trkpt>
      <trkpt lat="41.257" lon="20.63584">
        <ele>761.886669</ele>
        <time>2022-04-27T12:20:55.733Z</time>
      </trkpt>
      <trkpt lat="41.25689" lon="20.63584">
        <ele>762.127468</ele>
        <time>2022-04-27T12:20:58.737Z</time>
      </trkpt>
      <trkpt lat="41.2568" lon="20.63583">
        <ele>762.350064</ele>
        <time>2022-04-27T12:21:01.764Z</time>
      </trkpt>
      <trkpt lat="41.2567" lon="20.63583">
        <ele>762.572493</ele>
        <time>2022-04-27T12:21:04.740Z</time>
      </trkpt>
      <trkpt lat="41.25658" lon="20.63582">
        <ele>762.8373</ele>
        <time>2022-04-27T12:21:08.733Z</time>
      </trkpt>
      <trkpt lat="41.25648" lon="20.6358">
        <ele>763.07802</ele>
        <time>2022-04-27T12:21:12.735Z</time>
      </trkpt>
      <trkpt lat="41.25638" lon="20.63576">
        <ele>763.315133</ele>
        <time>2022-04-27T12:21:16.742Z</time>
      </trkpt>
      <trkpt lat="41.25629" lon="20.63572">
        <ele>763.54388</ele>
        <time>2022-04-27T12:21:20.736Z</time>
      </trkpt>
      <trkpt lat="41.25619" lon="20.63568">
        <ele>763.78014</ele>
        <time>2022-04-27T12:21:24.739Z</time>
      </trkpt>
      <trkpt lat="41.25608" lon="20.63565">
        <ele>764.035875</ele>
        <time>2022-04-27T12:21:28.726Z</time>
      </trkpt>
      <trkpt lat="41.25598" lon="20.63561">
        <ele>764.265896</ele>
        <time>2022-04-27T12:21:32.728Z</time>
      </trkpt>
      <trkpt lat="41.25588" lon="20.63558">
        <ele>764.502832</ele>
        <time>2022-04-27T12:21:36.757Z</time>
      </trkpt>
      <trkpt lat="41.25579" lon="20.63556">
        <ele>764.717815</ele>
        <time>2022-04-27T12:21:40.734Z</time>
      </trkpt>
      <trkpt lat="41.2557" lon="20.63552">
        <ele>764.873177</ele>
        <time>2022-04-27T12:21:44.728Z</time>
      </trkpt>
      <trkpt lat="41.2556" lon="20.63547">
        <ele>764.967519</ele>
        <time>2022-04-27T12:21:49.733Z</time>
      </trkpt>
      <trkpt lat="41.2555" lon="20.63544">
        <ele>765.058208</ele>
        <time>2022-04-27T12:21:53.738Z</time>
      </trkpt>
      <trkpt lat="41.2554" lon="20.63541">
        <ele>765.141909</ele>
        <time>2022-04-27T12:21:57.734Z</time>
      </trkpt>
      <trkpt lat="41.2553" lon="20.63538">
        <ele>765.22959</ele>
        <time>2022-04-27T12:22:01.735Z</time>
      </trkpt>
      <trkpt lat="41.2552" lon="20.63536">
        <ele>765.319177</ele>
        <time>2022-04-27T12:22:05.730Z</time>
      </trkpt>
      <trkpt lat="41.25511" lon="20.63532">
        <ele>765.405844</ele>
        <time>2022-04-27T12:22:09.733Z</time>
      </trkpt>
      <trkpt lat="41.25501" lon="20.63529">
        <ele>765.492377</ele>
        <time>2022-04-27T12:22:13.738Z</time>
      </trkpt>
      <trkpt lat="41.2549" lon="20.63527">
        <ele>765.584543</ele>
        <time>2022-04-27T12:22:17.728Z</time>
      </trkpt>
      <trkpt lat="41.2548" lon="20.63525">
        <ele>765.673472</ele>
        <time>2022-04-27T12:22:21.729Z</time>
      </trkpt>
      <trkpt lat="41.25469" lon="20.63523">
        <ele>765.769855</ele>
        <time>2022-04-27T12:22:25.734Z</time>
      </trkpt>
      <trkpt lat="41.2546" lon="20.63522">
        <ele>765.851108</ele>
        <time>2022-04-27T12:22:28.734Z</time>
      </trkpt>
      <trkpt lat="41.2545" lon="20.63521">
        <ele>765.937193</ele>
        <time>2022-04-27T12:22:31.749Z</time>
      </trkpt>
      <trkpt lat="41.2544" lon="20.63522">
        <ele>766.024145</ele>
        <time>2022-04-27T12:22:34.738Z</time>
      </trkpt>
      <trkpt lat="41.2543" lon="20.63523">
        <ele>766.114045</ele>
        <time>2022-04-27T12:22:37.731Z</time>
      </trkpt>
      <trkpt lat="41.25419" lon="20.63524">
        <ele>766.206483</ele>
        <time>2022-04-27T12:22:40.733Z</time>
      </trkpt>
      <trkpt lat="41.25409" lon="20.63526">
        <ele>766.298199</ele>
        <time>2022-04-27T12:22:43.732Z</time>
      </trkpt>
      <trkpt lat="41.25398" lon="20.63529">
        <ele>766.394759</ele>
        <time>2022-04-27T12:22:46.729Z</time>
      </trkpt>
      <trkpt lat="41.25388" lon="20.6353">
        <ele>766.529594</ele>
        <time>2022-04-27T12:22:49.728Z</time>
      </trkpt>
      <trkpt lat="41.25378" lon="20.63532">
        <ele>766.666488</ele>
        <time>2022-04-27T12:22:52.732Z</time>
      </trkpt>
      <trkpt lat="41.25368" lon="20.63536">
        <ele>766.815728</ele>
        <time>2022-04-27T12:22:55.732Z</time>
      </trkpt>
      <trkpt lat="41.25358" lon="20.6354">
        <ele>766.966883</ele>
        <time>2022-04-27T12:22:58.730Z</time>
      </trkpt>
      <trkpt lat="41.25346" lon="20.63543">
        <ele>767.127977</ele>
        <time>2022-04-27T12:23:01.733Z</time>
      </trkpt>
      <trkpt lat="41.25334" lon="20.63547">
        <ele>767.299096</ele>
        <time>2022-04-27T12:23:04.731Z</time>
      </trkpt>
      <trkpt lat="41.25323" lon="20.6355">
        <ele>767.45609</ele>
        <time>2022-04-27T12:23:07.726Z</time>
      </trkpt>
      <trkpt lat="41.25312" lon="20.63554">
        <ele>767.619907</ele>
        <time>2022-04-27T12:23:10.740Z</time>
      </trkpt>
      <trkpt lat="41.25301" lon="20.63558">
        <ele>767.780203</ele>
        <time>2022-04-27T12:23:13.738Z</time>
      </trkpt>
      <trkpt lat="41.2529" lon="20.63561">
        <ele>767.933803</ele>
        <time>2022-04-27T12:23:16.763Z</time>
      </trkpt>
      <trkpt lat="41.25279" lon="20.63566">
        <ele>768.101936</ele>
        <time>2022-04-27T12:23:19.733Z</time>
      </trkpt>
      <trkpt lat="41.25267" lon="20.63569">
        <ele>768.268738</ele>
        <time>2022-04-27T12:23:22.729Z</time>
      </trkpt>
      <trkpt lat="41.25256" lon="20.63573">
        <ele>768.430122</ele>
        <time>2022-04-27T12:23:25.731Z</time>
      </trkpt>
      <trkpt lat="41.25245" lon="20.63576">
        <ele>768.581885</ele>
        <time>2022-04-27T12:23:28.737Z</time>
      </trkpt>
      <trkpt lat="41.25235" lon="20.6358">
        <ele>768.730067</ele>
        <time>2022-04-27T12:23:31.737Z</time>
      </trkpt>
      <trkpt lat="41.25226" lon="20.63585">
        <ele>768.87221</ele>
        <time>2022-04-27T12:23:34.730Z</time>
      </trkpt>
      <trkpt lat="41.25217" lon="20.63591">
        <ele>769.092562</ele>
        <time>2022-04-27T12:23:37.732Z</time>
      </trkpt>
      <trkpt lat="41.25208" lon="20.63598">
        <ele>769.354256</ele>
        <time>2022-04-27T12:23:40.735Z</time>
      </trkpt>
      <trkpt lat="41.25201" lon="20.63606">
        <ele>769.598974</ele>
        <time>2022-04-27T12:23:43.732Z</time>
      </trkpt>
      <trkpt lat="41.25193" lon="20.63616">
        <ele>769.865916</ele>
        <time>2022-04-27T12:23:46.743Z</time>
      </trkpt>
      <trkpt lat="41.25187" lon="20.63626">
        <ele>770.119721</ele>
        <time>2022-04-27T12:23:49.739Z</time>
      </trkpt>
      <trkpt lat="41.25181" lon="20.63635">
        <ele>770.361284</ele>
        <time>2022-04-27T12:23:52.731Z</time>
      </trkpt>
      <trkpt lat="41.25175" lon="20.63645">
        <ele>770.604219</ele>
        <time>2022-04-27T12:23:55.760Z</time>
      </trkpt>
      <trkpt lat="41.2517" lon="20.63655">
        <ele>770.840921</ele>
        <time>2022-04-27T12:23:58.731Z</time>
      </trkpt>
      <trkpt lat="41.25163" lon="20.63665">
        <ele>771.097994</ele>
        <time>2022-04-27T12:24:01.729Z</time>
      </trkpt>
      <trkpt lat="41.25156" lon="20.63675">
        <ele>771.357795</ele>
        <time>2022-04-27T12:24:04.736Z</time>
      </trkpt>
      <trkpt lat="41.2515" lon="20.63685">
        <ele>771.613585</ele>
        <time>2022-04-27T12:24:07.728Z</time>
      </trkpt>
      <trkpt lat="41.25143" lon="20.63694">
        <ele>771.867398</ele>
        <time>2022-04-27T12:24:10.734Z</time>
      </trkpt>
      <trkpt lat="41.25136" lon="20.63703">
        <ele>772.121165</ele>
        <time>2022-04-27T12:24:13.731Z</time>
      </trkpt>
      <trkpt lat="41.25129" lon="20.63712">
        <ele>772.370939</ele>
        <time>2022-04-27T12:24:16.748Z</time>
      </trkpt>
      <trkpt lat="41.25121" lon="20.63722">
        <ele>772.639364</ele>
        <time>2022-04-27T12:24:19.736Z</time>
      </trkpt>
      <trkpt lat="41.25114" lon="20.6373">
        <ele>772.891713</ele>
        <time>2022-04-27T12:24:22.755Z</time>
      </trkpt>
      <trkpt lat="41.25106" lon="20.63738">
        <ele>773.140846</ele>
        <time>2022-04-27T12:24:25.731Z</time>
      </trkpt>
      <trkpt lat="41.25099" lon="20.63746">
        <ele>773.38828</ele>
        <time>2022-04-27T12:24:28.737Z</time>
      </trkpt>
      <trkpt lat="41.2509" lon="20.63755">
        <ele>773.416244</ele>
        <time>2022-04-27T12:24:31.739Z</time>
      </trkpt>
      <trkpt lat="41.25081" lon="20.63765">
        <ele>773.148802</ele>
        <time>2022-04-27T12:24:34.734Z</time>
      </trkpt>
      <trkpt lat="41.25072" lon="20.63776">
        <ele>772.858776</ele>
        <time>2022-04-27T12:24:37.737Z</time>
      </trkpt>
      <trkpt lat="41.25062" lon="20.63786">
        <ele>772.555491</ele>
        <time>2022-04-27T12:24:40.741Z</time>
      </trkpt>
      <trkpt lat="41.25052" lon="20.63796">
        <ele>772.263149</ele>
        <time>2022-04-27T12:24:43.751Z</time>
      </trkpt>
      <trkpt lat="41.25042" lon="20.63805">
        <ele>771.965202</ele>
        <time>2022-04-27T12:24:46.739Z</time>
      </trkpt>
      <trkpt lat="41.25032" lon="20.63814">
        <ele>771.677012</ele>
        <time>2022-04-27T12:24:49.736Z</time>
      </trkpt>
      <trkpt lat="41.25022" lon="20.63821">
        <ele>771.403186</ele>
        <time>2022-04-27T12:24:52.732Z</time>
      </trkpt>
      <trkpt lat="41.25012" lon="20.63829">
        <ele>771.135529</ele>
        <time>2022-04-27T12:24:55.737Z</time>
      </trkpt>
      <trkpt lat="41.25001" lon="20.63836">
        <ele>770.860007</ele>
        <time>2022-04-27T12:24:58.735Z</time>
      </trkpt>
      <trkpt lat="41.24992" lon="20.63842">
        <ele>770.600145</ele>
        <time>2022-04-27T12:25:01.732Z</time>
      </trkpt>
      <trkpt lat="41.24982" lon="20.63849">
        <ele>770.344494</ele>
        <time>2022-04-27T12:25:04.761Z</time>
      </trkpt>
      <trkpt lat="41.24973" lon="20.63855">
        <ele>770.095037</ele>
        <time>2022-04-27T12:25:07.734Z</time>
      </trkpt>
      <trkpt lat="41.24963" lon="20.63862">
        <ele>769.839776</ele>
        <time>2022-04-27T12:25:10.734Z</time>
      </trkpt>
      <trkpt lat="41.24954" lon="20.63869">
        <ele>769.575307</ele>
        <time>2022-04-27T12:25:13.729Z</time>
      </trkpt>
      <trkpt lat="41.24943" lon="20.63875">
        <ele>769.305071</ele>
        <time>2022-04-27T12:25:16.738Z</time>
      </trkpt>
      <trkpt lat="41.24933" lon="20.63881">
        <ele>769.116843</ele>
        <time>2022-04-27T12:25:19.727Z</time>
      </trkpt>
      <trkpt lat="41.24925" lon="20.63887">
        <ele>768.970197</ele>
        <time>2022-04-27T12:25:22.740Z</time>
      </trkpt>
      <trkpt lat="41.24916" lon="20.63893">
        <ele>768.802541</ele>
        <time>2022-04-27T12:25:26.732Z</time>
      </trkpt>
      <trkpt lat="41.24899" lon="20.63905">
        <ele>768.498901</ele>
        <time>2022-04-27T12:28:18.741Z</time>
      </trkpt>
      <trkpt lat="41.24891" lon="20.63912">
        <ele>768.337202</ele>
        <time>2022-04-27T12:28:21.735Z</time>
      </trkpt>
      <trkpt lat="41.2488" lon="20.63919">
        <ele>768.147985</ele>
        <time>2022-04-27T12:28:24.740Z</time>
      </trkpt>
      <trkpt lat="41.24869" lon="20.63927">
        <ele>767.952555</ele>
        <time>2022-04-27T12:28:27.729Z</time>
      </trkpt>
      <trkpt lat="41.24858" lon="20.63935">
        <ele>767.742946</ele>
        <time>2022-04-27T12:28:30.738Z</time>
      </trkpt>
      <trkpt lat="41.24846" lon="20.63943">
        <ele>767.530196</ele>
        <time>2022-04-27T12:28:33.727Z</time>
      </trkpt>
      <trkpt lat="41.24838" lon="20.63949">
        <ele>767.386082</ele>
        <time>2022-04-27T12:28:35.755Z</time>
      </trkpt>
      <trkpt lat="41.2483" lon="20.63954">
        <ele>767.234238</ele>
        <time>2022-04-27T12:28:37.743Z</time>
      </trkpt>
      <trkpt lat="41.24822" lon="20.6396">
        <ele>767.082486</ele>
        <time>2022-04-27T12:28:39.732Z</time>
      </trkpt>
      <trkpt lat="41.24813" lon="20.63966">
        <ele>766.929889</ele>
        <time>2022-04-27T12:28:41.737Z</time>
      </trkpt>
      <trkpt lat="41.24804" lon="20.63973">
        <ele>766.770761</ele>
        <time>2022-04-27T12:28:43.725Z</time>
      </trkpt>
      <trkpt lat="41.24796" lon="20.63979">
        <ele>766.609925</ele>
        <time>2022-04-27T12:28:45.732Z</time>
      </trkpt>
      <trkpt lat="41.24786" lon="20.63985">
        <ele>766.440289</ele>
        <time>2022-04-27T12:28:47.729Z</time>
      </trkpt>
      <trkpt lat="41.24776" lon="20.6399">
        <ele>766.150481</ele>
        <time>2022-04-27T12:28:49.735Z</time>
      </trkpt>
      <trkpt lat="41.24765" lon="20.63994">
        <ele>765.789445</ele>
        <time>2022-04-27T12:28:51.732Z</time>
      </trkpt>
      <trkpt lat="41.24752" lon="20.63998">
        <ele>765.396689</ele>
        <time>2022-04-27T12:28:53.745Z</time>
      </trkpt>
      <trkpt lat="41.2474" lon="20.64">
        <ele>765.005164</ele>
        <time>2022-04-27T12:28:55.732Z</time>
      </trkpt>
      <trkpt lat="41.24728" lon="20.64002">
        <ele>764.60586</ele>
        <time>2022-04-27T12:28:57.755Z</time>
      </trkpt>
      <trkpt lat="41.24715" lon="20.64003">
        <ele>764.206557</ele>
        <time>2022-04-27T12:28:59.730Z</time>
      </trkpt>
      <trkpt lat="41.24702" lon="20.64005">
        <ele>763.803638</ele>
        <time>2022-04-27T12:29:01.736Z</time>
      </trkpt>
      <trkpt lat="41.2469" lon="20.64008">
        <ele>763.403743</ele>
        <time>2022-04-27T12:29:03.728Z</time>
      </trkpt>
      <trkpt lat="41.24677" lon="20.64012">
        <ele>763.001767</ele>
        <time>2022-04-27T12:29:05.740Z</time>
      </trkpt>
      <trkpt lat="41.24665" lon="20.64018">
        <ele>762.588284</ele>
        <time>2022-04-27T12:29:07.741Z</time>
      </trkpt>
      <trkpt lat="41.24653" lon="20.64026">
        <ele>762.155673</ele>
        <time>2022-04-27T12:29:09.734Z</time>
      </trkpt>
      <trkpt lat="41.2464" lon="20.64035">
        <ele>761.706575</ele>
        <time>2022-04-27T12:29:11.734Z</time>
      </trkpt>
      <trkpt lat="41.24628" lon="20.64044">
        <ele>761.274275</ele>
        <time>2022-04-27T12:29:13.732Z</time>
      </trkpt>
      <trkpt lat="41.24616" lon="20.64053">
        <ele>760.838681</ele>
        <time>2022-04-27T12:29:15.733Z</time>
      </trkpt>
      <trkpt lat="41.24604" lon="20.64061">
        <ele>760.935087</ele>
        <time>2022-04-27T12:29:17.735Z</time>
      </trkpt>
      <trkpt lat="41.24593" lon="20.64069">
        <ele>761.263008</ele>
        <time>2022-04-27T12:29:19.759Z</time>
      </trkpt>
      <trkpt lat="41.24583" lon="20.64076">
        <ele>761.574218</ele>
        <time>2022-04-27T12:29:21.728Z</time>
      </trkpt>
      <trkpt lat="41.24573" lon="20.64083">
        <ele>761.860337</ele>
        <time>2022-04-27T12:29:23.734Z</time>
      </trkpt>
      <trkpt lat="41.24565" lon="20.64089">
        <ele>762.116729</ele>
        <time>2022-04-27T12:29:25.727Z</time>
      </trkpt>
      <trkpt lat="41.24554" lon="20.64097">
        <ele>762.438658</ele>
        <time>2022-04-27T12:29:28.769Z</time>
      </trkpt>
      <trkpt lat="41.24545" lon="20.64103">
        <ele>762.709967</ele>
        <time>2022-04-27T12:29:31.735Z</time>
      </trkpt>
      <trkpt lat="41.24536" lon="20.64111">
        <ele>763.002407</ele>
        <time>2022-04-27T12:29:34.734Z</time>
      </trkpt>
      <trkpt lat="41.24526" lon="20.64119">
        <ele>763.297047</ele>
        <time>2022-04-27T12:29:37.736Z</time>
      </trkpt>
      <trkpt lat="41.24517" lon="20.64126">
        <ele>763.571597</ele>
        <time>2022-04-27T12:29:40.734Z</time>
      </trkpt>
      <trkpt lat="41.24509" lon="20.64132">
        <ele>763.818755</ele>
        <time>2022-04-27T12:29:43.735Z</time>
      </trkpt>
      <trkpt lat="41.24499" lon="20.64138">
        <ele>764.108942</ele>
        <time>2022-04-27T12:29:47.751Z</time>
      </trkpt>
      <trkpt lat="41.24487" lon="20.64142">
        <ele>764.417061</ele>
        <time>2022-04-27T12:29:52.732Z</time>
      </trkpt>
      <trkpt lat="41.24476" lon="20.64146">
        <ele>764.727929</ele>
        <time>2022-04-27T12:29:56.733Z</time>
      </trkpt>
      <trkpt lat="41.24465" lon="20.6415">
        <ele>765.023855</ele>
        <time>2022-04-27T12:29:59.741Z</time>
      </trkpt>
      <trkpt lat="41.24455" lon="20.64153">
        <ele>765.284962</ele>
        <time>2022-04-27T12:30:02.733Z</time>
      </trkpt>
      <trkpt lat="41.24446" lon="20.64156">
        <ele>765.572323</ele>
        <time>2022-04-27T12:30:07.735Z</time>
      </trkpt>
      <trkpt lat="41.24437" lon="20.6416">
        <ele>765.887992</ele>
        <time>2022-04-27T12:30:11.731Z</time>
      </trkpt>
      <trkpt lat="41.24428" lon="20.64163">
        <ele>766.206894</ele>
        <time>2022-04-27T12:30:14.745Z</time>
      </trkpt>
      <trkpt lat="41.24417" lon="20.64167">
        <ele>766.586173</ele>
        <time>2022-04-27T12:30:17.731Z</time>
      </trkpt>
      <trkpt lat="41.24405" lon="20.6417">
        <ele>766.980959</ele>
        <time>2022-04-27T12:30:20.756Z</time>
      </trkpt>
      <trkpt lat="41.24393" lon="20.64173">
        <ele>767.39985</ele>
        <time>2022-04-27T12:30:23.732Z</time>
      </trkpt>
      <trkpt lat="41.24384" lon="20.64175">
        <ele>767.714634</ele>
        <time>2022-04-27T12:30:25.736Z</time>
      </trkpt>
      <trkpt lat="41.24372" lon="20.64179">
        <ele>768.128333</ele>
        <time>2022-04-27T12:30:28.736Z</time>
      </trkpt>
      <trkpt lat="41.24361" lon="20.64181">
        <ele>768.497403</ele>
        <time>2022-04-27T12:30:31.737Z</time>
      </trkpt>
      <trkpt lat="41.24351" lon="20.64183">
        <ele>768.827232</ele>
        <time>2022-04-27T12:30:35.737Z</time>
      </trkpt>
      <trkpt lat="41.2434" lon="20.64186">
        <ele>769.200746</ele>
        <time>2022-04-27T12:30:39.725Z</time>
      </trkpt>
      <trkpt lat="41.24329" lon="20.64186">
        <ele>769.571062</ele>
        <time>2022-04-27T12:30:43.729Z</time>
      </trkpt>
      <trkpt lat="41.24319" lon="20.64188">
        <ele>769.912276</ele>
        <time>2022-04-27T12:30:46.733Z</time>
      </trkpt>
      <trkpt lat="41.24309" lon="20.64191">
        <ele>770.279202</ele>
        <time>2022-04-27T12:30:49.733Z</time>
      </trkpt>
      <trkpt lat="41.243" lon="20.64196">
        <ele>770.595603</ele>
        <time>2022-04-27T12:30:51.737Z</time>
      </trkpt>
      <trkpt lat="41.24292" lon="20.64202">
        <ele>770.915079</ele>
        <time>2022-04-27T12:30:54.738Z</time>
      </trkpt>
      <trkpt lat="41.24281" lon="20.64208">
        <ele>771.308633</ele>
        <time>2022-04-27T12:30:58.728Z</time>
      </trkpt>
      <trkpt lat="41.24271" lon="20.64215">
        <ele>771.367741</ele>
        <time>2022-04-27T12:31:01.742Z</time>
      </trkpt>
      <trkpt lat="41.24261" lon="20.64223">
        <ele>771.157861</ele>
        <time>2022-04-27T12:31:04.736Z</time>
      </trkpt>
      <trkpt lat="41.24251" lon="20.64232">
        <ele>770.948783</ele>
        <time>2022-04-27T12:31:07.746Z</time>
      </trkpt>
      <trkpt lat="41.24239" lon="20.64235">
        <ele>770.735748</ele>
        <time>2022-04-27T12:31:10.742Z</time>
      </trkpt>
      <trkpt lat="41.24228" lon="20.64234">
        <ele>770.547461</ele>
        <time>2022-04-27T12:31:12.739Z</time>
      </trkpt>
      <trkpt lat="41.24217" lon="20.64234">
        <ele>770.366219</ele>
        <time>2022-04-27T12:31:14.737Z</time>
      </trkpt>
      <trkpt lat="41.24208" lon="20.64234">
        <ele>770.20064</ele>
        <time>2022-04-27T12:31:16.731Z</time>
      </trkpt>
      <trkpt lat="41.24195" lon="20.64233">
        <ele>769.966935</ele>
        <time>2022-04-27T12:31:19.736Z</time>
      </trkpt>
      <trkpt lat="41.24186" lon="20.64232">
        <ele>769.80943</ele>
        <time>2022-04-27T12:31:21.731Z</time>
      </trkpt>
      <trkpt lat="41.24174" lon="20.64228">
        <ele>769.607578</ele>
        <time>2022-04-27T12:31:24.740Z</time>
      </trkpt>
      <trkpt lat="41.24164" lon="20.64222">
        <ele>769.414176</ele>
        <time>2022-04-27T12:31:27.732Z</time>
      </trkpt>
      <trkpt lat="41.24156" lon="20.64213">
        <ele>769.228343</ele>
        <time>2022-04-27T12:31:30.734Z</time>
      </trkpt>
      <trkpt lat="41.24148" lon="20.64201">
        <ele>769.017694</ele>
        <time>2022-04-27T12:31:33.733Z</time>
      </trkpt>
      <trkpt lat="41.24141" lon="20.64189">
        <ele>768.821693</ele>
        <time>2022-04-27T12:31:36.732Z</time>
      </trkpt>
      <trkpt lat="41.24132" lon="20.64181">
        <ele>768.626508</ele>
        <time>2022-04-27T12:31:40.758Z</time>
      </trkpt>
      <trkpt lat="41.24123" lon="20.64176">
        <ele>768.453901</ele>
        <time>2022-04-27T12:31:43.756Z</time>
      </trkpt>
      <trkpt lat="41.2411" lon="20.64167">
        <ele>769.039985</ele>
        <time>2022-04-27T12:31:46.741Z</time>
      </trkpt>
      <trkpt lat="41.241" lon="20.6416">
        <ele>770.1569</ele>
        <time>2022-04-27T12:31:49.734Z</time>
      </trkpt>
      <trkpt lat="41.24091" lon="20.64152">
        <ele>771.15383</ele>
        <time>2022-04-27T12:31:53.727Z</time>
      </trkpt>
      <trkpt lat="41.24082" lon="20.64143">
        <ele>772.253377</ele>
        <time>2022-04-27T12:31:57.735Z</time>
      </trkpt>
      <trkpt lat="41.24071" lon="20.64137">
        <ele>773.290945</ele>
        <time>2022-04-27T12:32:01.732Z</time>
      </trkpt>
      <trkpt lat="41.24061" lon="20.64133">
        <ele>774.351011</ele>
        <time>2022-04-27T12:32:05.732Z</time>
      </trkpt>
      <trkpt lat="41.24049" lon="20.6413">
        <ele>775.476311</ele>
        <time>2022-04-27T12:32:09.728Z</time>
      </trkpt>
      <trkpt lat="41.24038" lon="20.64126">
        <ele>776.571387</ele>
        <time>2022-04-27T12:32:14.732Z</time>
      </trkpt>
      <trkpt lat="41.24027" lon="20.64125">
        <ele>777.619708</ele>
        <time>2022-04-27T12:32:18.752Z</time>
      </trkpt>
      <trkpt lat="41.24016" lon="20.64129">
        <ele>778.649292</ele>
        <time>2022-04-27T12:32:25.732Z</time>
      </trkpt>
      <trkpt lat="41.24003" lon="20.64127">
        <ele>779.851212</ele>
        <time>2022-04-27T12:32:28.739Z</time>
      </trkpt>
      <trkpt lat="41.23993" lon="20.64129">
        <ele>780.830523</ele>
        <time>2022-04-27T12:32:30.737Z</time>
      </trkpt>
      <trkpt lat="41.23979" lon="20.6413">
        <ele>782.113278</ele>
        <time>2022-04-27T12:32:33.761Z</time>
      </trkpt>
      <trkpt lat="41.23969" lon="20.64131">
        <ele>783.116762</ele>
        <time>2022-04-27T12:32:35.725Z</time>
      </trkpt>
      <trkpt lat="41.23959" lon="20.64134">
        <ele>784.068033</ele>
        <time>2022-04-27T12:32:38.727Z</time>
      </trkpt>
      <trkpt lat="41.23947" lon="20.64135">
        <ele>785.209472</ele>
        <time>2022-04-27T12:32:42.741Z</time>
      </trkpt>
      <trkpt lat="41.23938" lon="20.64135">
        <ele>784.923057</ele>
        <time>2022-04-27T12:32:45.742Z</time>
      </trkpt>
      <trkpt lat="41.23929" lon="20.64136">
        <ele>784.518344</ele>
        <time>2022-04-27T12:32:48.735Z</time>
      </trkpt>
      <trkpt lat="41.23918" lon="20.64138">
        <ele>784.033456</ele>
        <time>2022-04-27T12:32:51.733Z</time>
      </trkpt>
      <trkpt lat="41.23907" lon="20.64142">
        <ele>783.551096</ele>
        <time>2022-04-27T12:32:54.747Z</time>
      </trkpt>
      <trkpt lat="41.23898" lon="20.64145">
        <ele>783.13253</ele>
        <time>2022-04-27T12:32:57.738Z</time>
      </trkpt>
      <trkpt lat="41.23887" lon="20.64147">
        <ele>782.623674</ele>
        <time>2022-04-27T12:33:01.761Z</time>
      </trkpt>
      <trkpt lat="41.23878" lon="20.64151">
        <ele>782.210007</ele>
        <time>2022-04-27T12:33:04.735Z</time>
      </trkpt>
      <trkpt lat="41.23866" lon="20.64153">
        <ele>781.653718</ele>
        <time>2022-04-27T12:33:08.737Z</time>
      </trkpt>
      <trkpt lat="41.23853" lon="20.64155">
        <ele>781.103817</ele>
        <time>2022-04-27T12:33:11.730Z</time>
      </trkpt>
      <trkpt lat="41.23842" lon="20.64156">
        <ele>780.618378</ele>
        <time>2022-04-27T12:33:14.732Z</time>
      </trkpt>
      <trkpt lat="41.23833" lon="20.64156">
        <ele>780.20461</ele>
        <time>2022-04-27T12:33:17.734Z</time>
      </trkpt>
      <trkpt lat="41.23823" lon="20.64156">
        <ele>779.759918</ele>
        <time>2022-04-27T12:33:20.740Z</time>
      </trkpt>
      <trkpt lat="41.23813" lon="20.64156">
        <ele>779.288451</ele>
        <time>2022-04-27T12:33:24.739Z</time>
      </trkpt>
      <trkpt lat="41.238" lon="20.64158">
        <ele>778.706119</ele>
        <time>2022-04-27T12:33:27.730Z</time>
      </trkpt>
      <trkpt lat="41.23788" lon="20.64164">
        <ele>778.145533</ele>
        <time>2022-04-27T12:33:30.735Z</time>
      </trkpt>
      <trkpt lat="41.23779" lon="20.64168">
        <ele>777.738329</ele>
        <time>2022-04-27T12:33:32.750Z</time>
      </trkpt>
      <trkpt lat="41.2377" lon="20.64172">
        <ele>777.333188</ele>
        <time>2022-04-27T12:33:34.758Z</time>
      </trkpt>
      <trkpt lat="41.23759" lon="20.64179">
        <ele>776.928739</ele>
        <time>2022-04-27T12:33:37.727Z</time>
      </trkpt>
      <trkpt lat="41.23748" lon="20.64185">
        <ele>776.5492</ele>
        <time>2022-04-27T12:33:40.733Z</time>
      </trkpt>
      <trkpt lat="41.23738" lon="20.64194">
        <ele>776.163431</ele>
        <time>2022-04-27T12:33:43.738Z</time>
      </trkpt>
      <trkpt lat="41.23727" lon="20.64201">
        <ele>775.801545</ele>
        <time>2022-04-27T12:33:46.731Z</time>
      </trkpt>
      <trkpt lat="41.23719" lon="20.64206">
        <ele>775.512399</ele>
        <time>2022-04-27T12:33:48.732Z</time>
      </trkpt>
      <trkpt lat="41.2371" lon="20.64212">
        <ele>775.210902</ele>
        <time>2022-04-27T12:33:50.739Z</time>
      </trkpt>
      <trkpt lat="41.23702" lon="20.64218">
        <ele>774.917819</ele>
        <time>2022-04-27T12:33:52.749Z</time>
      </trkpt>
      <trkpt lat="41.23693" lon="20.64223">
        <ele>774.61735</ele>
        <time>2022-04-27T12:33:54.738Z</time>
      </trkpt>
      <trkpt lat="41.23683" lon="20.6423">
        <ele>774.272397</ele>
        <time>2022-04-27T12:33:56.778Z</time>
      </trkpt>
      <trkpt lat="41.23675" lon="20.64237">
        <ele>773.957876</ele>
        <time>2022-04-27T12:33:58.729Z</time>
      </trkpt>
      <trkpt lat="41.23668" lon="20.64246">
        <ele>773.65672</ele>
        <time>2022-04-27T12:34:00.745Z</time>
      </trkpt>
      <trkpt lat="41.23659" lon="20.64252">
        <ele>773.356259</ele>
        <time>2022-04-27T12:34:02.732Z</time>
      </trkpt>
      <trkpt lat="41.23651" lon="20.64258">
        <ele>773.072039</ele>
        <time>2022-04-27T12:34:04.731Z</time>
      </trkpt>
      <trkpt lat="41.23643" lon="20.64265">
        <ele>772.770598</ele>
        <time>2022-04-27T12:34:06.735Z</time>
      </trkpt>
      <trkpt lat="41.23633" lon="20.64274">
        <ele>772.383451</ele>
        <time>2022-04-27T12:34:09.740Z</time>
      </trkpt>
      <trkpt lat="41.23625" lon="20.64281">
        <ele>772.084574</ele>
        <time>2022-04-27T12:34:12.737Z</time>
      </trkpt>
      <trkpt lat="41.23614" lon="20.64289">
        <ele>771.713276</ele>
        <time>2022-04-27T12:34:16.728Z</time>
      </trkpt>
      <trkpt lat="41.23607" lon="20.64295">
        <ele>771.667734</ele>
        <time>2022-04-27T12:34:19.755Z</time>
      </trkpt>
      <trkpt lat="41.23598" lon="20.64301">
        <ele>771.644652</ele>
        <time>2022-04-27T12:34:22.734Z</time>
      </trkpt>
      <trkpt lat="41.23589" lon="20.64308">
        <ele>771.619736</ele>
        <time>2022-04-27T12:34:26.738Z</time>
      </trkpt>
      <trkpt lat="41.23579" lon="20.64315">
        <ele>771.592851</ele>
        <time>2022-04-27T12:34:31.730Z</time>
      </trkpt>
      <trkpt lat="41.23571" lon="20.64323">
        <ele>771.567636</ele>
        <time>2022-04-27T12:34:34.731Z</time>
      </trkpt>
      <trkpt lat="41.23562" lon="20.64331">
        <ele>771.541521</ele>
        <time>2022-04-27T12:34:37.733Z</time>
      </trkpt>
      <trkpt lat="41.23552" lon="20.64341">
        <ele>771.511881</ele>
        <time>2022-04-27T12:34:40.737Z</time>
      </trkpt>
      <trkpt lat="41.23541" lon="20.64351">
        <ele>771.479889</ele>
        <time>2022-04-27T12:34:43.737Z</time>
      </trkpt>
      <trkpt lat="41.2353" lon="20.64361">
        <ele>771.448095</ele>
        <time>2022-04-27T12:34:46.732Z</time>
      </trkpt>
      <trkpt lat="41.23519" lon="20.64371">
        <ele>771.415901</ele>
        <time>2022-04-27T12:34:49.728Z</time>
      </trkpt>
      <trkpt lat="41.23507" lon="20.6438">
        <ele>771.383663</ele>
        <time>2022-04-27T12:34:52.731Z</time>
      </trkpt>
      <trkpt lat="41.23499" lon="20.64387">
        <ele>771.360435</ele>
        <time>2022-04-27T12:34:54.735Z</time>
      </trkpt>
      <trkpt lat="41.23491" lon="20.64394">
        <ele>771.338293</ele>
        <time>2022-04-27T12:34:56.743Z</time>
      </trkpt>
      <trkpt lat="41.23483" lon="20.64401">
        <ele>771.315349</ele>
        <time>2022-04-27T12:34:58.728Z</time>
      </trkpt>
      <trkpt lat="41.23472" lon="20.6441">
        <ele>771.284323</ele>
        <time>2022-04-27T12:35:01.731Z</time>
      </trkpt>
      <trkpt lat="41.23462" lon="20.64419">
        <ele>771.21981</ele>
        <time>2022-04-27T12:35:04.739Z</time>
      </trkpt>
      <trkpt lat="41.23454" lon="20.64426">
        <ele>770.916576</ele>
        <time>2022-04-27T12:35:06.735Z</time>
      </trkpt>
      <trkpt lat="41.23446" lon="20.64432">
        <ele>770.596418</ele>
        <time>2022-04-27T12:35:08.748Z</time>
      </trkpt>
      <trkpt lat="41.23438" lon="20.64438">
        <ele>770.289933</ele>
        <time>2022-04-27T12:35:10.734Z</time>
      </trkpt>
      <trkpt lat="41.2343" lon="20.64445">
        <ele>769.987038</ele>
        <time>2022-04-27T12:35:12.725Z</time>
      </trkpt>
      <trkpt lat="41.23419" lon="20.64452">
        <ele>769.581624</ele>
        <time>2022-04-27T12:35:15.728Z</time>
      </trkpt>
      <trkpt lat="41.23408" lon="20.64462">
        <ele>769.134226</ele>
        <time>2022-04-27T12:35:18.726Z</time>
      </trkpt>
      <trkpt lat="41.23398" lon="20.64472">
        <ele>768.693442</ele>
        <time>2022-04-27T12:35:21.733Z</time>
      </trkpt>
      <trkpt lat="41.23386" lon="20.64481">
        <ele>768.259748</ele>
        <time>2022-04-27T12:35:24.736Z</time>
      </trkpt>
      <trkpt lat="41.23375" lon="20.64489">
        <ele>767.84722</ele>
        <time>2022-04-27T12:35:27.726Z</time>
      </trkpt>
      <trkpt lat="41.23364" lon="20.64496">
        <ele>767.434175</ele>
        <time>2022-04-27T12:35:30.725Z</time>
      </trkpt>
      <trkpt lat="41.23353" lon="20.64505">
        <ele>767.011671</ele>
        <time>2022-04-27T12:35:33.755Z</time>
      </trkpt>
      <trkpt lat="41.23343" lon="20.64512">
        <ele>766.622709</ele>
        <time>2022-04-27T12:35:36.727Z</time>
      </trkpt>
      <trkpt lat="41.23334" lon="20.6452">
        <ele>766.261467</ele>
        <time>2022-04-27T12:35:39.749Z</time>
      </trkpt>
      <trkpt lat="41.23324" lon="20.64528">
        <ele>765.877745</ele>
        <time>2022-04-27T12:35:42.735Z</time>
      </trkpt>
      <trkpt lat="41.23313" lon="20.64537">
        <ele>765.453916</ele>
        <time>2022-04-27T12:35:45.729Z</time>
      </trkpt>
      <trkpt lat="41.23302" lon="20.64545">
        <ele>765.035472</ele>
        <time>2022-04-27T12:35:48.811Z</time>
      </trkpt>
      <trkpt lat="41.23291" lon="20.64554">
        <ele>764.655757</ele>
        <time>2022-04-27T12:35:51.737Z</time>
      </trkpt>
      <trkpt lat="41.23281" lon="20.64564">
        <ele>764.28042</ele>
        <time>2022-04-27T12:35:54.736Z</time>
      </trkpt>
      <trkpt lat="41.2327" lon="20.64573">
        <ele>763.901821</ele>
        <time>2022-04-27T12:35:57.729Z</time>
      </trkpt>
      <trkpt lat="41.23263" lon="20.64579">
        <ele>763.630371</ele>
        <time>2022-04-27T12:35:59.733Z</time>
      </trkpt>
      <trkpt lat="41.23251" lon="20.64587">
        <ele>763.235219</ele>
        <time>2022-04-27T12:36:02.735Z</time>
      </trkpt>
      <trkpt lat="41.23243" lon="20.64594">
        <ele>762.957886</ele>
        <time>2022-04-27T12:36:04.736Z</time>
      </trkpt>
      <trkpt lat="41.23234" lon="20.64602">
        <ele>762.64301</ele>
        <time>2022-04-27T12:36:06.754Z</time>
      </trkpt>
      <trkpt lat="41.23227" lon="20.64609">
        <ele>762.354425</ele>
        <time>2022-04-27T12:36:08.737Z</time>
      </trkpt>
      <trkpt lat="41.23215" lon="20.64617">
        <ele>761.967165</ele>
        <time>2022-04-27T12:36:11.729Z</time>
      </trkpt>
      <trkpt lat="41.23205" lon="20.64625">
        <ele>761.60588</ele>
        <time>2022-04-27T12:36:14.732Z</time>
      </trkpt>
      <trkpt lat="41.23195" lon="20.64633">
        <ele>761.254802</ele>
        <time>2022-04-27T12:36:17.764Z</time>
      </trkpt>
      <trkpt lat="41.23184" lon="20.64641">
        <ele>760.896622</ele>
        <time>2022-04-27T12:36:20.732Z</time>
      </trkpt>
      <trkpt lat="41.23174" lon="20.64649">
        <ele>760.529495</ele>
        <time>2022-04-27T12:36:23.731Z</time>
      </trkpt>
      <trkpt lat="41.23162" lon="20.64657">
        <ele>760.133801</ele>
        <time>2022-04-27T12:36:26.732Z</time>
      </trkpt>
      <trkpt lat="41.2315" lon="20.64665">
        <ele>759.690201</ele>
        <time>2022-04-27T12:36:29.736Z</time>
      </trkpt>
      <trkpt lat="41.23138" lon="20.64673">
        <ele>759.136084</ele>
        <time>2022-04-27T12:36:32.735Z</time>
      </trkpt>
      <trkpt lat="41.23127" lon="20.64681">
        <ele>758.590792</ele>
        <time>2022-04-27T12:36:35.756Z</time>
      </trkpt>
      <trkpt lat="41.23115" lon="20.64688">
        <ele>758.063769</ele>
        <time>2022-04-27T12:36:38.740Z</time>
      </trkpt>
      <trkpt lat="41.23104" lon="20.64696">
        <ele>757.536745</ele>
        <time>2022-04-27T12:36:41.737Z</time>
      </trkpt>
      <trkpt lat="41.23093" lon="20.64704">
        <ele>757.02306</ele>
        <time>2022-04-27T12:36:44.733Z</time>
      </trkpt>
      <trkpt lat="41.23083" lon="20.64711">
        <ele>756.543127</ele>
        <time>2022-04-27T12:36:47.730Z</time>
      </trkpt>
      <trkpt lat="41.23074" lon="20.64719">
        <ele>756.10122</ele>
        <time>2022-04-27T12:36:50.743Z</time>
      </trkpt>
      <trkpt lat="41.23065" lon="20.64725">
        <ele>755.666159</ele>
        <time>2022-04-27T12:36:53.726Z</time>
      </trkpt>
      <trkpt lat="41.23055" lon="20.64733">
        <ele>755.182063</ele>
        <time>2022-04-27T12:36:56.732Z</time>
      </trkpt>
      <trkpt lat="41.23044" lon="20.64742">
        <ele>754.656164</ele>
        <time>2022-04-27T12:36:59.735Z</time>
      </trkpt>
      <trkpt lat="41.23032" lon="20.64751">
        <ele>754.085826</ele>
        <time>2022-04-27T12:37:02.741Z</time>
      </trkpt>
      <trkpt lat="41.23024" lon="20.64756">
        <ele>753.69334</ele>
        <time>2022-04-27T12:37:04.735Z</time>
      </trkpt>
      <trkpt lat="41.23015" lon="20.64762">
        <ele>753.300159</ele>
        <time>2022-04-27T12:37:06.735Z</time>
      </trkpt>
      <trkpt lat="41.23007" lon="20.64768">
        <ele>752.906978</ele>
        <time>2022-04-27T12:37:08.733Z</time>
      </trkpt>
      <trkpt lat="41.22999" lon="20.64775">
        <ele>752.510768</ele>
        <time>2022-04-27T12:37:10.733Z</time>
      </trkpt>
      <trkpt lat="41.2299" lon="20.64781">
        <ele>752.296585</ele>
        <time>2022-04-27T12:37:12.741Z</time>
      </trkpt>
      <trkpt lat="41.22981" lon="20.64788">
        <ele>752.179018</ele>
        <time>2022-04-27T12:37:14.732Z</time>
      </trkpt>
      <trkpt lat="41.22972" lon="20.64795">
        <ele>752.059709</ele>
        <time>2022-04-27T12:37:16.738Z</time>
      </trkpt>
      <trkpt lat="41.22963" lon="20.64802">
        <ele>751.934435</ele>
        <time>2022-04-27T12:37:18.734Z</time>
      </trkpt>
      <trkpt lat="41.22953" lon="20.6481">
        <ele>751.805012</ele>
        <time>2022-04-27T12:37:20.737Z</time>
      </trkpt>
      <trkpt lat="41.22943" lon="20.64817">
        <ele>751.674288</ele>
        <time>2022-04-27T12:37:22.738Z</time>
      </trkpt>
      <trkpt lat="41.22933" lon="20.64825">
        <ele>751.539457</ele>
        <time>2022-04-27T12:37:24.733Z</time>
      </trkpt>
      <trkpt lat="41.22922" lon="20.64833">
        <ele>751.399913</ele>
        <time>2022-04-27T12:37:26.762Z</time>
      </trkpt>
      <trkpt lat="41.22911" lon="20.64841">
        <ele>751.255091</ele>
        <time>2022-04-27T12:37:28.741Z</time>
      </trkpt>
      <trkpt lat="41.229" lon="20.6485">
        <ele>751.104209</ele>
        <time>2022-04-27T12:37:30.736Z</time>
      </trkpt>
      <trkpt lat="41.22889" lon="20.64859">
        <ele>750.949386</ele>
        <time>2022-04-27T12:37:32.735Z</time>
      </trkpt>
      <trkpt lat="41.22876" lon="20.64868">
        <ele>750.789422</ele>
        <time>2022-04-27T12:37:34.734Z</time>
      </trkpt>
      <trkpt lat="41.22864" lon="20.64877">
        <ele>750.62661</ele>
        <time>2022-04-27T12:37:36.735Z</time>
      </trkpt>
      <trkpt lat="41.22851" lon="20.64886">
        <ele>750.460164</ele>
        <time>2022-04-27T12:37:38.728Z</time>
      </trkpt>
      <trkpt lat="41.22839" lon="20.64896">
        <ele>750.287899</ele>
        <time>2022-04-27T12:37:40.733Z</time>
      </trkpt>
      <trkpt lat="41.22826" lon="20.64905">
        <ele>750.050539</ele>
        <time>2022-04-27T12:37:42.726Z</time>
      </trkpt>
      <trkpt lat="41.22814" lon="20.64914">
        <ele>749.81793</ele>
        <time>2022-04-27T12:37:44.740Z</time>
      </trkpt>
      <trkpt lat="41.22802" lon="20.64922">
        <ele>749.594462</ele>
        <time>2022-04-27T12:37:46.729Z</time>
      </trkpt>
      <trkpt lat="41.22791" lon="20.64931">
        <ele>749.380131</ele>
        <time>2022-04-27T12:37:48.739Z</time>
      </trkpt>
      <trkpt lat="41.2278" lon="20.64939">
        <ele>749.170269</ele>
        <time>2022-04-27T12:37:50.727Z</time>
      </trkpt>
      <trkpt lat="41.22769" lon="20.64946">
        <ele>748.968363</ele>
        <time>2022-04-27T12:37:52.734Z</time>
      </trkpt>
      <trkpt lat="41.22759" lon="20.64954">
        <ele>748.774733</ele>
        <time>2022-04-27T12:37:54.737Z</time>
      </trkpt>
      <trkpt lat="41.22749" lon="20.64961">
        <ele>748.58136</ele>
        <time>2022-04-27T12:37:56.735Z</time>
      </trkpt>
      <trkpt lat="41.22739" lon="20.64968">
        <ele>748.394806</ele>
        <time>2022-04-27T12:37:58.736Z</time>
      </trkpt>
      <trkpt lat="41.2273" lon="20.64975">
        <ele>748.213859</ele>
        <time>2022-04-27T12:38:00.736Z</time>
      </trkpt>
      <trkpt lat="41.2272" lon="20.64982">
        <ele>748.0267</ele>
        <time>2022-04-27T12:38:02.739Z</time>
      </trkpt>
      <trkpt lat="41.22711" lon="20.64989">
        <ele>747.845147</ele>
        <time>2022-04-27T12:38:04.728Z</time>
      </trkpt>
      <trkpt lat="41.22702" lon="20.64996">
        <ele>747.670218</ele>
        <time>2022-04-27T12:38:06.737Z</time>
      </trkpt>
      <trkpt lat="41.22693" lon="20.65003">
        <ele>747.499258</ele>
        <time>2022-04-27T12:38:08.732Z</time>
      </trkpt>
      <trkpt lat="41.22684" lon="20.6501">
        <ele>747.332445</ele>
        <time>2022-04-27T12:38:10.752Z</time>
      </trkpt>
      <trkpt lat="41.22675" lon="20.65016">
        <ele>747.249271</ele>
        <time>2022-04-27T12:38:12.733Z</time>
      </trkpt>
      <trkpt lat="41.22667" lon="20.65023">
        <ele>747.185744</ele>
        <time>2022-04-27T12:38:14.728Z</time>
      </trkpt>
      <trkpt lat="41.22658" lon="20.65029">
        <ele>747.12345</ele>
        <time>2022-04-27T12:38:16.741Z</time>
      </trkpt>
      <trkpt lat="41.22649" lon="20.65035">
        <ele>747.061031</ele>
        <time>2022-04-27T12:38:18.744Z</time>
      </trkpt>
      <trkpt lat="41.22641" lon="20.65041">
        <ele>746.998288</ele>
        <time>2022-04-27T12:38:20.729Z</time>
      </trkpt>
      <trkpt lat="41.22632" lon="20.65048">
        <ele>746.93708</ele>
        <time>2022-04-27T12:38:22.739Z</time>
      </trkpt>
      <trkpt lat="41.22624" lon="20.65054">
        <ele>746.876231</ele>
        <time>2022-04-27T12:38:24.729Z</time>
      </trkpt>
      <trkpt lat="41.22615" lon="20.65061">
        <ele>746.814597</ele>
        <time>2022-04-27T12:38:26.742Z</time>
      </trkpt>
      <trkpt lat="41.22607" lon="20.65067">
        <ele>746.751624</ele>
        <time>2022-04-27T12:38:28.740Z</time>
      </trkpt>
      <trkpt lat="41.22598" lon="20.65074">
        <ele>746.687634</ele>
        <time>2022-04-27T12:38:30.732Z</time>
      </trkpt>
      <trkpt lat="41.22589" lon="20.6508">
        <ele>746.622622</ele>
        <time>2022-04-27T12:38:32.753Z</time>
      </trkpt>
      <trkpt lat="41.2258" lon="20.65087">
        <ele>746.557674</ele>
        <time>2022-04-27T12:38:34.732Z</time>
      </trkpt>
      <trkpt lat="41.22571" lon="20.65094">
        <ele>746.492182</ele>
        <time>2022-04-27T12:38:36.737Z</time>
      </trkpt>
      <trkpt lat="41.22562" lon="20.65101">
        <ele>746.42653</ele>
        <time>2022-04-27T12:38:38.744Z</time>
      </trkpt>
      <trkpt lat="41.22553" lon="20.65107">
        <ele>746.361985</ele>
        <time>2022-04-27T12:38:40.730Z</time>
      </trkpt>
      <trkpt lat="41.22544" lon="20.65114">
        <ele>746.298457</ele>
        <time>2022-04-27T12:38:42.733Z</time>
      </trkpt>
      <trkpt lat="41.22535" lon="20.6512">
        <ele>746.234821</ele>
        <time>2022-04-27T12:38:44.731Z</time>
      </trkpt>
      <trkpt lat="41.22527" lon="20.65126">
        <ele>746.173417</ele>
        <time>2022-04-27T12:38:46.740Z</time>
      </trkpt>
      <trkpt lat="41.22519" lon="20.65132">
        <ele>746.166608</ele>
        <time>2022-04-27T12:38:48.729Z</time>
      </trkpt>
      <trkpt lat="41.22511" lon="20.65139">
        <ele>746.174194</ele>
        <time>2022-04-27T12:38:50.738Z</time>
      </trkpt>
      <trkpt lat="41.22502" lon="20.65145">
        <ele>746.182236</ele>
        <time>2022-04-27T12:38:52.734Z</time>
      </trkpt>
      <trkpt lat="41.22494" lon="20.65152">
        <ele>746.190279</ele>
        <time>2022-04-27T12:38:54.759Z</time>
      </trkpt>
      <trkpt lat="41.22485" lon="20.65158">
        <ele>746.198362</ele>
        <time>2022-04-27T12:38:56.734Z</time>
      </trkpt>
      <trkpt lat="41.22476" lon="20.65165">
        <ele>746.206546</ele>
        <time>2022-04-27T12:38:58.734Z</time>
      </trkpt>
      <trkpt lat="41.22467" lon="20.65171">
        <ele>746.214731</ele>
        <time>2022-04-27T12:39:00.747Z</time>
      </trkpt>
      <trkpt lat="41.22459" lon="20.65178">
        <ele>746.222885</ele>
        <time>2022-04-27T12:39:02.733Z</time>
      </trkpt>
      <trkpt lat="41.2245" lon="20.65184">
        <ele>746.23104</ele>
        <time>2022-04-27T12:39:04.731Z</time>
      </trkpt>
      <trkpt lat="41.22441" lon="20.6519">
        <ele>746.238893</ele>
        <time>2022-04-27T12:39:06.735Z</time>
      </trkpt>
      <trkpt lat="41.22433" lon="20.65196">
        <ele>746.246431</ele>
        <time>2022-04-27T12:39:08.745Z</time>
      </trkpt>
      <trkpt lat="41.22425" lon="20.65202">
        <ele>746.25397</ele>
        <time>2022-04-27T12:39:10.754Z</time>
      </trkpt>
      <trkpt lat="41.22417" lon="20.65209">
        <ele>746.261731</ele>
        <time>2022-04-27T12:39:12.731Z</time>
      </trkpt>
      <trkpt lat="41.22409" lon="20.65215">
        <ele>746.269663</ele>
        <time>2022-04-27T12:39:14.734Z</time>
      </trkpt>
      <trkpt lat="41.224" lon="20.65221">
        <ele>746.277333</ele>
        <time>2022-04-27T12:39:16.731Z</time>
      </trkpt>
      <trkpt lat="41.22392" lon="20.65228">
        <ele>746.285133</ele>
        <time>2022-04-27T12:39:18.736Z</time>
      </trkpt>
      <trkpt lat="41.22383" lon="20.65234">
        <ele>746.293116</ele>
        <time>2022-04-27T12:39:20.750Z</time>
      </trkpt>
      <trkpt lat="41.22375" lon="20.65241">
        <ele>746.300917</ele>
        <time>2022-04-27T12:39:22.738Z</time>
      </trkpt>
      <trkpt lat="41.22367" lon="20.65247">
        <ele>746.355005</ele>
        <time>2022-04-27T12:39:24.732Z</time>
      </trkpt>
      <trkpt lat="41.22358" lon="20.65252">
        <ele>746.549188</ele>
        <time>2022-04-27T12:39:26.735Z</time>
      </trkpt>
      <trkpt lat="41.22349" lon="20.65259">
        <ele>746.751168</ele>
        <time>2022-04-27T12:39:28.731Z</time>
      </trkpt>
      <trkpt lat="41.22341" lon="20.65265">
        <ele>746.943798</ele>
        <time>2022-04-27T12:39:30.741Z</time>
      </trkpt>
      <trkpt lat="41.22332" lon="20.65271">
        <ele>747.140689</ele>
        <time>2022-04-27T12:39:32.758Z</time>
      </trkpt>
      <trkpt lat="41.22323" lon="20.65278">
        <ele>747.341917</ele>
        <time>2022-04-27T12:39:34.733Z</time>
      </trkpt>
      <trkpt lat="41.22315" lon="20.65284">
        <ele>747.544891</ele>
        <time>2022-04-27T12:39:36.733Z</time>
      </trkpt>
      <trkpt lat="41.22306" lon="20.65291">
        <ele>747.742883</ele>
        <time>2022-04-27T12:39:38.734Z</time>
      </trkpt>
      <trkpt lat="41.22297" lon="20.65297">
        <ele>747.945858</ele>
        <time>2022-04-27T12:39:40.735Z</time>
      </trkpt>
      <trkpt lat="41.22288" lon="20.65304">
        <ele>748.154831</ele>
        <time>2022-04-27T12:39:42.735Z</time>
      </trkpt>
      <trkpt lat="41.22279" lon="20.65311">
        <ele>748.36454</ele>
        <time>2022-04-27T12:39:44.740Z</time>
      </trkpt>
      <trkpt lat="41.2227" lon="20.65318">
        <ele>748.579629</ele>
        <time>2022-04-27T12:39:46.738Z</time>
      </trkpt>
      <trkpt lat="41.22261" lon="20.65325">
        <ele>748.783625</ele>
        <time>2022-04-27T12:39:48.732Z</time>
      </trkpt>
      <trkpt lat="41.22252" lon="20.65331">
        <ele>748.984411</ele>
        <time>2022-04-27T12:39:50.736Z</time>
      </trkpt>
      <trkpt lat="41.22243" lon="20.65338">
        <ele>749.189139</ele>
        <time>2022-04-27T12:39:52.733Z</time>
      </trkpt>
      <trkpt lat="41.22234" lon="20.65345">
        <ele>749.402087</ele>
        <time>2022-04-27T12:39:54.758Z</time>
      </trkpt>
      <trkpt lat="41.22225" lon="20.65352">
        <ele>749.617322</ele>
        <time>2022-04-27T12:39:56.739Z</time>
      </trkpt>
      <trkpt lat="41.22215" lon="20.65359">
        <ele>749.837002</ele>
        <time>2022-04-27T12:39:58.738Z</time>
      </trkpt>
      <trkpt lat="41.22206" lon="20.65366">
        <ele>749.831326</ele>
        <time>2022-04-27T12:40:00.729Z</time>
      </trkpt>
      <trkpt lat="41.22197" lon="20.65373">
        <ele>749.684358</ele>
        <time>2022-04-27T12:40:02.739Z</time>
      </trkpt>
      <trkpt lat="41.22188" lon="20.6538">
        <ele>749.537669</ele>
        <time>2022-04-27T12:40:04.728Z</time>
      </trkpt>
      <trkpt lat="41.22179" lon="20.65386">
        <ele>749.394959</ele>
        <time>2022-04-27T12:40:06.752Z</time>
      </trkpt>
      <trkpt lat="41.2217" lon="20.65394">
        <ele>749.241966</ele>
        <time>2022-04-27T12:40:08.734Z</time>
      </trkpt>
      <trkpt lat="41.22161" lon="20.65401">
        <ele>749.092466</ele>
        <time>2022-04-27T12:40:10.747Z</time>
      </trkpt>
      <trkpt lat="41.22151" lon="20.65408">
        <ele>748.941749</ele>
        <time>2022-04-27T12:40:12.744Z</time>
      </trkpt>
      <trkpt lat="41.22142" lon="20.65415">
        <ele>748.791176</ele>
        <time>2022-04-27T12:40:14.730Z</time>
      </trkpt>
      <trkpt lat="41.22133" lon="20.65423">
        <ele>748.641898</ele>
        <time>2022-04-27T12:40:16.737Z</time>
      </trkpt>
      <trkpt lat="41.22124" lon="20.65429">
        <ele>748.490009</ele>
        <time>2022-04-27T12:40:18.731Z</time>
      </trkpt>
      <trkpt lat="41.22114" lon="20.65437">
        <ele>748.335939</ele>
        <time>2022-04-27T12:40:20.739Z</time>
      </trkpt>
      <trkpt lat="41.22105" lon="20.65444">
        <ele>748.183716</ele>
        <time>2022-04-27T12:40:22.732Z</time>
      </trkpt>
      <trkpt lat="41.22096" lon="20.65452">
        <ele>748.0338</ele>
        <time>2022-04-27T12:40:24.731Z</time>
      </trkpt>
      <trkpt lat="41.22087" lon="20.65459">
        <ele>747.885513</ele>
        <time>2022-04-27T12:40:26.738Z</time>
      </trkpt>
      <trkpt lat="41.22078" lon="20.65466">
        <ele>747.740184</ele>
        <time>2022-04-27T12:40:28.734Z</time>
      </trkpt>
      <trkpt lat="41.22069" lon="20.65473">
        <ele>747.589611</ele>
        <time>2022-04-27T12:40:30.734Z</time>
      </trkpt>
      <trkpt lat="41.2206" lon="20.65481">
        <ele>747.441555</ele>
        <time>2022-04-27T12:40:32.732Z</time>
      </trkpt>
      <trkpt lat="41.22051" lon="20.65489">
        <ele>747.408579</ele>
        <time>2022-04-27T12:40:34.730Z</time>
      </trkpt>
      <trkpt lat="41.22041" lon="20.65496">
        <ele>747.432612</ele>
        <time>2022-04-27T12:40:36.760Z</time>
      </trkpt>
      <trkpt lat="41.22031" lon="20.65503">
        <ele>747.456598</ele>
        <time>2022-04-27T12:40:38.731Z</time>
      </trkpt>
      <trkpt lat="41.22022" lon="20.6551">
        <ele>747.480256</ele>
        <time>2022-04-27T12:40:40.728Z</time>
      </trkpt>
      <trkpt lat="41.22012" lon="20.65518">
        <ele>747.504078</ele>
        <time>2022-04-27T12:40:42.735Z</time>
      </trkpt>
      <trkpt lat="41.22003" lon="20.65525">
        <ele>747.527388</ele>
        <time>2022-04-27T12:40:44.742Z</time>
      </trkpt>
      <trkpt lat="41.21993" lon="20.65532">
        <ele>747.550698</ele>
        <time>2022-04-27T12:40:46.737Z</time>
      </trkpt>
      <trkpt lat="41.21984" lon="20.65539">
        <ele>747.574266</ele>
        <time>2022-04-27T12:40:48.741Z</time>
      </trkpt>
      <trkpt lat="41.21974" lon="20.65545">
        <ele>747.598292</ele>
        <time>2022-04-27T12:40:50.733Z</time>
      </trkpt>
      <trkpt lat="41.21964" lon="20.65553">
        <ele>747.622754</ele>
        <time>2022-04-27T12:40:52.739Z</time>
      </trkpt>
      <trkpt lat="41.21954" lon="20.6556">
        <ele>747.646145</ele>
        <time>2022-04-27T12:40:54.733Z</time>
      </trkpt>
      <trkpt lat="41.21945" lon="20.65567">
        <ele>747.669375</ele>
        <time>2022-04-27T12:40:56.734Z</time>
      </trkpt>
      <trkpt lat="41.21936" lon="20.65574">
        <ele>747.692579</ele>
        <time>2022-04-27T12:40:58.739Z</time>
      </trkpt>
      <trkpt lat="41.21927" lon="20.65582">
        <ele>747.715932</ele>
        <time>2022-04-27T12:41:00.733Z</time>
      </trkpt>
      <trkpt lat="41.21918" lon="20.65589">
        <ele>747.738065</ele>
        <time>2022-04-27T12:41:02.733Z</time>
      </trkpt>
      <trkpt lat="41.21909" lon="20.65595">
        <ele>747.759207</ele>
        <time>2022-04-27T12:41:04.739Z</time>
      </trkpt>
      <trkpt lat="41.219" lon="20.65602">
        <ele>747.774332</ele>
        <time>2022-04-27T12:41:06.735Z</time>
      </trkpt>
      <trkpt lat="41.21892" lon="20.65609">
        <ele>747.638059</ele>
        <time>2022-04-27T12:41:08.736Z</time>
      </trkpt>
      <trkpt lat="41.21884" lon="20.65616">
        <ele>747.508069</ele>
        <time>2022-04-27T12:41:10.736Z</time>
      </trkpt>
      <trkpt lat="41.21875" lon="20.65623">
        <ele>747.372195</ele>
        <time>2022-04-27T12:41:12.742Z</time>
      </trkpt>
      <trkpt lat="41.21867" lon="20.6563">
        <ele>747.236534</ele>
        <time>2022-04-27T12:41:14.751Z</time>
      </trkpt>
      <trkpt lat="41.21858" lon="20.65637">
        <ele>747.101827</ele>
        <time>2022-04-27T12:41:16.727Z</time>
      </trkpt>
      <trkpt lat="41.21849" lon="20.65644">
        <ele>746.963241</ele>
        <time>2022-04-27T12:41:18.736Z</time>
      </trkpt>
      <trkpt lat="41.2184" lon="20.65651">
        <ele>746.8236</ele>
        <time>2022-04-27T12:41:20.733Z</time>
      </trkpt>
      <trkpt lat="41.21832" lon="20.65658">
        <ele>746.688477</ele>
        <time>2022-04-27T12:41:22.732Z</time>
      </trkpt>
      <trkpt lat="41.21823" lon="20.65665">
        <ele>746.549985</ele>
        <time>2022-04-27T12:41:24.727Z</time>
      </trkpt>
      <trkpt lat="41.21814" lon="20.65672">
        <ele>746.409191</ele>
        <time>2022-04-27T12:41:26.729Z</time>
      </trkpt>
      <trkpt lat="41.21805" lon="20.6568">
        <ele>746.268473</ele>
        <time>2022-04-27T12:41:28.736Z</time>
      </trkpt>
      <trkpt lat="41.21797" lon="20.65687">
        <ele>746.129887</ele>
        <time>2022-04-27T12:41:30.736Z</time>
      </trkpt>
      <trkpt lat="41.21787" lon="20.65694">
        <ele>745.984957</ele>
        <time>2022-04-27T12:41:32.729Z</time>
      </trkpt>
      <trkpt lat="41.21778" lon="20.657">
        <ele>745.845559</ele>
        <time>2022-04-27T12:41:34.729Z</time>
      </trkpt>
      <trkpt lat="41.21769" lon="20.65707">
        <ele>745.707339</ele>
        <time>2022-04-27T12:41:36.734Z</time>
      </trkpt>
      <trkpt lat="41.21761" lon="20.65714">
        <ele>745.571464</ele>
        <time>2022-04-27T12:41:38.731Z</time>
      </trkpt>
      <trkpt lat="41.21752" lon="20.65721">
        <ele>745.432877</ele>
        <time>2022-04-27T12:41:40.738Z</time>
      </trkpt>
      <trkpt lat="41.21743" lon="20.65729">
        <ele>745.192172</ele>
        <time>2022-04-27T12:41:42.738Z</time>
      </trkpt>
      <trkpt lat="41.21734" lon="20.65736">
        <ele>744.848222</ele>
        <time>2022-04-27T12:41:44.735Z</time>
      </trkpt>
      <trkpt lat="41.21725" lon="20.65743">
        <ele>744.519502</ele>
        <time>2022-04-27T12:41:46.734Z</time>
      </trkpt>
      <trkpt lat="41.21717" lon="20.65751">
        <ele>744.188074</ele>
        <time>2022-04-27T12:41:48.737Z</time>
      </trkpt>
      <trkpt lat="41.21709" lon="20.65758">
        <ele>743.860513</ele>
        <time>2022-04-27T12:41:50.764Z</time>
      </trkpt>
      <trkpt lat="41.217" lon="20.65764">
        <ele>743.530141</ele>
        <time>2022-04-27T12:41:52.731Z</time>
      </trkpt>
      <trkpt lat="41.21691" lon="20.65771">
        <ele>743.192855</ele>
        <time>2022-04-27T12:41:54.733Z</time>
      </trkpt>
      <trkpt lat="41.21682" lon="20.65779">
        <ele>742.838893</ele>
        <time>2022-04-27T12:41:56.736Z</time>
      </trkpt>
      <trkpt lat="41.21672" lon="20.65786">
        <ele>742.479589</ele>
        <time>2022-04-27T12:41:58.730Z</time>
      </trkpt>
      <trkpt lat="41.21663" lon="20.65793">
        <ele>742.112513</ele>
        <time>2022-04-27T12:42:00.742Z</time>
      </trkpt>
      <trkpt lat="41.21653" lon="20.65801">
        <ele>741.734884</ele>
        <time>2022-04-27T12:42:02.735Z</time>
      </trkpt>
      <trkpt lat="41.21643" lon="20.65808">
        <ele>741.359213</ele>
        <time>2022-04-27T12:42:04.749Z</time>
      </trkpt>
      <trkpt lat="41.21633" lon="20.65816">
        <ele>740.987299</ele>
        <time>2022-04-27T12:42:06.757Z</time>
      </trkpt>
      <trkpt lat="41.21623" lon="20.65823">
        <ele>740.61088</ele>
        <time>2022-04-27T12:42:08.743Z</time>
      </trkpt>
      <trkpt lat="41.21613" lon="20.65831">
        <ele>740.234881</ele>
        <time>2022-04-27T12:42:10.730Z</time>
      </trkpt>
      <trkpt lat="41.21604" lon="20.65838">
        <ele>739.876437</ele>
        <time>2022-04-27T12:42:12.736Z</time>
      </trkpt>
      <trkpt lat="41.21593" lon="20.65846">
        <ele>739.491862</ele>
        <time>2022-04-27T12:42:14.737Z</time>
      </trkpt>
      <trkpt lat="41.21583" lon="20.65854">
        <ele>739.328888</ele>
        <time>2022-04-27T12:42:16.738Z</time>
      </trkpt>
      <trkpt lat="41.21573" lon="20.65862">
        <ele>739.204837</ele>
        <time>2022-04-27T12:42:18.745Z</time>
      </trkpt>
      <trkpt lat="41.21564" lon="20.6587">
        <ele>739.081269</ele>
        <time>2022-04-27T12:42:20.726Z</time>
      </trkpt>
      <trkpt lat="41.21554" lon="20.65878">
        <ele>738.956851</ele>
        <time>2022-04-27T12:42:22.739Z</time>
      </trkpt>
      <trkpt lat="41.21544" lon="20.65886">
        <ele>738.837661</ele>
        <time>2022-04-27T12:42:24.741Z</time>
      </trkpt>
      <trkpt lat="41.21534" lon="20.65894">
        <ele>738.717066</ele>
        <time>2022-04-27T12:42:26.747Z</time>
      </trkpt>
      <trkpt lat="41.21524" lon="20.65902">
        <ele>738.593725</ele>
        <time>2022-04-27T12:42:28.733Z</time>
      </trkpt>
      <trkpt lat="41.21514" lon="20.65909">
        <ele>738.466303</ele>
        <time>2022-04-27T12:42:30.759Z</time>
      </trkpt>
      <trkpt lat="41.21504" lon="20.65917">
        <ele>738.342664</ele>
        <time>2022-04-27T12:42:32.746Z</time>
      </trkpt>
      <trkpt lat="41.21493" lon="20.65926">
        <ele>738.216387</ele>
        <time>2022-04-27T12:42:34.742Z</time>
      </trkpt>
      <trkpt lat="41.21483" lon="20.65934">
        <ele>738.09011</ele>
        <time>2022-04-27T12:42:36.728Z</time>
      </trkpt>
      <trkpt lat="41.21473" lon="20.65942">
        <ele>737.96437</ele>
        <time>2022-04-27T12:42:38.724Z</time>
      </trkpt>
      <trkpt lat="41.21463" lon="20.65951">
        <ele>737.835115</ele>
        <time>2022-04-27T12:42:40.734Z</time>
      </trkpt>
      <trkpt lat="41.21453" lon="20.65961">
        <ele>737.704504</ele>
        <time>2022-04-27T12:42:42.732Z</time>
      </trkpt>
      <trkpt lat="41.21443" lon="20.65971">
        <ele>737.572786</ele>
        <time>2022-04-27T12:42:44.738Z</time>
      </trkpt>
      <trkpt lat="41.21434" lon="20.65981">
        <ele>737.552198</ele>
        <time>2022-04-27T12:42:46.736Z</time>
      </trkpt>
      <trkpt lat="41.21424" lon="20.65992">
        <ele>737.589302</ele>
        <time>2022-04-27T12:42:48.730Z</time>
      </trkpt>
      <trkpt lat="41.21414" lon="20.66003">
        <ele>737.627102</ele>
        <time>2022-04-27T12:42:50.736Z</time>
      </trkpt>
      <trkpt lat="41.21405" lon="20.66015">
        <ele>737.665564</ele>
        <time>2022-04-27T12:42:52.729Z</time>
      </trkpt>
      <trkpt lat="41.21395" lon="20.66026">
        <ele>737.70432</ele>
        <time>2022-04-27T12:42:54.743Z</time>
      </trkpt>
      <trkpt lat="41.21385" lon="20.66037">
        <ele>737.742642</ele>
        <time>2022-04-27T12:42:56.733Z</time>
      </trkpt>
      <trkpt lat="41.21375" lon="20.66049">
        <ele>737.781869</ele>
        <time>2022-04-27T12:42:58.771Z</time>
      </trkpt>
      <trkpt lat="41.21364" lon="20.66059">
        <ele>737.82054</ele>
        <time>2022-04-27T12:43:00.729Z</time>
      </trkpt>
      <trkpt lat="41.21354" lon="20.6607">
        <ele>737.859677</ele>
        <time>2022-04-27T12:43:02.740Z</time>
      </trkpt>
      <trkpt lat="41.21343" lon="20.66081">
        <ele>737.898855</ele>
        <time>2022-04-27T12:43:04.736Z</time>
      </trkpt>
      <trkpt lat="41.21334" lon="20.66092">
        <ele>737.936891</ele>
        <time>2022-04-27T12:43:06.749Z</time>
      </trkpt>
      <trkpt lat="41.21324" lon="20.66103">
        <ele>737.974135</ele>
        <time>2022-04-27T12:43:08.736Z</time>
      </trkpt>
      <trkpt lat="41.21314" lon="20.66113">
        <ele>738.010321</ele>
        <time>2022-04-27T12:43:10.737Z</time>
      </trkpt>
      <trkpt lat="41.21304" lon="20.66123">
        <ele>738.047947</ele>
        <time>2022-04-27T12:43:12.737Z</time>
      </trkpt>
      <trkpt lat="41.21294" lon="20.66134">
        <ele>738.024982</ele>
        <time>2022-04-27T12:43:14.731Z</time>
      </trkpt>
      <trkpt lat="41.21284" lon="20.66145">
        <ele>737.978117</ele>
        <time>2022-04-27T12:43:16.743Z</time>
      </trkpt>
      <trkpt lat="41.21273" lon="20.66155">
        <ele>737.931251</ele>
        <time>2022-04-27T12:43:18.734Z</time>
      </trkpt>
      <trkpt lat="41.21263" lon="20.66166">
        <ele>737.883982</ele>
        <time>2022-04-27T12:43:20.730Z</time>
      </trkpt>
      <trkpt lat="41.21253" lon="20.66176">
        <ele>737.837781</ele>
        <time>2022-04-27T12:43:22.733Z</time>
      </trkpt>
      <trkpt lat="41.21243" lon="20.66186">
        <ele>737.793385</ele>
        <time>2022-04-27T12:43:24.734Z</time>
      </trkpt>
      <trkpt lat="41.21232" lon="20.66196">
        <ele>737.746478</ele>
        <time>2022-04-27T12:43:26.741Z</time>
      </trkpt>
      <trkpt lat="41.21222" lon="20.66207">
        <ele>737.698922</ele>
        <time>2022-04-27T12:43:28.727Z</time>
      </trkpt>
      <trkpt lat="41.21211" lon="20.66217">
        <ele>737.651564</ele>
        <time>2022-04-27T12:43:30.736Z</time>
      </trkpt>
      <trkpt lat="41.21201" lon="20.66227">
        <ele>737.605289</ele>
        <time>2022-04-27T12:43:32.744Z</time>
      </trkpt>
      <trkpt lat="41.21191" lon="20.66237">
        <ele>737.559603</ele>
        <time>2022-04-27T12:43:34.732Z</time>
      </trkpt>
      <trkpt lat="41.2118" lon="20.66247">
        <ele>737.512535</ele>
        <time>2022-04-27T12:43:36.731Z</time>
      </trkpt>
      <trkpt lat="41.2117" lon="20.66257">
        <ele>737.465306</ele>
        <time>2022-04-27T12:43:38.732Z</time>
      </trkpt>
      <trkpt lat="41.21159" lon="20.66268">
        <ele>737.417462</ele>
        <time>2022-04-27T12:43:40.730Z</time>
      </trkpt>
      <trkpt lat="41.21149" lon="20.66278">
        <ele>737.252748</ele>
        <time>2022-04-27T12:43:42.727Z</time>
      </trkpt>
      <trkpt lat="41.21139" lon="20.66288">
        <ele>737.067157</ele>
        <time>2022-04-27T12:43:44.755Z</time>
      </trkpt>
      <trkpt lat="41.21129" lon="20.66298">
        <ele>736.879684</ele>
        <time>2022-04-27T12:43:46.734Z</time>
      </trkpt>
      <trkpt lat="41.21121" lon="20.66307">
        <ele>736.716755</ele>
        <time>2022-04-27T12:43:48.731Z</time>
      </trkpt>
      <trkpt lat="41.21112" lon="20.66316">
        <ele>736.547239</ele>
        <time>2022-04-27T12:43:51.736Z</time>
      </trkpt>
      <trkpt lat="41.21103" lon="20.66325">
        <ele>736.382429</ele>
        <time>2022-04-27T12:43:54.747Z</time>
      </trkpt>
      <trkpt lat="41.21093" lon="20.66335">
        <ele>736.190515</ele>
        <time>2022-04-27T12:43:57.729Z</time>
      </trkpt>
      <trkpt lat="41.21086" lon="20.66343">
        <ele>736.051099</ele>
        <time>2022-04-27T12:43:59.729Z</time>
      </trkpt>
      <trkpt lat="41.21078" lon="20.66351">
        <ele>735.908125</ele>
        <time>2022-04-27T12:44:01.756Z</time>
      </trkpt>
      <trkpt lat="41.21071" lon="20.66359">
        <ele>735.761878</ele>
        <time>2022-04-27T12:44:03.738Z</time>
      </trkpt>
      <trkpt lat="41.21063" lon="20.66367">
        <ele>735.618699</ele>
        <time>2022-04-27T12:44:05.732Z</time>
      </trkpt>
      <trkpt lat="41.21056" lon="20.66374">
        <ele>735.478784</ele>
        <time>2022-04-27T12:44:07.754Z</time>
      </trkpt>
      <trkpt lat="41.21048" lon="20.66381">
        <ele>735.342781</ele>
        <time>2022-04-27T12:44:09.732Z</time>
      </trkpt>
      <trkpt lat="41.21041" lon="20.66388">
        <ele>735.202522</ele>
        <time>2022-04-27T12:44:11.731Z</time>
      </trkpt>
      <trkpt lat="41.21033" lon="20.66396">
        <ele>735.054016</ele>
        <time>2022-04-27T12:44:13.753Z</time>
      </trkpt>
      <trkpt lat="41.21025" lon="20.66404">
        <ele>734.910487</ele>
        <time>2022-04-27T12:44:15.727Z</time>
      </trkpt>
      <trkpt lat="41.21018" lon="20.66411">
        <ele>734.771255</ele>
        <time>2022-04-27T12:44:17.737Z</time>
      </trkpt>
      <trkpt lat="41.21008" lon="20.6642">
        <ele>734.684353</ele>
        <time>2022-04-27T12:44:20.741Z</time>
      </trkpt>
      <trkpt lat="41.20998" lon="20.66431">
        <ele>734.648288</ele>
        <time>2022-04-27T12:44:23.731Z</time>
      </trkpt>
      <trkpt lat="41.20991" lon="20.66438">
        <ele>734.62123</ele>
        <time>2022-04-27T12:44:25.733Z</time>
      </trkpt>
      <trkpt lat="41.20984" lon="20.66445">
        <ele>734.595317</ele>
        <time>2022-04-27T12:44:27.731Z</time>
      </trkpt>
      <trkpt lat="41.20977" lon="20.66453">
        <ele>734.569358</ele>
        <time>2022-04-27T12:44:29.728Z</time>
      </trkpt>
      <trkpt lat="41.20969" lon="20.66461">
        <ele>734.542952</ele>
        <time>2022-04-27T12:44:31.741Z</time>
      </trkpt>
      <trkpt lat="41.20962" lon="20.66468">
        <ele>734.515734</ele>
        <time>2022-04-27T12:44:33.742Z</time>
      </trkpt>
      <trkpt lat="41.20954" lon="20.66477">
        <ele>734.485543</ele>
        <time>2022-04-27T12:44:35.750Z</time>
      </trkpt>
      <trkpt lat="41.20945" lon="20.66486">
        <ele>734.454642</ele>
        <time>2022-04-27T12:44:37.734Z</time>
      </trkpt>
      <trkpt lat="41.20937" lon="20.66495">
        <ele>734.425038</ele>
        <time>2022-04-27T12:44:39.731Z</time>
      </trkpt>
      <trkpt lat="41.20929" lon="20.66502">
        <ele>734.396796</ele>
        <time>2022-04-27T12:44:41.729Z</time>
      </trkpt>
      <trkpt lat="41.20921" lon="20.6651">
        <ele>734.368403</ele>
        <time>2022-04-27T12:44:43.733Z</time>
      </trkpt>
      <trkpt lat="41.20914" lon="20.66518">
        <ele>734.339615</ele>
        <time>2022-04-27T12:44:45.729Z</time>
      </trkpt>
      <trkpt lat="41.20906" lon="20.66526">
        <ele>734.31213</ele>
        <time>2022-04-27T12:44:47.734Z</time>
      </trkpt>
      <trkpt lat="41.20898" lon="20.66534">
        <ele>734.283737</ele>
        <time>2022-04-27T12:44:49.752Z</time>
      </trkpt>
      <trkpt lat="41.2089" lon="20.66542">
        <ele>734.25423</ele>
        <time>2022-04-27T12:44:51.734Z</time>
      </trkpt>
      <trkpt lat="41.20882" lon="20.66551">
        <ele>734.225123</ele>
        <time>2022-04-27T12:44:53.729Z</time>
      </trkpt>
      <trkpt lat="41.20874" lon="20.6656">
        <ele>734.19552</ele>
        <time>2022-04-27T12:44:55.727Z</time>
      </trkpt>
      <trkpt lat="41.20867" lon="20.66569">
        <ele>734.165183</ele>
        <time>2022-04-27T12:44:57.727Z</time>
      </trkpt>
      <trkpt lat="41.20858" lon="20.66578">
        <ele>734.132012</ele>
        <time>2022-04-27T12:44:59.734Z</time>
      </trkpt>
      <trkpt lat="41.20849" lon="20.66588">
        <ele>734.097765</ele>
        <time>2022-04-27T12:45:01.744Z</time>
      </trkpt>
      <trkpt lat="41.20841" lon="20.66597">
        <ele>734.063839</ele>
        <time>2022-04-27T12:45:03.732Z</time>
      </trkpt>
      <trkpt lat="41.20833" lon="20.66607">
        <ele>734.031571</ele>
        <time>2022-04-27T12:45:05.738Z</time>
      </trkpt>
      <trkpt lat="41.20825" lon="20.66616">
        <ele>733.999834</ele>
        <time>2022-04-27T12:45:07.728Z</time>
      </trkpt>
      <trkpt lat="41.20817" lon="20.66626">
        <ele>733.966893</ele>
        <time>2022-04-27T12:45:09.727Z</time>
      </trkpt>
      <trkpt lat="41.20809" lon="20.66635">
        <ele>733.934033</ele>
        <time>2022-04-27T12:45:11.734Z</time>
      </trkpt>
      <trkpt lat="41.20801" lon="20.66644">
        <ele>733.901908</ele>
        <time>2022-04-27T12:45:13.757Z</time>
      </trkpt>
      <trkpt lat="41.20793" lon="20.66654">
        <ele>733.870701</ele>
        <time>2022-04-27T12:45:15.744Z</time>
      </trkpt>
      <trkpt lat="41.20786" lon="20.66664">
        <ele>733.838822</ele>
        <time>2022-04-27T12:45:17.742Z</time>
      </trkpt>
      <trkpt lat="41.20778" lon="20.66674">
        <ele>733.806868</ele>
        <time>2022-04-27T12:45:19.754Z</time>
      </trkpt>
      <trkpt lat="41.20772" lon="20.66684">
        <ele>733.775353</ele>
        <time>2022-04-27T12:45:21.746Z</time>
      </trkpt>
      <trkpt lat="41.20765" lon="20.66695">
        <ele>733.743668</ele>
        <time>2022-04-27T12:45:23.733Z</time>
      </trkpt>
      <trkpt lat="41.20758" lon="20.66705">
        <ele>733.712396</ele>
        <time>2022-04-27T12:45:25.748Z</time>
      </trkpt>
      <trkpt lat="41.20751" lon="20.66716">
        <ele>733.680367</ele>
        <time>2022-04-27T12:45:27.742Z</time>
      </trkpt>
      <trkpt lat="41.20743" lon="20.66727">
        <ele>733.646052</ele>
        <time>2022-04-27T12:45:29.733Z</time>
      </trkpt>
      <trkpt lat="41.20736" lon="20.66738">
        <ele>733.557668</ele>
        <time>2022-04-27T12:45:31.753Z</time>
      </trkpt>
      <trkpt lat="41.20729" lon="20.66748">
        <ele>733.473875</ele>
        <time>2022-04-27T12:45:33.733Z</time>
      </trkpt>
      <trkpt lat="41.20723" lon="20.66759">
        <ele>733.387939</ele>
        <time>2022-04-27T12:45:35.733Z</time>
      </trkpt>
      <trkpt lat="41.20716" lon="20.66771">
        <ele>733.29763</ele>
        <time>2022-04-27T12:45:37.727Z</time>
      </trkpt>
      <trkpt lat="41.2071" lon="20.66783">
        <ele>733.206785</ele>
        <time>2022-04-27T12:45:39.728Z</time>
      </trkpt>
      <trkpt lat="41.20703" lon="20.66795">
        <ele>733.112951</ele>
        <time>2022-04-27T12:45:41.732Z</time>
      </trkpt>
      <trkpt lat="41.20697" lon="20.66808">
        <ele>733.019577</ele>
        <time>2022-04-27T12:45:43.737Z</time>
      </trkpt>
      <trkpt lat="41.2069" lon="20.6682">
        <ele>732.926249</ele>
        <time>2022-04-27T12:45:45.732Z</time>
      </trkpt>
      <trkpt lat="41.20684" lon="20.66833">
        <ele>732.834431</ele>
        <time>2022-04-27T12:45:47.729Z</time>
      </trkpt>
      <trkpt lat="41.20677" lon="20.66845">
        <ele>732.74304</ele>
        <time>2022-04-27T12:45:49.739Z</time>
      </trkpt>
      <trkpt lat="41.20671" lon="20.66857">
        <ele>732.653695</ele>
        <time>2022-04-27T12:45:51.728Z</time>
      </trkpt>
      <trkpt lat="41.20665" lon="20.66869">
        <ele>732.563282</ele>
        <time>2022-04-27T12:45:53.729Z</time>
      </trkpt>
      <trkpt lat="41.20659" lon="20.66881">
        <ele>732.473911</ele>
        <time>2022-04-27T12:45:55.730Z</time>
      </trkpt>
      <trkpt lat="41.20653" lon="20.66893">
        <ele>732.385007</ele>
        <time>2022-04-27T12:45:57.730Z</time>
      </trkpt>
      <trkpt lat="41.20646" lon="20.66905">
        <ele>732.294686</ele>
        <time>2022-04-27T12:45:59.758Z</time>
      </trkpt>
      <trkpt lat="41.20639" lon="20.66917">
        <ele>732.197919</ele>
        <time>2022-04-27T12:46:01.737Z</time>
      </trkpt>
      <trkpt lat="41.20632" lon="20.6693">
        <ele>732.137577</ele>
        <time>2022-04-27T12:46:03.730Z</time>
      </trkpt>
      <trkpt lat="41.20625" lon="20.66942">
        <ele>732.088024</ele>
        <time>2022-04-27T12:46:05.756Z</time>
      </trkpt>
      <trkpt lat="41.20618" lon="20.66954">
        <ele>732.037962</ele>
        <time>2022-04-27T12:46:07.737Z</time>
      </trkpt>
      <trkpt lat="41.20612" lon="20.66966">
        <ele>731.991524</ele>
        <time>2022-04-27T12:46:09.742Z</time>
      </trkpt>
      <trkpt lat="41.20606" lon="20.66977">
        <ele>731.948144</ele>
        <time>2022-04-27T12:46:11.731Z</time>
      </trkpt>
      <trkpt lat="41.206" lon="20.66988">
        <ele>731.90378</ele>
        <time>2022-04-27T12:46:13.734Z</time>
      </trkpt>
      <trkpt lat="41.20594" lon="20.66999">
        <ele>731.859162</ele>
        <time>2022-04-27T12:46:15.731Z</time>
      </trkpt>
      <trkpt lat="41.20588" lon="20.67011">
        <ele>731.814516</ele>
        <time>2022-04-27T12:46:17.735Z</time>
      </trkpt>
      <trkpt lat="41.20582" lon="20.67021">
        <ele>731.771446</ele>
        <time>2022-04-27T12:46:19.747Z</time>
      </trkpt>
      <trkpt lat="41.20576" lon="20.67033">
        <ele>731.725773</ele>
        <time>2022-04-27T12:46:21.744Z</time>
      </trkpt>
      <trkpt lat="41.2057" lon="20.67045">
        <ele>731.678557</ele>
        <time>2022-04-27T12:46:23.733Z</time>
      </trkpt>
      <trkpt lat="41.20563" lon="20.67057">
        <ele>731.631326</ele>
        <time>2022-04-27T12:46:25.742Z</time>
      </trkpt>
      <trkpt lat="41.20557" lon="20.67068">
        <ele>731.58334</ele>
        <time>2022-04-27T12:46:27.753Z</time>
      </trkpt>
      <trkpt lat="41.2055" lon="20.6708">
        <ele>731.534058</ele>
        <time>2022-04-27T12:46:29.744Z</time>
      </trkpt>
      <trkpt lat="41.20543" lon="20.67092">
        <ele>731.486591</ele>
        <time>2022-04-27T12:46:31.737Z</time>
      </trkpt>
      <trkpt lat="41.20537" lon="20.67104">
        <ele>731.440669</ele>
        <time>2022-04-27T12:46:33.729Z</time>
      </trkpt>
      <trkpt lat="41.20532" lon="20.67114">
        <ele>731.404594</ele>
        <time>2022-04-27T12:46:35.737Z</time>
      </trkpt>
      <trkpt lat="41.20526" lon="20.67125">
        <ele>731.479992</ele>
        <time>2022-04-27T12:46:37.734Z</time>
      </trkpt>
      <trkpt lat="41.2052" lon="20.67135">
        <ele>731.555389</ele>
        <time>2022-04-27T12:46:39.746Z</time>
      </trkpt>
      <trkpt lat="41.20515" lon="20.67145">
        <ele>731.630803</ele>
        <time>2022-04-27T12:46:41.729Z</time>
      </trkpt>
      <trkpt lat="41.20509" lon="20.67156">
        <ele>731.709529</ele>
        <time>2022-04-27T12:46:43.741Z</time>
      </trkpt>
      <trkpt lat="41.20503" lon="20.67167">
        <ele>731.790577</ele>
        <time>2022-04-27T12:46:45.732Z</time>
      </trkpt>
      <trkpt lat="41.20496" lon="20.67178">
        <ele>731.871711</ele>
        <time>2022-04-27T12:46:47.727Z</time>
      </trkpt>
      <trkpt lat="41.20489" lon="20.67188">
        <ele>731.952449</ele>
        <time>2022-04-27T12:46:49.753Z</time>
      </trkpt>
      <trkpt lat="41.20483" lon="20.67199">
        <ele>732.035102</ele>
        <time>2022-04-27T12:46:51.731Z</time>
      </trkpt>
      <trkpt lat="41.20475" lon="20.67209">
        <ele>732.117534</ele>
        <time>2022-04-27T12:46:53.738Z</time>
      </trkpt>
      <trkpt lat="41.20467" lon="20.67216">
        <ele>732.196566</ele>
        <time>2022-04-27T12:46:55.729Z</time>
      </trkpt>
      <trkpt lat="41.20458" lon="20.67224">
        <ele>732.276862</ele>
        <time>2022-04-27T12:46:57.735Z</time>
      </trkpt>
      <trkpt lat="41.20449" lon="20.6723">
        <ele>732.358397</ele>
        <time>2022-04-27T12:46:59.742Z</time>
      </trkpt>
      <trkpt lat="41.2044" lon="20.67236">
        <ele>732.439623</ele>
        <time>2022-04-27T12:47:01.729Z</time>
      </trkpt>
      <trkpt lat="41.2043" lon="20.67241">
        <ele>732.521897</ele>
        <time>2022-04-27T12:47:03.733Z</time>
      </trkpt>
      <trkpt lat="41.2042" lon="20.67246">
        <ele>732.606371</ele>
        <time>2022-04-27T12:47:05.730Z</time>
      </trkpt>
      <trkpt lat="41.2041" lon="20.6725">
        <ele>732.6873</ele>
        <time>2022-04-27T12:47:07.732Z</time>
      </trkpt>
      <trkpt lat="41.204" lon="20.67253">
        <ele>732.766756</ele>
        <time>2022-04-27T12:47:09.729Z</time>
      </trkpt>
      <trkpt lat="41.2039" lon="20.67255">
        <ele>732.779975</ele>
        <time>2022-04-27T12:47:11.728Z</time>
      </trkpt>
      <trkpt lat="41.2038" lon="20.67257">
        <ele>732.712824</ele>
        <time>2022-04-27T12:47:13.737Z</time>
      </trkpt>
      <trkpt lat="41.20371" lon="20.67259">
        <ele>732.647881</ele>
        <time>2022-04-27T12:47:15.733Z</time>
      </trkpt>
      <trkpt lat="41.20362" lon="20.67261">
        <ele>732.580812</ele>
        <time>2022-04-27T12:47:17.757Z</time>
      </trkpt>
      <trkpt lat="41.20352" lon="20.67263">
        <ele>732.511014</ele>
        <time>2022-04-27T12:47:19.731Z</time>
      </trkpt>
      <trkpt lat="41.20342" lon="20.67265">
        <ele>732.443945</ele>
        <time>2022-04-27T12:47:21.741Z</time>
      </trkpt>
      <trkpt lat="41.20332" lon="20.67267">
        <ele>732.376543</ele>
        <time>2022-04-27T12:47:23.751Z</time>
      </trkpt>
      <trkpt lat="41.20323" lon="20.67268">
        <ele>732.311066</ele>
        <time>2022-04-27T12:47:25.728Z</time>
      </trkpt>
      <trkpt lat="41.20313" lon="20.6727">
        <ele>732.241951</ele>
        <time>2022-04-27T12:47:27.732Z</time>
      </trkpt>
      <trkpt lat="41.20303" lon="20.67273">
        <ele>732.169863</ele>
        <time>2022-04-27T12:47:29.759Z</time>
      </trkpt>
      <trkpt lat="41.20293" lon="20.67275">
        <ele>732.099222</ele>
        <time>2022-04-27T12:47:31.732Z</time>
      </trkpt>
      <trkpt lat="41.20282" lon="20.67277">
        <ele>732.02553</ele>
        <time>2022-04-27T12:47:33.735Z</time>
      </trkpt>
      <trkpt lat="41.20271" lon="20.67279">
        <ele>731.950951</ele>
        <time>2022-04-27T12:47:35.764Z</time>
      </trkpt>
      <trkpt lat="41.20261" lon="20.6728">
        <ele>731.877943</ele>
        <time>2022-04-27T12:47:37.738Z</time>
      </trkpt>
      <trkpt lat="41.2025" lon="20.67282">
        <ele>731.806306</ele>
        <time>2022-04-27T12:47:39.737Z</time>
      </trkpt>
      <trkpt lat="41.2024" lon="20.67284">
        <ele>731.735143</ele>
        <time>2022-04-27T12:47:41.740Z</time>
      </trkpt>
      <trkpt lat="41.20231" lon="20.67287">
        <ele>731.667416</ele>
        <time>2022-04-27T12:47:43.737Z</time>
      </trkpt>
      <trkpt lat="41.20218" lon="20.67291">
        <ele>731.577611</ele>
        <time>2022-04-27T12:47:46.752Z</time>
      </trkpt>
      <trkpt lat="41.20206" lon="20.67298">
        <ele>731.422416</ele>
        <time>2022-04-27T12:47:49.732Z</time>
      </trkpt>
      <trkpt lat="41.20197" lon="20.67303">
        <ele>731.309553</ele>
        <time>2022-04-27T12:47:51.729Z</time>
      </trkpt>
      <trkpt lat="41.20188" lon="20.67308">
        <ele>731.190381</ele>
        <time>2022-04-27T12:47:53.740Z</time>
      </trkpt>
      <trkpt lat="41.20179" lon="20.67313">
        <ele>731.070864</ele>
        <time>2022-04-27T12:47:55.728Z</time>
      </trkpt>
      <trkpt lat="41.2017" lon="20.67318">
        <ele>730.945092</ele>
        <time>2022-04-27T12:47:57.751Z</time>
      </trkpt>
      <trkpt lat="41.2016" lon="20.67324">
        <ele>730.817843</ele>
        <time>2022-04-27T12:47:59.738Z</time>
      </trkpt>
      <trkpt lat="41.2015" lon="20.6733">
        <ele>730.689849</ele>
        <time>2022-04-27T12:48:01.733Z</time>
      </trkpt>
      <trkpt lat="41.20141" lon="20.67335">
        <ele>730.562204</ele>
        <time>2022-04-27T12:48:03.753Z</time>
      </trkpt>
      <trkpt lat="41.20131" lon="20.6734">
        <ele>730.434909</ele>
        <time>2022-04-27T12:48:05.733Z</time>
      </trkpt>
      <trkpt lat="41.20121" lon="20.67346">
        <ele>730.305704</ele>
        <time>2022-04-27T12:48:07.727Z</time>
      </trkpt>
      <trkpt lat="41.20111" lon="20.67351">
        <ele>730.17244</ele>
        <time>2022-04-27T12:48:09.732Z</time>
      </trkpt>
      <trkpt lat="41.20101" lon="20.67356">
        <ele>730.045145</ele>
        <time>2022-04-27T12:48:11.732Z</time>
      </trkpt>
      <trkpt lat="41.20091" lon="20.67361">
        <ele>729.918195</ele>
        <time>2022-04-27T12:48:13.730Z</time>
      </trkpt>
      <trkpt lat="41.20082" lon="20.67367">
        <ele>729.789429</ele>
        <time>2022-04-27T12:48:15.767Z</time>
      </trkpt>
      <trkpt lat="41.20072" lon="20.67372">
        <ele>729.661688</ele>
        <time>2022-04-27T12:48:17.737Z</time>
      </trkpt>
      <trkpt lat="41.20062" lon="20.67377">
        <ele>729.536985</ele>
        <time>2022-04-27T12:48:19.727Z</time>
      </trkpt>
      <trkpt lat="41.20052" lon="20.67382">
        <ele>729.409131</ele>
        <time>2022-04-27T12:48:21.738Z</time>
      </trkpt>
      <trkpt lat="41.20042" lon="20.67387">
        <ele>729.585079</ele>
        <time>2022-04-27T12:48:23.736Z</time>
      </trkpt>
      <trkpt lat="41.20033" lon="20.67392">
        <ele>729.825145</ele>
        <time>2022-04-27T12:48:25.741Z</time>
      </trkpt>
      <trkpt lat="41.20023" lon="20.67398">
        <ele>730.058346</ele>
        <time>2022-04-27T12:48:27.731Z</time>
      </trkpt>
      <trkpt lat="41.20013" lon="20.67403">
        <ele>730.291548</ele>
        <time>2022-04-27T12:48:29.734Z</time>
      </trkpt>
      <trkpt lat="41.20004" lon="20.67409">
        <ele>730.523332</ele>
        <time>2022-04-27T12:48:31.731Z</time>
      </trkpt>
      <trkpt lat="41.19995" lon="20.67415">
        <ele>730.755823</ele>
        <time>2022-04-27T12:48:33.730Z</time>
      </trkpt>
      <trkpt lat="41.19985" lon="20.6742">
        <ele>730.98628</ele>
        <time>2022-04-27T12:48:35.729Z</time>
      </trkpt>
      <trkpt lat="41.19976" lon="20.67426">
        <ele>731.213282</ele>
        <time>2022-04-27T12:48:37.756Z</time>
      </trkpt>
      <trkpt lat="41.19967" lon="20.67431">
        <ele>731.440953</ele>
        <time>2022-04-27T12:48:39.728Z</time>
      </trkpt>
      <trkpt lat="41.19958" lon="20.67436">
        <ele>731.659051</ele>
        <time>2022-04-27T12:48:41.726Z</time>
      </trkpt>
      <trkpt lat="41.19949" lon="20.67441">
        <ele>731.878537</ele>
        <time>2022-04-27T12:48:43.739Z</time>
      </trkpt>
      <trkpt lat="41.1994" lon="20.67446">
        <ele>732.099438</ele>
        <time>2022-04-27T12:48:45.727Z</time>
      </trkpt>
      <trkpt lat="41.1993" lon="20.67451">
        <ele>732.335538</ele>
        <time>2022-04-27T12:48:47.728Z</time>
      </trkpt>
      <trkpt lat="41.1992" lon="20.67457">
        <ele>732.580015</ele>
        <time>2022-04-27T12:48:49.736Z</time>
      </trkpt>
      <trkpt lat="41.1991" lon="20.67461">
        <ele>732.817006</ele>
        <time>2022-04-27T12:48:51.733Z</time>
      </trkpt>
      <trkpt lat="41.19901" lon="20.67466">
        <ele>733.027054</ele>
        <time>2022-04-27T12:48:53.737Z</time>
      </trkpt>
      <trkpt lat="41.1989" lon="20.67472">
        <ele>733.298487</ele>
        <time>2022-04-27T12:48:56.742Z</time>
      </trkpt>
      <trkpt lat="41.19879" lon="20.67478">
        <ele>733.499298</ele>
        <time>2022-04-27T12:48:59.756Z</time>
      </trkpt>
      <trkpt lat="41.19868" lon="20.67483">
        <ele>733.641125</ele>
        <time>2022-04-27T12:49:03.728Z</time>
      </trkpt>
      <trkpt lat="41.19859" lon="20.67488">
        <ele>733.763428</ele>
        <time>2022-04-27T12:49:06.728Z</time>
      </trkpt>
      <trkpt lat="41.19849" lon="20.67493">
        <ele>733.895643</ele>
        <time>2022-04-27T12:49:09.737Z</time>
      </trkpt>
      <trkpt lat="41.1984" lon="20.67499">
        <ele>734.024363</ele>
        <time>2022-04-27T12:49:12.730Z</time>
      </trkpt>
      <trkpt lat="41.1983" lon="20.67505">
        <ele>734.161391</ele>
        <time>2022-04-27T12:49:15.733Z</time>
      </trkpt>
      <trkpt lat="41.1982" lon="20.67511">
        <ele>734.300699</ele>
        <time>2022-04-27T12:49:18.738Z</time>
      </trkpt>
      <trkpt lat="41.19808" lon="20.67519">
        <ele>734.462037</ele>
        <time>2022-04-27T12:49:21.737Z</time>
      </trkpt>
      <trkpt lat="41.19799" lon="20.67525">
        <ele>734.581834</ele>
        <time>2022-04-27T12:49:23.761Z</time>
      </trkpt>
      <trkpt lat="41.19791" lon="20.67532">
        <ele>734.705452</ele>
        <time>2022-04-27T12:49:25.733Z</time>
      </trkpt>
      <trkpt lat="41.19781" lon="20.67543">
        <ele>734.862442</ele>
        <time>2022-04-27T12:49:28.732Z</time>
      </trkpt>
      <trkpt lat="41.19771" lon="20.67552">
        <ele>735.009375</ele>
        <time>2022-04-27T12:49:31.732Z</time>
      </trkpt>
      <trkpt lat="41.19762" lon="20.6756">
        <ele>735.149705</ele>
        <time>2022-04-27T12:49:34.760Z</time>
      </trkpt>
      <trkpt lat="41.19753" lon="20.6757">
        <ele>735.290323</ele>
        <time>2022-04-27T12:49:37.728Z</time>
      </trkpt>
      <trkpt lat="41.19743" lon="20.67578">
        <ele>735.443024</ele>
        <time>2022-04-27T12:49:40.735Z</time>
      </trkpt>
      <trkpt lat="41.19731" lon="20.67588">
        <ele>735.611655</ele>
        <time>2022-04-27T12:49:43.730Z</time>
      </trkpt>
      <trkpt lat="41.19725" lon="20.67597">
        <ele>735.539893</ele>
        <time>2022-04-27T12:49:45.729Z</time>
      </trkpt>
      <trkpt lat="41.19719" lon="20.67606">
        <ele>735.360292</ele>
        <time>2022-04-27T12:49:47.737Z</time>
      </trkpt>
      <trkpt lat="41.19712" lon="20.67614">
        <ele>735.177831</ele>
        <time>2022-04-27T12:49:49.733Z</time>
      </trkpt>
      <trkpt lat="41.19701" lon="20.67625">
        <ele>734.912473</ele>
        <time>2022-04-27T12:49:52.755Z</time>
      </trkpt>
      <trkpt lat="41.19689" lon="20.67633">
        <ele>734.653041</ele>
        <time>2022-04-27T12:49:55.735Z</time>
      </trkpt>
      <trkpt lat="41.19681" lon="20.67638">
        <ele>734.474984</ele>
        <time>2022-04-27T12:49:57.738Z</time>
      </trkpt>
      <trkpt lat="41.19672" lon="20.67643">
        <ele>734.290126</ele>
        <time>2022-04-27T12:49:59.731Z</time>
      </trkpt>
      <trkpt lat="41.19663" lon="20.67646">
        <ele>734.106279</ele>
        <time>2022-04-27T12:50:01.732Z</time>
      </trkpt>
      <trkpt lat="41.19654" lon="20.67649">
        <ele>733.924365</ele>
        <time>2022-04-27T12:50:03.738Z</time>
      </trkpt>
      <trkpt lat="41.19645" lon="20.67652">
        <ele>733.743796</ele>
        <time>2022-04-27T12:50:05.733Z</time>
      </trkpt>
      <trkpt lat="41.19636" lon="20.67654">
        <ele>733.55667</ele>
        <time>2022-04-27T12:50:07.727Z</time>
      </trkpt>
      <trkpt lat="41.19627" lon="20.67655">
        <ele>733.379018</ele>
        <time>2022-04-27T12:50:09.726Z</time>
      </trkpt>
      <trkpt lat="41.19618" lon="20.67657">
        <ele>733.199242</ele>
        <time>2022-04-27T12:50:11.734Z</time>
      </trkpt>
      <trkpt lat="41.19604" lon="20.67658">
        <ele>732.937986</ele>
        <time>2022-04-27T12:50:14.737Z</time>
      </trkpt>
      <trkpt lat="41.19591" lon="20.6766">
        <ele>732.681737</ele>
        <time>2022-04-27T12:50:17.734Z</time>
      </trkpt>
      <trkpt lat="41.19579" lon="20.67661">
        <ele>732.432395</ele>
        <time>2022-04-27T12:50:20.737Z</time>
      </trkpt>
      <trkpt lat="41.1957" lon="20.67661">
        <ele>732.255725</ele>
        <time>2022-04-27T12:50:22.737Z</time>
      </trkpt>
      <trkpt lat="41.19556" lon="20.67663">
        <ele>732.198954</ele>
        <time>2022-04-27T12:50:25.728Z</time>
      </trkpt>
      <trkpt lat="41.19543" lon="20.67664">
        <ele>732.330497</ele>
        <time>2022-04-27T12:50:28.733Z</time>
      </trkpt>
      <trkpt lat="41.19533" lon="20.67666">
        <ele>732.426367</ele>
        <time>2022-04-27T12:50:30.764Z</time>
      </trkpt>
      <trkpt lat="41.19523" lon="20.67667">
        <ele>732.523202</ele>
        <time>2022-04-27T12:50:32.736Z</time>
      </trkpt>
      <trkpt lat="41.19513" lon="20.67669">
        <ele>732.62085</ele>
        <time>2022-04-27T12:50:34.738Z</time>
      </trkpt>
      <trkpt lat="41.19503" lon="20.6767">
        <ele>732.719538</ele>
        <time>2022-04-27T12:50:36.735Z</time>
      </trkpt>
      <trkpt lat="41.19493" lon="20.67671">
        <ele>732.813247</ele>
        <time>2022-04-27T12:50:38.765Z</time>
      </trkpt>
      <trkpt lat="41.19483" lon="20.67672">
        <ele>732.907923</ele>
        <time>2022-04-27T12:50:40.743Z</time>
      </trkpt>
      <trkpt lat="41.19473" lon="20.67673">
        <ele>733.006299</ele>
        <time>2022-04-27T12:50:42.732Z</time>
      </trkpt>
      <trkpt lat="41.19463" lon="20.67674">
        <ele>733.103815</ele>
        <time>2022-04-27T12:50:44.732Z</time>
      </trkpt>
      <trkpt lat="41.19454" lon="20.67676">
        <ele>733.198492</ele>
        <time>2022-04-27T12:50:46.759Z</time>
      </trkpt>
      <trkpt lat="41.19444" lon="20.67677">
        <ele>733.294071</ele>
        <time>2022-04-27T12:50:48.742Z</time>
      </trkpt>
      <trkpt lat="41.19434" lon="20.67678">
        <ele>733.389941</ele>
        <time>2022-04-27T12:50:50.735Z</time>
      </trkpt>
      <trkpt lat="41.19424" lon="20.67679">
        <ele>733.484688</ele>
        <time>2022-04-27T12:50:52.764Z</time>
      </trkpt>
      <trkpt lat="41.19414" lon="20.67681">
        <ele>733.581236</ele>
        <time>2022-04-27T12:50:54.730Z</time>
      </trkpt>
      <trkpt lat="41.19405" lon="20.67682">
        <ele>733.677916</ele>
        <time>2022-04-27T12:50:56.731Z</time>
      </trkpt>
      <trkpt lat="41.19395" lon="20.67683">
        <ele>733.772527</ele>
        <time>2022-04-27T12:50:58.739Z</time>
      </trkpt>
      <trkpt lat="41.19386" lon="20.67684">
        <ele>733.861267</ele>
        <time>2022-04-27T12:51:00.733Z</time>
      </trkpt>
      <trkpt lat="41.19372" lon="20.67685">
        <ele>733.963848</ele>
        <time>2022-04-27T12:51:03.756Z</time>
      </trkpt>
      <trkpt lat="41.19359" lon="20.67685">
        <ele>734.063315</ele>
        <time>2022-04-27T12:51:06.734Z</time>
      </trkpt>
      <trkpt lat="41.1935" lon="20.67685">
        <ele>734.131828</ele>
        <time>2022-04-27T12:51:08.727Z</time>
      </trkpt>
      <trkpt lat="41.1934" lon="20.67684">
        <ele>734.201156</ele>
        <time>2022-04-27T12:51:10.733Z</time>
      </trkpt>
      <trkpt lat="41.19331" lon="20.67683">
        <ele>734.270585</ele>
        <time>2022-04-27T12:51:12.733Z</time>
      </trkpt>
      <trkpt lat="41.19322" lon="20.67682">
        <ele>734.337167</ele>
        <time>2022-04-27T12:51:14.735Z</time>
      </trkpt>
      <trkpt lat="41.19308" lon="20.67681">
        <ele>734.436233</ele>
        <time>2022-04-27T12:51:17.726Z</time>
      </trkpt>
      <trkpt lat="41.19295" lon="20.67679">
        <ele>734.533313</ele>
        <time>2022-04-27T12:51:20.732Z</time>
      </trkpt>
      <trkpt lat="41.19282" lon="20.67677">
        <ele>734.632714</ele>
        <time>2022-04-27T12:51:23.735Z</time>
      </trkpt>
      <trkpt lat="41.19273" lon="20.67675">
        <ele>734.700872</ele>
        <time>2022-04-27T12:51:25.732Z</time>
      </trkpt>
      <trkpt lat="41.19263" lon="20.67674">
        <ele>734.769225</ele>
        <time>2022-04-27T12:51:27.731Z</time>
      </trkpt>
      <trkpt lat="41.19254" lon="20.67672">
        <ele>734.836778</ele>
        <time>2022-04-27T12:51:29.734Z</time>
      </trkpt>
      <trkpt lat="41.19245" lon="20.67671">
        <ele>734.9036</ele>
        <time>2022-04-27T12:51:31.729Z</time>
      </trkpt>
      <trkpt lat="41.19236" lon="20.6767">
        <ele>734.971025</ele>
        <time>2022-04-27T12:51:33.735Z</time>
      </trkpt>
      <trkpt lat="41.19227" lon="20.67668">
        <ele>735.039859</ele>
        <time>2022-04-27T12:51:35.733Z</time>
      </trkpt>
      <trkpt lat="41.19218" lon="20.67667">
        <ele>735.107285</ele>
        <time>2022-04-27T12:51:37.729Z</time>
      </trkpt>
      <trkpt lat="41.19209" lon="20.67666">
        <ele>735.17404</ele>
        <time>2022-04-27T12:51:39.735Z</time>
      </trkpt>
      <trkpt lat="41.19196" lon="20.67664">
        <ele>735.161932</ele>
        <time>2022-04-27T12:51:42.740Z</time>
      </trkpt>
      <trkpt lat="41.19183" lon="20.67661">
        <ele>735.106418</ele>
        <time>2022-04-27T12:51:45.738Z</time>
      </trkpt>
      <trkpt lat="41.1917" lon="20.67659">
        <ele>735.051751</ele>
        <time>2022-04-27T12:51:48.737Z</time>
      </trkpt>
      <trkpt lat="41.19157" lon="20.67658">
        <ele>734.997195</ele>
        <time>2022-04-27T12:51:51.733Z</time>
      </trkpt>
      <trkpt lat="41.19144" lon="20.67656">
        <ele>734.940446</ele>
        <time>2022-04-27T12:51:54.729Z</time>
      </trkpt>
      <trkpt lat="41.19131" lon="20.67653">
        <ele>734.883659</ele>
        <time>2022-04-27T12:51:57.728Z</time>
      </trkpt>
      <trkpt lat="41.19118" lon="20.67651">
        <ele>734.82691</ele>
        <time>2022-04-27T12:52:00.742Z</time>
      </trkpt>
      <trkpt lat="41.19105" lon="20.67649">
        <ele>734.770547</ele>
        <time>2022-04-27T12:52:03.763Z</time>
      </trkpt>
      <trkpt lat="41.19091" lon="20.67647">
        <ele>734.713215</ele>
        <time>2022-04-27T12:52:06.751Z</time>
      </trkpt>
      <trkpt lat="41.19082" lon="20.67646">
        <ele>734.67366</ele>
        <time>2022-04-27T12:52:08.736Z</time>
      </trkpt>
      <trkpt lat="41.19073" lon="20.67644">
        <ele>734.63368</ele>
        <time>2022-04-27T12:52:10.748Z</time>
      </trkpt>
      <trkpt lat="41.19064" lon="20.67643">
        <ele>734.593736</ele>
        <time>2022-04-27T12:52:12.741Z</time>
      </trkpt>
      <trkpt lat="41.19055" lon="20.67641">
        <ele>734.55503</ele>
        <time>2022-04-27T12:52:14.763Z</time>
      </trkpt>
      <trkpt lat="41.19046" lon="20.6764">
        <ele>734.516667</ele>
        <time>2022-04-27T12:52:16.727Z</time>
      </trkpt>
      <trkpt lat="41.19032" lon="20.67638">
        <ele>734.459417</ele>
        <time>2022-04-27T12:52:19.739Z</time>
      </trkpt>
      <trkpt lat="41.19024" lon="20.67636">
        <ele>734.456375</ele>
        <time>2022-04-27T12:52:21.743Z</time>
      </trkpt>
      <trkpt lat="41.1901" lon="20.67634">
        <ele>734.556721</ele>
        <time>2022-04-27T12:52:24.736Z</time>
      </trkpt>
      <trkpt lat="41.18997" lon="20.67632">
        <ele>734.659961</ele>
        <time>2022-04-27T12:52:27.727Z</time>
      </trkpt>
      <trkpt lat="41.18987" lon="20.67631">
        <ele>734.73259</ele>
        <time>2022-04-27T12:52:29.727Z</time>
      </trkpt>
      <trkpt lat="41.18978" lon="20.67629">
        <ele>734.803834</ele>
        <time>2022-04-27T12:52:31.742Z</time>
      </trkpt>
      <trkpt lat="41.18968" lon="20.67628">
        <ele>734.87792</ele>
        <time>2022-04-27T12:52:33.734Z</time>
      </trkpt>
      <trkpt lat="41.18959" lon="20.67627">
        <ele>734.948168</ele>
        <time>2022-04-27T12:52:35.730Z</time>
      </trkpt>
      <trkpt lat="41.18946" lon="20.67625">
        <ele>735.048211</ele>
        <time>2022-04-27T12:52:38.745Z</time>
      </trkpt>
      <trkpt lat="41.18934" lon="20.67623">
        <ele>735.141615</ele>
        <time>2022-04-27T12:52:41.752Z</time>
      </trkpt>
      <trkpt lat="41.18921" lon="20.6762">
        <ele>735.243688</ele>
        <time>2022-04-27T12:52:44.739Z</time>
      </trkpt>
      <trkpt lat="41.18908" lon="20.67618">
        <ele>735.343581</ele>
        <time>2022-04-27T12:52:47.729Z</time>
      </trkpt>
      <trkpt lat="41.18895" lon="20.67615">
        <ele>735.442426</ele>
        <time>2022-04-27T12:52:50.746Z</time>
      </trkpt>
      <trkpt lat="41.18882" lon="20.67612">
        <ele>735.544578</ele>
        <time>2022-04-27T12:52:53.734Z</time>
      </trkpt>
      <trkpt lat="41.18872" lon="20.67611">
        <ele>735.615756</ele>
        <time>2022-04-27T12:52:55.733Z</time>
      </trkpt>
      <trkpt lat="41.18863" lon="20.6761">
        <ele>735.683731</ele>
        <time>2022-04-27T12:52:57.728Z</time>
      </trkpt>
      <trkpt lat="41.1885" lon="20.67607">
        <ele>735.785656</ele>
        <time>2022-04-27T12:53:00.733Z</time>
      </trkpt>
      <trkpt lat="41.18837" lon="20.67606">
        <ele>736.015762</ele>
        <time>2022-04-27T12:53:03.753Z</time>
      </trkpt>
      <trkpt lat="41.18828" lon="20.67604">
        <ele>736.19343</ele>
        <time>2022-04-27T12:53:05.740Z</time>
      </trkpt>
      <trkpt lat="41.18818" lon="20.67603">
        <ele>736.367649</ele>
        <time>2022-04-27T12:53:07.741Z</time>
      </trkpt>
      <trkpt lat="41.18809" lon="20.67601">
        <ele>736.541698</ele>
        <time>2022-04-27T12:53:09.749Z</time>
      </trkpt>
      <trkpt lat="41.18796" lon="20.67599">
        <ele>736.79428</ele>
        <time>2022-04-27T12:53:12.744Z</time>
      </trkpt>
      <trkpt lat="41.18783" lon="20.67597">
        <ele>737.050806</ele>
        <time>2022-04-27T12:53:15.728Z</time>
      </trkpt>
      <trkpt lat="41.18769" lon="20.67595">
        <ele>737.308886</ele>
        <time>2022-04-27T12:53:18.735Z</time>
      </trkpt>
      <trkpt lat="41.1876" lon="20.67594">
        <ele>737.488939</ele>
        <time>2022-04-27T12:53:20.754Z</time>
      </trkpt>
      <trkpt lat="41.18747" lon="20.67592">
        <ele>737.737419</ele>
        <time>2022-04-27T12:53:23.734Z</time>
      </trkpt>
      <trkpt lat="41.18734" lon="20.6759">
        <ele>737.988115</ele>
        <time>2022-04-27T12:53:26.736Z</time>
      </trkpt>
      <trkpt lat="41.18721" lon="20.67587">
        <ele>738.235038</ele>
        <time>2022-04-27T12:53:29.731Z</time>
      </trkpt>
      <trkpt lat="41.18709" lon="20.67586">
        <ele>738.464478</ele>
        <time>2022-04-27T12:53:32.745Z</time>
      </trkpt>
      <trkpt lat="41.18697" lon="20.67584">
        <ele>738.691872</ele>
        <time>2022-04-27T12:53:35.738Z</time>
      </trkpt>
      <trkpt lat="41.18688" lon="20.67582">
        <ele>738.868348</ele>
        <time>2022-04-27T12:53:37.732Z</time>
      </trkpt>
      <trkpt lat="41.18678" lon="20.6758">
        <ele>739.05443</ele>
        <time>2022-04-27T12:53:39.731Z</time>
      </trkpt>
      <trkpt lat="41.18665" lon="20.67578">
        <ele>739.206131</ele>
        <time>2022-04-27T12:53:42.757Z</time>
      </trkpt>
      <trkpt lat="41.18653" lon="20.67575">
        <ele>739.167337</ele>
        <time>2022-04-27T12:53:45.736Z</time>
      </trkpt>
      <trkpt lat="41.1864" lon="20.67573">
        <ele>739.129375</ele>
        <time>2022-04-27T12:53:48.763Z</time>
      </trkpt>
      <trkpt lat="41.18627" lon="20.6757">
        <ele>739.087957</ele>
        <time>2022-04-27T12:53:51.729Z</time>
      </trkpt>
      <trkpt lat="41.18617" lon="20.67569">
        <ele>739.05827</ele>
        <time>2022-04-27T12:53:53.732Z</time>
      </trkpt>
      <trkpt lat="41.18608" lon="20.67568">
        <ele>739.028582</ele>
        <time>2022-04-27T12:53:55.733Z</time>
      </trkpt>
      <trkpt lat="41.18594" lon="20.67566">
        <ele>738.988072</ele>
        <time>2022-04-27T12:53:58.736Z</time>
      </trkpt>
      <trkpt lat="41.18581" lon="20.67564">
        <ele>738.947616</ele>
        <time>2022-04-27T12:54:01.733Z</time>
      </trkpt>
      <trkpt lat="41.18572" lon="20.67562">
        <ele>738.920072</ele>
        <time>2022-04-27T12:54:03.739Z</time>
      </trkpt>
      <trkpt lat="41.18559" lon="20.6756">
        <ele>738.881129</ele>
        <time>2022-04-27T12:54:06.733Z</time>
      </trkpt>
      <trkpt lat="41.1855" lon="20.67559">
        <ele>738.852676</ele>
        <time>2022-04-27T12:54:08.735Z</time>
      </trkpt>
      <trkpt lat="41.18541" lon="20.67558">
        <ele>738.824148</ele>
        <time>2022-04-27T12:54:10.751Z</time>
      </trkpt>
      <trkpt lat="41.18531" lon="20.67556">
        <ele>738.795042</ele>
        <time>2022-04-27T12:54:12.730Z</time>
      </trkpt>
      <trkpt lat="41.18522" lon="20.67555">
        <ele>738.766893</ele>
        <time>2022-04-27T12:54:14.735Z</time>
      </trkpt>
      <trkpt lat="41.18513" lon="20.67554">
        <ele>738.737834</ele>
        <time>2022-04-27T12:54:16.730Z</time>
      </trkpt>
      <trkpt lat="41.18503" lon="20.67553">
        <ele>738.709759</ele>
        <time>2022-04-27T12:54:18.751Z</time>
      </trkpt>
      <trkpt lat="41.1849" lon="20.67552">
        <ele>738.674047</ele>
        <time>2022-04-27T12:54:21.748Z</time>
      </trkpt>
      <trkpt lat="41.18477" lon="20.6755">
        <ele>738.723126</ele>
        <time>2022-04-27T12:54:24.730Z</time>
      </trkpt>
      <trkpt lat="41.18464" lon="20.67549">
        <ele>738.769186</ele>
        <time>2022-04-27T12:54:27.730Z</time>
      </trkpt>
      <trkpt lat="41.18453" lon="20.67548">
        <ele>738.813377</ele>
        <time>2022-04-27T12:54:30.733Z</time>
      </trkpt>
      <trkpt lat="41.1844" lon="20.67547">
        <ele>738.858644</ele>
        <time>2022-04-27T12:54:33.728Z</time>
      </trkpt>
      <trkpt lat="41.1843" lon="20.67545">
        <ele>738.897749</ele>
        <time>2022-04-27T12:54:36.752Z</time>
      </trkpt>
      <trkpt lat="41.18418" lon="20.67539">
        <ele>738.944263</ele>
        <time>2022-04-27T12:54:39.737Z</time>
      </trkpt>
      <trkpt lat="41.18409" lon="20.67534">
        <ele>738.97964</ele>
        <time>2022-04-27T12:54:41.736Z</time>
      </trkpt>
      <trkpt lat="41.18398" lon="20.67537">
        <ele>739.02305</ele>
        <time>2022-04-27T12:54:44.779Z</time>
      </trkpt>
      <trkpt lat="41.18387" lon="20.67547">
        <ele>739.073719</ele>
        <time>2022-04-27T12:54:47.734Z</time>
      </trkpt>
      <trkpt lat="41.18378" lon="20.67552">
        <ele>739.107514</ele>
        <time>2022-04-27T12:54:49.751Z</time>
      </trkpt>
      <trkpt lat="41.18366" lon="20.67553">
        <ele>739.153963</ele>
        <time>2022-04-27T12:54:52.729Z</time>
      </trkpt>
      <trkpt lat="41.18353" lon="20.67556">
        <ele>739.200925</ele>
        <time>2022-04-27T12:54:55.813Z</time>
      </trkpt>
      <trkpt lat="41.18341" lon="20.67559">
        <ele>739.248347</ele>
        <time>2022-04-27T12:54:58.725Z</time>
      </trkpt>
      <trkpt lat="41.18328" lon="20.67562">
        <ele>739.294585</ele>
        <time>2022-04-27T12:55:01.735Z</time>
      </trkpt>
      <trkpt lat="41.18319" lon="20.67565">
        <ele>739.329532</ele>
        <time>2022-04-27T12:55:03.734Z</time>
      </trkpt>
      <trkpt lat="41.1831" lon="20.67567">
        <ele>739.480906</ele>
        <time>2022-04-27T12:55:05.748Z</time>
      </trkpt>
      <trkpt lat="41.183" lon="20.67569">
        <ele>739.678471</ele>
        <time>2022-04-27T12:55:07.739Z</time>
      </trkpt>
      <trkpt lat="41.1829" lon="20.67571">
        <ele>739.877982</ele>
        <time>2022-04-27T12:55:09.733Z</time>
      </trkpt>
      <trkpt lat="41.1828" lon="20.67573">
        <ele>740.070791</ele>
        <time>2022-04-27T12:55:11.752Z</time>
      </trkpt>
      <trkpt lat="41.18271" lon="20.67574">
        <ele>740.251001</ele>
        <time>2022-04-27T12:55:13.734Z</time>
      </trkpt>
      <trkpt lat="41.18262" lon="20.67575">
        <ele>740.439361</ele>
        <time>2022-04-27T12:55:15.738Z</time>
      </trkpt>
      <trkpt lat="41.18251" lon="20.67577">
        <ele>740.641942</ele>
        <time>2022-04-27T12:55:17.741Z</time>
      </trkpt>
      <trkpt lat="41.18241" lon="20.67579">
        <ele>740.848622</ele>
        <time>2022-04-27T12:55:19.727Z</time>
      </trkpt>
      <trkpt lat="41.18232" lon="20.67581">
        <ele>741.033383</ele>
        <time>2022-04-27T12:55:21.738Z</time>
      </trkpt>
      <trkpt lat="41.18222" lon="20.67583">
        <ele>741.222704</ele>
        <time>2022-04-27T12:55:23.727Z</time>
      </trkpt>
      <trkpt lat="41.18213" lon="20.67585">
        <ele>741.406916</ele>
        <time>2022-04-27T12:55:25.735Z</time>
      </trkpt>
      <trkpt lat="41.18204" lon="20.67587">
        <ele>741.588446</ele>
        <time>2022-04-27T12:55:27.734Z</time>
      </trkpt>
      <trkpt lat="41.18195" lon="20.67589">
        <ele>741.771106</ele>
        <time>2022-04-27T12:55:29.733Z</time>
      </trkpt>
      <trkpt lat="41.18186" lon="20.6759">
        <ele>741.954583</ele>
        <time>2022-04-27T12:55:31.733Z</time>
      </trkpt>
      <trkpt lat="41.18173" lon="20.67592">
        <ele>742.206437</ele>
        <time>2022-04-27T12:55:34.733Z</time>
      </trkpt>
      <trkpt lat="41.1816" lon="20.67595">
        <ele>742.461611</ele>
        <time>2022-04-27T12:55:37.735Z</time>
      </trkpt>
      <trkpt lat="41.18148" lon="20.67598">
        <ele>742.710943</ele>
        <time>2022-04-27T12:55:40.728Z</time>
      </trkpt>
      <trkpt lat="41.18135" lon="20.67601">
        <ele>743.146777</ele>
        <time>2022-04-27T12:55:43.745Z</time>
      </trkpt>
      <trkpt lat="41.18124" lon="20.67603">
        <ele>743.905341</ele>
        <time>2022-04-27T12:55:46.732Z</time>
      </trkpt>
      <trkpt lat="41.18112" lon="20.67605">
        <ele>744.685252</ele>
        <time>2022-04-27T12:55:49.727Z</time>
      </trkpt>
      <trkpt lat="41.181" lon="20.67605">
        <ele>745.428176</ele>
        <time>2022-04-27T12:55:52.728Z</time>
      </trkpt>
      <trkpt lat="41.18088" lon="20.67607">
        <ele>746.256944</ele>
        <time>2022-04-27T12:55:55.732Z</time>
      </trkpt>
      <trkpt lat="41.18076" lon="20.6761">
        <ele>747.020628</ele>
        <time>2022-04-27T12:55:58.725Z</time>
      </trkpt>
      <trkpt lat="41.18064" lon="20.67614">
        <ele>747.802122</ele>
        <time>2022-04-27T12:56:01.733Z</time>
      </trkpt>
      <trkpt lat="41.18052" lon="20.67617">
        <ele>748.628986</ele>
        <time>2022-04-27T12:56:04.735Z</time>
      </trkpt>
      <trkpt lat="41.18038" lon="20.67617">
        <ele>749.534873</ele>
        <time>2022-04-27T12:56:07.736Z</time>
      </trkpt>
      <trkpt lat="41.18028" lon="20.67619">
        <ele>750.175291</ele>
        <time>2022-04-27T12:56:09.732Z</time>
      </trkpt>
      <trkpt lat="41.18015" lon="20.67621">
        <ele>751.059413</ele>
        <time>2022-04-27T12:56:12.749Z</time>
      </trkpt>
      <trkpt lat="41.18001" lon="20.67621">
        <ele>751.972026</ele>
        <time>2022-04-27T12:56:15.737Z</time>
      </trkpt>
      <trkpt lat="41.17988" lon="20.67621">
        <ele>752.839584</ele>
        <time>2022-04-27T12:56:18.754Z</time>
      </trkpt>
      <trkpt lat="41.17975" lon="20.67624">
        <ele>753.667305</ele>
        <time>2022-04-27T12:56:21.744Z</time>
      </trkpt>
      <trkpt lat="41.17965" lon="20.67629">
        <ele>754.361473</ele>
        <time>2022-04-27T12:56:25.734Z</time>
      </trkpt>
      <trkpt lat="41.17954" lon="20.67631">
        <ele>754.765807</ele>
        <time>2022-04-27T12:56:28.729Z</time>
      </trkpt>
      <trkpt lat="41.17942" lon="20.67631">
        <ele>755.011884</ele>
        <time>2022-04-27T12:56:31.732Z</time>
      </trkpt>
      <trkpt lat="41.17932" lon="20.67633">
        <ele>755.20781</ele>
        <time>2022-04-27T12:56:33.735Z</time>
      </trkpt>
      <trkpt lat="41.17919" lon="20.67632">
        <ele>755.480981</ele>
        <time>2022-04-27T12:56:36.730Z</time>
      </trkpt>
      <trkpt lat="41.17909" lon="20.67632">
        <ele>755.691632</ele>
        <time>2022-04-27T12:56:38.725Z</time>
      </trkpt>
      <trkpt lat="41.17898" lon="20.67632">
        <ele>755.925142</ele>
        <time>2022-04-27T12:56:40.733Z</time>
      </trkpt>
      <trkpt lat="41.17888" lon="20.6763">
        <ele>756.138025</ele>
        <time>2022-04-27T12:56:42.734Z</time>
      </trkpt>
      <trkpt lat="41.17876" lon="20.67627">
        <ele>756.395856</ele>
        <time>2022-04-27T12:56:45.732Z</time>
      </trkpt>
      <trkpt lat="41.17863" lon="20.67624">
        <ele>756.663507</ele>
        <time>2022-04-27T12:56:48.732Z</time>
      </trkpt>
      <trkpt lat="41.17853" lon="20.67621">
        <ele>756.890473</ele>
        <time>2022-04-27T12:56:51.740Z</time>
      </trkpt>
      <trkpt lat="41.17842" lon="20.67617">
        <ele>757.124208</ele>
        <time>2022-04-27T12:56:54.728Z</time>
      </trkpt>
      <trkpt lat="41.1783" lon="20.67614">
        <ele>757.364439</ele>
        <time>2022-04-27T12:56:57.734Z</time>
      </trkpt>
      <trkpt lat="41.17819" lon="20.67612">
        <ele>757.594664</ele>
        <time>2022-04-27T12:57:00.729Z</time>
      </trkpt>
      <trkpt lat="41.17809" lon="20.6761">
        <ele>757.807547</ele>
        <time>2022-04-27T12:57:03.725Z</time>
      </trkpt>
      <trkpt lat="41.17798" lon="20.6761">
        <ele>758.043455</ele>
        <time>2022-04-27T12:57:07.738Z</time>
      </trkpt>
      <trkpt lat="41.17789" lon="20.67607">
        <ele>758.238186</ele>
        <time>2022-04-27T12:57:11.733Z</time>
      </trkpt>
      <trkpt lat="41.17778" lon="20.67606">
        <ele>758.352226</ele>
        <time>2022-04-27T12:57:16.735Z</time>
      </trkpt>
      <trkpt lat="41.17767" lon="20.67605">
        <ele>758.352226</ele>
        <time>2022-04-27T12:57:21.733Z</time>
      </trkpt>
      <trkpt lat="41.17757" lon="20.67604">
        <ele>758.352226</ele>
        <time>2022-04-27T12:57:24.737Z</time>
      </trkpt>
      <trkpt lat="41.17745" lon="20.67606">
        <ele>758.352226</ele>
        <time>2022-04-27T12:57:27.734Z</time>
      </trkpt>
      <trkpt lat="41.17736" lon="20.67608">
        <ele>758.352226</ele>
        <time>2022-04-27T12:57:29.746Z</time>
      </trkpt>
      <trkpt lat="41.17727" lon="20.67608">
        <ele>758.352226</ele>
        <time>2022-04-27T12:57:31.752Z</time>
      </trkpt>
      <trkpt lat="41.17716" lon="20.6761">
        <ele>758.352226</ele>
        <time>2022-04-27T12:57:33.728Z</time>
      </trkpt>
      <trkpt lat="41.17706" lon="20.67612">
        <ele>758.352226</ele>
        <time>2022-04-27T12:57:35.736Z</time>
      </trkpt>
      <trkpt lat="41.17696" lon="20.67615">
        <ele>758.352226</ele>
        <time>2022-04-27T12:57:37.737Z</time>
      </trkpt>
      <trkpt lat="41.17685" lon="20.67616">
        <ele>758.352226</ele>
        <time>2022-04-27T12:57:40.733Z</time>
      </trkpt>
      <trkpt lat="41.17676" lon="20.67616">
        <ele>758.352226</ele>
        <time>2022-04-27T12:57:43.732Z</time>
      </trkpt>
      <trkpt lat="41.17665" lon="20.67617">
        <ele>758.352226</ele>
        <time>2022-04-27T12:57:46.726Z</time>
      </trkpt>
      <trkpt lat="41.17656" lon="20.67616">
        <ele>758.352226</ele>
        <time>2022-04-27T12:57:49.733Z</time>
      </trkpt>
      <trkpt lat="41.17644" lon="20.67615">
        <ele>758.352226</ele>
        <time>2022-04-27T12:57:53.758Z</time>
      </trkpt>
      <trkpt lat="41.17634" lon="20.67616">
        <ele>758.352226</ele>
        <time>2022-04-27T12:57:57.731Z</time>
      </trkpt>
      <trkpt lat="41.17626" lon="20.67621">
        <ele>758.352226</ele>
        <time>2022-04-27T12:59:11.107Z</time>
      </trkpt>
    </trkseg>
  </trk>
</gpx>